# Wetter Temperatur Luftdruck Luftfeuchtigkeit Sichtweite Windgeschwindigkeit Windrichtung Zeit
1 Clouds 5 978 75 10000 8.2 230 01:48 05.04.2020
2 Clouds 5 978 75 10000 8.2 230 01:30 05.04.2020
3 Rain 5 978 75 10000 7.7 230 00:46 05.04.2020
4 Rain 5 978 75 10000 7.7 230 00:22 05.04.2020
5 Clouds 5 978 86 10000 5.1 230 23:56 04.04.2020
6 Clouds 5 978 86 10000 5.1 230 23:37 04.04.2020
7 Clouds 5 978 86 10000 5.1 230 23:19 04.04.2020
8 Clouds 5 978 86 10000 7.2 230 22:41 04.04.2020
9 Clouds 6 978 86 10000 7.2 230 22:22 04.04.2020
10 Clouds 6 977 86 10000 6.2 230 21:59 04.04.2020
11 Clouds 6 977 86 10000 6.2 230 21:40 04.04.2020
12 Clouds 6 977 86 10000 6.2 230 21:20 04.04.2020
13 Clouds 6 977 86 10000 6.2 230 21:20 04.04.2020
14 Clouds 7 978 81 10000 7.7 230 20:59 04.04.2020
15 Clouds 7 978 81 10000 7.7 230 20:41 04.04.2020
16 Clouds 7 978 81 10000 7.7 230 20:22 04.04.2020
17 Clouds 7 978 75 10000 9.3 220 19:57 04.04.2020
18 Clouds 7 978 75 10000 9.3 220 19:37 04.04.2020
19 Clouds 7 978 75 10000 7.7 230 19:19 04.04.2020
20 Clouds 6 979 81 10000 6.2 230 18:56 04.04.2020
21 Clouds 6 979 81 10000 6.2 230 18:38 04.04.2020
22 Clouds 6 979 81 10000 6.2 230 18:19 04.04.2020
23 Rain 6 979 75 10000 7.7 230 17:56 04.04.2020
24 Rain 6 979 75 10000 7.7 230 17:38 04.04.2020
25 Rain 6 979 75 10000 7.7 230 17:38 04.04.2020
26 Rain 6 979 75 10000 7.7 230 17:38 04.04.2020
27 Rain 6 979 75 10000 7.7 230 17:18 04.04.2020
28 Rain 6 979 75 10000 7.7 200 16:42 04.04.2020
29 Rain 6 979 75 10000 7.7 200 16:22 04.04.2020
30 Rain 6 979 60 10000 2.6 90 15:56 04.04.2020
31 Rain 6 979 60 10000 2.6 90 15:38 04.04.2020
32 Rain 6 979 60 10000 2.6 90 15:18 04.04.2020
33 Rain 6 979 56 10000 4.1 160 14:43 04.04.2020
34 Rain 6 979 56 10000 4.1 160 14:23 04.04.2020
35 Rain 5 980 60 10000 7.7 20 13:56 04.04.2020
36 Rain 5 980 60 10000 7.7 20 13:38 04.04.2020
37 Rain 5 980 60 10000 7.7 20 13:20 04.04.2020
38 Rain 5 980 56 10000 9.3 340 12:45 04.04.2020
39 Rain 5 980 56 10000 9.3 340 12:27 04.04.2020
40 Clouds 4 981 69 10000 9.8 360 11:59 04.04.2020
41 Clouds 4 981 69 10000 9.8 360 11:40 04.04.2020
42 Clouds 4 981 69 10000 9.8 360 11:21 04.04.2020
43 Clouds 2 983 83 10000 6.2 320 10:57 04.04.2020
44 Clouds 2 983 83 10000 6.2 320 10:39 04.04.2020
45 Clouds 2 983 83 10000 6.2 320 10:21 04.04.2020
46 Clouds 2 985 83 10000 2.91 352 09:55 04.04.2020
47 Clouds 2 985 83 10000 2.91 352 09:37 04.04.2020
48 Clouds 2 985 83 10000 2.35 326 09:19 04.04.2020
49 Clouds 2 986 83 10000 2.1 320 08:42 04.04.2020
50 Clouds 2 986 83 10000 2.1 320 08:23 04.04.2020
51 Clouds 2 988 93 10000 2.6 320 07:47 04.04.2020
52 Clouds 2 988 93 10000 2.6 320 07:28 04.04.2020
53 Clouds 3 988 86 10000 3.1 360 06:58 04.04.2020
54 Clouds 4 988 86 10000 8.7 230 06:21 04.04.2020
55 Clouds 4 988 86 10000 8.7 230 05:51 04.04.2020
56 Clouds 4 988 86 10000 8.7 230 05:32 04.04.2020
57 Clouds 4 989 86 10000 5.1 230 04:33 04.04.2020
58 Clouds 5 989 80 10000 10.3 230 03:55 04.04.2020
59 Clouds 5 989 80 10000 10.3 230 03:27 04.04.2020
60 Clouds 5 989 80 10000 7.7 230 02:40 04.04.2020
61 Clouds 5 989 80 10000 7.7 230 02:22 04.04.2020
62 Rain 6 989 70 10000 12.9 230 01:26 04.04.2020
63 Rain 7 986 65 8000 17.5 230 00:55 04.04.2020
64 Rain 7 986 65 8000 17.5 230 00:30 04.04.2020
65 Clouds 10 987 39 10000 4.1 320 23:55 03.04.2020
66 Clouds 10 987 39 10000 4.1 320 23:36 03.04.2020
67 Clouds 10 987 39 10000 4.1 320 23:18 03.04.2020
68 Clouds 11 987 32 10000 5.1 320 22:40 03.04.2020
69 Clouds 11 987 32 10000 5.1 320 22:19 03.04.2020
70 Clouds 11 988 34 10000 6.2 320 21:56 03.04.2020
71 Clouds 11 988 34 10000 6.2 320 21:37 03.04.2020
72 Clouds 11 988 34 10000 6.2 320 21:19 03.04.2020
73 Clouds 10 989 57 10000 5.1 320 20:54 03.04.2020
74 Clouds 10 989 57 10000 5.1 320 20:36 03.04.2020
75 Clouds 10 989 57 10000 5.1 320 20:18 03.04.2020
76 Clouds 9 992 61 10000 7.2 320 19:54 03.04.2020
77 Clouds 9 992 61 10000 7.2 320 19:36 03.04.2020
78 Clouds 9 992 61 10000 7.2 320 19:36 03.04.2020
79 Clouds 9 992 61 10000 7.2 320 19:18 03.04.2020
80 Clouds 9 991 51 0 3.96 321 18:42 03.04.2020
81 Clouds 8 993 75 10000 3.1 90 18:23 03.04.2020
82 Clouds 8 993 75 10000 3.1 90 18:23 03.04.2020
83 Clouds 8 993 75 10000 3.1 90 17:58 03.04.2020
84 Clouds 8 993 75 10000 3.1 90 17:40 03.04.2020
85 Clouds 8 993 75 10000 3.1 90 17:40 03.04.2020
86 Clouds 8 993 75 10000 3.1 90 17:19 03.04.2020
87 Clouds 8 994 81 10000 4.1 50 16:55 03.04.2020
88 Clouds 8 994 81 10000 4.1 50 16:54 03.04.2020
89 Clouds 8 994 81 10000 4.1 50 16:54 03.04.2020
90 Clouds 8 994 81 10000 4.1 50 16:36 03.04.2020
91 Clouds 8 994 81 10000 4.1 50 16:18 03.04.2020
92 Clouds 6 995 87 10000 1.5 360 15:41 03.04.2020
93 Clouds 6 995 87 10000 1.5 360 15:22 03.04.2020
94 Clouds 6 995 87 10000 1.5 360 14:57 03.04.2020
95 Rain 4 996 78 0 1.56 335 14:39 03.04.2020
96 Clouds 5 996 86 10000 4.1 340 14:21 03.04.2020
97 Clouds 5 996 86 10000 4.1 340 13:46 03.04.2020
98 Clouds 5 996 86 10000 4.1 340 13:27 03.04.2020
99 Rain 6 997 70 10000 4.1 340 12:57 03.04.2020
100 Rain 6 997 70 10000 4.1 340 12:39 03.04.2020
101 Rain 6 997 70 10000 4.1 340 12:18 03.04.2020
102 Rain 5 997 86 10000 3.1 270 11:55 03.04.2020
103 Rain 5 997 86 10000 3.1 270 11:37 03.04.2020
104 Rain 5 997 86 10000 3.1 270 11:18 03.04.2020
105 Clouds 6 997 81 10000 3.6 290 10:56 03.04.2020
106 Clouds 6 997 81 10000 3.6 290 10:37 03.04.2020
107 Clouds 6 997 81 10000 3.6 290 10:19 03.04.2020
108 Clouds 7 997 75 10000 6.2 250 09:55 03.04.2020
109 Clouds 7 997 75 10000 6.2 250 09:37 03.04.2020
110 Clouds 7 997 75 10000 6.2 250 09:19 03.04.2020
111 Rain 7 997 81 10000 12.9 230 08:44 03.04.2020
112 Rain 7 997 81 10000 12.9 230 08:24 03.04.2020
113 Clouds 10 995 76 10000 14.4 230 07:51 03.04.2020
114 Clouds 10 995 76 10000 14.4 230 07:33 03.04.2020
115 Rain 10 995 71 10000 11.3 230 06:58 03.04.2020
116 Rain 10 995 71 10000 11.3 230 06:28 03.04.2020
117 Clouds 10 995 81 10000 5.1 230 05:42 03.04.2020
118 Clouds 11 996 76 10000 6.2 230 04:18 03.04.2020
119 Clouds 11 996 76 10000 6.2 230 03:32 03.04.2020
120 Rain 12 996 71 10000 9.8 230 02:31 03.04.2020
121 Clouds 14 996 54 10000 6.7 230 01:25 03.04.2020
122 Clouds 15 997 51 10000 5.7 270 00:47 03.04.2020
123 Clouds 15 997 51 10000 5.7 270 00:29 03.04.2020
124 Clouds 16 1000 44 10000 7.7 340 23:54 02.04.2020
125 Clouds 16 1000 44 10000 7.7 340 23:36 02.04.2020
126 Clouds 16 1000 44 10000 7.7 340 23:18 02.04.2020
127 Clouds 16 1000 44 10000 7.7 340 22:41 02.04.2020
128 Clouds 16 1000 44 10000 7.7 340 22:22 02.04.2020
129 Clouds 17 998 45 10000 6.7 310 21:58 02.04.2020
130 Clouds 17 998 45 10000 6.7 310 21:37 02.04.2020
131 Clouds 17 998 45 10000 6.7 310 21:18 02.04.2020
132 Rain 13 1002 67 0 5.65 339 20:45 02.04.2020
133 Clouds 14 1001 50 10000 6.2 340 20:25 02.04.2020
134 Clouds 14 1001 50 10000 6.2 340 19:57 02.04.2020
135 Clouds 14 1001 50 10000 6.2 340 19:39 02.04.2020
136 Clouds 14 1001 50 10000 6.2 340 19:20 02.04.2020
137 Clouds 14 1002 50 10000 8.7 340 18:55 02.04.2020
138 Clouds 14 1002 50 10000 8.7 340 18:36 02.04.2020
139 Clouds 14 1002 50 10000 8.7 340 18:18 02.04.2020
140 Clouds 14 1003 47 10000 5.1 340 17:42 02.04.2020
141 Clouds 14 1003 47 10000 5.1 340 17:24 02.04.2020
142 Clouds 13 1003 54 10000 5.1 340 16:58 02.04.2020
143 Clouds 13 1003 54 10000 5.1 340 16:40 02.04.2020
144 Clouds 13 1003 54 10000 5.1 340 16:21 02.04.2020
145 Clouds 13 1004 54 10000 6.7 340 15:57 02.04.2020
146 Clouds 13 1004 54 10000 6.7 340 15:39 02.04.2020
147 Clouds 13 1004 54 10000 6.7 340 15:18 02.04.2020
148 Clouds 13 1005 54 10000 7.2 360 14:57 02.04.2020
149 Clouds 13 1005 54 10000 7.2 360 14:38 02.04.2020
150 Clouds 13 1005 54 10000 7.2 360 14:18 02.04.2020
151 Clouds 13 1005 54 10000 7.2 360 14:18 02.04.2020
152 Clouds 14 1006 47 10000 8.7 360 13:54 02.04.2020
153 Clouds 14 1006 47 10000 8.7 360 13:54 02.04.2020
154 Clouds 14 1006 47 10000 8.7 360 13:36 02.04.2020
155 Clouds 14 1006 47 10000 8.7 360 13:18 02.04.2020
156 Clouds 14 1006 47 10000 8.7 320 12:44 02.04.2020
157 Clouds 14 1006 47 10000 8.7 320 12:19 02.04.2020
158 Clouds 14 1007 50 10000 6.7 340 11:57 02.04.2020
159 Clouds 14 1007 50 10000 6.7 340 11:39 02.04.2020
160 Clouds 14 1007 50 10000 6.7 340 11:20 02.04.2020
161 Clouds 13 1007 54 10000 7.2 340 10:56 02.04.2020
162 Clouds 13 1007 54 10000 7.2 340 10:38 02.04.2020
163 Clouds 13 1007 54 10000 7.2 340 10:38 02.04.2020
164 Clouds 13 1007 54 10000 7.2 340 10:20 02.04.2020
165 Clouds 14 1008 50 10000 7.7 340 09:58 02.04.2020
166 Clouds 14 1008 50 10000 7.7 340 09:58 02.04.2020
167 Clouds 14 1008 50 10000 7.7 340 09:39 02.04.2020
168 Clouds 14 1008 50 10000 7.7 340 09:20 02.04.2020
169 Clouds 14 1008 50 10000 6.2 320 08:47 02.04.2020
170 Clouds 14 1008 50 10000 6.2 320 08:27 02.04.2020
171 Clouds 14 1008 47 10000 9.3 320 07:54 02.04.2020
172 Clouds 14 1008 47 10000 9.3 320 07:36 02.04.2020
173 Clouds 14 1008 47 10000 9.3 320 07:18 02.04.2020
174 Clouds 14 1008 47 10000 7.2 320 06:23 02.04.2020
175 Clouds 13 1008 54 10000 7.7 320 05:46 02.04.2020
176 Clouds 13 1009 54 10000 7.2 320 04:50 02.04.2020
177 Clouds 12 1009 62 10000 2.6 140 02:19 02.04.2020
178 Clouds 13 1009 54 10000 1.5 320 00:58 02.04.2020
179 Clouds 13 1009 54 10000 1.5 320 00:38 02.04.2020
180 Clouds 13 1009 54 10000 1.5 320 00:19 02.04.2020
181 Clouds 14 1010 50 10000 2.34 324 23:38 01.04.2020
182 Clouds 14 1010 50 10000 2.34 324 23:19 01.04.2020
183 Clouds 14 1010 54 10000 1.5 360 22:56 01.04.2020
184 Clouds 14 1010 54 10000 1.5 360 22:37 01.04.2020
185 Clouds 14 1010 54 10000 1.5 360 22:19 01.04.2020
186 Clouds 14 1010 50 10000 2.1 140 21:39 01.04.2020
187 Clouds 14 1010 50 10000 2.1 140 21:19 01.04.2020
188 Clouds 13 1010 54 10000 2.1 140 20:56 01.04.2020
189 Clouds 13 1010 54 10000 2.1 140 20:38 01.04.2020
190 Clouds 13 1010 54 10000 2.1 140 20:19 01.04.2020
191 Clouds 12 1011 66 10000 3.32 316 19:57 01.04.2020
192 Clouds 12 1011 66 10000 3.32 316 19:37 01.04.2020
193 Clouds 12 1011 66 10000 3.32 316 19:37 01.04.2020
194 Clouds 12 1011 66 10000 3.32 316 19:19 01.04.2020
195 Clouds 12 1011 66 10000 1.5 140 18:42 01.04.2020
196 Clouds 12 1011 66 10000 1.5 140 18:22 01.04.2020
197 Rain 11 1011 71 10000 3.05 337 17:57 01.04.2020
198 Rain 11 1011 71 10000 3.05 337 17:37 01.04.2020
199 Rain 11 1011 71 10000 3.05 337 17:19 01.04.2020
200 Rain 10 1011 76 10000 3.05 337 16:57 01.04.2020
201 Rain 10 1011 76 10000 3.05 337 16:39 01.04.2020
202 Rain 10 1011 76 10000 3.05 337 16:20 01.04.2020
203 Rain 9 1011 61 10000 3.05 337 15:56 01.04.2020
204 Rain 9 1011 61 10000 3.05 337 15:37 01.04.2020
205 Clouds 9 1011 61 10000 1.82 335 15:18 01.04.2020
206 Clouds 7 1011 93 10000 1.82 335 14:40 01.04.2020
207 Clouds 7 1011 93 10000 1.9 336 14:22 01.04.2020
208 Clouds 8 1011 65 10000 1.9 336 13:59 01.04.2020
209 Clouds 8 1011 65 10000 1.9 336 13:40 01.04.2020
210 Clouds 8 1011 65 10000 1.9 336 13:20 01.04.2020
211 Clouds 7 1011 75 10000 1.9 336 12:59 01.04.2020
212 Clouds 7 1011 75 10000 1.9 336 12:41 01.04.2020
213 Clouds 7 1011 75 10000 1.9 336 12:22 01.04.2020
214 Clouds 8 1011 70 10000 1.81 330 11:57 01.04.2020
215 Clouds 8 1011 70 10000 1.81 330 11:37 01.04.2020
216 Clouds 8 1011 70 10000 1.81 330 11:37 01.04.2020
217 Clouds 8 1011 70 10000 1.81 330 11:19 01.04.2020
218 Clouds 8 1011 70 10000 2.1 340 10:40 01.04.2020
219 Clouds 8 1011 70 10000 2.1 340 10:21 01.04.2020
220 Clouds 8 1011 75 10000 1.81 330 09:59 01.04.2020
221 Clouds 8 1011 75 10000 1.81 330 09:40 01.04.2020
222 Clouds 8 1011 75 10000 1.82 324 09:20 01.04.2020
223 Clouds 8 1010 75 10000 1.94 327 08:56 01.04.2020
224 Clouds 8 1010 75 10000 1.94 327 08:37 01.04.2020
225 Clouds 8 1010 75 10000 1.94 327 08:18 01.04.2020
226 Clouds 8 1010 75 10000 2.1 340 07:41 01.04.2020
227 Clouds 8 1010 75 10000 2.1 340 07:19 01.04.2020
228 Clouds 8 1010 75 10000 1.94 327 06:43 01.04.2020
229 Clouds 8 1010 75 10000 1.94 327 06:21 01.04.2020
230 Clouds 8 1010 75 10000 3.1 320 05:50 01.04.2020
231 Clouds 8 1010 81 10000 4.6 320 04:29 01.04.2020
232 Clouds 8 1010 81 10000 4.1 320 03:20 01.04.2020
233 Clouds 9 1010 76 10000 2.6 320 02:37 01.04.2020
234 Clouds 9 1010 76 10000 5.7 230 01:53 01.04.2020
235 Clouds 9 1010 76 10000 5.7 230 01:27 01.04.2020
236 Clouds 9 1010 76 10000 5.7 250 00:47 01.04.2020
237 Clouds 9 1010 76 10000 5.7 250 00:24 01.04.2020
238 Clouds 10 1009 71 10000 3.1 270 23:59 31.03.2020
239 Clouds 10 1009 71 10000 3.1 270 23:41 31.03.2020
240 Clouds 10 1009 71 10000 3.1 270 23:22 31.03.2020
241 Clouds 10 1009 66 10000 5.1 230 22:41 31.03.2020
242 Clouds 10 1009 66 10000 5.1 230 22:22 31.03.2020
243 Clouds 11 1009 66 10000 7.2 230 21:58 31.03.2020
244 Clouds 11 1009 66 10000 7.2 230 21:40 31.03.2020
245 Clouds 11 1009 66 10000 7.2 230 21:21 31.03.2020
246 Clouds 11 1009 71 10000 7.2 230 20:58 31.03.2020
247 Clouds 11 1009 71 10000 7.2 230 20:58 31.03.2020
248 Clouds 11 1009 71 10000 7.2 230 20:37 31.03.2020
249 Clouds 11 1009 71 10000 7.2 230 20:19 31.03.2020
250 Clouds 11 1009 71 10000 5.1 230 19:57 31.03.2020
251 Clouds 11 1009 71 10000 5.1 230 19:38 31.03.2020
252 Clouds 11 1009 71 10000 5.1 230 19:19 31.03.2020
253 Clouds 10 1009 71 10000 5.1 230 18:46 31.03.2020
254 Clouds 10 1009 71 10000 5.1 230 18:21 31.03.2020
255 Clouds 10 1009 76 10000 5.1 250 17:58 31.03.2020
256 Clouds 10 1009 76 10000 5.1 250 17:40 31.03.2020
257 Clouds 10 1009 76 10000 5.1 250 17:21 31.03.2020
258 Clouds 9 1008 70 10000 5.1 250 16:57 31.03.2020
259 Clouds 9 1008 70 10000 5.1 250 16:37 31.03.2020
260 Clouds 9 1008 70 10000 5.1 250 16:18 31.03.2020
261 Clouds 8 1008 81 10000 5.1 230 15:56 31.03.2020
262 Clouds 8 1008 81 10000 5.1 230 15:37 31.03.2020
263 Clouds 8 1008 81 10000 5.1 230 15:37 31.03.2020
264 Clouds 8 1008 81 10000 5.1 230 15:18 31.03.2020
265 Clouds 8 1008 81 10000 5.1 230 14:43 31.03.2020
266 Clouds 8 1008 81 10000 5.1 230 14:24 31.03.2020
267 Clouds 8 1000 87 10000 8.7 230 13:59 31.03.2020
268 Clouds 8 1000 87 10000 8.7 230 13:41 31.03.2020
269 Clouds 8 1000 87 10000 8.7 230 13:19 31.03.2020
270 Clouds 8 1007 81 10000 8.2 230 12:46 31.03.2020
271 Clouds 8 1007 81 10000 8.2 230 12:21 31.03.2020
272 Clouds 9 1006 70 10000 10.3 230 11:59 31.03.2020
273 Clouds 9 1006 70 10000 10.3 230 11:38 31.03.2020
274 Clouds 9 1006 70 10000 10.3 230 11:19 31.03.2020
275 Clouds 9 1005 70 10000 10.8 230 10:56 31.03.2020
276 Clouds 9 1005 70 10000 10.8 230 10:38 31.03.2020
277 Clouds 9 1005 70 10000 10.8 230 10:20 31.03.2020
278 Clouds 9 1005 70 10000 10.3 230 09:55 31.03.2020
279 Clouds 9 1005 70 10000 10.3 230 09:37 31.03.2020
280 Clouds 9 1005 70 10000 10.3 230 09:19 31.03.2020
281 Clouds 9 1005 66 10000 8.2 230 08:54 31.03.2020
282 Clouds 9 1005 66 10000 8.2 230 08:36 31.03.2020
283 Clouds 9 1005 66 10000 8.2 230 08:18 31.03.2020
284 Drizzle 10 1004 61 10000 7.7 230 07:43 31.03.2020
285 Drizzle 10 1004 61 10000 7.7 230 07:23 31.03.2020
286 Drizzle 10 1004 61 10000 9.3 230 06:58 31.03.2020
287 Drizzle 10 1004 61 10000 9.3 230 06:39 31.03.2020
288 Clouds 10 1004 61 10000 8.7 200 05:42 31.03.2020
289 Clouds 10 1004 61 10000 8.7 200 05:23 31.03.2020
290 Clouds 11 1004 50 10000 4.6 320 02:56 31.03.2020
291 Clouds 10 1005 57 10000 5.1 140 01:47 31.03.2020
292 Clouds 10 1005 57 10000 5.1 140 01:22 31.03.2020
293 Clouds 11 1005 50 10000 1.5 320 00:43 31.03.2020
294 Clouds 11 1005 50 10000 1.5 320 00:23 31.03.2020
295 Clouds 12 1005 50 10000 8.7 320 23:40 30.03.2020
296 Clouds 12 1005 50 10000 8.7 320 23:20 30.03.2020
297 Clouds 13 1005 43 10000 7.2 320 22:58 30.03.2020
298 Clouds 13 1005 43 10000 7.2 320 22:38 30.03.2020
299 Clouds 13 1005 43 10000 7.2 320 22:19 30.03.2020
300 Clouds 13 1006 47 10000 6.7 320 21:57 30.03.2020
301 Clouds 13 1006 47 10000 6.7 320 21:38 30.03.2020
302 Clouds 13 1006 47 10000 6.7 320 21:20 30.03.2020
303 Clouds 13 1007 43 10000 7.7 320 20:58 30.03.2020
304 Clouds 13 1007 43 10000 7.7 320 20:38 30.03.2020
305 Clouds 13 1007 43 10000 7.7 320 20:19 30.03.2020
306 Clouds 10 1008 66 10000 2.1 90 19:54 30.03.2020
307 Clouds 10 1008 66 10000 2.1 90 19:36 30.03.2020
308 Clouds 10 1008 66 10000 2.1 90 19:18 30.03.2020
309 Clouds 9 1008 70 10000 3.6 140 18:41 30.03.2020
310 Clouds 9 1008 70 10000 3.6 140 18:23 30.03.2020
311 Clouds 9 1008 70 10000 2.5 320 17:57 30.03.2020
312 Clouds 9 1008 70 10000 2.5 320 17:39 30.03.2020
313 Clouds 9 1008 70 10000 2.5 320 17:19 30.03.2020
314 Clouds 8 1009 75 10000 4.6 360 16:57 30.03.2020
315 Clouds 8 1009 75 10000 4.6 360 16:39 30.03.2020
316 Clouds 8 1009 75 10000 4.6 360 16:20 30.03.2020
317 Clouds 8 1009 70 10000 4.1 320 15:55 30.03.2020
318 Clouds 8 1009 70 10000 4.1 320 15:37 30.03.2020
319 Clouds 8 1009 70 10000 4.1 320 15:19 30.03.2020
320 Clouds 8 1009 70 10000 4.1 250 14:55 30.03.2020
321 Clouds 8 1009 70 10000 4.1 250 14:37 30.03.2020
322 Clouds 8 1009 70 10000 4.1 250 14:18 30.03.2020
323 Clouds 6 1009 81 10000 3.6 250 13:54 30.03.2020
324 Clouds 6 1009 81 10000 3.6 250 13:36 30.03.2020
325 Clouds 6 1009 81 10000 3.6 250 13:18 30.03.2020
326 Clouds 6 1008 81 10000 4.1 230 12:41 30.03.2020
327 Clouds 6 1008 81 10000 4.1 230 12:20 30.03.2020
328 Drizzle 6 1007 81 10000 9.3 230 11:57 30.03.2020
329 Drizzle 6 1007 81 10000 9.3 230 11:39 30.03.2020
330 Drizzle 6 1007 81 10000 9.3 230 11:21 30.03.2020
331 Drizzle 7 1006 81 10000 10.8 230 10:41 30.03.2020
332 Drizzle 7 1006 81 10000 10.8 230 10:22 30.03.2020
333 Drizzle 8 1005 70 10000 13.9 230 09:58 30.03.2020
334 Drizzle 8 1005 70 10000 13.9 230 09:39 30.03.2020
335 Drizzle 8 1005 70 10000 13.9 230 09:19 30.03.2020
336 Clouds 8 1005 70 10000 7.2 230 08:43 30.03.2020
337 Clouds 8 1005 70 10000 7.2 230 08:23 30.03.2020
338 Clouds 8 1005 75 10000 4.1 230 07:55 30.03.2020
339 Clouds 8 1005 75 10000 4.1 230 07:37 30.03.2020
340 Clouds 8 1005 70 10000 3.1 230 06:59 30.03.2020
341 Rain 6 1007 80 0 2.52 296 06:34 30.03.2020
342 Clouds 9 1005 70 10000 1.78 324 05:59 30.03.2020
343 Clouds 9 1005 70 10000 1.78 324 05:38 30.03.2020
344 Clouds 9 1005 70 10000 2.6 230 04:27 30.03.2020
345 Clouds 10 1006 61 10000 1.78 324 03:50 30.03.2020
346 Rain 7 1007 81 0 2.2 342 02:43 30.03.2020
347 Clouds 11 1006 57 10000 3.6 320 01:52 30.03.2020
348 Clouds 11 1006 62 10000 7.7 320 00:56 30.03.2020
349 Clouds 11 1006 62 10000 7.7 320 00:25 30.03.2020
350 Clouds 11 1006 62 10000 7.7 320 00:25 30.03.2020
351 Clouds 12 1006 58 10000 8.2 320 23:55 29.03.2020
352 Clouds 12 1006 58 10000 8.2 320 23:36 29.03.2020
353 Clouds 12 1006 58 10000 8.2 320 23:18 29.03.2020
354 Clouds 12 1006 58 10000 6.2 320 22:39 29.03.2020
355 Clouds 12 1006 58 10000 6.2 320 22:20 29.03.2020
356 Clouds 12 1006 58 10000 4.1 340 21:58 29.03.2020
357 Clouds 12 1006 58 10000 4.1 340 21:37 29.03.2020
358 Clouds 12 1006 58 10000 4.1 340 21:18 29.03.2020
359 Clouds 11 1006 57 10000 3.1 360 20:55 29.03.2020
360 Clouds 11 1006 57 10000 3.1 360 20:37 29.03.2020
361 Clouds 11 1006 57 10000 3.1 360 20:37 29.03.2020
362 Clouds 11 1006 57 10000 3.1 360 20:18 29.03.2020
363 Clouds 9 1006 66 10000 1.5 140 19:55 29.03.2020
364 Clouds 9 1006 66 10000 1.5 140 19:55 29.03.2020
365 Clouds 9 1006 66 10000 1.5 140 19:37 29.03.2020
366 Clouds 9 1006 66 10000 1.5 140 19:18 29.03.2020
367 Clouds 9 1007 66 10000 3.99 317 18:55 29.03.2020
368 Clouds 9 1007 66 10000 3.99 317 18:55 29.03.2020
369 Clouds 9 1007 66 10000 3.99 317 18:36 29.03.2020
370 Clouds 9 1007 66 10000 3.37 321 18:18 29.03.2020
371 Clouds 9 1008 66 10000 3.37 321 17:42 29.03.2020
372 Clouds 9 1008 66 10000 3.37 321 17:24 29.03.2020
373 Clouds 8 1008 70 10000 3.37 321 16:59 29.03.2020
374 Clouds 8 1008 70 10000 3.37 321 16:41 29.03.2020
375 Clouds 8 1008 70 10000 3.37 321 16:21 29.03.2020
376 Clouds 8 1008 70 10000 3.37 321 15:59 29.03.2020
377 Clouds 8 1008 70 10000 3.37 321 15:59 29.03.2020
378 Clouds 8 1008 70 10000 3.37 321 15:40 29.03.2020
379 Clouds 8 1008 70 10000 3.37 321 15:21 29.03.2020
380 Clouds 5 1008 86 10000 2.01 327 14:57 29.03.2020
381 Clouds 5 1008 86 10000 2.01 327 14:37 29.03.2020
382 Clouds 5 1008 86 10000 2.01 327 14:19 29.03.2020
383 Clouds 4 1008 80 10000 1.85 321 13:55 29.03.2020
384 Clouds 4 1008 80 10000 1.85 321 13:37 29.03.2020
385 Clouds 4 1008 80 10000 1.85 321 13:19 29.03.2020
386 Clouds 4 1008 86 10000 1.85 321 12:54 29.03.2020
387 Clouds 4 1008 86 10000 1.85 321 12:54 29.03.2020
388 Clouds 4 1008 86 10000 1.85 321 12:36 29.03.2020
389 Clouds 4 1008 86 10000 1.72 316 12:18 29.03.2020
390 Clouds 4 1009 86 10000 1.72 316 11:39 29.03.2020
391 Clouds 4 1009 86 10000 1.72 316 11:21 29.03.2020
392 Clouds 5 1008 80 10000 1.72 316 10:55 29.03.2020
393 Clouds 5 1008 80 10000 1.72 316 10:37 29.03.2020
394 Clouds 5 1008 80 10000 1.72 316 10:18 29.03.2020
395 Clouds 5 1009 80 10000 1.72 316 09:39 29.03.2020
396 Clouds 5 1009 80 10000 1.51 308 09:19 29.03.2020
397 Clouds 5 1009 80 10000 1.51 308 08:53 29.03.2020
398 Clouds 5 1009 80 10000 1.51 308 08:28 29.03.2020
399 Clouds 5 1008 80 10000 2.1 360 07:58 29.03.2020
400 Clouds 5 1008 80 10000 2.1 360 07:58 29.03.2020
401 Clouds 5 1008 80 10000 2.1 360 07:39 29.03.2020
402 Clouds 5 1008 80 10000 2.1 360 07:39 29.03.2020
403 Clouds 5 1008 80 10000 2.1 360 07:20 29.03.2020
404 Clouds 7 1008 70 10000 2.6 320 04:59 29.03.2020
405 Clouds 7 1008 70 10000 2.6 320 04:59 29.03.2020
406 Clouds 7 1008 70 10000 2.6 320 04:59 29.03.2020
407 Clouds 8 1008 65 10000 1.5 360 03:55 29.03.2020
408 Clouds 8 1008 65 10000 1.5 360 03:26 29.03.2020
409 Clouds 8 1008 70 10000 0.85 272 01:51 29.03.2020
410 Clouds 8 1008 70 10000 1.16 274 01:23 29.03.2020
411 Clouds 8 1008 70 10000 3.1 270 00:55 29.03.2020
412 Clouds 8 1008 70 10000 3.1 270 00:31 29.03.2020
413 Clouds 9 1007 76 10000 2.6 320 23:43 28.03.2020
414 Clouds 9 1007 76 10000 2.6 320 23:23 28.03.2020
415 Clouds 10 1007 57 10000 2.1 320 22:58 28.03.2020
416 Clouds 10 1007 57 10000 2.1 320 22:38 28.03.2020
417 Clouds 10 1007 57 10000 2.1 320 22:20 28.03.2020
418 Clouds 9 1007 61 10000 2.1 320 21:43 28.03.2020
419 Clouds 9 1007 61 10000 2.1 320 21:24 28.03.2020
420 Clouds 9 1007 66 10000 3.1 230 20:59 28.03.2020
421 Clouds 9 1007 66 10000 3.1 230 20:41 28.03.2020
422 Clouds 9 1007 66 10000 3.1 230 20:23 28.03.2020
423 Clouds 9 1006 66 10000 3.6 230 19:57 28.03.2020
424 Clouds 9 1006 66 10000 3.6 230 19:38 28.03.2020
425 Clouds 9 1006 66 10000 3.6 230 19:20 28.03.2020
426 Clouds 9 1006 66 10000 3.1 230 18:56 28.03.2020
427 Clouds 9 1006 66 10000 3.1 230 18:38 28.03.2020
428 Clouds 9 1006 66 10000 3.1 230 18:19 28.03.2020
429 Clouds 8 1006 70 10000 2.1 320 17:39 28.03.2020
430 Clouds 8 1006 70 10000 2.1 320 17:20 28.03.2020
431 Clouds 8 1006 65 10000 1.01 298 16:43 28.03.2020
432 Clouds 8 1006 65 10000 1.01 298 16:20 28.03.2020
433 Clouds 8 1005 61 10000 2.6 340 15:58 28.03.2020
434 Clouds 8 1005 61 10000 2.6 340 15:39 28.03.2020
435 Clouds 8 1005 61 10000 2.6 340 15:19 28.03.2020
436 Clouds 6 1005 58 10000 2.1 320 14:54 28.03.2020
437 Clouds 6 1005 58 10000 2.1 320 14:36 28.03.2020
438 Clouds 6 1005 72 10000 2.1 320 14:18 28.03.2020
439 Clouds 6 1004 72 10000 4.1 340 13:38 28.03.2020
440 Clouds 6 1004 72 10000 4.1 340 13:20 28.03.2020
441 Clouds 6 1004 72 10000 4.6 320 12:39 28.03.2020
442 Clouds 6 1004 72 10000 4.6 320 12:21 28.03.2020
443 Clouds 4 1005 72 0 1.15 289 11:42 28.03.2020
444 Clouds 6 1003 75 10000 3.1 340 11:21 28.03.2020
445 Clouds 6 1003 75 10000 3.1 340 10:56 28.03.2020
446 Clouds 6 1003 75 10000 3.1 340 10:38 28.03.2020
447 Clouds 6 1003 75 10000 3.1 340 10:18 28.03.2020
448 Clouds 5 1003 80 10000 4.1 340 09:41 28.03.2020
449 Clouds 5 1003 80 10000 4.1 340 09:23 28.03.2020
450 Clouds 5 1002 75 10000 2.1 270 08:46 28.03.2020
451 Clouds 5 1002 75 10000 2.1 270 08:27 28.03.2020
452 Clouds 5 1002 75 10000 2.6 320 07:59 28.03.2020
453 Clouds 5 1002 75 10000 2.6 320 07:41 28.03.2020
454 Clouds 5 1002 80 10000 3.6 320 06:56 28.03.2020
455 Clouds 5 1002 80 10000 3.6 320 06:33 28.03.2020
456 Clouds 5 1002 75 10000 3.6 320 05:41 28.03.2020
457 Clouds 5 1002 75 10000 3.6 320 05:19 28.03.2020
458 Clouds 5 1002 75 10000 2.6 340 04:40 28.03.2020
459 Clouds 5 1002 75 10000 3.1 320 03:21 28.03.2020
460 Clouds 7 1001 65 10000 6.2 250 01:49 28.03.2020
461 Clouds 7 1001 65 10000 6.2 250 01:25 28.03.2020
462 Clouds 7 1000 65 10000 6.2 250 00:56 28.03.2020
463 Clouds 7 1000 65 10000 6.2 250 00:35 28.03.2020
464 Clouds 7 1000 75 10000 7.2 250 23:55 27.03.2020
465 Clouds 7 1000 75 10000 7.2 250 23:37 27.03.2020
466 Clouds 7 1000 56 10000 7.2 250 23:18 27.03.2020
467 Clouds 8 999 61 10000 9.3 230 22:55 27.03.2020
468 Clouds 8 999 61 10000 9.3 230 22:37 27.03.2020
469 Clouds 9 999 61 10000 9.3 230 22:18 27.03.2020
470 Clouds 9 999 65 10000 10.8 230 21:42 27.03.2020
471 Clouds 9 999 65 10000 10.8 230 21:24 27.03.2020
472 Clouds 9 998 61 10000 11.3 230 20:58 27.03.2020
473 Clouds 9 998 61 10000 11.3 230 20:58 27.03.2020
474 Clouds 9 998 61 10000 11.3 230 20:58 27.03.2020
475 Clouds 9 998 61 10000 11.3 230 20:39 27.03.2020
476 Clouds 9 998 61 10000 11.3 230 20:20 27.03.2020
477 Clouds 9 998 61 10000 11.8 230 19:57 27.03.2020
478 Clouds 9 998 61 10000 11.8 230 19:38 27.03.2020
479 Clouds 9 998 61 10000 11.8 230 19:20 27.03.2020
480 Clouds 8 998 53 10000 12.9 230 18:44 27.03.2020
481 Clouds 8 998 53 10000 12.9 230 18:44 27.03.2020
482 Clouds 8 998 53 10000 12.9 230 18:23 27.03.2020
483 Clouds 8 998 53 10000 9.8 230 17:57 27.03.2020
484 Clouds 8 998 53 10000 9.8 230 17:38 27.03.2020
485 Clouds 8 998 61 10000 9.8 230 17:19 27.03.2020
486 Clouds 8 998 42 10000 4.6 230 16:44 27.03.2020
487 Clouds 8 998 42 10000 4.6 230 16:25 27.03.2020
488 Clouds 8 998 48 10000 4.6 320 15:55 27.03.2020
489 Clouds 8 998 48 10000 4.6 320 15:37 27.03.2020
490 Clouds 7 998 48 10000 4.6 320 15:19 27.03.2020
491 Clouds 7 998 48 10000 2.1 320 14:43 27.03.2020
492 Clouds 7 998 48 10000 2.1 320 14:24 27.03.2020
493 Clouds 5 997 60 10000 4.6 270 13:55 27.03.2020
494 Clouds 5 997 60 10000 4.6 270 13:36 27.03.2020
495 Clouds 5 997 60 10000 4.6 270 13:18 27.03.2020
496 Clouds 5 997 60 10000 3.1 270 12:42 27.03.2020
497 Clouds 5 997 60 10000 3.1 270 12:19 27.03.2020
498 Clouds 5 997 56 10000 3.1 270 11:55 27.03.2020
499 Clouds 5 997 56 10000 3.1 270 11:36 27.03.2020
500 Clouds 6 996 56 10000 8.7 230 11:18 27.03.2020
501 Clouds 6 996 56 10000 8.7 230 10:42 27.03.2020
502 Clouds 6 996 56 10000 8.7 230 10:22 27.03.2020
503 Clouds 6 996 79 10000 12.3 230 09:59 27.03.2020
504 Clouds 6 996 79 10000 12.3 230 09:40 27.03.2020
505 Clouds 6 996 79 10000 12.3 230 09:22 27.03.2020
506 Rain 5 995 86 10000 11.8 230 08:59 27.03.2020
507 Rain 5 995 86 10000 11.8 230 08:40 27.03.2020
508 Rain 5 995 86 10000 11.8 230 08:22 27.03.2020
509 Rain 5 995 86 10000 11.3 230 07:59 27.03.2020
510 Rain 5 995 86 10000 11.3 230 07:41 27.03.2020
511 Rain 5 995 86 10000 11.3 230 07:21 27.03.2020
512 Clouds 6 994 81 10000 12.9 230 06:40 27.03.2020
513 Clouds 6 994 81 10000 9.8 230 05:51 27.03.2020
514 Clouds 6 993 81 10000 9.8 230 03:34 27.03.2020
515 Rain 6 992 87 10000 11.8 230 01:55 27.03.2020
516 Rain 6 992 87 10000 11.8 230 01:19 27.03.2020
517 Rain 7 991 81 10000 10.3 230 00:41 27.03.2020
518 Rain 7 991 81 10000 10.3 230 00:41 27.03.2020
519 Rain 7 991 81 10000 10.3 230 00:19 27.03.2020
520 Clouds 8 991 81 10000 9.3 230 23:40 26.03.2020
521 Clouds 8 991 81 10000 9.3 230 23:18 26.03.2020
522 Rain 9 991 70 10000 8.2 230 22:57 26.03.2020
523 Rain 9 991 70 10000 8.2 230 22:36 26.03.2020
524 Rain 9 991 70 10000 8.2 230 22:18 26.03.2020
525 Clouds 10 991 61 10000 6.7 230 21:40 26.03.2020
526 Clouds 10 991 61 10000 6.7 230 21:21 26.03.2020
527 Clouds 10 991 61 10000 9.3 230 20:59 26.03.2020
528 Clouds 10 991 61 10000 9.3 230 20:39 26.03.2020
529 Clouds 10 991 61 10000 9.3 230 20:21 26.03.2020
530 Clouds 10 992 61 10000 7.2 230 19:58 26.03.2020
531 Clouds 10 992 61 10000 7.2 230 19:40 26.03.2020
532 Clouds 10 992 61 10000 7.2 230 19:21 26.03.2020
533 Clouds 10 993 66 10000 7.2 230 18:58 26.03.2020
534 Clouds 10 993 66 10000 7.2 230 18:40 26.03.2020
535 Clouds 10 993 66 10000 7.2 230 18:21 26.03.2020
536 Clouds 10 992 66 10000 6.2 230 17:44 26.03.2020
537 Clouds 10 992 66 10000 6.2 230 17:44 26.03.2020
538 Clouds 10 992 66 10000 6.2 230 17:20 26.03.2020
539 Clouds 11 993 53 10000 7.2 230 16:57 26.03.2020
540 Clouds 11 993 53 10000 7.2 230 16:38 26.03.2020
541 Clouds 11 993 53 10000 7.2 230 16:38 26.03.2020
542 Clouds 11 993 53 10000 7.2 230 16:19 26.03.2020
543 Clouds 10 993 61 10000 8.2 230 15:55 26.03.2020
544 Clouds 10 993 61 10000 8.2 230 15:37 26.03.2020
545 Clouds 10 993 61 10000 8.2 230 15:18 26.03.2020
546 Clouds 10 994 66 10000 6.7 230 14:43 26.03.2020
547 Clouds 10 994 66 10000 6.7 230 14:24 26.03.2020
548 Clouds 9 994 70 10000 2.6 230 13:55 26.03.2020
549 Clouds 9 994 70 10000 2.6 230 13:37 26.03.2020
550 Clouds 9 994 70 10000 2.6 230 13:19 26.03.2020
551 Drizzle 10 994 66 10000 5.7 270 12:38 26.03.2020
552 Drizzle 10 994 66 10000 5.7 270 12:20 26.03.2020
553 Drizzle 10 993 66 10000 10.8 230 11:46 26.03.2020
554 Drizzle 10 993 66 10000 10.8 230 11:23 26.03.2020
555 Rain 12 992 58 10000 13.9 230 10:57 26.03.2020
556 Rain 12 992 58 10000 13.9 230 10:39 26.03.2020
557 Rain 12 992 58 10000 13.9 230 10:19 26.03.2020
558 Clouds 12 991 54 10000 6.2 270 09:45 26.03.2020
559 Clouds 12 991 54 10000 6.2 270 09:21 26.03.2020
560 Clouds 13 990 47 10000 8.7 320 08:57 26.03.2020
561 Clouds 13 990 47 10000 8.7 320 08:38 26.03.2020
562 Clouds 13 990 47 10000 8.7 320 08:19 26.03.2020
563 Clouds 12 992 54 10000 9.3 320 07:45 26.03.2020
564 Clouds 12 992 54 10000 9.3 320 07:24 26.03.2020
565 Clouds 10 993 66 10000 2.6 320 06:57 26.03.2020
566 Clouds 10 993 66 10000 2.6 320 06:32 26.03.2020
567 Clouds 10 994 66 10000 4.15 322 05:29 26.03.2020
568 Clouds 10 996 71 10000 3.1 50 03:45 26.03.2020
569 Clouds 10 998 71 10000 3.6 230 02:57 26.03.2020
570 Clouds 8 999 80 0 3.32 305 01:51 26.03.2020
571 Clouds 11 998 71 10000 4.1 230 01:18 26.03.2020
572 Clouds 11 998 71 10000 4.1 230 00:30 26.03.2020
573 Clouds 12 998 66 10000 7.2 230 23:42 25.03.2020
574 Clouds 12 998 66 10000 7.2 230 23:24 25.03.2020
575 Clouds 12 998 66 10000 8.2 230 22:42 25.03.2020
576 Clouds 10 1000 77 0 2.49 301 22:22 25.03.2020
577 Clouds 10 1000 77 0 2.49 301 21:59 25.03.2020
578 Clouds 10 1000 77 0 2.49 301 21:41 25.03.2020
579 Clouds 10 1000 77 0 2.49 301 21:23 25.03.2020
580 Clouds 10 1000 77 0 2.49 301 20:57 25.03.2020
581 Clouds 10 1000 77 0 2.49 301 20:38 25.03.2020
582 Rain 10 1001 76 0 3.71 305 20:18 25.03.2020
583 Rain 10 1001 76 0 3.8 303 19:43 25.03.2020
584 Clouds 11 1000 62 10000 4.1 180 19:24 25.03.2020
585 Clouds 11 1000 62 10000 4.1 180 18:59 25.03.2020
586 Clouds 11 1000 62 10000 4.1 180 18:41 25.03.2020
587 Clouds 11 1000 62 10000 4.1 180 18:23 25.03.2020
588 Clouds 11 1008 62 10000 3.1 180 17:58 25.03.2020
589 Clouds 11 1008 62 10000 3.1 180 17:58 25.03.2020
590 Clouds 11 1008 62 10000 3.1 180 17:39 25.03.2020
591 Clouds 11 1008 62 10000 3.1 180 17:21 25.03.2020
592 Clouds 11 1001 62 10000 7.7 270 16:55 25.03.2020
593 Clouds 11 1001 62 10000 7.7 270 16:37 25.03.2020
594 Clouds 11 1001 62 10000 7.7 270 16:19 25.03.2020
595 Clouds 10 1001 53 10000 3.1 270 15:42 25.03.2020
596 Clouds 10 1002 53 10000 3.1 270 15:20 25.03.2020
597 Clouds 10 1002 53 10000 3.1 270 14:56 25.03.2020
598 Clouds 10 1002 53 10000 3.1 270 14:37 25.03.2020
599 Clouds 10 1002 53 10000 3.1 270 14:19 25.03.2020
600 Clouds 9 1002 57 10000 5.1 270 13:42 25.03.2020
601 Clouds 9 1002 57 10000 5.1 270 13:22 25.03.2020
602 Clouds 9 1002 57 10000 5.1 270 13:22 25.03.2020
603 Clouds 9 1002 61 10000 7.2 320 12:38 25.03.2020
604 Clouds 9 1002 61 10000 7.2 320 12:20 25.03.2020
605 Clouds 9 1004 45 10000 5.1 340 11:57 25.03.2020
606 Clouds 9 1004 45 10000 5.1 340 11:39 25.03.2020
607 Clouds 9 1004 45 10000 5.1 340 11:20 25.03.2020
608 Clouds 9 1004 45 10000 8.2 20 10:57 25.03.2020
609 Clouds 9 1004 45 10000 8.2 20 10:39 25.03.2020
610 Clouds 9 1004 45 10000 8.2 20 10:18 25.03.2020
611 Clouds 8 1006 52 10000 8.2 360 09:43 25.03.2020
612 Clouds 8 1006 52 10000 8.2 360 09:25 25.03.2020
613 Clouds 8 1007 52 10000 8.2 360 08:58 25.03.2020
614 Clouds 8 1007 52 10000 8.2 360 08:39 25.03.2020
615 Clouds 8 1007 52 10000 8.2 360 08:20 25.03.2020
616 Clouds 8 1007 45 10000 8.7 340 07:44 25.03.2020
617 Clouds 8 1007 45 10000 8.7 340 07:24 25.03.2020
618 Clouds 5 1008 80 10000 2.1 230 06:57 25.03.2020
619 Clouds 5 1008 80 10000 2.1 230 06:37 25.03.2020
620 Clouds 5 1008 80 10000 2.1 230 06:19 25.03.2020
621 Clouds 3 1009 74 10000 2.6 270 05:42 25.03.2020
622 Clear 5 1010 65 10000 2.38 339 04:41 25.03.2020
623 Clear 6 1011 82 10000 3.1 320 03:53 25.03.2020
624 Clear 6 1011 82 10000 3.1 320 03:29 25.03.2020
625 Clouds 6 1011 70 10000 2.6 320 01:39 25.03.2020
626 Clouds 7 1011 65 10000 1.17 326 00:50 25.03.2020
627 Clouds 7 1011 65 10000 1.17 326 00:26 25.03.2020
628 Clouds 7 1011 65 10000 3.6 270 23:53 24.03.2020
629 Clouds 7 1011 65 10000 3.6 270 23:28 24.03.2020
630 Clouds 8 1010 61 10000 7.2 230 22:58 24.03.2020
631 Clouds 8 1010 61 10000 7.2 230 22:38 24.03.2020
632 Clouds 8 1010 61 10000 7.2 230 22:20 24.03.2020
633 Clouds 8 1010 61 10000 9.3 230 21:58 24.03.2020
634 Clouds 8 1010 61 10000 9.3 230 21:39 24.03.2020
635 Clouds 8 1010 61 10000 9.3 230 21:18 24.03.2020
636 Clouds 8 1010 54 10000 7.2 230 20:57 24.03.2020
637 Clouds 8 1010 54 10000 7.2 230 20:39 24.03.2020
638 Clouds 8 1010 54 10000 7.2 230 20:21 24.03.2020
639 Clouds 7 1009 65 10000 5.1 230 19:46 24.03.2020
640 Clouds 7 1009 65 10000 5.1 230 19:20 24.03.2020
641 Clouds 6 1008 70 10000 9.3 230 18:56 24.03.2020
642 Clouds 6 1008 70 10000 9.3 230 18:38 24.03.2020
643 Clouds 6 1007 75 10000 10.3 230 18:19 24.03.2020
644 Clouds 6 1007 75 10000 10.3 230 17:56 24.03.2020
645 Clouds 6 1007 75 10000 10.3 230 17:38 24.03.2020
646 Clouds 6 1007 75 10000 10.3 230 17:19 24.03.2020
647 Rain 6 1006 81 10000 8.2 230 16:56 24.03.2020
648 Rain 6 1006 81 10000 8.2 230 16:37 24.03.2020
649 Rain 6 1006 81 10000 8.2 230 16:19 24.03.2020
650 Rain 6 1005 75 10000 12.9 230 15:42 24.03.2020
651 Rain 6 1003 70 10000 9.8 270 15:23 24.03.2020
652 Rain 5 1004 75 10000 10.3 230 14:44 24.03.2020
653 Drizzle 4 1002 86 10000 8.2 230 14:22 24.03.2020
654 Drizzle 4 1002 86 10000 8.2 230 13:59 24.03.2020
655 Drizzle 4 1002 86 10000 8.2 230 13:40 24.03.2020
656 Drizzle 4 1002 86 10000 8.2 230 13:22 24.03.2020
657 Drizzle 4 1000 80 10000 9.3 230 12:42 24.03.2020
658 Drizzle 4 1000 80 10000 9.3 230 12:24 24.03.2020
659 Rain 4 999 86 10000 12.3 230 11:42 24.03.2020
660 Rain 4 999 86 10000 12.3 230 11:22 24.03.2020
661 Rain 4 999 86 10000 12.3 230 11:22 24.03.2020
662 Drizzle 4 997 80 10000 10.8 230 10:59 24.03.2020
663 Drizzle 4 997 80 10000 10.8 230 10:41 24.03.2020
664 Drizzle 4 997 80 10000 10.8 230 10:19 24.03.2020
665 Drizzle 4 997 80 10000 10.8 230 10:19 24.03.2020
666 Clouds 4 995 80 10000 10.8 230 09:47 24.03.2020
667 Clouds 4 995 80 10000 10.8 230 09:27 24.03.2020
668 Clouds 5 993 86 10000 14.9 230 08:57 24.03.2020
669 Clouds 5 993 86 10000 14.9 230 08:38 24.03.2020
670 Clouds 5 993 86 10000 14.9 230 08:19 24.03.2020
671 Clouds 5 992 80 10000 11.3 230 07:44 24.03.2020
672 Clouds 5 992 80 10000 11.3 230 07:22 24.03.2020
673 Clouds 6 990 75 10000 9.3 230 06:42 24.03.2020
674 Clouds 6 990 75 10000 9.3 230 06:21 24.03.2020
675 Drizzle 8 984 81 10000 16.5 230 04:52 24.03.2020
676 Clouds 8 981 81 10000 9.3 230 03:41 24.03.2020
677 Rain 8 980 81 10000 10.3 230 02:44 24.03.2020
678 Rain 9 978 87 5000 15.4 230 00:57 24.03.2020
679 Rain 9 978 87 5000 15.4 230 00:32 24.03.2020
680 Drizzle 11 975 87 10000 12.9 230 23:59 23.03.2020
681 Drizzle 11 975 87 10000 12.9 230 23:38 23.03.2020
682 Drizzle 11 975 87 10000 12.9 230 23:19 23.03.2020
683 Clouds 14 975 67 10000 9.8 230 22:45 23.03.2020
684 Clouds 14 975 67 10000 9.8 230 22:23 23.03.2020
685 Clouds 15 974 67 10000 5.7 230 21:57 23.03.2020
686 Clouds 15 974 67 10000 5.7 230 21:38 23.03.2020
687 Clouds 15 974 67 10000 5.7 230 21:20 23.03.2020
688 Clouds 16 974 67 10000 7.2 230 20:56 23.03.2020
689 Clouds 16 974 67 10000 7.2 230 20:38 23.03.2020
690 Clouds 16 974 67 10000 7.2 230 20:19 23.03.2020
691 Clouds 17 975 63 10000 1.42 319 19:42 23.03.2020
692 Clouds 17 975 63 10000 1.42 319 19:23 23.03.2020
693 Clouds 17 975 59 10000 1.42 319 18:56 23.03.2020
694 Clouds 17 975 59 10000 1.42 319 18:38 23.03.2020
695 Clouds 17 975 59 10000 1.42 319 18:20 23.03.2020
696 Drizzle 15 977 67 10000 3.6 140 17:42 23.03.2020
697 Rain 14 977 71 10000 3.1 180 17:21 23.03.2020
698 Rain 14 977 71 10000 3.1 180 16:56 23.03.2020
699 Rain 14 977 71 10000 3.1 180 16:38 23.03.2020
700 Rain 14 977 71 10000 3.1 180 16:19 23.03.2020
701 Clouds 14 979 67 10000 4.41 359 15:41 23.03.2020
702 Clouds 14 979 67 10000 4.41 359 15:19 23.03.2020
703 Clouds 14 980 67 10000 4.41 359 14:38 23.03.2020
704 Clouds 14 980 67 10000 2.88 7 14:20 23.03.2020
705 Clouds 14 980 67 10000 2.88 7 14:20 23.03.2020
706 Clouds 14 981 71 10000 3.1 180 13:58 23.03.2020
707 Clouds 14 981 71 10000 3.1 180 13:40 23.03.2020
708 Clouds 14 981 71 10000 3.1 180 13:40 23.03.2020
709 Clouds 14 981 71 10000 3.1 180 13:20 23.03.2020
710 Clouds 14 982 67 10000 2.81 360 12:44 23.03.2020
711 Clouds 14 982 67 10000 2.81 360 12:25 23.03.2020
712 Clouds 14 983 67 10000 3.6 70 11:59 23.03.2020
713 Clouds 14 983 67 10000 3.6 70 11:59 23.03.2020
714 Clouds 14 983 67 10000 3.6 70 11:39 23.03.2020
715 Clouds 14 983 67 10000 3.6 70 11:19 23.03.2020
716 Drizzle 12 984 81 10000 2.89 8 10:57 23.03.2020
717 Drizzle 12 984 81 10000 2.89 8 10:38 23.03.2020
718 Drizzle 12 984 81 10000 2.89 8 10:20 23.03.2020
719 Clouds 13 984 76 10000 2.1 180 09:44 23.03.2020
720 Clouds 13 984 76 10000 2.1 180 09:21 23.03.2020
721 Rain 7 984 96 0 2.89 8 08:57 23.03.2020
722 Rain 7 984 96 0 2.89 8 08:36 23.03.2020
723 Clouds 11 987 76 10000 3.1 180 08:18 23.03.2020
724 Clouds 11 987 76 10000 3.1 180 07:42 23.03.2020
725 Clouds 11 987 76 10000 3.1 180 07:23 23.03.2020
726 Drizzle 9 987 76 10000 5.1 140 06:49 23.03.2020
727 Drizzle 9 989 76 10000 3.46 353 05:54 23.03.2020
728 Drizzle 9 989 76 10000 3.46 353 05:29 23.03.2020
729 Rain 9 992 66 10000 4.6 270 03:28 23.03.2020
730 Clouds 8 993 61 10000 2.69 349 01:51 23.03.2020
731 Clouds 8 993 61 10000 2.31 344 01:32 23.03.2020
732 Clouds 10 993 57 10000 5.1 230 00:36 23.03.2020
733 Clouds 11 993 57 10000 5.1 230 23:47 22.03.2020
734 Clouds 11 993 57 10000 5.1 230 23:26 22.03.2020
735 Clouds 11 994 62 10000 4.1 230 22:45 22.03.2020
736 Clouds 11 994 62 10000 4.1 230 22:24 22.03.2020
737 Clouds 11 994 62 10000 6.7 230 21:56 22.03.2020
738 Clouds 11 994 62 10000 6.7 230 21:37 22.03.2020
739 Clouds 11 994 62 10000 6.7 230 21:19 22.03.2020
740 Clouds 12 994 58 10000 4.1 230 20:46 22.03.2020
741 Clouds 12 994 58 10000 4.1 230 20:25 22.03.2020
742 Clouds 12 994 58 10000 1.5 230 19:58 22.03.2020
743 Clouds 12 994 58 10000 1.5 230 19:40 22.03.2020
744 Clouds 12 994 58 10000 1.5 230 19:40 22.03.2020
745 Clouds 12 994 58 10000 1.5 230 19:20 22.03.2020
746 Clouds 10 994 57 10000 3.6 230 18:59 22.03.2020
747 Clouds 10 994 57 10000 3.6 230 18:41 22.03.2020
748 Clouds 10 994 57 10000 3.6 230 18:22 22.03.2020
749 Clouds 10 994 57 10000 3.6 230 18:22 22.03.2020
750 Clouds 9 994 57 10000 3.1 230 17:59 22.03.2020
751 Clouds 9 994 57 10000 3.1 230 17:39 22.03.2020
752 Clouds 9 994 57 10000 3.1 230 17:39 22.03.2020
753 Clouds 9 994 57 10000 3.1 230 17:21 22.03.2020
754 Clouds 9 994 57 10000 2.22 336 16:59 22.03.2020
755 Clouds 9 994 57 10000 2.22 336 16:41 22.03.2020
756 Clouds 9 994 57 10000 2.22 336 16:21 22.03.2020
757 Clouds 7 994 64 10000 2.22 336 15:58 22.03.2020
758 Clouds 7 994 64 10000 2.22 336 15:39 22.03.2020
759 Clouds 4 994 80 10000 3.1 360 14:47 22.03.2020
760 Clouds 4 994 80 10000 3.1 360 14:19 22.03.2020
761 Clouds 4 994 81 10000 6.2 360 13:57 22.03.2020
762 Clouds 4 994 81 10000 6.2 360 13:39 22.03.2020
763 Clouds 4 994 81 10000 6.2 360 13:19 22.03.2020
764 Clouds 3 993 81 10000 7.2 360 12:44 22.03.2020
765 Clouds 3 993 81 10000 7.2 360 12:20 22.03.2020
766 Clouds 3 993 81 10000 5.1 360 11:56 22.03.2020
767 Clouds 3 993 81 10000 5.1 360 11:38 22.03.2020
768 Clouds 3 993 91 10000 5.1 360 11:19 22.03.2020
769 Clouds 3 992 91 10000 5.7 340 10:43 22.03.2020
770 Clouds 3 992 91 10000 5.7 340 10:24 22.03.2020
771 Clouds 3 992 91 10000 5.7 340 10:24 22.03.2020
772 Clouds 3 992 91 10000 4.6 360 09:49 22.03.2020
773 Clouds 3 992 91 10000 4.6 360 09:30 22.03.2020
774 Clouds 3 991 74 10000 9.3 340 08:55 22.03.2020
775 Clouds 3 991 74 10000 9.3 340 08:36 22.03.2020
776 Clouds 3 991 74 10000 9.3 340 08:18 22.03.2020
777 Clouds 3 990 74 10000 6.2 340 07:48 22.03.2020
778 Clouds 3 990 74 10000 6.2 340 07:18 22.03.2020
779 Clouds 5 989 93 10000 3.6 270 05:54 22.03.2020
780 Clouds 4 989 86 10000 1.78 310 04:50 22.03.2020
781 Clouds 5 988 80 10000 6.2 230 02:43 22.03.2020
782 Clouds 5 988 86 10000 7.7 230 01:20 22.03.2020
783 Clouds 6 988 81 10000 9.3 230 00:35 22.03.2020
784 Clouds 7 988 75 10000 9.8 230 23:57 21.03.2020
785 Clouds 7 988 75 10000 9.8 230 23:38 21.03.2020
786 Clouds 7 988 75 10000 9.8 230 23:18 21.03.2020
787 Clouds 7 987 70 10000 1.39 282 22:38 21.03.2020
788 Clouds 7 987 70 10000 1.39 282 22:20 21.03.2020
789 Rain 7 987 70 10000 4.1 230 21:59 21.03.2020
790 Rain 7 987 70 10000 4.1 230 21:39 21.03.2020
791 Rain 7 987 70 10000 4.1 230 21:21 21.03.2020
792 Drizzle 7 987 75 10000 3.6 340 20:45 21.03.2020
793 Drizzle 7 987 75 10000 3.6 340 20:23 21.03.2020
794 Drizzle 8 988 75 10000 6.2 360 19:57 21.03.2020
795 Drizzle 8 988 75 10000 6.2 360 19:38 21.03.2020
796 Drizzle 7 988 75 10000 6.2 360 19:19 21.03.2020
797 Rain 7 989 70 10000 5.7 340 18:54 21.03.2020
798 Rain 7 989 70 10000 5.7 340 18:36 21.03.2020
799 Rain 7 989 70 10000 5.7 340 18:18 21.03.2020
800 Rain 7 989 70 10000 5.7 340 18:18 21.03.2020
801 Clouds 7 990 65 10000 7.7 340 17:42 21.03.2020
802 Clouds 7 990 65 10000 7.7 340 17:23 21.03.2020
803 Clouds 6 991 57 10000 2.6 360 16:56 21.03.2020
804 Clouds 6 991 57 10000 2.6 360 16:38 21.03.2020
805 Clouds 6 991 57 10000 2.6 360 16:18 21.03.2020
806 Clouds 6 992 70 10000 3.6 50 15:41 21.03.2020
807 Clouds 6 992 70 10000 3.6 50 15:23 21.03.2020
808 Clouds 6 993 75 10000 2.6 360 14:58 21.03.2020
809 Clouds 6 993 75 10000 2.6 360 14:40 21.03.2020
810 Clouds 6 993 75 10000 2.6 360 14:20 21.03.2020
811 Clouds 5 993 87 10000 2.1 360 13:59 21.03.2020
812 Clouds 5 993 87 10000 2.1 360 13:40 21.03.2020
813 Clouds 5 993 87 10000 2.1 360 13:21 21.03.2020
814 Clouds 5 993 87 10000 2.1 360 13:21 21.03.2020
815 Clouds 5 994 86 10000 2.6 360 12:58 21.03.2020
816 Clouds 5 994 86 10000 2.6 360 12:37 21.03.2020
817 Clouds 5 994 86 10000 2.6 360 12:19 21.03.2020
818 Clouds 5 995 80 10000 3.6 320 11:56 21.03.2020
819 Clouds 5 995 80 10000 3.6 320 11:37 21.03.2020
820 Clouds 5 995 80 10000 3.6 320 11:18 21.03.2020
821 Clouds 5 995 60 10000 4.6 230 10:56 21.03.2020
822 Clouds 5 995 60 10000 4.6 230 10:38 21.03.2020
823 Clouds 5 995 60 10000 4.6 230 10:19 21.03.2020
824 Clouds 5 995 65 10000 6.2 230 09:55 21.03.2020
825 Clouds 5 995 65 10000 6.2 230 09:37 21.03.2020
826 Clouds 5 995 65 10000 6.2 230 09:18 21.03.2020
827 Clouds 5 995 65 10000 8.2 230 08:43 21.03.2020
828 Clouds 5 995 65 10000 8.2 230 08:24 21.03.2020
829 Rain 5 994 65 10000 7.7 230 07:43 21.03.2020
830 Rain 5 994 65 10000 7.7 230 07:23 21.03.2020
831 Rain 4 994 80 10000 12.9 230 06:47 21.03.2020
832 Rain 4 994 80 10000 12.9 230 06:27 21.03.2020
833 Rain 4 993 80 10000 14.4 230 05:46 21.03.2020
834 Rain 4 991 80 10000 15.9 230 04:46 21.03.2020
835 Rain 4 991 78 10000 11.8 230 02:51 21.03.2020
836 Rain 4 991 78 10000 11.8 230 02:33 21.03.2020
837 Rain 4 990 80 10000 16.5 230 01:32 21.03.2020
838 Rain 4 990 80 10000 14.4 230 00:48 21.03.2020
839 Rain 4 990 80 10000 14.4 230 00:26 21.03.2020
840 Rain 5 989 86 10000 10.3 230 23:51 20.03.2020
841 Rain 5 989 86 10000 10.3 230 23:27 20.03.2020
842 Rain 5 988 80 10000 13.9 230 22:57 20.03.2020
843 Rain 5 988 80 10000 13.9 230 22:39 20.03.2020
844 Rain 5 988 80 10000 13.9 230 22:20 20.03.2020
845 Rain 6 988 80 10000 14.4 230 21:55 20.03.2020
846 Rain 6 988 80 10000 14.4 230 21:37 20.03.2020
847 Rain 6 988 80 10000 14.4 230 21:18 20.03.2020
848 Clouds 7 987 70 10000 11.8 230 20:56 20.03.2020
849 Clouds 7 987 70 10000 11.8 230 20:38 20.03.2020
850 Clouds 7 987 70 10000 11.8 230 20:18 20.03.2020
851 Rain 7 987 64 10000 10.3 230 19:44 20.03.2020
852 Rain 7 987 64 10000 10.3 230 19:19 20.03.2020
853 Rain 5 987 64 10000 14.4 230 18:55 20.03.2020
854 Rain 5 987 64 10000 14.4 230 18:37 20.03.2020
855 Rain 5 987 64 10000 14.4 230 18:19 20.03.2020
856 Rain 5 986 75 10000 13.9 230 17:39 20.03.2020
857 Rain 5 986 75 10000 13.9 230 17:21 20.03.2020
858 Rain 5 986 75 10000 13.9 230 17:21 20.03.2020
859 Rain 6 986 81 10000 10.3 230 16:57 20.03.2020
860 Rain 6 986 81 10000 10.3 230 16:39 20.03.2020
861 Rain 6 986 81 10000 10.3 230 16:18 20.03.2020
862 Rain 6 986 87 10000 10.8 230 15:42 20.03.2020
863 Rain 6 985 87 10000 11.3 230 15:22 20.03.2020
864 Rain 6 984 93 10000 14.4 230 14:56 20.03.2020
865 Rain 6 984 93 10000 14.4 230 14:37 20.03.2020
866 Rain 6 984 93 10000 11.3 230 14:18 20.03.2020
867 Rain 5 984 93 7000 18 230 13:43 20.03.2020
868 Rain 5 984 93 7000 18 230 13:19 20.03.2020
869 Rain 5 983 93 6000 11.3 230 12:41 20.03.2020
870 Rain 5 983 93 6000 11.3 230 12:23 20.03.2020
871 Rain 5 982 93 10000 12.3 230 11:59 20.03.2020
872 Rain 5 982 93 10000 12.3 230 11:38 20.03.2020
873 Rain 5 982 93 10000 12.3 230 11:19 20.03.2020
874 Rain 7 981 81 10000 10.3 230 10:42 20.03.2020
875 Rain 7 981 81 10000 10.3 230 10:21 20.03.2020
876 Rain 7 982 81 10000 8.7 230 09:59 20.03.2020
877 Rain 7 982 81 10000 8.7 230 09:41 20.03.2020
878 Rain 7 982 81 10000 8.7 230 09:19 20.03.2020
879 Rain 7 982 81 10000 10.3 230 08:43 20.03.2020
880 Rain 7 982 81 10000 10.3 230 08:22 20.03.2020
881 Rain 7 982 81 10000 7.7 230 07:57 20.03.2020
882 Rain 7 982 81 10000 7.7 230 07:38 20.03.2020
883 Rain 7 982 81 10000 7.7 230 07:19 20.03.2020
884 Rain 8 983 75 10000 10.8 230 06:42 20.03.2020
885 Drizzle 8 984 65 10000 7.2 200 04:54 20.03.2020
886 Drizzle 8 984 65 10000 7.2 200 04:26 20.03.2020
887 Drizzle 9 986 61 10000 8.2 230 02:27 20.03.2020
888 Clouds 9 987 61 10000 3.1 250 01:47 20.03.2020
889 Rain 10 988 66 10000 7.2 340 00:33 20.03.2020
890 Rain 10 988 66 10000 7.2 340 23:55 19.03.2020
891 Clouds 10 990 71 10000 6.2 320 23:36 19.03.2020
892 Rain 10 991 66 10000 5.1 230 23:18 19.03.2020
893 Rain 10 991 66 10000 5.1 230 22:38 19.03.2020
894 Rain 10 991 66 10000 5.1 230 22:38 19.03.2020
895 Rain 10 991 66 10000 5.1 230 22:20 19.03.2020
896 Rain 10 992 66 10000 1.95 321 21:57 19.03.2020
897 Rain 10 992 66 10000 1.95 321 21:38 19.03.2020
898 Rain 10 992 66 10000 1.95 321 21:18 19.03.2020
899 Drizzle 10 994 71 10000 5.1 230 20:42 19.03.2020
900 Drizzle 10 994 71 10000 5.1 230 20:42 19.03.2020
901 Drizzle 10 994 71 10000 5.1 230 20:24 19.03.2020
902 Drizzle 10 995 71 10000 4.1 230 19:59 19.03.2020
903 Drizzle 10 995 71 10000 4.1 230 19:38 19.03.2020
904 Drizzle 10 995 71 10000 4.1 230 19:20 19.03.2020
905 Rain 10 996 66 10000 6.2 230 18:57 19.03.2020
906 Rain 10 996 66 10000 6.2 230 18:38 19.03.2020
907 Rain 10 996 66 10000 6.2 230 18:20 19.03.2020
908 Drizzle 10 996 61 10000 8.2 230 17:43 19.03.2020
909 Clouds 10 997 57 10000 5.1 230 17:20 19.03.2020
910 Clouds 10 997 57 10000 5.1 230 16:57 19.03.2020
911 Clouds 10 997 57 10000 5.1 230 16:39 19.03.2020
912 Clouds 10 997 57 10000 5.1 230 16:21 19.03.2020
913 Clouds 9 998 61 10000 3.6 230 15:41 19.03.2020
914 Clouds 9 998 61 10000 3.6 230 15:23 19.03.2020
915 Clouds 8 998 65 10000 3.6 230 14:43 19.03.2020
916 Clouds 8 998 65 10000 3.6 230 14:22 19.03.2020
917 Clouds 7 999 70 10000 3.1 230 13:56 19.03.2020
918 Clouds 7 999 70 10000 3.1 230 13:37 19.03.2020
919 Clouds 7 999 70 10000 3.1 230 13:18 19.03.2020
920 Clouds 6 999 81 10000 5.1 270 12:40 19.03.2020
921 Clouds 6 999 81 10000 5.1 270 12:22 19.03.2020
922 Clouds 6 1000 81 10000 7.7 230 11:57 19.03.2020
923 Clouds 6 1000 81 10000 7.7 230 11:38 19.03.2020
924 Clouds 7 1000 65 10000 2.6 270 11:19 19.03.2020
925 Clouds 7 1000 65 10000 2.6 270 10:41 19.03.2020
926 Clouds 7 1000 65 10000 2.6 270 10:20 19.03.2020
927 Clouds 6 1000 89 10000 3.6 360 09:57 19.03.2020
928 Clouds 6 1000 89 10000 3.6 360 09:37 19.03.2020
929 Clouds 6 1000 89 10000 3.6 360 09:18 19.03.2020
930 Clouds 6 1000 89 10000 4.6 270 08:42 19.03.2020
931 Clouds 6 1000 89 10000 4.6 270 08:21 19.03.2020
932 Clouds 7 1000 65 10000 3.1 320 07:46 19.03.2020
933 Clouds 7 1000 65 10000 3.1 320 07:28 19.03.2020
934 Clouds 6 1000 70 10000 4.6 320 06:43 19.03.2020
935 Clouds 6 1001 87 10000 4.1 230 05:48 19.03.2020
936 Clouds 6 1001 89 10000 2.6 320 04:58 19.03.2020
937 Clouds 6 1001 89 10000 2.6 320 04:40 19.03.2020
938 Clouds 8 1000 52 10000 4.1 250 02:50 19.03.2020
939 Clouds 7 999 83 10000 9.3 230 01:21 19.03.2020
940 Rain 7 999 75 10000 11.3 230 00:28 19.03.2020
941 Rain 7 998 75 10000 13.4 230 23:51 18.03.2020
942 Rain 7 998 75 10000 13.4 230 23:30 18.03.2020
943 Rain 7 998 75 10000 13.4 230 23:30 18.03.2020
944 Rain 7 998 75 10000 13.4 230 23:30 18.03.2020
945 Drizzle 7 997 75 10000 15.4 230 22:57 18.03.2020
946 Drizzle 7 997 75 10000 15.4 230 22:39 18.03.2020
947 Drizzle 8 997 75 10000 15.4 230 22:21 18.03.2020
948 Clouds 9 996 75 10000 14.4 230 21:42 18.03.2020
949 Clouds 9 996 75 10000 14.4 230 21:22 18.03.2020
950 Clouds 9 996 75 10000 10.8 230 20:59 18.03.2020
951 Clouds 9 996 75 10000 10.8 230 20:59 18.03.2020
952 Clouds 9 996 75 10000 10.8 230 20:40 18.03.2020
953 Clouds 9 996 75 10000 10.8 230 20:40 18.03.2020
954 Clouds 9 996 75 10000 10.8 230 20:20 18.03.2020
955 Drizzle 7 996 81 10000 13.4 230 19:58 18.03.2020
956 Drizzle 7 996 81 10000 13.4 230 19:39 18.03.2020
957 Drizzle 8 996 81 10000 13.4 230 19:20 18.03.2020
958 Drizzle 9 995 75 10000 12.3 230 18:42 18.03.2020
959 Drizzle 9 995 75 10000 12.3 230 18:21 18.03.2020
960 Drizzle 9 995 75 10000 12.3 230 18:21 18.03.2020
961 Rain 9 995 71 10000 9.8 280 17:59 18.03.2020
962 Rain 9 995 71 10000 9.8 280 17:59 18.03.2020
963 Drizzle 8 995 70 10000 10.8 230 17:41 18.03.2020
964 Drizzle 8 995 70 10000 10.8 230 17:22 18.03.2020
965 Drizzle 9 994 87 10000 8.7 230 16:58 18.03.2020
966 Drizzle 9 994 87 10000 8.7 230 16:40 18.03.2020
967 Drizzle 9 994 87 10000 8.7 230 16:20 18.03.2020
968 Drizzle 8 994 93 10000 7.7 230 15:45 18.03.2020
969 Drizzle 8 994 93 10000 7.7 230 15:23 18.03.2020
970 Clouds 8 994 93 10000 9.3 230 14:57 18.03.2020
971 Clouds 8 994 93 10000 9.3 230 14:39 18.03.2020
972 Clouds 8 994 93 10000 9.3 230 14:20 18.03.2020
973 Clouds 8 994 93 10000 9.3 230 14:20 18.03.2020
974 Rain 9 994 93 10000 9.3 230 13:39 18.03.2020
975 Rain 9 994 93 10000 9.3 230 13:19 18.03.2020
976 Rain 9 994 93 10000 9.3 230 13:19 18.03.2020
977 Drizzle 9 994 93 10000 9.3 230 12:42 18.03.2020
978 Drizzle 9 994 93 10000 9.3 230 12:20 18.03.2020
979 Drizzle 9 994 93 10000 5.1 230 11:57 18.03.2020
980 Drizzle 9 994 93 10000 5.1 230 11:37 18.03.2020
981 Drizzle 9 993 93 10000 10.8 230 11:18 18.03.2020
982 Drizzle 9 993 93 10000 10.8 230 10:54 18.03.2020
983 Drizzle 9 993 93 10000 10.8 230 10:36 18.03.2020
984 Drizzle 9 993 93 10000 10.8 230 10:36 18.03.2020
985 Drizzle 9 993 93 10000 10.8 230 10:18 18.03.2020
986 Drizzle 11 993 71 10000 6.2 230 09:41 18.03.2020
987 Drizzle 11 993 71 10000 6.2 230 09:22 18.03.2020
988 Clouds 12 993 58 10000 5.1 230 08:40 18.03.2020
989 Clouds 12 993 58 10000 5.1 230 08:22 18.03.2020
990 Clouds 12 993 58 10000 2.1 230 07:59 18.03.2020
991 Clouds 12 993 58 10000 2.1 230 07:37 18.03.2020
992 Clouds 12 993 58 10000 2.1 230 07:19 18.03.2020
993 Clouds 12 994 58 10000 1.93 11 06:39 18.03.2020
994 Clouds 12 995 58 10000 3.6 270 05:37 18.03.2020
995 Clouds 12 995 58 10000 2.6 270 04:38 18.03.2020
996 Clouds 13 996 50 10000 4.6 290 03:21 18.03.2020
997 Clouds 13 996 47 10000 4.1 320 02:36 18.03.2020
998 Clouds 13 996 47 10000 9.8 320 01:42 18.03.2020
999 Clouds 14 997 41 10000 7.2 320 00:43 18.03.2020
1000 Clouds 14 997 41 10000 7.2 320 00:21 18.03.2020
1001 Clouds 14 997 44 10000 7.7 320 23:42 17.03.2020
1002 Clouds 14 997 44 10000 7.7 320 23:21 17.03.2020
1003 Clouds 13 998 50 10000 3.1 230 22:45 17.03.2020
1004 Clouds 13 998 50 10000 3.1 230 22:26 17.03.2020
1005 Clouds 13 999 50 10000 1.5 140 21:44 17.03.2020
1006 Clouds 13 999 50 10000 1.5 140 21:25 17.03.2020
1007 Clouds 14 1000 47 10000 2.1 140 20:58 17.03.2020
1008 Clouds 14 1000 47 10000 2.1 140 20:38 17.03.2020
1009 Clouds 14 1000 47 10000 2.1 140 20:19 17.03.2020
1010 Clouds 14 1000 47 10000 3.1 140 19:42 17.03.2020
1011 Clouds 14 1000 47 10000 3.1 140 19:20 17.03.2020
1012 Clouds 11 1001 62 10000 2.1 140 18:58 17.03.2020
1013 Clouds 11 1001 62 10000 2.1 140 18:40 17.03.2020
1014 Clouds 11 1001 62 10000 2.1 140 18:21 17.03.2020
1015 Clouds 12 1002 62 10000 2.1 140 17:56 17.03.2020
1016 Clouds 12 1002 62 10000 2.1 140 17:38 17.03.2020
1017 Clouds 12 1002 62 10000 2.1 140 17:19 17.03.2020
1018 Clouds 11 1002 62 10000 2.1 180 16:42 17.03.2020
1019 Clouds 11 1002 62 10000 2.1 180 16:19 17.03.2020
1020 Clouds 8 1002 70 10000 2.6 320 15:47 17.03.2020
1021 Clouds 9 1002 70 10000 2.6 320 15:23 17.03.2020
1022 Clouds 8 1003 75 10000 2.1 360 14:47 17.03.2020
1023 Clouds 8 1003 75 10000 2.1 360 14:27 17.03.2020
1024 Clouds 8 1003 75 10000 2.6 360 13:58 17.03.2020
1025 Clouds 8 1003 75 10000 2.6 360 13:40 17.03.2020
1026 Clouds 8 1003 75 10000 2.6 360 13:22 17.03.2020
1027 Clouds 5 1003 86 10000 4.1 360 12:47 17.03.2020
1028 Clouds 5 1003 86 10000 4.1 360 12:25 17.03.2020
1029 Clouds 6 1003 75 10000 4.6 360 11:56 17.03.2020
1030 Rain 6 1003 75 10000 4.6 360 11:38 17.03.2020
1031 Clouds 6 1003 75 10000 4.6 360 11:20 17.03.2020
1032 Clouds 7 1003 65 10000 4.1 270 10:54 17.03.2020
1033 Clouds 7 1003 65 10000 4.1 270 10:36 17.03.2020
1034 Clouds 7 1003 65 10000 4.1 270 10:18 17.03.2020
1035 Clouds 8 1003 65 10000 7.2 230 09:44 17.03.2020
1036 Clouds 8 1003 65 10000 7.2 230 09:20 17.03.2020
1037 Clouds 8 1003 65 10000 7.2 230 09:20 17.03.2020
1038 Clouds 7 1002 65 10000 6.2 250 08:51 17.03.2020
1039 Clouds 7 1002 65 10000 6.2 250 08:24 17.03.2020
1040 Clouds 7 1002 70 10000 7.2 270 07:58 17.03.2020
1041 Clouds 7 1002 70 10000 7.2 270 07:40 17.03.2020
1042 Clouds 7 1002 70 10000 7.2 270 07:20 17.03.2020
1043 Clouds 7 1002 75 10000 5.1 270 06:45 17.03.2020
1044 Clouds 7 1002 75 10000 5.1 270 06:24 17.03.2020
1045 Clouds 8 1002 70 10000 10.8 250 05:18 17.03.2020
1046 Clouds 8 1000 61 10000 14.9 230 03:26 17.03.2020
1047 Clouds 9 999 57 10000 13.4 200 01:50 17.03.2020
1048 Clouds 9 999 57 10000 13.4 200 01:29 17.03.2020
1049 Clouds 9 998 61 10000 14.4 230 00:51 17.03.2020
1050 Clouds 10 997 57 10000 13.4 230 23:52 16.03.2020
1051 Clouds 10 997 57 10000 13.4 230 23:34 16.03.2020
1052 Clouds 10 996 66 10000 15.4 230 22:55 16.03.2020
1053 Clouds 10 996 66 10000 15.4 230 22:36 16.03.2020
1054 Clouds 11 996 66 10000 15.4 230 22:18 16.03.2020
1055 Clouds 11 996 66 10000 13.9 230 21:41 16.03.2020
1056 Clouds 11 996 66 10000 13.9 230 21:23 16.03.2020
1057 Clouds 12 994 62 10000 11.8 230 20:58 16.03.2020
1058 Clouds 12 994 62 10000 11.8 230 20:38 16.03.2020
1059 Clouds 12 994 62 10000 11.8 230 20:20 16.03.2020
1060 Clouds 12 993 71 10000 11.3 230 19:42 16.03.2020
1061 Clouds 12 993 71 10000 11.3 230 19:23 16.03.2020
1062 Drizzle 11 993 71 10000 8.7 230 18:57 16.03.2020
1063 Drizzle 11 993 71 10000 8.7 230 18:38 16.03.2020
1064 Drizzle 11 993 71 10000 8.7 230 18:18 16.03.2020
1065 Clouds 11 992 71 10000 7.7 230 17:45 16.03.2020
1066 Clouds 11 992 71 10000 7.7 230 17:24 16.03.2020
1067 Clouds 10 992 71 10000 7.2 230 16:49 16.03.2020
1068 Clouds 10 992 71 10000 7.2 230 16:31 16.03.2020
1069 Rain 11 992 76 10000 6.7 230 15:58 16.03.2020
1070 Rain 11 992 76 10000 6.7 230 15:40 16.03.2020
1071 Drizzle 11 992 76 10000 10.3 230 15:20 16.03.2020
1072 Clouds 10 992 93 10000 7.7 230 14:44 16.03.2020
1073 Clouds 10 992 93 10000 7.7 230 14:20 16.03.2020
1074 Clouds 10 991 87 10000 6.2 230 13:43 16.03.2020
1075 Clouds 10 991 87 10000 6.2 230 13:25 16.03.2020
1076 Clouds 10 991 76 10000 6.2 230 12:55 16.03.2020
1077 Clouds 10 991 76 10000 6.2 230 12:36 16.03.2020
1078 Clouds 10 991 76 10000 6.2 230 12:18 16.03.2020
1079 Clouds 11 991 76 10000 5.1 230 11:41 16.03.2020
1080 Clouds 11 991 76 10000 5.1 230 11:19 16.03.2020
1081 Clouds 9 991 93 10000 5.1 230 10:43 16.03.2020
1082 Clouds 9 991 93 10000 5.1 230 10:24 16.03.2020
1083 Clouds 9 992 93 10000 7.2 230 09:46 16.03.2020
1084 Clouds 9 992 93 10000 7.2 230 09:28 16.03.2020
1085 Clouds 9 992 93 10000 3.1 140 08:59 16.03.2020
1086 Clouds 9 992 93 10000 3.1 140 08:26 16.03.2020
1087 Clouds 10 992 87 10000 2.6 50 07:56 16.03.2020
1088 Clouds 10 992 87 10000 2.6 50 07:38 16.03.2020
1089 Clouds 10 992 87 10000 2.6 50 07:18 16.03.2020
1090 Clouds 11 992 76 10000 2.1 90 06:27 16.03.2020
1091 Clouds 11 994 76 10000 2.1 90 05:54 16.03.2020
1092 Clouds 12 995 71 10000 2.6 230 03:36 16.03.2020
1093 Drizzle 13 995 71 10000 8.7 230 01:29 16.03.2020
1094 Drizzle 13 995 71 10000 8.7 230 00:43 16.03.2020
1095 Clouds 13 995 71 10000 8.2 230 23:49 15.03.2020
1096 Clouds 13 995 71 10000 8.2 230 23:23 15.03.2020
1097 Clouds 14 995 67 10000 7.7 230 22:58 15.03.2020
1098 Clouds 14 995 67 10000 7.7 230 22:38 15.03.2020
1099 Clouds 14 995 67 10000 7.7 230 22:20 15.03.2020
1100 Clouds 16 995 59 10000 7.2 230 21:39 15.03.2020
1101 Clouds 16 995 59 10000 7.2 230 21:20 15.03.2020
1102 Clouds 19 996 48 10000 2.6 180 20:44 15.03.2020
1103 Clouds 19 996 48 10000 2.6 180 20:22 15.03.2020
1104 Clouds 18 996 52 10000 3.6 180 19:59 15.03.2020
1105 Clouds 18 996 52 10000 3.6 180 19:41 15.03.2020
1106 Clouds 18 996 52 10000 3.6 180 19:23 15.03.2020
1107 Clouds 17 996 55 10000 1.98 318 18:59 15.03.2020
1108 Clouds 17 996 55 10000 1.98 318 18:39 15.03.2020
1109 Clouds 17 996 55 10000 1.98 318 18:21 15.03.2020
1110 Clouds 19 996 52 10000 2.1 90 17:57 15.03.2020
1111 Clouds 19 996 52 10000 2.1 90 17:38 15.03.2020
1112 Clouds 19 996 52 10000 2.1 90 17:18 15.03.2020
1113 Clouds 14 997 71 10000 2.6 50 16:43 15.03.2020
1114 Clouds 14 997 71 10000 2.6 50 16:25 15.03.2020
1115 Clouds 14 998 67 10000 2.04 333 15:58 15.03.2020
1116 Clouds 14 998 67 10000 2.04 333 15:40 15.03.2020
1117 Clouds 14 998 67 10000 2.04 333 15:19 15.03.2020
1118 Clouds 14 998 54 10000 3.1 50 14:46 15.03.2020
1119 Clouds 14 998 54 10000 3.1 50 14:24 15.03.2020
1120 Clouds 13 997 66 10000 3.1 50 13:58 15.03.2020
1121 Clouds 13 997 66 10000 3.1 50 13:38 15.03.2020
1122 Clouds 13 997 66 10000 3.1 50 13:38 15.03.2020
1123 Clouds 13 997 66 10000 3.1 50 13:20 15.03.2020
1124 Clouds 13 998 62 10000 4.1 50 12:44 15.03.2020
1125 Clouds 13 998 62 10000 4.1 50 12:25 15.03.2020
1126 Clouds 12 998 66 10000 3.1 90 11:56 15.03.2020
1127 Clouds 12 998 66 10000 3.1 90 11:38 15.03.2020
1128 Clouds 12 998 66 10000 3.1 90 11:20 15.03.2020
1129 Clouds 12 997 66 10000 5.7 140 10:55 15.03.2020
1130 Clouds 12 997 66 10000 5.7 140 10:36 15.03.2020
1131 Clouds 12 997 66 10000 5.7 140 10:18 15.03.2020
1132 Clouds 12 998 66 10000 3.1 110 09:39 15.03.2020
1133 Clouds 12 998 66 10000 3.1 110 09:21 15.03.2020
1134 Clouds 12 998 66 10000 2.1 90 08:42 15.03.2020
1135 Clouds 12 998 66 10000 2.1 90 08:20 15.03.2020
1136 Clouds 12 998 66 10000 2.45 359 07:51 15.03.2020
1137 Clouds 12 998 66 10000 2.45 359 07:29 15.03.2020
1138 Clouds 12 999 66 10000 2.45 359 06:49 15.03.2020
1139 Clouds 12 999 66 10000 4.1 140 05:50 15.03.2020
1140 Clouds 12 999 66 10000 4.1 140 05:18 15.03.2020
1141 Clouds 12 1000 58 10000 3.1 140 04:43 15.03.2020
1142 Clouds 12 1000 58 10000 3.1 140 04:24 15.03.2020
1143 Clouds 12 1000 62 10000 3.6 90 03:38 15.03.2020
1144 Clouds 13 1001 54 10000 6.2 320 02:37 15.03.2020
1145 Clouds 13 1001 54 10000 3.1 320 01:34 15.03.2020
1146 Clouds 12 1001 58 10000 1.5 360 00:46 15.03.2020
1147 Clouds 12 1001 58 10000 1.5 360 00:24 15.03.2020
1148 Clouds 12 1001 62 10000 3.1 140 23:55 14.03.2020
1149 Clouds 12 1001 62 10000 3.1 140 23:36 14.03.2020
1150 Clouds 12 1001 62 10000 3.1 140 23:18 14.03.2020
1151 Clouds 14 1001 47 10000 1.5 140 22:42 14.03.2020
1152 Clouds 14 1001 47 10000 1.5 140 22:23 14.03.2020
1153 Clouds 13 1002 47 10000 3.1 200 21:56 14.03.2020
1154 Clouds 13 1002 47 10000 3.1 200 21:36 14.03.2020
1155 Clouds 13 1002 47 10000 3.1 200 21:18 14.03.2020
1156 Clouds 14 1002 50 10000 4.1 200 20:58 14.03.2020
1157 Clouds 14 1002 50 10000 4.1 200 20:40 14.03.2020
1158 Clouds 14 1002 50 10000 4.1 200 20:19 14.03.2020
1159 Clouds 12 1003 58 10000 4.6 230 19:43 14.03.2020
1160 Clouds 12 1003 58 10000 4.6 230 19:25 14.03.2020
1161 Clouds 12 1003 58 10000 5.1 230 18:56 14.03.2020
1162 Clouds 12 1003 58 10000 5.1 230 18:37 14.03.2020
1163 Clouds 12 1003 58 10000 5.1 230 18:19 14.03.2020
1164 Clouds 11 1003 71 10000 5.7 230 17:38 14.03.2020
1165 Clouds 11 1003 71 10000 5.7 230 17:20 14.03.2020
1166 Clouds 11 1002 76 10000 2.1 360 16:41 14.03.2020
1167 Clouds 11 1002 76 10000 2.1 360 16:23 14.03.2020
1168 Clouds 11 1004 76 10000 3.6 320 15:58 14.03.2020
1169 Clouds 11 1004 76 10000 3.6 320 15:27 14.03.2020
1170 Clouds 10 1003 66 10000 7.7 230 14:58 14.03.2020
1171 Clouds 10 1003 66 10000 7.7 230 14:37 14.03.2020
1172 Clouds 10 1003 66 10000 7.7 230 14:18 14.03.2020
1173 Clouds 9 1003 66 10000 7.2 230 13:42 14.03.2020
1174 Clouds 9 1003 66 10000 7.2 230 13:23 14.03.2020
1175 Drizzle 9 1002 76 10000 8.2 230 12:57 14.03.2020
1176 Drizzle 9 1002 76 10000 8.2 230 12:38 14.03.2020
1177 Drizzle 9 1002 76 10000 8.2 230 12:19 14.03.2020
1178 Clouds 10 1001 76 10000 8.2 230 11:42 14.03.2020
1179 Clouds 10 1001 76 10000 8.2 230 11:24 14.03.2020
1180 Drizzle 10 1001 66 10000 2.1 230 10:46 14.03.2020
1181 Drizzle 10 1001 66 10000 2.1 230 10:27 14.03.2020
1182 Clouds 10 1000 57 10000 3.1 90 09:58 14.03.2020
1183 Clouds 10 1000 57 10000 3.1 90 09:40 14.03.2020
1184 Clouds 10 1000 57 10000 3.1 90 09:20 14.03.2020
1185 Clouds 12 999 90 10000 6.7 320 08:46 14.03.2020
1186 Clouds 12 999 90 10000 6.7 320 08:24 14.03.2020
1187 Clouds 12 999 85 10000 5.1 320 07:40 14.03.2020
1188 Clouds 12 999 85 10000 5.1 320 07:21 14.03.2020
1189 Clouds 11 1000 50 10000 5.7 320 06:41 14.03.2020
1190 Clouds 12 1000 85 10000 6.2 320 05:58 14.03.2020
1191 Clouds 9 1000 81 10000 3.1 360 04:52 14.03.2020
1192 Clouds 8 1001 93 10000 1.85 323 03:25 14.03.2020
1193 Clouds 8 1001 93 10000 1.5 90 02:35 14.03.2020
1194 Clouds 9 1002 87 10000 3.1 90 01:39 14.03.2020
1195 Clouds 9 1002 93 10000 3.6 50 00:23 14.03.2020
1196 Clouds 10 1002 87 10000 3.1 70 23:42 13.03.2020
1197 Clouds 10 1002 87 10000 3.1 70 23:22 13.03.2020
1198 Clouds 12 1002 71 10000 2.1 70 22:41 13.03.2020
1199 Clouds 12 1002 71 10000 2.1 70 22:21 13.03.2020
1200 Clouds 12 1002 71 10000 1.5 70 21:40 13.03.2020
1201 Clouds 12 1002 71 10000 1.5 70 21:18 13.03.2020
1202 Clouds 12 1003 71 10000 2.6 70 20:42 13.03.2020
1203 Clouds 12 1003 71 10000 2.6 70 20:22 13.03.2020
1204 Clouds 12 1003 71 10000 1.5 70 19:57 13.03.2020
1205 Clouds 12 1003 71 10000 1.5 70 19:39 13.03.2020
1206 Clouds 12 1003 71 10000 1.5 70 19:18 13.03.2020
1207 Clouds 11 1003 71 10000 2.1 90 18:40 13.03.2020
1208 Clouds 11 1003 71 10000 2.1 90 18:22 13.03.2020
1209 Clouds 11 1003 66 10000 1.3 359 17:42 13.03.2020
1210 Clouds 11 1003 66 10000 1.3 359 17:21 13.03.2020
1211 Clouds 10 1004 76 10000 2.6 230 16:56 13.03.2020
1212 Clouds 10 1004 76 10000 2.6 230 16:38 13.03.2020
1213 Clouds 10 1004 76 10000 2.6 230 16:20 13.03.2020
1214 Clouds 9 1004 81 10000 6.2 230 15:43 13.03.2020
1215 Clouds 9 1004 81 10000 6.2 230 15:22 13.03.2020
1216 Clouds 9 1004 81 10000 6.2 220 14:56 13.03.2020
1217 Clouds 9 1004 81 10000 6.2 220 14:38 13.03.2020
1218 Rain 8 1004 87 10000 6.2 230 14:18 13.03.2020
1219 Drizzle 8 1004 87 10000 7.7 230 13:42 13.03.2020
1220 Drizzle 8 1004 87 10000 7.7 230 13:22 13.03.2020
1221 Drizzle 8 1004 93 10000 7.7 230 12:58 13.03.2020
1222 Drizzle 8 1004 93 10000 7.7 230 12:38 13.03.2020
1223 Drizzle 8 1003 87 10000 8.7 230 12:19 13.03.2020
1224 Drizzle 8 1003 87 10000 8.7 230 11:55 13.03.2020
1225 Drizzle 8 1003 87 10000 8.7 230 11:36 13.03.2020
1226 Drizzle 8 1002 87 10000 10.3 230 11:18 13.03.2020
1227 Drizzle 8 1002 87 10000 10.3 230 10:42 13.03.2020
1228 Drizzle 8 1002 87 10000 10.3 230 10:24 13.03.2020
1229 Clouds 11 1002 76 10000 5.7 230 09:46 13.03.2020
1230 Clouds 11 1002 76 10000 5.7 230 09:27 13.03.2020
1231 Clouds 11 1002 76 10000 5.7 230 08:57 13.03.2020
1232 Clouds 11 1002 76 10000 5.7 230 08:38 13.03.2020
1233 Clouds 11 1002 76 10000 5.7 230 08:19 13.03.2020
1234 Rain 7 1003 98 0 1.08 52 07:44 13.03.2020
1235 Rain 7 1003 98 0 1.08 52 07:23 13.03.2020
1236 Rain 7 1003 98 0 1.08 52 06:46 13.03.2020
1237 Drizzle 12 1002 71 10000 2.1 320 06:21 13.03.2020
1238 Drizzle 12 1002 71 10000 2.1 320 05:44 13.03.2020
1239 Rain 12 1001 71 10000 3.1 360 04:57 13.03.2020
1240 Rain 12 1001 71 10000 3.1 360 04:25 13.03.2020
1241 Clouds 12 1001 76 10000 4.6 340 02:42 13.03.2020
1242 Clouds 12 1002 71 10000 6.2 360 01:37 13.03.2020
1243 Clouds 12 1002 71 10000 6.2 360 01:18 13.03.2020
1244 Clouds 12 1002 66 10000 1.7 29 00:39 13.03.2020
1245 Clouds 12 1002 76 10000 1.7 29 00:19 13.03.2020
1246 Clouds 12 1002 76 10000 1.7 29 23:38 12.03.2020
1247 Clouds 12 1002 76 10000 0.8 77 23:19 12.03.2020
1248 Clouds 13 1002 71 10000 0.8 77 22:46 12.03.2020
1249 Clouds 13 1002 71 10000 0.8 77 22:27 12.03.2020
1250 Clouds 13 1002 76 10000 0.8 77 21:56 12.03.2020
1251 Clouds 13 1002 76 10000 0.8 77 21:38 12.03.2020
1252 Clouds 13 1002 76 10000 0.8 77 21:20 12.03.2020
1253 Clouds 13 1002 71 10000 0.8 77 20:42 12.03.2020
1254 Clouds 13 1002 71 10000 1.51 25 20:20 12.03.2020
1255 Clouds 14 1002 67 10000 1.5 180 19:42 12.03.2020
1256 Clouds 14 1002 67 10000 1.5 180 19:22 12.03.2020
1257 Clouds 13 1003 71 10000 2.1 360 18:59 12.03.2020
1258 Clouds 13 1003 71 10000 2.1 360 18:41 12.03.2020
1259 Clouds 13 1003 71 10000 2.1 360 18:22 12.03.2020
1260 Clouds 12 1003 76 10000 2.6 90 17:42 12.03.2020
1261 Clouds 12 1003 76 10000 2.6 90 17:24 12.03.2020
1262 Clouds 12 1003 76 10000 3.08 1 16:59 12.03.2020
1263 Clouds 12 1003 76 10000 3.08 1 16:41 12.03.2020
1264 Clouds 12 1003 76 10000 3.08 1 16:22 12.03.2020
1265 Clouds 11 1004 81 10000 3.08 1 15:49 12.03.2020
1266 Clouds 11 1004 81 10000 3.08 1 15:28 12.03.2020
1267 Clouds 11 1004 81 10000 3.08 1 15:28 12.03.2020
1268 Clouds 11 1004 81 10000 3.08 1 15:28 12.03.2020
1269 Clouds 10 1003 81 10000 2.6 270 14:56 12.03.2020
1270 Clouds 10 1003 81 10000 2.6 270 14:37 12.03.2020
1271 Clouds 10 1003 81 10000 2.6 270 14:18 12.03.2020
1272 Clouds 8 1004 93 10000 3.03 9 13:40 12.03.2020
1273 Clouds 8 1004 93 10000 3.01 11 13:21 12.03.2020
1274 Clouds 7 1003 93 10000 3.01 11 12:55 12.03.2020
1275 Clouds 7 1003 93 10000 3.01 11 12:55 12.03.2020
1276 Clouds 7 1003 93 10000 3.01 11 12:37 12.03.2020
1277 Clouds 7 1003 93 10000 3.01 11 12:37 12.03.2020
1278 Clouds 7 1003 93 10000 3.01 11 12:18 12.03.2020
1279 Clouds 7 1003 93 10000 3.01 11 12:18 12.03.2020
1280 Clouds 7 1003 87 10000 3.01 11 11:55 12.03.2020
1281 Clouds 7 1003 87 10000 3.01 11 11:36 12.03.2020
1282 Clouds 7 1003 87 10000 1.84 2 11:18 12.03.2020
1283 Clouds 7 1003 93 10000 3.6 320 10:43 12.03.2020
1284 Clouds 7 1003 93 10000 3.6 320 10:23 12.03.2020
1285 Clouds 8 1003 93 10000 1.84 2 09:55 12.03.2020
1286 Clouds 8 1003 93 10000 1.84 2 09:37 12.03.2020
1287 Clouds 8 1003 93 10000 1.84 2 09:19 12.03.2020
1288 Clouds 8 1003 93 10000 2.1 270 08:38 12.03.2020
1289 Clouds 8 1003 93 10000 2.1 270 08:18 12.03.2020
1290 Clouds 8 1003 93 10000 2.1 270 07:47 12.03.2020
1291 Clouds 8 1003 93 10000 2.1 270 07:22 12.03.2020
1292 Drizzle 8 1003 93 10000 1.62 360 06:20 12.03.2020
1293 Drizzle 8 1003 100 10000 1.62 360 05:34 12.03.2020
1294 Drizzle 8 1003 93 10000 2.6 20 03:44 12.03.2020
1295 Drizzle 8 1003 81 10000 6.2 70 01:58 12.03.2020
1296 Drizzle 8 1003 81 10000 6.2 70 01:23 12.03.2020
1297 Drizzle 8 1003 81 10000 5.1 70 00:42 12.03.2020
1298 Rain 8 1003 81 10000 5.1 70 23:58 11.03.2020
1299 Rain 8 1003 81 10000 5.1 70 23:29 11.03.2020
1300 Rain 9 1003 81 10000 5.7 70 22:59 11.03.2020
1301 Rain 9 1003 81 10000 5.7 70 22:40 11.03.2020
1302 Rain 9 1003 81 10000 5.7 70 22:21 11.03.2020
1303 Rain 9 1003 81 10000 6.7 70 21:58 11.03.2020
1304 Rain 9 1003 81 10000 6.7 70 21:39 11.03.2020
1305 Rain 9 1003 81 10000 6.7 70 21:21 11.03.2020
1306 Rain 9 1003 81 10000 7.2 70 20:56 11.03.2020
1307 Rain 9 1003 81 10000 7.2 70 20:37 11.03.2020
1308 Rain 9 1003 81 10000 7.2 70 20:19 11.03.2020
1309 Rain 9 1003 81 10000 5.7 50 19:42 11.03.2020
1310 Rain 9 1003 81 10000 5.7 50 19:24 11.03.2020
1311 Drizzle 8 1004 87 10000 1.5 320 18:57 11.03.2020
1312 Drizzle 8 1004 87 10000 1.5 320 18:38 11.03.2020
1313 Drizzle 8 1004 87 10000 1.5 320 18:18 11.03.2020
1314 Drizzle 8 1004 87 10000 2.6 230 17:55 11.03.2020
1315 Drizzle 8 1004 87 10000 2.6 230 17:37 11.03.2020
1316 Drizzle 8 1004 87 10000 2.6 230 17:18 11.03.2020
1317 Drizzle 8 1005 81 10000 3.1 360 16:43 11.03.2020
1318 Drizzle 8 1005 81 10000 3.1 360 16:20 11.03.2020
1319 Drizzle 7 1005 93 10000 5.1 360 15:43 11.03.2020
1320 Drizzle 7 1005 93 10000 5.1 360 15:23 11.03.2020
1321 Drizzle 8 1005 75 10000 5.1 360 14:56 11.03.2020
1322 Drizzle 8 1005 75 10000 5.1 360 14:37 11.03.2020
1323 Drizzle 8 1005 75 10000 5.1 360 14:18 11.03.2020
1324 Drizzle 8 1005 75 10000 6.7 360 13:42 11.03.2020
1325 Drizzle 8 1005 75 10000 6.7 360 13:24 11.03.2020
1326 Drizzle 8 1005 75 10000 7.2 360 12:56 11.03.2020
1327 Drizzle 8 1005 75 10000 7.2 360 12:38 11.03.2020
1328 Drizzle 8 1005 75 10000 7.2 360 12:19 11.03.2020
1329 Drizzle 8 1006 70 10000 4.6 360 11:41 11.03.2020
1330 Drizzle 8 1006 70 10000 4.6 360 11:21 11.03.2020
1331 Clouds 8 1006 65 10000 2.6 340 10:49 11.03.2020
1332 Clouds 8 1006 65 10000 2.6 340 10:21 11.03.2020
1333 Clouds 8 1006 65 10000 2.6 340 10:21 11.03.2020
1334 Clouds 8 1006 65 10000 2.6 340 10:21 11.03.2020
1335 Clouds 8 1007 61 10000 5.7 360 09:59 11.03.2020
1336 Clouds 8 1007 61 10000 5.7 360 09:41 11.03.2020
1337 Clouds 8 1007 61 10000 5.7 360 09:22 11.03.2020
1338 Clouds 8 1007 61 10000 5.7 360 09:22 11.03.2020
1339 Clouds 8 1007 61 10000 6.7 340 08:44 11.03.2020
1340 Clouds 8 1007 61 10000 6.7 340 08:26 11.03.2020
1341 Clouds 8 1008 61 10000 4.6 340 07:48 11.03.2020
1342 Clouds 8 1008 61 10000 4.6 340 07:22 11.03.2020
1343 Clouds 7 1009 75 10000 6.7 340 06:53 11.03.2020
1344 Clouds 7 1009 75 10000 6.7 340 06:33 11.03.2020
1345 Clouds 8 1009 65 10000 4.6 360 05:33 11.03.2020
1346 Clouds 8 1010 75 10000 4.6 360 03:34 11.03.2020
1347 Clouds 8 1011 70 10000 2.6 320 01:56 11.03.2020
1348 Clouds 8 1011 70 10000 2.6 320 01:25 11.03.2020
1349 Clouds 9 1011 70 10000 4.1 50 00:44 11.03.2020
1350 Clouds 10 1012 61 10000 6.2 70 23:50 10.03.2020
1351 Clouds 10 1012 61 10000 6.2 70 23:28 10.03.2020
1352 Clouds 10 1012 61 10000 4.1 50 22:58 10.03.2020
1353 Clouds 10 1012 61 10000 4.1 50 22:38 10.03.2020
1354 Clouds 10 1012 61 10000 4.1 50 22:19 10.03.2020
1355 Clouds 11 1012 63 10000 2.6 70 21:56 10.03.2020
1356 Clouds 11 1012 63 10000 2.6 70 21:38 10.03.2020
1357 Clouds 11 1012 63 10000 2.6 70 21:19 10.03.2020
1358 Clouds 11 1013 50 10000 2.1 110 20:54 10.03.2020
1359 Clouds 11 1013 50 10000 2.1 110 20:36 10.03.2020
1360 Clouds 11 1013 50 10000 2.1 110 20:18 10.03.2020
1361 Clouds 11 1014 52 10000 2.1 180 19:42 10.03.2020
1362 Clouds 11 1014 52 10000 2.1 180 19:42 10.03.2020
1363 Clouds 11 1014 52 10000 2.1 180 19:23 10.03.2020
1364 Clouds 11 1014 52 10000 1.5 110 18:58 10.03.2020
1365 Clouds 11 1014 52 10000 1.5 110 18:40 10.03.2020
1366 Clouds 11 1014 52 10000 1.5 110 18:21 10.03.2020
1367 Clouds 11 1015 50 10000 1.5 90 17:56 10.03.2020
1368 Clouds 11 1015 50 10000 1.5 90 17:37 10.03.2020
1369 Clouds 11 1015 50 10000 1.5 90 17:19 10.03.2020
1370 Clouds 9 1015 61 10000 0.82 315 16:38 10.03.2020
1371 Clouds 9 1015 61 10000 0.82 315 16:18 10.03.2020
1372 Clouds 9 1016 70 10000 0.82 315 15:44 10.03.2020
1373 Clouds 9 1016 70 10000 0.82 315 15:20 10.03.2020
1374 Clouds 8 1016 65 10000 0.82 315 14:59 10.03.2020
1375 Clouds 8 1016 65 10000 0.82 315 14:59 10.03.2020
1376 Clouds 8 1016 65 10000 0.82 315 14:40 10.03.2020
1377 Clouds 8 1016 65 10000 0.35 335 14:19 10.03.2020
1378 Clouds 7 1016 75 10000 4.1 320 13:45 10.03.2020
1379 Clouds 7 1016 75 10000 4.1 320 13:27 10.03.2020
1380 Clouds 5 1016 75 10000 3.6 270 12:59 10.03.2020
1381 Clouds 5 1016 75 10000 3.6 270 12:39 10.03.2020
1382 Clouds 5 1016 75 10000 3.6 270 12:18 10.03.2020
1383 Clouds 5 1016 80 10000 4.6 270 11:43 10.03.2020
1384 Clouds 5 1016 80 10000 4.6 270 11:24 10.03.2020
1385 Clouds 6 1016 70 10000 4.6 270 10:58 10.03.2020
1386 Clouds 6 1016 70 10000 4.6 270 10:40 10.03.2020
1387 Clouds 6 1016 81 10000 4.6 230 10:21 10.03.2020
1388 Clouds 6 1016 81 10000 4.6 230 09:56 10.03.2020
1389 -273 0 0 0 0 0 09:37 10.03.2020
1390 Clouds 6 1016 81 10000 4.6 230 09:18 10.03.2020
1391 Clouds 7 1015 81 10000 9.8 230 08:43 10.03.2020
1392 Clouds 7 1015 81 10000 9.8 230 08:25 10.03.2020
1393 Clouds 7 1015 81 10000 8.7 230 07:46 10.03.2020
1394 Clouds 7 1015 81 10000 8.7 230 07:28 10.03.2020
1395 Clouds 7 1015 81 10000 9.3 230 06:42 10.03.2020
1396 Clouds 7 1015 81 10000 9.3 230 06:23 10.03.2020
1397 Drizzle 7 1015 81 10000 9.8 230 05:38 10.03.2020
1398 Drizzle 7 1015 87 10000 8.2 230 04:34 10.03.2020
1399 Drizzle 8 1014 81 10000 7.7 230 03:34 10.03.2020
1400 Rain 9 1013 81 8000 12.9 230 01:55 10.03.2020
1401 Clouds 9 1013 81 10000 5.7 250 00:53 10.03.2020
1402 Clouds 9 1013 81 10000 5.7 250 00:30 10.03.2020
1403 Rain 9 1013 81 10000 5.7 230 23:56 09.03.2020
1404 Rain 9 1013 81 10000 5.7 230 23:37 09.03.2020
1405 Rain 9 1013 81 10000 5.7 230 23:19 09.03.2020
1406 Rain 10 1012 76 10000 6.2 230 22:40 09.03.2020
1407 Rain 10 1012 76 10000 6.2 230 22:21 09.03.2020
1408 Rain 11 1012 66 10000 6.7 230 21:56 09.03.2020
1409 Rain 11 1012 66 10000 6.7 230 21:38 09.03.2020
1410 Rain 11 1012 66 10000 6.7 230 21:20 09.03.2020
1411 Rain 11 1012 66 10000 5.1 230 20:41 09.03.2020
1412 Rain 11 1012 66 10000 5.1 230 20:41 09.03.2020
1413 Rain 11 1012 66 10000 5.1 230 20:23 09.03.2020
1414 Clouds 11 1012 62 10000 2.6 230 19:59 09.03.2020
1415 Clouds 11 1012 62 10000 2.6 230 19:41 09.03.2020
1416 Clouds 11 1012 62 10000 2.6 230 19:20 09.03.2020
1417 Clouds 12 1012 58 10000 3.1 230 18:57 09.03.2020
1418 Clouds 12 1012 58 10000 3.1 230 18:38 09.03.2020
1419 Clouds 12 1012 58 10000 3.1 230 18:18 09.03.2020
1420 Clouds 11 1012 57 10000 4.6 230 17:56 09.03.2020
1421 Clouds 11 1012 57 10000 4.6 230 17:37 09.03.2020
1422 Clouds 11 1012 57 10000 4.6 230 17:37 09.03.2020
1423 Clouds 11 1012 57 10000 4.6 230 17:19 09.03.2020
1424 Clouds 11 1012 57 10000 5.1 230 16:56 09.03.2020
1425 Clouds 9 1013 69 0 1.88 314 16:38 09.03.2020
1426 Clouds 10 1013 61 10000 3.6 230 16:20 09.03.2020
1427 Clouds 10 1013 61 10000 3.6 230 15:56 09.03.2020
1428 Clouds 10 1013 61 10000 3.6 230 15:38 09.03.2020
1429 Clouds 10 1013 61 10000 3.6 230 15:18 09.03.2020
1430 Clouds 10 1012 76 10000 2.6 360 14:39 09.03.2020
1431 Clouds 10 1012 76 10000 2.6 360 14:21 09.03.2020
1432 Clouds 9 1012 76 10000 4.1 320 13:59 09.03.2020
1433 Clouds 9 1012 76 10000 4.1 320 13:39 09.03.2020
1434 Clouds 9 1012 76 10000 4.1 320 13:21 09.03.2020
1435 Clouds 8 1012 70 10000 3.6 270 12:58 09.03.2020
1436 Clouds 8 1012 70 10000 3.6 270 12:39 09.03.2020
1437 Clouds 8 1012 70 10000 3.6 270 12:39 09.03.2020
1438 Clouds 8 1012 70 10000 3.6 270 12:19 09.03.2020
1439 Clouds 9 1011 61 10000 6.2 230 11:40 09.03.2020
1440 Clouds 9 1011 61 10000 6.2 230 11:20 09.03.2020
1441 Clouds 9 1011 66 10000 7.2 230 10:57 09.03.2020
1442 Clouds 9 1011 66 10000 7.2 230 10:39 09.03.2020
1443 Clouds 9 1011 66 10000 7.2 230 10:19 09.03.2020
1444 Clouds 8 1010 75 10000 5.7 250 09:42 09.03.2020
1445 Clouds 8 1010 75 10000 5.7 250 09:24 09.03.2020
1446 Clouds 8 1010 75 10000 9.8 230 08:47 09.03.2020
1447 Clouds 8 1010 75 10000 9.8 230 08:29 09.03.2020
1448 Clouds 8 1009 87 10000 11.3 230 07:58 09.03.2020
1449 Clouds 8 1009 87 10000 11.3 230 07:37 09.03.2020
1450 Clouds 8 1009 87 10000 11.3 230 07:18 09.03.2020
1451 Clouds 8 1009 87 10000 9.8 250 06:40 09.03.2020
1452 Clouds 8 1009 87 10000 9.8 250 06:21 09.03.2020
1453 Clouds 8 1008 87 10000 9.3 230 05:45 09.03.2020
1454 Clouds 8 1008 81 10000 8.7 230 04:59 09.03.2020
1455 Clouds 8 1008 81 10000 8.7 230 04:39 09.03.2020
1456 Clouds 8 1008 81 10000 8.7 230 04:20 09.03.2020
1457 Clouds 8 1008 81 10000 8.7 230 04:20 09.03.2020
1458 Rain 8 1007 81 10000 8.7 230 02:55 09.03.2020
1459 Rain 9 1004 76 10000 11.8 230 00:44 09.03.2020
1460 Rain 9 1004 76 10000 11.8 230 00:25 09.03.2020
1461 Rain 9 1004 76 10000 12.3 230 23:59 08.03.2020
1462 Rain 9 1004 76 10000 12.3 230 23:38 08.03.2020
1463 Rain 9 1004 76 10000 12.3 230 23:18 08.03.2020
1464 Clouds 9 1003 81 10000 13.9 230 22:41 08.03.2020
1465 Clouds 9 1003 81 10000 13.9 230 22:41 08.03.2020
1466 Clouds 9 1003 81 10000 13.9 230 22:22 08.03.2020
1467 Clouds 9 1002 81 10000 12.9 230 21:59 08.03.2020
1468 Clouds 9 1002 81 10000 12.9 230 21:41 08.03.2020
1469 Clouds 9 1002 81 10000 12.9 230 21:20 08.03.2020
1470 Clouds 10 1002 71 10000 12.9 230 20:57 08.03.2020
1471 Clouds 10 1002 71 10000 12.9 230 20:37 08.03.2020
1472 Clouds 10 1002 71 10000 12.9 230 20:19 08.03.2020
1473 Clouds 9 1001 81 10000 10.3 230 19:40 08.03.2020
1474 Clouds 9 1001 81 10000 10.3 230 19:19 08.03.2020
1475 Clouds 9 1001 76 10000 10.8 230 18:55 08.03.2020
1476 Clouds 9 1001 76 10000 10.8 230 18:37 08.03.2020
1477 Clouds 9 1001 76 10000 10.8 230 18:18 08.03.2020
1478 Rain 6 1002 88 0 3.98 209 17:40 08.03.2020
1479 Clouds 9 1000 70 10000 14.4 230 17:21 08.03.2020
1480 Clouds 9 1000 70 10000 14.4 230 16:58 08.03.2020
1481 Clouds 9 1000 70 10000 14.4 230 16:40 08.03.2020
1482 Clouds 9 1000 70 10000 14.4 230 16:21 08.03.2020
1483 Clouds 8 998 70 10000 14.9 230 15:41 08.03.2020
1484 Clouds 8 998 70 10000 14.9 230 15:41 08.03.2020
1485 Clouds 8 998 70 10000 14.9 230 15:22 08.03.2020
1486 Clouds 8 998 70 10000 14.4 230 14:57 08.03.2020
1487 Clouds 8 998 70 10000 14.4 230 14:37 08.03.2020
1488 Clouds 8 998 70 10000 14.4 230 14:19 08.03.2020
1489 Clouds 7 997 75 10000 14.4 230 13:41 08.03.2020
1490 Clouds 7 997 75 10000 14.4 230 13:20 08.03.2020
1491 Clouds 7 996 81 10000 14.4 230 12:49 08.03.2020
1492 Clouds 7 996 81 10000 14.4 230 12:30 08.03.2020
1493 Clouds 7 996 81 10000 12.3 230 11:59 08.03.2020
1494 Clouds 7 996 81 10000 12.3 230 11:41 08.03.2020
1495 Clouds 7 996 81 10000 12.3 230 11:41 08.03.2020
1496 Clouds 8 994 75 10000 13.4 230 11:21 08.03.2020
1497 Clouds 8 994 75 10000 13.4 230 11:21 08.03.2020
1498 Clouds 8 994 75 10000 13.4 230 10:42 08.03.2020
1499 Clouds 8 994 75 10000 13.4 230 10:42 08.03.2020
1500 Clouds 8 994 75 10000 13.4 230 10:24 08.03.2020
1501 Rain 8 993 70 10000 15.4 230 09:59 08.03.2020
1502 Rain 8 993 70 10000 15.4 230 09:38 08.03.2020
1503 Rain 8 993 70 10000 15.4 230 09:20 08.03.2020
1504 Rain 8 992 70 10000 11.3 230 08:43 08.03.2020
1505 Rain 8 992 70 10000 11.3 230 08:21 08.03.2020
1506 Rain 8 990 75 10000 13.9 230 07:46 08.03.2020
1507 Rain 8 990 75 10000 13.9 230 07:27 08.03.2020
1508 Rain 9 989 76 10000 12.3 230 06:43 08.03.2020
1509 Rain 9 989 76 10000 12.3 230 06:25 08.03.2020
1510 Rain 6 989 96 0 5.01 217 05:43 08.03.2020
1511 Rain 8 984 81 6000 12.9 230 03:52 08.03.2020
1512 Rain 8 981 81 6000 16.5 230 02:58 08.03.2020
1513 Rain 8 976 96 0 8.07 210 01:38 08.03.2020
1514 Rain 8 977 81 8000 16.5 230 01:18 08.03.2020
1515 Rain 8 977 81 8000 16.5 230 00:30 08.03.2020
1516 Rain 8 976 87 8000 16.5 230 23:58 07.03.2020
1517 Rain 8 976 87 8000 16.5 230 23:37 07.03.2020
1518 Rain 8 976 87 8000 16.5 230 23:18 07.03.2020
1519 Rain 9 973 81 8000 17 230 22:38 07.03.2020
1520 Rain 9 973 81 8000 17 230 22:19 07.03.2020
1521 Rain 9 973 81 8000 17 230 22:19 07.03.2020
1522 Rain 8 973 87 8000 17.5 230 21:45 07.03.2020
1523 Rain 8 973 87 8000 17.5 230 21:23 07.03.2020
1524 Rain 9 972 81 8000 15.9 230 20:41 07.03.2020
1525 Rain 9 972 81 8000 15.9 230 20:22 07.03.2020
1526 Drizzle 9 973 81 10000 14.4 230 19:55 07.03.2020
1527 Drizzle 9 973 81 10000 14.4 230 19:36 07.03.2020
1528 Drizzle 9 973 81 10000 14.4 230 19:18 07.03.2020
1529 Drizzle 9 973 81 10000 14.4 230 18:39 07.03.2020
1530 Drizzle 9 973 81 10000 14.4 230 18:21 07.03.2020
1531 Drizzle 9 974 81 10000 13.9 230 17:42 07.03.2020
1532 Drizzle 9 974 81 10000 13.9 230 17:20 07.03.2020
1533 Drizzle 9 974 81 10000 12.3 230 16:59 07.03.2020
1534 Drizzle 9 974 81 10000 12.3 230 16:40 07.03.2020
1535 Drizzle 9 974 81 10000 12.3 230 16:22 07.03.2020
1536 Drizzle 9 975 76 10000 11.3 230 15:57 07.03.2020
1537 Drizzle 9 975 76 10000 11.3 230 15:37 07.03.2020
1538 Drizzle 9 975 76 10000 11.3 230 15:19 07.03.2020
1539 Drizzle 8 977 81 10000 6.2 270 14:46 07.03.2020
1540 Drizzle 8 977 81 10000 6.2 270 14:25 07.03.2020
1541 Drizzle 8 977 87 10000 8.7 230 13:58 07.03.2020
1542 Drizzle 8 977 87 10000 8.7 230 13:38 07.03.2020
1543 Drizzle 8 977 87 10000 8.7 230 13:19 07.03.2020
1544 Drizzle 8 977 87 10000 11.8 230 12:41 07.03.2020
1545 Drizzle 8 977 87 10000 11.8 230 12:20 07.03.2020
1546 Drizzle 8 977 87 10000 11.3 230 11:57 07.03.2020
1547 Drizzle 8 977 87 10000 11.3 230 11:39 07.03.2020
1548 Drizzle 8 977 87 10000 11.3 230 11:20 07.03.2020
1549 Drizzle 8 979 93 10000 8.2 230 10:41 07.03.2020
1550 Drizzle 8 979 93 10000 8.2 230 10:20 07.03.2020
1551 Drizzle 9 979 87 10000 6.2 230 09:57 07.03.2020
1552 Drizzle 9 979 87 10000 6.2 230 09:38 07.03.2020
1553 Drizzle 9 979 87 10000 6.2 230 09:18 07.03.2020
1554 Drizzle 9 979 87 10000 3.1 230 08:44 07.03.2020
1555 Drizzle 9 979 87 10000 3.1 230 08:21 07.03.2020
1556 Drizzle 9 979 87 10000 3.1 230 08:21 07.03.2020
1557 Drizzle 9 981 87 10000 5.7 230 07:49 07.03.2020
1558 Rain 8 978 95 0 1.58 192 07:22 07.03.2020
1559 Rain 8 978 95 0 1.58 192 06:54 07.03.2020
1560 Rain 8 978 95 0 1.58 192 06:29 07.03.2020
1561 Rain 8 978 95 0 1.58 192 05:50 07.03.2020
1562 Rain 10 982 93 10000 12.3 230 04:40 07.03.2020
1563 Rain 10 982 98 0 2.48 193 02:46 07.03.2020
1564 Clouds 15 982 67 10000 3.6 180 02:24 07.03.2020
1565 Clouds 15 982 67 10000 3.6 180 01:26 07.03.2020
1566 Clouds 15 983 67 10000 3.6 230 00:38 07.03.2020
1567 Clouds 15 983 67 10000 3.6 230 00:19 07.03.2020
1568 Clouds 16 984 63 10000 2.1 50 23:43 06.03.2020
1569 Clouds 16 984 63 10000 2.1 50 23:25 06.03.2020
1570 Clouds 18 986 55 10000 4.06 359 22:47 06.03.2020
1571 Clouds 18 986 55 10000 4.06 359 22:21 06.03.2020
1572 Clouds 17 987 59 10000 2.6 140 21:54 06.03.2020
1573 Clouds 17 987 59 10000 2.6 140 21:36 06.03.2020
1574 Clouds 16 987 59 10000 2.6 140 21:18 06.03.2020
1575 Clouds 15 988 67 10000 1.5 160 20:37 06.03.2020
1576 Clouds 15 988 67 10000 1.5 160 20:19 06.03.2020
1577 Clouds 15 989 63 10000 2.1 180 19:44 06.03.2020
1578 Clouds 15 989 63 10000 2.1 180 19:26 06.03.2020
1579 Clouds 16 991 63 10000 5.47 359 18:44 06.03.2020
1580 Clouds 16 991 63 10000 5.47 359 18:21 06.03.2020
1581 Clouds 16 992 63 10000 2.6 70 17:58 06.03.2020
1582 Clouds 16 992 63 10000 2.6 70 17:40 06.03.2020
1583 Clouds 16 994 67 10000 5.47 359 17:21 06.03.2020
1584 Clouds 16 994 67 10000 3.43 20 16:58 06.03.2020
1585 Clouds 16 994 67 10000 3.43 20 16:40 06.03.2020
1586 Clouds 16 994 67 10000 3.43 20 16:19 06.03.2020
1587 Clouds 14 996 67 10000 4.1 50 15:44 06.03.2020
1588 Clouds 14 996 67 10000 4.1 50 15:24 06.03.2020
1589 Clouds 13 997 76 10000 3.43 20 14:45 06.03.2020
1590 Clouds 13 997 76 10000 3.43 20 14:24 06.03.2020
1591 Clouds 13 998 76 10000 4.6 50 13:59 06.03.2020
1592 Clouds 13 998 76 10000 4.6 50 13:40 06.03.2020
1593 Clouds 13 998 76 10000 4.6 50 13:20 06.03.2020
1594 Clouds 13 999 71 10000 5.1 50 12:55 06.03.2020
1595 Clouds 13 999 71 10000 5.1 50 12:36 06.03.2020
1596 Clouds 13 999 71 10000 5.1 50 12:18 06.03.2020
1597 Clouds 14 1000 62 10000 6.2 90 11:43 06.03.2020
1598 Clouds 14 1000 62 10000 6.2 90 11:21 06.03.2020
1599 Clouds 14 1001 62 10000 4.1 20 10:58 06.03.2020
1600 Clouds 14 1001 62 10000 4.1 20 10:37 06.03.2020
1601 Clouds 14 1001 62 10000 4.1 20 10:19 06.03.2020
1602 Clouds 14 1001 62 10000 2.95 13 09:42 06.03.2020
1603 Clouds 14 1001 62 10000 2.95 13 09:24 06.03.2020
1604 Clouds 14 1002 62 10000 2.6 20 08:58 06.03.2020
1605 Clouds 14 1002 62 10000 2.6 20 08:40 06.03.2020
1606 Clouds 14 1002 62 10000 2.6 20 08:22 06.03.2020
1607 Clouds 14 1003 62 10000 2.1 320 07:47 06.03.2020
1608 Clouds 14 1003 62 10000 2.1 320 07:26 06.03.2020
1609 Clouds 14 1004 67 10000 1.5 360 06:51 06.03.2020
1610 Clouds 14 1004 67 10000 1.5 360 06:33 06.03.2020
1611 Clouds 14 1006 67 10000 2.1 340 05:41 06.03.2020
1612 Clouds 14 1006 67 10000 2.1 340 05:20 06.03.2020
1613 Clouds 17 1007 51 10000 3.6 360 04:44 06.03.2020
1614 Clouds 18 1010 48 10000 5.1 320 01:56 06.03.2020
1615 Clouds 18 1010 48 10000 5.1 320 01:38 06.03.2020
1616 Clouds 18 1010 48 10000 5.1 320 01:18 06.03.2020
1617 Clouds 18 1010 48 10000 5.1 320 00:31 06.03.2020
1618 Clouds 19 1010 45 10000 7.2 320 23:47 05.03.2020
1619 Clouds 19 1010 45 10000 7.2 320 23:29 05.03.2020
1620 Clouds 20 1011 40 10000 6.2 320 22:57 05.03.2020
1621 Clouds 20 1011 40 10000 6.2 320 22:38 05.03.2020
1622 Clouds 20 1011 40 10000 6.2 320 22:19 05.03.2020
1623 Clouds 20 1011 40 10000 5.1 320 21:56 05.03.2020
1624 Clouds 20 1011 40 10000 5.1 320 21:37 05.03.2020
1625 Clouds 20 1011 40 10000 5.1 320 21:37 05.03.2020
1626 Clouds 20 1011 40 10000 5.1 320 21:19 05.03.2020
1627 Clouds 20 1011 40 10000 5.7 320 20:55 05.03.2020
1628 Clouds 20 1011 40 10000 5.7 320 20:36 05.03.2020
1629 Clouds 20 1011 40 10000 5.7 320 20:18 05.03.2020
1630 Clouds 20 1011 49 10000 5.1 320 19:55 05.03.2020
1631 Clouds 20 1011 49 10000 5.1 320 19:37 05.03.2020
1632 Clouds 20 1011 49 10000 5.1 320 19:18 05.03.2020
1633 Clouds 18 1011 52 10000 3.31 307 18:38 05.03.2020
1634 Clouds 18 1011 52 10000 3.31 307 18:19 05.03.2020
1635 Clouds 18 1011 45 10000 3.31 307 17:59 05.03.2020
1636 Clouds 18 1011 45 10000 3.31 307 17:40 05.03.2020
1637 Clouds 18 1011 45 10000 3.31 307 17:21 05.03.2020
1638 Clouds 14 1012 66 10000 3.56 353 16:43 05.03.2020
1639 Clouds 14 1012 66 10000 3.56 353 16:25 05.03.2020
1640 Clouds 11 1012 81 10000 3.56 353 15:59 05.03.2020
1641 Clouds 11 1012 81 10000 3.56 353 15:40 05.03.2020
1642 Clouds 11 1012 81 10000 3.56 353 15:21 05.03.2020
1643 Clouds 10 1012 87 10000 1.5 140 14:55 05.03.2020
1644 Clouds 10 1012 87 10000 1.5 140 14:36 05.03.2020
1645 Clouds 10 1012 87 10000 1.5 140 14:18 05.03.2020
1646 Clouds 11 1012 71 10000 2.4 2 13:43 05.03.2020
1647 Clouds 11 1012 71 10000 2.78 1 13:21 05.03.2020
1648 Clouds 11 1012 71 10000 2.4 2 13:21 05.03.2020
1649 Clouds 11 1012 81 10000 2.6 50 12:57 05.03.2020
1650 Clouds 11 1012 81 10000 2.6 50 12:38 05.03.2020
1651 Clouds 11 1012 81 10000 2.6 50 12:19 05.03.2020
1652 Clouds 11 1012 81 10000 2.6 360 11:56 05.03.2020
1653 Clouds 11 1012 81 10000 2.6 360 11:37 05.03.2020
1654 Clouds 11 1012 81 10000 2.6 360 11:18 05.03.2020
1655 Clouds 10 1012 87 10000 2.04 351 10:56 05.03.2020
1656 Clouds 10 1012 87 10000 2.04 351 10:38 05.03.2020
1657 Clouds 10 1012 87 10000 2.04 351 10:38 05.03.2020
1658 Clouds 10 1012 87 10000 2.04 351 10:20 05.03.2020
1659 Clouds 10 1012 87 10000 2.1 340 09:45 05.03.2020
1660 Clouds 10 1012 87 10000 2.1 340 09:26 05.03.2020
1661 Clouds 10 1012 87 10000 2.1 50 08:47 05.03.2020
1662 Clouds 10 1012 87 10000 2.1 50 08:29 05.03.2020
1663 Clouds 10 1011 87 10000 2.1 140 07:48 05.03.2020
1664 Clouds 10 1011 87 10000 2.1 140 07:22 05.03.2020
1665 Clouds 12 1011 76 10000 2.1 320 06:49 05.03.2020
1666 Clouds 12 1011 76 10000 2.1 320 06:22 05.03.2020
1667 Clouds 12 1011 76 10000 1.5 140 05:57 05.03.2020
1668 Clouds 12 1011 76 10000 1.5 140 05:31 05.03.2020
1669 Clouds 11 1011 87 10000 2.6 360 04:23 05.03.2020
1670 Clouds 11 1010 87 10000 2.1 360 03:56 05.03.2020
1671 Clouds 11 1010 93 10000 4.6 360 02:21 05.03.2020
1672 Clouds 11 1009 87 10000 2.6 50 01:22 05.03.2020
1673 Clouds 12 1008 81 10000 2.6 50 00:29 05.03.2020
1674 Clouds 13 1007 76 10000 1.36 330 23:43 04.03.2020
1675 Clouds 13 1007 76 10000 1.36 330 23:24 04.03.2020
1676 Clouds 14 1007 71 10000 1.34 315 22:59 04.03.2020
1677 Clouds 14 1007 71 10000 1.34 315 22:40 04.03.2020
1678 Clouds 14 1007 71 10000 1.34 315 22:19 04.03.2020
1679 Rain 14 1006 71 10000 1.34 315 21:59 04.03.2020
1680 Rain 14 1006 71 10000 1.34 315 21:41 04.03.2020
1681 Rain 14 1006 71 10000 1.34 315 21:20 04.03.2020
1682 Rain 14 1006 67 10000 3.1 140 20:57 04.03.2020
1683 Rain 14 1006 67 10000 3.1 140 20:39 04.03.2020
1684 Rain 14 1006 67 10000 3.1 140 20:20 04.03.2020
1685 Clouds 15 1006 62 10000 2.6 140 19:42 04.03.2020
1686 Clouds 15 1006 62 10000 2.6 140 19:24 04.03.2020
1687 Clouds 14 1006 62 10000 2.1 160 18:57 04.03.2020
1688 Clouds 14 1006 62 10000 2.1 160 18:38 04.03.2020
1689 Clouds 14 1006 62 10000 2.1 160 18:20 04.03.2020
1690 Clouds 14 1006 62 10000 2.6 110 17:56 04.03.2020
1691 Clouds 14 1006 62 10000 2.6 110 17:37 04.03.2020
1692 Clouds 14 1006 62 10000 2.6 110 17:19 04.03.2020
1693 Clouds 12 1007 76 10000 4.6 180 16:44 04.03.2020
1694 Clouds 12 1007 76 10000 4.6 180 16:25 04.03.2020
1695 Clouds 12 1007 76 10000 4.1 180 15:59 04.03.2020
1696 Clouds 12 1007 76 10000 4.1 180 15:41 04.03.2020
1697 Clouds 12 1007 76 10000 4.1 180 15:22 04.03.2020
1698 Clouds 12 1008 71 10000 2.1 180 14:55 04.03.2020
1699 Clouds 12 1008 71 10000 2.1 180 14:37 04.03.2020
1700 Clouds 12 1008 71 10000 2.1 180 14:18 04.03.2020
1701 Clouds 13 1008 62 10000 4.1 320 13:56 04.03.2020
1702 Clouds 13 1008 62 10000 4.1 320 13:38 04.03.2020
1703 Clouds 13 1008 62 10000 4.1 320 13:19 04.03.2020
1704 Clouds 13 1008 62 10000 4.1 360 12:45 04.03.2020
1705 Clouds 13 1008 62 10000 4.1 360 12:27 04.03.2020
1706 Clouds 14 1009 54 10000 5.1 360 11:59 04.03.2020
1707 Clouds 14 1009 54 10000 5.1 360 11:41 04.03.2020
1708 Clouds 14 1009 54 10000 5.1 360 11:22 04.03.2020
1709 Clouds 13 1010 58 10000 9.8 360 10:56 04.03.2020
1710 Clouds 13 1010 58 10000 9.8 360 10:38 04.03.2020
1711 Clouds 13 1010 58 10000 9.8 360 10:18 04.03.2020
1712 Clouds 13 1011 54 10000 10.8 360 09:42 04.03.2020
1713 Clouds 13 1011 54 10000 10.8 360 09:21 04.03.2020
1714 Clouds 12 1012 58 10000 12.3 360 08:44 04.03.2020
1715 Clouds 12 1012 58 10000 12.3 360 08:26 04.03.2020
1716 Clouds 12 1012 58 10000 11.3 360 07:54 04.03.2020
1717 Clouds 12 1012 58 10000 11.3 360 07:35 04.03.2020
1718 Clouds 12 1013 58 10000 11.3 320 06:58 04.03.2020
1719 Clouds 12 1013 58 10000 11.3 320 06:40 04.03.2020
1720 Clouds 12 1013 58 10000 11.3 320 06:20 04.03.2020
1721 Clouds 12 1012 62 10000 10.3 320 05:45 04.03.2020
1722 Clouds 12 1013 62 10000 9.8 360 04:21 04.03.2020
1723 Clouds 12 1014 62 10000 11.8 360 03:38 04.03.2020
1724 Clouds 6 1013 79 0 5.45 357 02:59 04.03.2020
1725 Clouds 6 1013 79 0 5.45 357 02:37 04.03.2020
1726 Clouds 13 1013 50 10000 8.7 340 02:18 04.03.2020
1727 Clouds 13 1013 50 10000 8.7 340 01:50 04.03.2020
1728 Clouds 13 1013 50 10000 4.56 6 00:44 04.03.2020
1729 Clouds 13 1013 50 10000 4.56 6 00:24 04.03.2020
1730 Clouds 14 1013 44 10000 4.6 340 23:45 03.03.2020
1731 Clouds 14 1013 44 10000 4.6 340 23:27 03.03.2020
1732 Clouds 14 1013 44 10000 4.6 340 23:27 03.03.2020
1733 Clouds 15 1013 38 10000 7.2 360 22:57 03.03.2020
1734 Clouds 15 1013 38 10000 7.2 360 22:39 03.03.2020
1735 Clouds 15 1013 38 10000 7.2 360 22:19 03.03.2020
1736 Clouds 14 1014 61 10000 8.7 320 21:56 03.03.2020
1737 Clouds 14 1014 61 10000 8.7 320 21:37 03.03.2020
1738 Clouds 14 1014 61 10000 8.7 320 21:18 03.03.2020
1739 Clouds 15 1013 61 10000 4.12 348 20:41 03.03.2020
1740 Clouds 15 1013 49 10000 4.87 353 20:21 03.03.2020
1741 Clouds 15 1013 50 10000 5.08 357 20:21 03.03.2020
1742 Clouds 15 1014 38 10000 4.1 360 19:59 03.03.2020
1743 Clouds 15 1014 38 10000 4.1 360 19:37 03.03.2020
1744 Clouds 15 1014 38 10000 4.1 360 19:19 03.03.2020
1745 Clouds 13 1014 47 10000 3.1 90 18:59 03.03.2020
1746 Clouds 13 1014 47 10000 3.1 90 18:41 03.03.2020
1747 Clouds 13 1014 47 10000 3.1 90 18:21 03.03.2020
1748 Clouds 11 1015 50 10000 4.1 90 17:57 03.03.2020
1749 Clouds 11 1015 50 10000 4.1 90 17:39 03.03.2020
1750 Clouds 11 1015 50 10000 4.1 90 17:39 03.03.2020
1751 -273 0 0 0 0 0 17:21 03.03.2020
1752 Clouds 11 1016 48 10000 3.6 90 16:57 03.03.2020
1753 Clouds 11 1016 48 10000 3.6 90 16:37 03.03.2020
1754 Clouds 11 1016 48 10000 3.6 90 16:19 03.03.2020
1755 Clouds 10 1016 53 10000 2.6 140 15:45 03.03.2020
1756 Clouds 10 1016 53 10000 2.6 140 15:23 03.03.2020
1757 Clouds 10 1016 57 10000 1.94 14 14:58 03.03.2020
1758 Clouds 10 1016 57 10000 2.05 12 14:40 03.03.2020
1759 Clouds 10 1016 57 10000 0.97 16 14:19 03.03.2020
1760 Clouds 9 1016 66 10000 0.96 31 13:57 03.03.2020
1761 Clouds 9 1016 66 10000 0.96 31 13:38 03.03.2020
1762 Clouds 9 1016 66 10000 0.97 16 13:19 03.03.2020
1763 Clouds 8 1015 61 10000 4.6 230 12:46 03.03.2020
1764 Clouds 8 1015 61 10000 4.6 230 12:25 03.03.2020
1765 Clouds 7 1014 70 10000 4.6 270 11:57 03.03.2020
1766 Clouds 7 1014 70 10000 4.6 270 11:37 03.03.2020
1767 Clouds 7 1014 70 10000 4.6 270 11:18 03.03.2020
1768 Clouds 7 1014 70 10000 7.7 230 10:55 03.03.2020
1769 Clouds 7 1014 70 10000 7.7 230 10:37 03.03.2020
1770 Clouds 7 1014 70 10000 7.7 230 10:18 03.03.2020
1771 Clouds 7 1013 70 10000 10.8 230 09:43 03.03.2020
1772 Clouds 7 1013 70 10000 10.8 230 09:43 03.03.2020
1773 Clouds 7 1013 70 10000 10.8 230 09:22 03.03.2020
1774 Clouds 7 1012 70 10000 11.3 230 08:56 03.03.2020
1775 Clouds 7 1012 70 10000 11.3 230 08:37 03.03.2020
1776 Clouds 7 1012 70 10000 11.3 230 08:19 03.03.2020
1777 Clouds 8 1011 65 10000 11.3 230 07:42 03.03.2020
1778 Clouds 8 1011 65 10000 11.3 230 07:20 03.03.2020
1779 Clouds 8 1010 65 10000 13.9 230 06:41 03.03.2020
1780 Clouds 8 1010 65 10000 13.9 230 06:22 03.03.2020
1781 Clouds 8 1008 65 10000 15.9 200 05:47 03.03.2020
1782 Clouds 9 1006 57 10000 17.5 230 04:58 03.03.2020
1783 Clouds 9 1006 57 10000 17.5 230 04:24 03.03.2020
1784 Rain 8 1004 83 0 1.95 261 01:40 03.03.2020
1785 Rain 12 1002 62 10000 6.2 200 00:49 03.03.2020
1786 Rain 12 1002 62 10000 6.2 200 00:26 03.03.2020
1787 Rain 13 1002 54 10000 8.7 200 23:57 02.03.2020
1788 Rain 13 1002 54 10000 8.7 200 23:38 02.03.2020
1789 Rain 13 1002 54 10000 8.7 200 23:19 02.03.2020
1790 Clouds 14 1002 54 10000 9.3 200 22:54 02.03.2020
1791 Clouds 14 1002 54 10000 9.3 200 22:36 02.03.2020
1792 Clouds 14 1002 54 10000 9.3 200 22:18 02.03.2020
1793 Clouds 14 1002 50 10000 7.7 200 21:41 02.03.2020
1794 Clouds 14 1002 50 10000 7.7 200 21:23 02.03.2020
1795 Rain 14 1003 50 10000 2.1 160 20:58 02.03.2020
1796 Rain 14 1003 50 10000 2.1 160 20:39 02.03.2020
1797 Rain 14 1003 50 10000 2.1 160 20:20 02.03.2020
1798 Clouds 15 1003 47 10000 1.5 140 19:56 02.03.2020
1799 Clouds 15 1003 47 10000 1.5 140 19:37 02.03.2020
1800 Clouds 15 1003 47 10000 1.5 140 19:19 02.03.2020
1801 Clouds 15 1004 44 10000 2.1 200 18:45 02.03.2020
1802 Clouds 15 1004 44 10000 2.1 200 18:20 02.03.2020
1803 Clouds 13 1004 50 10000 4.1 230 17:59 02.03.2020
1804 -273 0 0 0 0 0 17:41 02.03.2020
1805 Clouds 13 1004 50 10000 4.1 230 17:21 02.03.2020
1806 Clouds 13 1004 50 10000 4.1 230 17:21 02.03.2020
1807 -273 0 0 0 0 0 17:21 02.03.2020
1808 Clouds 13 1005 50 10000 3.1 230 16:55 02.03.2020
1809 Clouds 13 1005 50 10000 3.1 230 16:37 02.03.2020
1810 Clouds 13 1005 50 10000 3.1 230 16:19 02.03.2020
1811 Clouds 12 1006 58 10000 4.1 230 15:43 02.03.2020
1812 Clouds 12 1006 58 10000 4.1 230 15:20 02.03.2020
1813 Clear 12 1006 54 10000 2.6 320 14:55 02.03.2020
1814 Clear 12 1006 54 10000 2.6 320 14:36 02.03.2020
1815 Clouds 12 1006 54 10000 2.6 320 14:18 02.03.2020
1816 Clouds 11 1006 62 10000 2.6 320 13:39 02.03.2020
1817 Clouds 11 1006 62 10000 2.6 320 13:19 02.03.2020
1818 Clouds 11 1005 62 10000 5.1 320 12:44 02.03.2020
1819 Clouds 11 1005 62 10000 5.1 320 12:21 02.03.2020
1820 Clouds 9 1005 76 10000 3.6 290 11:57 02.03.2020
1821 Clouds 9 1005 76 10000 3.6 290 11:37 02.03.2020
1822 Clouds 9 1005 76 10000 3.6 290 11:18 02.03.2020
1823 Clouds 10 1004 57 10000 7.7 250 10:54 02.03.2020
1824 Clouds 10 1004 57 10000 7.7 250 10:36 02.03.2020
1825 Clouds 10 1004 57 10000 7.7 250 10:18 02.03.2020
1826 Clouds 10 1004 57 10000 6.2 250 09:42 02.03.2020
1827 Clouds 10 1004 57 10000 6.2 250 09:24 02.03.2020
1828 Clouds 6 1003 81 10000 3.6 270 08:47 02.03.2020
1829 Clouds 6 1003 81 10000 3.6 270 08:22 02.03.2020
1830 Clear 9 1003 66 10000 1.5 270 07:43 02.03.2020
1831 Clear 9 1003 66 10000 1.5 270 07:20 02.03.2020
1832 Clear 10 1003 61 10000 3.1 270 06:47 02.03.2020
1833 Clear 10 1003 61 10000 5.7 250 05:55 02.03.2020
1834 Clear 10 1003 66 10000 4.6 250 04:26 02.03.2020
1835 Clear 11 1003 57 10000 6.2 230 03:23 02.03.2020
1836 Clouds 12 1003 50 10000 3.1 230 02:48 02.03.2020
1837 Clouds 12 1002 54 10000 4.1 230 01:52 02.03.2020
1838 Clouds 12 1002 54 10000 4.1 230 01:31 02.03.2020
1839 Clouds 13 1002 47 10000 5.1 230 00:24 02.03.2020
1840 Clouds 14 1002 79 10000 5.1 230 23:58 01.03.2020
1841 Clouds 14 1002 79 10000 5.1 230 23:40 01.03.2020
1842 Clouds 14 1002 59 10000 5.1 230 23:20 01.03.2020
1843 Clouds 14 1002 44 10000 4.6 230 22:43 01.03.2020
1844 Clouds 14 1002 44 10000 4.6 230 22:21 01.03.2020
1845 Clouds 14 1003 47 10000 6.7 230 21:57 01.03.2020
1846 Clouds 14 1003 47 10000 6.7 230 21:38 01.03.2020
1847 Clouds 14 1003 47 10000 6.7 230 21:19 01.03.2020
1848 Clouds 13 1003 47 10000 7.2 230 20:44 01.03.2020
1849 Clouds 13 1003 47 10000 7.2 230 20:25 01.03.2020
1850 Clouds 13 1002 50 10000 9.3 230 19:57 01.03.2020
1851 Clouds 13 1002 50 10000 9.3 230 19:39 01.03.2020
1852 Clouds 13 1002 50 10000 9.3 230 19:21 01.03.2020
1853 Clouds 13 1002 54 10000 7.7 230 18:41 01.03.2020
1854 Clouds 13 1002 54 10000 7.7 230 18:20 01.03.2020
1855 Clouds 13 1003 54 10000 8.2 230 17:58 01.03.2020
1856 Clouds 13 1003 54 10000 8.2 230 17:40 01.03.2020
1857 Clouds 13 1003 54 10000 8.2 230 17:21 01.03.2020
1858 Clouds 13 1003 54 10000 6.7 230 16:59 01.03.2020
1859 Clouds 13 1003 54 10000 6.7 230 16:39 01.03.2020
1860 Clouds 13 1003 54 10000 6.7 230 16:39 01.03.2020
1861 Clouds 13 1003 54 10000 6.7 230 16:19 01.03.2020
1862 Clouds 13 1002 54 10000 7.2 230 15:58 01.03.2020
1863 Clouds 13 1002 54 10000 7.2 230 15:40 01.03.2020
1864 Clouds 13 1002 54 10000 7.2 230 15:21 01.03.2020
1865 Clouds 12 1002 62 10000 8.2 230 14:57 01.03.2020
1866 Clouds 12 1002 62 10000 8.2 230 14:39 01.03.2020
1867 Clouds 12 1002 62 10000 8.2 230 14:21 01.03.2020
1868 Clouds 11 1002 66 10000 8.7 230 13:56 01.03.2020
1869 Clouds 11 1002 66 10000 8.7 230 13:38 01.03.2020
1870 Clouds 11 1002 66 10000 8.7 230 13:19 01.03.2020
1871 Clouds 12 1002 71 10000 3.6 320 12:44 01.03.2020
1872 Clouds 12 1002 71 10000 3.6 320 12:23 01.03.2020
1873 Clouds 12 1002 71 10000 3.6 320 12:23 01.03.2020
1874 Clouds 11 1001 76 10000 4.6 270 11:58 01.03.2020
1875 Clouds 11 1001 76 10000 4.6 270 11:39 01.03.2020
1876 Clouds 11 1001 76 10000 4.6 270 11:19 01.03.2020
1877 Drizzle 11 1001 76 10000 3.6 270 10:56 01.03.2020
1878 Drizzle 11 1001 76 10000 3.6 270 10:37 01.03.2020
1879 Drizzle 11 1001 76 10000 3.6 270 10:18 01.03.2020
1880 Clouds 11 1000 76 10000 5.1 270 09:44 01.03.2020
1881 Clouds 11 1000 76 10000 5.1 270 09:26 01.03.2020
1882 Clouds 11 1000 76 10000 4.6 270 08:47 01.03.2020
1883 Clouds 11 1000 76 10000 4.6 270 08:28 01.03.2020
1884 Clouds 11 999 87 10000 4.1 270 07:57 01.03.2020
1885 Clouds 11 999 87 10000 4.1 270 07:39 01.03.2020
1886 Clouds 11 999 87 10000 4.1 270 07:21 01.03.2020
1887 Drizzle 11 998 87 10000 9.3 230 06:42 01.03.2020
1888 Drizzle 11 998 87 10000 10.3 230 05:58 01.03.2020
1889 Clouds 11 997 76 10000 4.1 250 03:38 01.03.2020
1890 Clouds 10 996 87 10000 6.2 230 02:23 01.03.2020
1891 Rain 11 996 87 10000 9.8 230 01:46 01.03.2020
1892 Drizzle 11 996 93 10000 10.8 230 00:59 01.03.2020
1893 Drizzle 11 996 93 10000 10.8 230 00:39 01.03.2020
1894 Drizzle 11 996 93 10000 10.8 230 00:18 01.03.2020
1895 Drizzle 12 996 81 10000 12.3 230 23:41 29.02.2020
1896 Drizzle 12 996 81 10000 12.3 230 23:22 29.02.2020
1897 Drizzle 14 996 71 10000 9.3 230 22:39 29.02.2020
1898 Drizzle 14 996 71 10000 9.3 230 22:21 29.02.2020
1899 Drizzle 14 996 76 10000 6.2 230 21:41 29.02.2020
1900 Drizzle 14 996 76 10000 6.2 230 21:21 29.02.2020
1901 Drizzle 16 996 67 10000 7.2 230 20:42 29.02.2020
1902 Drizzle 16 996 67 10000 7.2 230 20:21 29.02.2020
1903 Rain 16 996 67 10000 1.5 230 19:56 29.02.2020
1904 Rain 16 996 67 10000 1.5 230 19:37 29.02.2020
1905 Rain 16 996 67 10000 1.5 230 19:19 29.02.2020
1906 Rain 16 996 67 10000 2.6 90 18:42 29.02.2020
1907 Clouds 16 996 67 10000 2.6 180 18:23 29.02.2020
1908 Clouds 15 996 67 10000 2.1 90 17:57 29.02.2020
1909 Clouds 15 996 67 10000 2.1 90 17:39 29.02.2020
1910 Clouds 15 996 67 10000 2.1 90 17:19 29.02.2020
1911 Clouds 14 996 71 10000 2.6 360 16:45 29.02.2020
1912 Clouds 14 996 71 10000 2.6 360 16:20 29.02.2020
1913 Clouds 12 997 81 10000 2.6 360 15:58 29.02.2020
1914 Clouds 12 997 81 10000 2.6 360 15:38 29.02.2020
1915 Clouds 12 997 81 10000 2.6 360 15:20 29.02.2020
1916 Clouds 10 997 81 10000 3.1 360 14:40 29.02.2020
1917 Clouds 10 997 81 10000 3.1 360 14:22 29.02.2020
1918 Clouds 9 998 87 10000 3.6 320 13:46 29.02.2020
1919 Clouds 9 998 87 10000 3.6 320 13:28 29.02.2020
1920 Clouds 9 998 87 10000 3.6 90 12:58 29.02.2020
1921 Clouds 9 998 87 10000 3.6 90 12:38 29.02.2020
1922 Clouds 9 998 87 10000 3.6 90 12:20 29.02.2020
1923 Clouds 8 999 93 10000 3.1 90 11:45 29.02.2020
1924 Clouds 8 999 93 10000 3.1 90 11:27 29.02.2020
1925 Rain 8 1000 93 10000 4.6 110 10:55 29.02.2020
1926 Rain 8 1000 93 10000 4.6 110 10:36 29.02.2020
1927 Rain 8 1000 93 10000 4.6 110 10:18 29.02.2020
1928 Rain 9 1001 87 10000 2.1 200 09:46 29.02.2020
1929 Rain 9 1001 87 10000 2.1 200 09:18 29.02.2020
1930 Rain 8 1001 87 10000 3.57 5 08:40 29.02.2020
1931 Rain 8 1001 87 10000 3.57 5 08:21 29.02.2020
1932 Clouds 8 1003 81 10000 3.05 355 07:53 29.02.2020
1933 Clouds 8 1003 81 10000 3.05 355 07:25 29.02.2020
1934 Clouds 8 1004 81 10000 2.1 20 06:56 29.02.2020
1935 Clouds 8 1004 81 10000 2.1 20 06:30 29.02.2020
1936 Clouds 8 1005 81 10000 3.1 360 05:52 29.02.2020
1937 Clouds 8 1005 81 10000 3.1 360 05:32 29.02.2020
1938 Clouds 8 1006 81 10000 4.1 320 04:18 29.02.2020
1939 Clouds 8 1007 75 10000 4.1 320 03:37 29.02.2020
1940 Clouds 8 1007 75 10000 4.1 320 03:18 29.02.2020
1941 Clouds 9 1007 70 10000 6.2 230 02:26 29.02.2020
1942 Clouds 10 1006 66 10000 9.3 230 00:52 29.02.2020
1943 Clouds 10 1006 66 10000 9.3 230 00:28 29.02.2020
1944 Clouds 10 1006 66 10000 12.9 230 23:42 28.02.2020
1945 Clouds 10 1006 66 10000 12.9 230 23:24 28.02.2020
1946 Clouds 11 1006 62 10000 12.3 230 22:43 28.02.2020
1947 Clouds 11 1006 62 10000 12.3 230 22:23 28.02.2020
1948 Clouds 11 1005 62 10000 10.3 230 21:56 28.02.2020
1949 Clouds 11 1005 62 10000 10.3 230 21:38 28.02.2020
1950 Clouds 12 1005 62 10000 10.3 230 21:19 28.02.2020
1951 Clouds 12 1005 66 10000 13.4 230 20:39 28.02.2020
1952 Clouds 12 1005 66 10000 13.4 230 20:21 28.02.2020
1953 Clouds 12 1005 62 10000 14.4 230 19:57 28.02.2020
1954 Clouds 12 1005 62 10000 14.4 230 19:39 28.02.2020
1955 Clouds 12 1005 62 10000 14.4 230 19:39 28.02.2020
1956 Clouds 12 1005 62 10000 14.4 230 19:20 28.02.2020
1957 Clouds 12 1004 66 10000 11.3 230 18:48 28.02.2020
1958 Clouds 12 1004 66 10000 11.3 230 18:29 28.02.2020
1959 Clouds 12 1005 66 10000 12.3 230 17:59 28.02.2020
1960 Clouds 12 1005 66 10000 12.3 230 17:40 28.02.2020
1961 Clouds 12 1005 66 10000 12.3 230 17:21 28.02.2020
1962 Clouds 11 1004 70 10000 13.4 230 16:44 28.02.2020
1963 Clouds 11 1004 70 10000 13.4 230 16:20 28.02.2020
1964 Clouds 11 1004 76 10000 13.4 230 15:58 28.02.2020
1965 Clouds 11 1004 76 10000 13.4 230 15:39 28.02.2020
1966 Clouds 11 1004 76 10000 13.4 230 15:19 28.02.2020
1967 Clouds 10 1004 70 10000 12.3 230 14:57 28.02.2020
1968 Clouds 10 1004 70 10000 12.3 230 14:38 28.02.2020
1969 Clouds 10 1004 70 10000 12.3 230 14:18 28.02.2020
1970 Clouds 9 1003 76 10000 12.9 230 13:41 28.02.2020
1971 Clouds 9 1003 76 10000 12.9 230 13:20 28.02.2020
1972 Clouds 9 1002 70 10000 16.5 230 12:58 28.02.2020
1973 Clouds 9 1002 70 10000 16.5 230 12:39 28.02.2020
1974 Clouds 9 1002 70 10000 16.5 230 12:21 28.02.2020
1975 Clouds 8 1001 81 10000 13.4 230 11:41 28.02.2020
1976 Clouds 8 1001 81 10000 13.4 230 11:22 28.02.2020
1977 Clouds 8 1000 75 10000 15.4 230 10:55 28.02.2020
1978 Clouds 8 1000 75 10000 15.4 230 10:36 28.02.2020
1979 Clouds 8 1000 75 10000 15.4 230 10:18 28.02.2020
1980 Clouds 8 1000 75 10000 17.5 230 09:42 28.02.2020
1981 Clouds 8 1000 75 10000 17.5 230 09:20 28.02.2020
1982 Clouds 8 1000 75 10000 17 200 08:54 28.02.2020
1983 Clouds 8 1000 75 10000 17 200 08:36 28.02.2020
1984 Clouds 8 1000 75 10000 17 200 08:18 28.02.2020
1985 Clouds 8 999 75 10000 13.9 200 07:38 28.02.2020
1986 Clouds 8 999 75 10000 13.9 200 07:19 28.02.2020
1987 Clouds 8 999 75 10000 17 200 06:41 28.02.2020
1988 Clouds 8 999 75 10000 17.5 200 05:37 28.02.2020
1989 Clouds 8 999 81 10000 16.5 230 04:32 28.02.2020
1990 Clouds 8 1000 81 10000 13.4 230 03:34 28.02.2020
1991 Drizzle 7 1000 87 10000 13.4 230 02:42 28.02.2020
1992 Drizzle 7 1000 87 10000 13.4 230 02:18 28.02.2020
1993 Rain 8 999 81 10000 15.9 230 00:35 28.02.2020
1994 Drizzle 8 998 81 10000 15.9 230 23:58 27.02.2020
1995 Drizzle 8 998 81 10000 15.9 230 23:38 27.02.2020
1996 Drizzle 8 998 81 10000 15.9 230 23:18 27.02.2020
1997 Rain 8 997 75 10000 14.9 230 22:40 27.02.2020
1998 Rain 9 997 75 10000 14.9 230 22:22 27.02.2020
1999 Rain 9 997 70 10000 15.9 230 21:55 27.02.2020
2000 Rain 9 997 70 10000 15.9 230 21:37 27.02.2020
2001 Rain 9 997 70 10000 15.9 230 21:18 27.02.2020
2002 Drizzle 9 996 66 10000 15.4 230 20:42 27.02.2020
2003 Drizzle 9 996 66 10000 15.4 230 20:23 27.02.2020
2004 Rain 10 994 70 10000 19 230 19:59 27.02.2020
2005 Rain 10 994 70 10000 19 230 19:41 27.02.2020
2006 Rain 10 994 70 10000 19 230 19:23 27.02.2020
2007 Rain 9 993 70 10000 18 230 18:58 27.02.2020
2008 Rain 9 993 70 10000 18 230 18:39 27.02.2020
2009 Rain 9 993 70 10000 18 230 18:20 27.02.2020
2010 Drizzle 9 993 76 10000 16.5 230 17:56 27.02.2020
2011 Drizzle 9 993 76 10000 16.5 230 17:37 27.02.2020
2012 Drizzle 9 993 76 10000 16.5 230 17:18 27.02.2020
2013 Drizzle 8 992 70 8000 13.9 230 16:54 27.02.2020
2014 Drizzle 8 992 70 8000 13.9 230 16:36 27.02.2020
2015 Drizzle 8 992 70 8000 13.9 230 16:18 27.02.2020
2016 Drizzle 8 993 75 10000 7.2 230 15:39 27.02.2020
2017 Drizzle 8 993 75 10000 7.2 230 15:20 27.02.2020
2018 Rain 7 992 81 6000 8.2 230 14:59 27.02.2020
2019 Rain 7 992 81 6000 8.2 230 14:39 27.02.2020
2020 Rain 7 992 81 6000 8.2 230 14:21 27.02.2020
2021 Rain 7 992 81 6000 8.2 230 13:45 27.02.2020
2022 Rain 7 992 81 6000 8.2 230 13:23 27.02.2020
2023 Drizzle 6 991 87 10000 6.7 250 12:59 27.02.2020
2024 Drizzle 6 991 87 10000 6.7 250 12:59 27.02.2020
2025 Drizzle 6 991 87 10000 6.7 250 12:41 27.02.2020
2026 Drizzle 6 991 87 10000 6.7 250 12:19 27.02.2020
2027 Rain 6 991 87 4500 10.3 250 11:45 27.02.2020
2028 Rain 7 991 75 8000 4.1 250 11:23 27.02.2020
2029 Rain 5 991 93 8000 5.7 360 10:55 27.02.2020
2030 Rain 5 991 93 8000 5.7 360 10:37 27.02.2020
2031 Rain 5 991 93 8000 5.7 360 10:18 27.02.2020
2032 Rain 5 991 93 8000 7.7 230 09:40 27.02.2020
2033 Rain 5 991 93 8000 7.7 230 09:40 27.02.2020
2034 Rain 5 991 93 8000 7.7 230 09:22 27.02.2020
2035 Drizzle 6 990 87 10000 6.2 200 08:42 27.02.2020
2036 Drizzle 6 990 87 10000 6.2 200 08:23 27.02.2020
2037 Rain 6 991 87 10000 6.7 230 07:48 27.02.2020
2038 Rain 6 991 87 10000 6.7 230 07:26 27.02.2020
2039 Rain 7 992 87 10000 6.7 200 06:54 27.02.2020
2040 Rain 7 992 87 10000 6.7 200 06:19 27.02.2020
2041 Drizzle 8 991 75 10000 11.8 230 04:21 27.02.2020
2042 Rain 9 983 87 4000 21.6 230 02:54 27.02.2020
2043 Rain 10 988 61 10000 19 230 00:47 27.02.2020
2044 Rain 10 988 61 10000 19 230 00:29 27.02.2020
2045 Rain 11 989 71 10000 15.4 230 23:41 26.02.2020
2046 Rain 11 989 71 10000 15.4 230 23:20 26.02.2020
2047 Rain 11 988 76 10000 18 230 22:59 26.02.2020
2048 Rain 11 988 76 10000 18 230 22:40 26.02.2020
2049 Rain 12 988 76 10000 18 230 22:21 26.02.2020
2050 Rain 13 988 76 10000 18.5 230 21:57 26.02.2020
2051 Rain 13 988 76 10000 18.5 230 21:38 26.02.2020
2052 Rain 13 988 76 10000 18.5 230 21:19 26.02.2020
2053 Rain 13 988 76 10000 14.9 230 20:56 26.02.2020
2054 Rain 13 988 76 10000 14.9 230 20:38 26.02.2020
2055 Rain 13 988 76 10000 14.9 230 20:18 26.02.2020
2056 Clouds 13 988 76 10000 15.4 230 19:47 26.02.2020
2057 Clouds 13 988 76 10000 15.4 230 19:21 26.02.2020
2058 Rain 12 989 81 10000 11.8 230 18:59 26.02.2020
2059 Rain 12 989 81 10000 11.8 230 18:41 26.02.2020
2060 Rain 12 989 81 10000 11.8 230 18:41 26.02.2020
2061 Rain 12 989 81 10000 11.8 230 18:22 26.02.2020
2062 Rain 12 989 87 10000 8.2 230 17:59 26.02.2020
2063 Rain 12 989 87 10000 8.2 230 17:39 26.02.2020
2064 Rain 12 989 87 10000 8.2 230 17:18 26.02.2020
2065 Rain 12 989 87 10000 8.2 230 17:18 26.02.2020
2066 Drizzle 12 990 81 10000 6.2 230 16:56 26.02.2020
2067 Drizzle 12 990 81 10000 6.2 230 16:37 26.02.2020
2068 Drizzle 12 990 81 10000 6.2 230 16:18 26.02.2020
2069 Drizzle 12 991 76 10000 2.6 270 15:42 26.02.2020
2070 Drizzle 12 991 76 10000 2.6 270 15:23 26.02.2020
2071 Drizzle 12 992 76 10000 6.7 270 14:43 26.02.2020
2072 Drizzle 12 992 76 10000 6.7 270 14:23 26.02.2020
2073 Clouds 12 992 71 10000 9.3 230 13:44 26.02.2020
2074 Clouds 12 992 71 10000 9.3 230 13:23 26.02.2020
2075 Clouds 12 992 71 10000 11.3 230 12:58 26.02.2020
2076 Clouds 12 992 71 10000 11.3 230 12:37 26.02.2020
2077 Clouds 12 992 71 10000 11.3 230 12:18 26.02.2020
2078 Clouds 11 993 76 10000 11.3 230 11:42 26.02.2020
2079 Clouds 11 993 76 10000 11.3 230 11:22 26.02.2020
2080 Clouds 11 993 81 10000 12.9 230 10:58 26.02.2020
2081 Clouds 11 993 81 10000 12.9 230 10:39 26.02.2020
2082 Clouds 11 993 81 10000 12.9 230 10:20 26.02.2020
2083 Clouds 10 993 87 10000 12.9 230 09:43 26.02.2020
2084 Clouds 10 993 87 10000 12.9 230 09:23 26.02.2020
2085 Clouds 11 993 87 10000 12.3 230 08:58 26.02.2020
2086 Clouds 11 993 87 10000 12.3 230 08:37 26.02.2020
2087 Clouds 11 993 87 10000 12.3 230 08:18 26.02.2020
2088 Clouds 11 994 81 10000 11.8 230 07:42 26.02.2020
2089 Clouds 11 994 81 10000 11.8 230 07:23 26.02.2020
2090 Clouds 10 994 87 10000 14.4 230 06:50 26.02.2020
2091 Clouds 10 994 87 10000 14.4 230 06:32 26.02.2020
2092 Clouds 10 994 87 10000 14.9 230 05:51 26.02.2020
2093 Clouds 10 994 87 10000 14.9 230 05:23 26.02.2020
2094 Clouds 10 994 93 10000 14.9 230 04:19 26.02.2020
2095 Clouds 11 994 81 10000 10.8 250 02:21 26.02.2020
2096 Clouds 11 995 81 10000 10.3 250 01:45 26.02.2020
2097 Drizzle 11 995 81 10000 4.6 270 00:48 26.02.2020
2098 Drizzle 11 995 81 10000 4.6 270 00:22 26.02.2020
2099 Drizzle 11 995 81 10000 8.2 230 23:45 25.02.2020
2100 Drizzle 11 995 81 10000 8.2 230 23:26 25.02.2020
2101 Rain 11 996 81 10000 7.2 230 22:59 25.02.2020
2102 Rain 11 996 81 10000 7.2 230 22:41 25.02.2020
2103 Rain 11 996 81 10000 7.2 230 22:19 25.02.2020
2104 Rain 10 996 76 10000 7.7 250 21:40 25.02.2020
2105 Rain 10 996 76 10000 7.7 250 21:21 25.02.2020
2106 Rain 10 996 81 10000 10.8 250 20:59 25.02.2020
2107 Rain 10 996 81 10000 10.8 250 20:40 25.02.2020
2108 Rain 10 996 81 10000 10.8 250 20:21 25.02.2020
2109 Rain 10 996 76 10000 8.2 250 19:59 25.02.2020
2110 Rain 10 996 76 10000 8.2 250 19:40 25.02.2020
2111 Rain 10 996 76 10000 8.2 250 19:19 25.02.2020
2112 Rain 10 998 71 10000 5.1 320 18:42 25.02.2020
2113 Rain 10 998 71 10000 5.1 320 18:21 25.02.2020
2114 Drizzle 9 998 81 10000 2.6 320 17:58 25.02.2020
2115 Drizzle 9 998 81 10000 2.6 320 17:38 25.02.2020
2116 Drizzle 9 998 81 10000 2.6 320 17:19 25.02.2020
2117 Drizzle 9 999 76 10000 4.6 320 16:58 25.02.2020
2118 Drizzle 9 999 76 10000 4.6 320 16:58 25.02.2020
2119 Drizzle 9 999 76 10000 4.6 320 16:40 25.02.2020
2120 Drizzle 9 999 76 10000 4.6 320 16:22 25.02.2020
2121 Drizzle 9 999 76 10000 4.6 320 16:22 25.02.2020
2122 Clouds 9 999 70 10000 9.8 230 15:56 25.02.2020
2123 Clouds 9 999 70 10000 9.8 230 15:38 25.02.2020
2124 Clouds 9 999 70 10000 9.8 230 15:18 25.02.2020
2125 Clouds 8 1000 70 10000 10.3 230 14:56 25.02.2020
2126 Clouds 8 1000 70 10000 10.3 230 14:37 25.02.2020
2127 Clouds 8 1000 70 10000 10.3 230 14:37 25.02.2020
2128 Clouds 8 1000 70 10000 10.3 230 14:37 25.02.2020
2129 Clouds 8 1000 70 10000 10.3 230 14:18 25.02.2020
2130 Clouds 8 1000 70 10000 10.3 230 14:18 25.02.2020
2131 Clouds 8 1000 70 10000 10.3 230 14:18 25.02.2020
2132 Clouds 8 1000 70 10000 10.3 230 13:55 25.02.2020
2133 Clouds 8 1000 70 10000 9.3 230 13:37 25.02.2020
2134 Clouds 8 1000 70 10000 9.3 230 13:18 25.02.2020
2135 Clouds 7 1000 75 10000 8.7 230 12:41 25.02.2020
2136 Clouds 7 1000 75 10000 8.7 230 12:21 25.02.2020
2137 Clouds 7 1001 81 10000 9.8 230 11:56 25.02.2020
2138 Clouds 7 1001 81 10000 9.8 230 11:38 25.02.2020
2139 Clouds 7 1001 81 10000 9.8 230 11:19 25.02.2020
2140 Clouds 7 1001 81 10000 9.8 230 11:19 25.02.2020
2141 Clouds 7 1001 75 10000 12.9 230 10:59 25.02.2020
2142 Clouds 7 1001 75 10000 12.9 230 10:59 25.02.2020
2143 Clouds 7 1001 75 10000 12.9 230 10:40 25.02.2020
2144 Clouds 7 1001 75 10000 12.9 230 10:21 25.02.2020
2145 Clouds 7 1000 75 10000 15.9 230 09:41 25.02.2020
2146 Clouds 7 1000 75 10000 15.9 230 09:21 25.02.2020
2147 Clouds 7 999 75 10000 17.5 230 08:45 25.02.2020
2148 Clouds 7 999 75 10000 17.5 230 08:27 25.02.2020
2149 Clouds 7 999 75 10000 15.9 230 07:56 25.02.2020
2150 Clouds 7 999 75 10000 15.9 230 07:36 25.02.2020
2151 Clouds 7 999 75 10000 15.9 230 07:18 25.02.2020
2152 Clouds 7 999 75 10000 17.5 230 06:28 25.02.2020
2153 Rain 7 999 75 10000 16.5 230 05:25 25.02.2020
2154 Rain 7 997 81 10000 15.9 230 02:54 25.02.2020
2155 Drizzle 7 997 81 10000 15.4 230 01:30 25.02.2020
2156 Drizzle 8 996 87 10000 12.9 230 00:43 25.02.2020
2157 Drizzle 8 996 87 10000 12.9 230 00:22 25.02.2020
2158 Drizzle 7 995 81 10000 17 230 23:40 24.02.2020
2159 Drizzle 7 995 81 10000 17 230 23:19 24.02.2020
2160 Drizzle 8 994 75 10000 18 230 22:38 24.02.2020
2161 Drizzle 9 994 75 10000 18 230 22:19 24.02.2020
2162 Rain 9 992 70 10000 17.5 230 21:57 24.02.2020
2163 Rain 9 992 70 10000 17.5 230 21:39 24.02.2020
2164 Rain 9 992 70 10000 17.5 230 21:19 24.02.2020
2165 Rain 8 992 70 10000 15.9 230 20:57 24.02.2020
2166 Rain 8 992 70 10000 15.9 230 20:38 24.02.2020
2167 Rain 8 992 70 10000 15.9 230 20:19 24.02.2020
2168 Rain 7 990 75 10000 15.9 230 19:56 24.02.2020
2169 Rain 7 990 75 10000 15.9 230 19:37 24.02.2020
2170 Rain 7 990 75 10000 15.9 230 19:19 24.02.2020
2171 Rain 7 989 75 10000 15.4 230 18:42 24.02.2020
2172 Rain 7 989 75 10000 15.4 230 18:24 24.02.2020
2173 Rain 7 989 75 10000 14.9 230 17:57 24.02.2020
2174 Rain 7 989 75 10000 14.9 230 17:39 24.02.2020
2175 Rain 7 989 75 10000 14.9 230 17:19 24.02.2020
2176 Drizzle 7 988 75 10000 14.4 230 16:55 24.02.2020
2177 Drizzle 7 988 75 10000 14.4 230 16:37 24.02.2020
2178 Drizzle 7 988 75 10000 14.4 230 16:19 24.02.2020
2179 Drizzle 7 988 75 10000 11.3 230 15:57 24.02.2020
2180 Drizzle 7 988 75 10000 11.3 230 15:38 24.02.2020
2181 Drizzle 7 988 75 10000 11.3 230 15:20 24.02.2020
2182 Drizzle 7 987 75 10000 13.4 230 14:42 24.02.2020
2183 Drizzle 7 987 75 10000 13.4 230 14:23 24.02.2020
2184 Drizzle 6 987 81 10000 15.4 230 13:59 24.02.2020
2185 Drizzle 6 987 81 10000 15.4 230 13:41 24.02.2020
2186 Drizzle 6 987 81 10000 15.4 230 13:23 24.02.2020
2187 Drizzle 6 986 70 10000 9.8 230 12:59 24.02.2020
2188 Drizzle 6 986 70 10000 9.8 230 12:41 24.02.2020
2189 Drizzle 6 986 70 10000 9.8 230 12:22 24.02.2020
2190 Drizzle 6 986 75 10000 10.3 230 11:49 24.02.2020
2191 Drizzle 6 986 75 10000 10.3 230 11:31 24.02.2020
2192 Drizzle 5 986 86 10000 6.7 200 10:52 24.02.2020
2193 Drizzle 5 986 86 10000 6.7 200 10:32 24.02.2020
2194 Drizzle 5 987 86 10000 7.2 230 09:58 24.02.2020
2195 Drizzle 5 987 86 10000 7.2 230 09:39 24.02.2020
2196 Drizzle 5 987 86 10000 7.2 230 09:19 24.02.2020
2197 Drizzle 5 987 86 10000 7.2 230 09:19 24.02.2020
2198 Drizzle 6 986 70 10000 8.7 230 08:48 24.02.2020
2199 Drizzle 6 986 70 10000 8.7 230 08:28 24.02.2020
2200 Drizzle 6 987 70 10000 5.7 250 07:54 24.02.2020
2201 Drizzle 6 987 70 10000 5.7 250 07:32 24.02.2020
2202 Rain 6 987 70 10000 9.3 230 06:49 24.02.2020
2203 Rain 6 987 70 10000 9.3 230 06:22 24.02.2020
2204 Drizzle 6 987 70 10000 11.3 230 05:41 24.02.2020
2205 Clouds 6 986 70 10000 10.8 230 05:23 24.02.2020
2206 Rain 7 987 70 10000 9.3 230 02:57 24.02.2020
2207 Rain 7 987 70 9000 10.8 230 01:53 24.02.2020
2208 Rain 7 987 70 9000 10.8 230 01:28 24.02.2020
2209 Rain 7 988 87 8000 10.3 230 00:38 24.02.2020
2210 Rain 7 988 87 8000 10.3 230 00:19 24.02.2020
2211 Rain 7 987 100 8000 10.8 230 23:42 23.02.2020
2212 Rain 7 987 100 8000 10.8 230 23:23 23.02.2020
2213 Clouds 8 987 87 5000 10.3 230 22:58 23.02.2020
2214 Clouds 8 987 87 8000 9.3 230 22:40 23.02.2020
2215 Clouds 8 987 87 8000 9.3 230 22:21 23.02.2020
2216 Rain 8 988 87 10000 9.8 230 21:46 23.02.2020
2217 Rain 8 988 87 10000 9.8 230 21:21 23.02.2020
2218 Rain 8 988 87 10000 9.8 230 21:21 23.02.2020
2219 Rain 9 988 81 10000 10.3 230 20:59 23.02.2020
2220 Rain 9 988 81 10000 10.3 230 20:40 23.02.2020
2221 Rain 9 988 81 10000 10.3 230 20:22 23.02.2020
2222 Rain 10 989 76 10000 10.3 230 19:59 23.02.2020
2223 Rain 10 989 76 10000 10.3 230 19:41 23.02.2020
2224 Rain 11 989 71 10000 5.7 180 19:19 23.02.2020
2225 Drizzle 10 990 76 10000 4.1 200 18:59 23.02.2020
2226 Drizzle 10 990 76 10000 4.1 200 18:38 23.02.2020
2227 Drizzle 10 990 76 10000 4.1 200 18:19 23.02.2020
2228 Drizzle 10 990 76 10000 6.2 200 17:58 23.02.2020
2229 Drizzle 10 990 76 10000 6.2 200 17:39 23.02.2020
2230 Drizzle 10 990 76 10000 6.2 200 17:21 23.02.2020
2231 Drizzle 10 991 76 10000 2.8 358 16:56 23.02.2020
2232 Drizzle 10 991 76 10000 2.8 358 16:36 23.02.2020
2233 Drizzle 10 991 76 10000 2.8 358 16:18 23.02.2020
2234 Drizzle 10 991 76 10000 6.2 230 15:40 23.02.2020
2235 Drizzle 10 991 76 10000 6.2 230 15:40 23.02.2020
2236 Drizzle 10 991 76 10000 6.2 230 15:21 23.02.2020
2237 Drizzle 10 991 76 10000 2.6 230 14:59 23.02.2020
2238 Drizzle 10 991 76 10000 2.6 230 14:59 23.02.2020
2239 Drizzle 10 991 76 10000 2.6 230 14:41 23.02.2020
2240 Drizzle 10 991 76 10000 2.6 230 14:22 23.02.2020
2241 Drizzle 10 991 76 10000 2.6 230 14:22 23.02.2020
2242 Clouds 11 992 66 10000 3.6 230 13:58 23.02.2020
2243 Clouds 11 992 66 10000 3.6 230 13:39 23.02.2020
2244 Clouds 11 992 66 10000 3.6 230 13:21 23.02.2020
2245 Clouds 10 993 66 10000 3.1 270 12:43 23.02.2020
2246 Clouds 10 993 66 10000 3.1 270 12:23 23.02.2020
2247 Drizzle 9 993 70 10000 3.6 230 11:59 23.02.2020
2248 Drizzle 9 993 70 10000 3.6 230 11:38 23.02.2020
2249 Drizzle 9 993 70 10000 3.6 230 11:19 23.02.2020
2250 Drizzle 9 993 70 10000 6.7 230 10:56 23.02.2020
2251 Drizzle 9 993 70 10000 6.7 230 10:38 23.02.2020
2252 Drizzle 9 993 70 10000 6.7 230 10:20 23.02.2020
2253 Clouds 9 993 70 10000 11.3 230 09:41 23.02.2020
2254 Clouds 9 993 70 10000 11.3 230 09:21 23.02.2020
2255 Clouds 9 993 70 10000 12.9 230 08:59 23.02.2020
2256 Clouds 9 993 70 10000 12.9 230 08:41 23.02.2020
2257 Clouds 9 993 70 10000 12.9 230 08:21 23.02.2020
2258 Clouds 9 991 70 10000 15.4 230 07:40 23.02.2020
2259 Clouds 9 991 70 10000 15.4 230 07:18 23.02.2020
2260 Clouds 9 992 70 10000 14.9 230 05:54 23.02.2020
2261 Clouds 10 992 71 10000 11.3 230 04:49 23.02.2020
2262 Clouds 11 992 62 10000 13.4 230 03:50 23.02.2020
2263 Rain 12 991 81 6000 18 230 02:38 23.02.2020
2264 Rain 13 991 87 5000 16.5 230 01:27 23.02.2020
2265 Thunderstorm 17 991 63 1200 10.3 230 00:55 23.02.2020
2266 Thunderstorm 17 991 63 800 9.3 230 00:36 23.02.2020
2267 Thunderstorm 17 991 63 800 9.3 230 00:18 23.02.2020
2268 Rain 18 993 55 10000 4.1 230 23:41 22.02.2020
2269 Rain 18 993 55 10000 4.1 230 23:19 22.02.2020
2270 Clouds 20 996 52 10000 4.1 250 22:44 22.02.2020
2271 Clouds 20 996 52 10000 4.1 250 22:19 22.02.2020
2272 Clouds 22 997 38 10000 6.2 340 21:43 22.02.2020
2273 Clouds 22 997 38 10000 6.2 340 21:24 22.02.2020
2274 Clouds 21 999 46 10000 2.1 90 20:54 22.02.2020
2275 Clouds 21 999 46 10000 2.1 90 20:36 22.02.2020
2276 Clouds 21 999 46 10000 2.1 90 20:18 22.02.2020
2277 Clouds 18 1001 59 10000 1.5 50 19:42 22.02.2020
2278 Clouds 18 1001 59 10000 1.5 50 19:42 22.02.2020
2279 Clouds 18 1001 59 10000 1.5 50 19:22 22.02.2020
2280 Clouds 19 1002 55 10000 1.5 90 18:54 22.02.2020
2281 Clouds 19 1002 55 10000 1.5 90 18:36 22.02.2020
2282 Clouds 19 1002 55 10000 1.5 90 18:18 22.02.2020
2283 Clouds 18 1004 59 10000 3.28 327 17:43 22.02.2020
2284 Clouds 18 1004 59 10000 3.28 327 17:25 22.02.2020
2285 Clouds 16 1006 63 10000 2.1 180 16:58 22.02.2020
2286 Clouds 16 1006 63 10000 2.1 180 16:39 22.02.2020
2287 Clouds 16 1006 63 10000 2.1 180 16:20 22.02.2020
2288 Clouds 16 1008 59 10000 2.1 20 15:45 22.02.2020
2289 Clouds 16 1008 59 10000 2.1 20 15:45 22.02.2020
2290 Clouds 16 1008 59 10000 2.1 20 15:27 22.02.2020
2291 Clouds 15 1009 67 10000 4.6 320 14:57 22.02.2020
2292 Clouds 15 1009 67 10000 4.6 320 14:39 22.02.2020
2293 Clouds 15 1009 67 10000 4.6 320 14:19 22.02.2020
2294 Clouds 14 1010 71 10000 5.7 320 13:41 22.02.2020
2295 Clouds 14 1010 71 10000 5.7 320 13:20 22.02.2020
2296 Clouds 14 1011 62 10000 3.6 320 12:48 22.02.2020
2297 Clouds 14 1011 62 10000 3.6 320 12:26 22.02.2020
2298 Clouds 12 1011 81 10000 3.6 270 11:56 22.02.2020
2299 Clouds 12 1011 81 10000 3.6 270 11:38 22.02.2020
2300 Clouds 12 1011 81 10000 3.6 270 11:20 22.02.2020
2301 Clouds 13 1012 71 10000 4.6 290 10:42 22.02.2020
2302 Clouds 13 1012 71 10000 4.6 290 10:42 22.02.2020
2303 Clouds 13 1012 71 10000 4.6 290 10:21 22.02.2020
2304 Clouds 13 1012 76 10000 3.6 290 09:59 22.02.2020
2305 Clouds 13 1012 76 10000 3.6 290 09:40 22.02.2020
2306 Clouds 13 1012 76 10000 3.6 290 09:22 22.02.2020
2307 Clouds 13 1013 76 10000 5.1 270 08:51 22.02.2020
2308 Clouds 13 1013 76 10000 5.1 270 08:28 22.02.2020
2309 Clouds 13 1013 76 10000 5.1 270 08:28 22.02.2020
2310 Clouds 13 1013 76 10000 7.7 250 07:54 22.02.2020
2311 Clouds 13 1013 76 10000 7.7 250 07:20 22.02.2020
2312 Clouds 12 1014 81 10000 9.3 250 06:53 22.02.2020
2313 Clouds 10 1012 89 0 1.51 314 06:34 22.02.2020
2314 Clouds 14 1015 71 10000 9.3 230 04:44 22.02.2020
2315 Clouds 13 1015 76 10000 9.8 230 03:47 22.02.2020
2316 Rain 13 1016 71 10000 6.2 230 02:34 22.02.2020
2317 Clouds 11 1015 90 0 1.23 275 01:47 22.02.2020
2318 Rain 14 1016 71 10000 10.3 230 01:28 22.02.2020
2319 Rain 14 1016 71 10000 10.3 230 00:46 22.02.2020
2320 Rain 14 1016 71 10000 10.3 230 00:28 22.02.2020
2321 Clouds 14 1016 71 10000 10.8 230 23:52 21.02.2020
2322 Clouds 14 1016 71 10000 10.8 230 23:25 21.02.2020
2323 Rain 15 1016 72 10000 11.8 230 22:57 21.02.2020
2324 Rain 15 1016 72 10000 11.8 230 22:39 21.02.2020
2325 Rain 15 1016 72 10000 11.8 230 22:21 21.02.2020
2326 Clouds 15 1016 77 10000 10.3 230 21:42 21.02.2020
2327 Clouds 16 1016 77 10000 10.3 230 21:24 21.02.2020
2328 Rain 16 1016 77 10000 10.8 230 20:56 21.02.2020
2329 Rain 16 1016 77 10000 10.8 230 20:38 21.02.2020
2330 Rain 16 1016 77 10000 10.8 230 20:19 21.02.2020
2331 Rain 15 1017 72 10000 11.3 230 19:39 21.02.2020
2332 Rain 15 1017 72 10000 11.3 230 19:39 21.02.2020
2333 Rain 15 1017 72 10000 11.3 230 19:19 21.02.2020
2334 Rain 15 1017 72 10000 11.3 230 18:42 21.02.2020
2335 Rain 15 1017 72 10000 11.3 230 18:22 21.02.2020
2336 Clouds 15 1017 72 10000 11.8 230 17:56 21.02.2020
2337 Clouds 15 1017 72 10000 11.8 230 17:36 21.02.2020
2338 Clouds 15 1017 72 10000 11.8 230 17:18 21.02.2020
2339 Clouds 15 1017 67 10000 12.3 230 16:42 21.02.2020
2340 Clouds 15 1017 67 10000 12.3 230 16:22 21.02.2020
2341 Clouds 14 1017 71 10000 9.8 230 15:58 21.02.2020
2342 Clouds 14 1017 71 10000 9.8 230 15:38 21.02.2020
2343 Clouds 14 1017 71 10000 9.8 230 15:18 21.02.2020
2344 Clouds 14 1017 71 10000 9.8 230 15:18 21.02.2020
2345 Clouds 14 1018 76 10000 10.3 230 14:42 21.02.2020
2346 Clouds 14 1018 76 10000 10.3 230 14:21 21.02.2020
2347 Clouds 13 1018 82 10000 13.4 230 13:58 21.02.2020
2348 Clouds 13 1018 82 10000 13.4 230 13:38 21.02.2020
2349 Clouds 13 1018 82 10000 13.4 230 13:20 21.02.2020
2350 Clouds 13 1017 82 10000 14.9 230 12:42 21.02.2020
2351 Clouds 13 1017 82 10000 14.9 230 12:24 21.02.2020
2352 Clouds 13 1017 87 10000 13.9 230 11:55 21.02.2020
2353 Clouds 13 1017 87 10000 13.9 230 11:55 21.02.2020
2354 Clouds 13 1017 87 10000 13.9 230 11:36 21.02.2020
2355 Clouds 13 1017 87 10000 13.9 230 11:18 21.02.2020
2356 Clouds 14 1016 67 10000 14.4 230 10:41 21.02.2020
2357 Clouds 14 1016 67 10000 14.4 230 10:20 21.02.2020
2358 Clouds 14 1016 71 10000 12.3 230 09:58 21.02.2020
2359 Clouds 14 1016 71 10000 12.3 230 09:38 21.02.2020
2360 Clouds 14 1016 71 10000 12.3 230 09:20 21.02.2020
2361 Clouds 14 1017 67 10000 8.2 250 08:45 21.02.2020
2362 Clouds 14 1017 67 10000 8.2 250 08:23 21.02.2020
2363 Clouds 14 1018 62 10000 7.7 270 07:59 21.02.2020
2364 Clouds 14 1018 62 10000 7.7 270 07:41 21.02.2020
2365 Clouds 14 1018 62 10000 7.7 270 07:20 21.02.2020
2366 Clouds 12 1019 66 10000 5.7 290 06:55 21.02.2020
2367 Clouds 12 1019 66 10000 5.7 290 06:31 21.02.2020
2368 Clouds 12 1019 66 10000 4.6 250 05:55 21.02.2020
2369 Clouds 11 1019 71 10000 3.6 360 04:39 21.02.2020
2370 Clouds 11 1019 71 10000 3.6 360 04:20 21.02.2020
2371 Clouds 11 1020 71 10000 3.6 320 03:44 21.02.2020
2372 Clouds 11 1020 66 10000 2.18 329 02:58 21.02.2020
2373 Clouds 11 1020 66 10000 2.08 341 01:29 21.02.2020
2374 Drizzle 11 1020 66 10000 3.1 320 00:46 21.02.2020
2375 Drizzle 11 1020 66 10000 3.1 320 00:24 21.02.2020
2376 Clouds 11 1021 58 10000 5.1 230 23:57 20.02.2020
2377 Clouds 11 1021 58 10000 5.1 230 23:39 20.02.2020
2378 Clouds 11 1021 58 10000 5.1 230 23:20 20.02.2020
2379 Rain 11 1021 62 10000 6.7 230 22:39 20.02.2020
2380 Rain 11 1021 62 10000 6.7 230 22:21 20.02.2020
2381 Clouds 12 1022 58 10000 3.6 250 21:57 20.02.2020
2382 Clouds 12 1022 58 10000 3.6 250 21:57 20.02.2020
2383 Clouds 12 1022 58 10000 3.6 250 21:37 20.02.2020
2384 Clouds 12 1022 58 10000 3.6 250 21:37 20.02.2020
2385 Clouds 12 1022 58 10000 3.6 250 21:19 20.02.2020
2386 Clouds 12 1022 54 10000 6.2 230 20:56 20.02.2020
2387 Clouds 12 1022 54 10000 6.2 230 20:38 20.02.2020
2388 Clouds 12 1022 54 10000 6.2 230 20:19 20.02.2020
2389 Clouds 13 1022 54 10000 3.6 230 19:58 20.02.2020
2390 Clouds 13 1022 54 10000 3.6 230 19:40 20.02.2020
2391 Clouds 13 1022 54 10000 3.6 230 19:22 20.02.2020
2392 Clouds 12 1023 54 10000 5.7 230 18:40 20.02.2020
2393 Clouds 12 1023 54 10000 5.7 230 18:21 20.02.2020
2394 Clouds 12 1023 50 10000 4.6 230 17:56 20.02.2020
2395 Clouds 12 1023 50 10000 4.6 230 17:38 20.02.2020
2396 Clouds 11 1023 53 10000 7.2 230 17:18 20.02.2020
2397 Clouds 11 1023 53 10000 7.2 230 16:56 20.02.2020
2398 Clouds 11 1023 53 10000 7.2 230 16:37 20.02.2020
2399 Clouds 11 1023 53 10000 7.2 230 16:18 20.02.2020
2400 Clouds 10 1024 61 10000 7.7 230 15:42 20.02.2020
2401 Clouds 10 1024 61 10000 7.7 230 15:22 20.02.2020
2402 Clouds 9 1023 61 10000 8.2 230 14:57 20.02.2020
2403 Clouds 9 1023 61 10000 8.2 230 14:39 20.02.2020
2404 Clouds 9 1023 61 10000 8.2 230 14:39 20.02.2020
2405 Clouds 9 1023 61 10000 8.2 230 14:20 20.02.2020
2406 Clouds 8 1023 65 10000 8.2 230 13:46 20.02.2020
2407 Clouds 8 1023 65 10000 8.2 230 13:21 20.02.2020
2408 Clouds 7 1023 70 10000 8.7 230 12:59 20.02.2020
2409 Clouds 7 1023 70 10000 8.7 230 12:40 20.02.2020
2410 Clouds 7 1023 70 10000 8.7 230 12:20 20.02.2020
2411 Clouds 7 1022 81 10000 11.3 230 11:57 20.02.2020
2412 Clouds 7 1022 81 10000 11.3 230 11:39 20.02.2020
2413 Clouds 7 1022 81 10000 11.3 230 11:19 20.02.2020
2414 Clouds 8 1021 75 10000 11.8 230 10:55 20.02.2020
2415 Clouds 8 1021 75 10000 11.8 230 10:36 20.02.2020
2416 Clouds 8 1021 75 10000 11.8 230 10:18 20.02.2020
2417 Drizzle 8 1021 87 10000 11.8 230 09:37 20.02.2020
2418 Drizzle 8 1021 87 10000 11.8 230 09:19 20.02.2020
2419 Rain 5 1021 94 0 3.79 206 08:41 20.02.2020
2420 Rain 5 1021 95 0 3.33 207 08:23 20.02.2020
2421 Drizzle 8 1020 87 10000 10.8 230 07:47 20.02.2020
2422 Drizzle 8 1020 87 10000 10.8 230 07:27 20.02.2020
2423 Drizzle 8 1019 93 10000 9.3 230 06:57 20.02.2020
2424 Drizzle 8 1019 93 10000 9.3 230 06:31 20.02.2020
2425 Drizzle 8 1019 93 10000 10.8 230 05:47 20.02.2020
2426 Drizzle 8 1019 93 10000 10.8 230 05:20 20.02.2020
2427 Drizzle 9 1018 87 10000 10.8 230 04:37 20.02.2020
2428 Drizzle 9 1017 87 10000 10.8 230 03:46 20.02.2020
2429 Rain 9 1015 81 10000 12.3 230 02:45 20.02.2020
2430 Clouds 9 1014 81 10000 10.8 230 01:23 20.02.2020
2431 Rain 9 1014 81 10000 9.8 230 00:37 20.02.2020
2432 Drizzle 9 1012 81 10000 10.3 230 23:55 19.02.2020
2433 Drizzle 9 1012 81 10000 10.3 230 23:24 19.02.2020
2434 Rain 9 1010 87 10000 12.3 230 22:59 19.02.2020
2435 Rain 9 1010 87 10000 12.3 230 22:41 19.02.2020
2436 Rain 9 1010 87 10000 12.3 230 22:21 19.02.2020
2437 Rain 9 1009 87 10000 13.9 230 21:57 19.02.2020
2438 Rain 9 1009 87 10000 13.9 230 21:38 19.02.2020
2439 Rain 9 1009 87 10000 13.9 230 21:18 19.02.2020
2440 Rain 9 1007 87 10000 14.9 230 20:56 19.02.2020
2441 Rain 9 1007 87 10000 14.9 230 20:37 19.02.2020
2442 Rain 9 1007 87 10000 14.9 230 20:18 19.02.2020
2443 Drizzle 9 1005 87 10000 13.4 230 19:56 19.02.2020
2444 Drizzle 9 1005 87 10000 13.4 230 19:37 19.02.2020
2445 Drizzle 9 1005 87 10000 13.4 230 19:18 19.02.2020
2446 Rain 10 1004 76 10000 12.3 230 18:56 19.02.2020
2447 Rain 10 1004 76 10000 12.3 230 18:56 19.02.2020
2448 Rain 10 1004 76 10000 12.3 230 18:38 19.02.2020
2449 Rain 10 1004 76 10000 12.3 230 18:20 19.02.2020
2450 Drizzle 10 1003 81 10000 13.9 230 17:43 19.02.2020
2451 Drizzle 10 1003 81 10000 13.9 230 17:20 19.02.2020
2452 Drizzle 9 1002 81 10000 13.4 230 16:45 19.02.2020
2453 Drizzle 9 1002 81 10000 13.4 230 16:20 19.02.2020
2454 Drizzle 8 1000 93 10000 14.4 230 15:59 19.02.2020
2455 Drizzle 8 1000 93 10000 14.4 230 15:41 19.02.2020
2456 Drizzle 8 1000 93 10000 14.4 230 15:23 19.02.2020
2457 Drizzle 8 999 81 10000 12.9 230 14:55 19.02.2020
2458 Drizzle 8 999 81 10000 12.9 230 14:37 19.02.2020
2459 Drizzle 8 999 81 10000 12.9 230 14:18 19.02.2020
2460 Drizzle 8 999 81 10000 13.9 230 13:41 19.02.2020
2461 Drizzle 8 999 81 10000 13.9 230 13:21 19.02.2020
2462 Drizzle 7 997 81 10000 13.4 230 12:42 19.02.2020
2463 Drizzle 7 997 81 10000 13.4 230 12:19 19.02.2020
2464 Clouds 7 996 81 10000 12.9 230 11:59 19.02.2020
2465 Clouds 7 996 81 10000 12.9 230 11:38 19.02.2020
2466 Clouds 7 996 81 10000 12.9 230 11:20 19.02.2020
2467 Drizzle 8 995 75 10000 14.9 230 10:58 19.02.2020
2468 Drizzle 8 995 75 10000 14.9 230 10:38 19.02.2020
2469 Drizzle 8 995 75 10000 14.9 230 10:38 19.02.2020
2470 Drizzle 8 995 75 10000 14.9 230 10:19 19.02.2020
2471 Drizzle 7 994 87 10000 13.4 230 09:58 19.02.2020
2472 Drizzle 7 994 87 10000 13.4 230 09:37 19.02.2020
2473 Drizzle 7 994 87 10000 13.4 230 09:19 19.02.2020
2474 Drizzle 8 993 87 10000 13.9 230 08:45 19.02.2020
2475 Drizzle 8 993 87 10000 13.9 230 08:24 19.02.2020
2476 Drizzle 8 992 87 10000 12.9 230 07:43 19.02.2020
2477 Drizzle 8 992 87 10000 12.9 230 07:25 19.02.2020
2478 Drizzle 8 991 81 10000 12.9 230 06:57 19.02.2020
2479 Drizzle 8 991 81 10000 12.9 230 06:31 19.02.2020
2480 Drizzle 8 990 87 7000 11.3 230 04:25 19.02.2020
2481 Rain 9 986 87 7000 13.4 230 02:58 19.02.2020
2482 Rain 9 986 87 7000 13.4 230 02:31 19.02.2020
2483 Rain 9 984 81 7000 14.9 230 01:25 19.02.2020
2484 Clouds 9 982 81 7000 15.9 230 00:51 19.02.2020
2485 Clouds 9 982 81 7000 15.9 230 00:32 19.02.2020
2486 Rain 10 981 76 10000 14.4 230 23:56 18.02.2020
2487 Rain 10 981 76 10000 14.4 230 23:37 18.02.2020
2488 Rain 10 981 76 10000 14.4 230 23:19 18.02.2020
2489 Drizzle 11 980 66 10000 12.3 230 22:43 18.02.2020
2490 Drizzle 11 980 66 10000 12.3 230 22:20 18.02.2020
2491 Drizzle 12 979 62 10000 9.8 230 21:58 18.02.2020
2492 Drizzle 12 979 62 10000 9.8 230 21:38 18.02.2020
2493 Drizzle 12 979 62 10000 9.8 230 21:38 18.02.2020
2494 Drizzle 12 979 62 10000 9.8 230 21:19 18.02.2020
2495 Drizzle 11 978 66 10000 10.3 230 20:58 18.02.2020
2496 Drizzle 11 978 66 10000 10.3 230 20:38 18.02.2020
2497 Drizzle 11 978 66 10000 10.3 230 20:20 18.02.2020
2498 Drizzle 11 978 66 10000 9.3 230 19:56 18.02.2020
2499 Drizzle 11 978 66 10000 9.3 230 19:37 18.02.2020
2500 Drizzle 11 978 66 10000 9.3 230 19:18 18.02.2020
2501 Drizzle 11 977 71 10000 8.2 230 18:41 18.02.2020
2502 Drizzle 11 977 71 10000 8.2 230 18:21 18.02.2020
2503 Drizzle 11 977 71 10000 5.7 230 17:57 18.02.2020
2504 Drizzle 11 977 71 10000 5.7 230 17:38 18.02.2020
2505 Drizzle 11 977 71 10000 5.7 230 17:19 18.02.2020
2506 Clouds 12 976 66 10000 5.1 230 16:40 18.02.2020
2507 Clouds 12 976 66 10000 5.1 230 16:21 18.02.2020
2508 Clouds 12 975 62 10000 3.1 140 15:42 18.02.2020
2509 Clouds 12 975 62 10000 3.1 140 15:21 18.02.2020
2510 Clouds 11 975 62 10000 1.64 299 14:59 18.02.2020
2511 Clouds 11 975 62 10000 1.64 299 14:41 18.02.2020
2512 Clouds 11 975 62 10000 3.35 354 14:21 18.02.2020
2513 Clouds 11 975 62 10000 5.7 360 13:59 18.02.2020
2514 Clouds 11 975 62 10000 5.7 360 13:40 18.02.2020
2515 Clouds 11 975 62 10000 5.7 360 13:21 18.02.2020
2516 Clouds 11 975 62 10000 7.7 320 12:44 18.02.2020
2517 Clouds 11 975 62 10000 7.7 320 12:25 18.02.2020
2518 Clouds 10 975 66 10000 7.7 320 11:56 18.02.2020
2519 Clouds 10 975 66 10000 7.7 320 11:38 18.02.2020
2520 Clouds 10 975 66 10000 7.7 320 11:20 18.02.2020
2521 Clouds 11 975 53 10000 8.2 340 10:44 18.02.2020
2522 Clouds 11 975 53 10000 8.2 340 10:23 18.02.2020
2523 Clouds 11 975 53 10000 8.7 340 09:57 18.02.2020
2524 Clouds 11 975 53 10000 8.7 340 09:38 18.02.2020
2525 Clouds 11 975 53 10000 8.7 340 09:19 18.02.2020
2526 Clouds 10 977 66 10000 3.6 360 08:55 18.02.2020
2527 Clouds 10 977 66 10000 3.6 360 08:37 18.02.2020
2528 Clouds 10 977 66 10000 3.6 360 08:19 18.02.2020
2529 Clouds 10 978 61 10000 3.1 360 07:46 18.02.2020
2530 Clouds 10 978 61 10000 3.1 360 07:25 18.02.2020
2531 Rain 9 979 70 10000 3.6 20 06:51 18.02.2020
2532 Rain 9 979 70 10000 3.6 20 06:28 18.02.2020
2533 Rain 9 981 70 10000 4.6 360 05:48 18.02.2020
2534 Rain 9 981 70 10000 4.6 360 05:20 18.02.2020
2535 Drizzle 9 984 66 7000 6.7 360 03:52 18.02.2020
2536 Drizzle 9 986 66 10000 7.7 360 02:58 18.02.2020
2537 Drizzle 9 987 70 10000 6.2 360 01:25 18.02.2020
2538 Drizzle 9 988 70 10000 7.2 360 00:43 18.02.2020
2539 Drizzle 9 988 70 10000 7.2 360 00:18 18.02.2020
2540 Drizzle 9 989 76 10000 10.3 340 23:39 17.02.2020
2541 Drizzle 9 989 76 10000 10.3 340 23:20 17.02.2020
2542 Drizzle 11 990 62 10000 11.8 340 22:58 17.02.2020
2543 Drizzle 11 990 62 10000 11.8 340 22:39 17.02.2020
2544 Drizzle 11 990 62 10000 11.8 340 22:18 17.02.2020
2545 Drizzle 11 990 62 10000 11.8 340 22:18 17.02.2020
2546 Clouds 11 991 66 10000 8.2 360 21:39 17.02.2020
2547 Clouds 11 991 66 10000 8.2 360 21:19 17.02.2020
2548 Clouds 11 992 62 10000 7.2 340 20:55 17.02.2020
2549 Clouds 11 992 62 10000 7.2 340 20:37 17.02.2020
2550 Clouds 11 992 62 10000 7.2 340 20:19 17.02.2020
2551 Clouds 11 993 57 10000 7.7 340 19:43 17.02.2020
2552 -273 0 0 0 0 0 19:21 17.02.2020
2553 Clouds 12 994 46 10000 5.7 340 18:57 17.02.2020
2554 Clouds 12 994 46 10000 5.7 340 18:36 17.02.2020
2555 Clouds 12 994 46 10000 5.7 340 18:18 17.02.2020
2556 Clouds 11 994 53 10000 4.15 348 17:38 17.02.2020
2557 Clouds 11 994 53 10000 2.95 342 17:20 17.02.2020
2558 Clouds 10 995 57 10000 2.1 320 16:59 17.02.2020
2559 Clouds 10 995 57 10000 2.1 320 16:41 17.02.2020
2560 Clouds 10 995 57 10000 2.1 320 16:22 17.02.2020
2561 Clouds 10 996 61 10000 2.6 110 15:56 17.02.2020
2562 Clouds 10 996 61 10000 2.6 110 15:37 17.02.2020
2563 Clouds 10 996 61 10000 2.6 110 15:37 17.02.2020
2564 Clouds 10 996 61 10000 2.6 110 15:19 17.02.2020
2565 Clouds 8 996 70 10000 3.1 230 14:42 17.02.2020
2566 Clouds 8 996 70 10000 3.1 230 14:42 17.02.2020
2567 Clouds 8 996 70 10000 3.1 230 14:24 17.02.2020
2568 Clouds 7 996 75 10000 3.6 360 13:58 17.02.2020
2569 Clouds 7 996 75 10000 3.6 360 13:39 17.02.2020
2570 Clouds 7 996 75 10000 3.6 360 13:19 17.02.2020
2571 Clouds 6 997 75 10000 1.5 320 12:44 17.02.2020
2572 Clouds 6 997 75 10000 1.5 320 12:25 17.02.2020
2573 Clouds 5 996 80 10000 4.1 340 11:59 17.02.2020
2574 Clouds 5 996 80 10000 4.1 340 11:39 17.02.2020
2575 Clouds 5 996 80 10000 4.1 340 11:21 17.02.2020
2576 Clouds 6 996 70 10000 2.6 290 10:55 17.02.2020
2577 Clouds 6 996 70 10000 2.6 290 10:37 17.02.2020
2578 Clouds 6 996 70 10000 2.6 290 10:18 17.02.2020
2579 Clouds 6 996 70 10000 2.6 290 10:18 17.02.2020
2580 Clouds 6 996 70 10000 4.1 250 09:41 17.02.2020
2581 Clouds 6 996 70 10000 4.1 250 09:23 17.02.2020
2582 Clouds 6 995 75 10000 9.3 230 08:58 17.02.2020
2583 Clouds 6 995 75 10000 9.3 230 08:40 17.02.2020
2584 Clouds 6 995 75 10000 9.3 230 08:20 17.02.2020
2585 Clouds 7 995 65 10000 4.1 270 07:47 17.02.2020
2586 Clouds 7 995 65 10000 4.1 270 07:24 17.02.2020
2587 Clouds 7 994 81 10000 2.1 250 06:52 17.02.2020
2588 Clouds 7 994 81 10000 2.1 250 06:33 17.02.2020
2589 Clouds 7 994 81 10000 3.6 290 05:59 17.02.2020
2590 Clouds 7 994 81 10000 3.6 290 05:38 17.02.2020
2591 Clouds 8 993 81 10000 8.7 230 03:22 17.02.2020
2592 Rain 8 992 81 10000 7.7 230 01:59 17.02.2020
2593 Clouds 8 991 75 10000 8.7 230 00:51 17.02.2020
2594 Clouds 8 991 75 10000 8.7 230 00:22 17.02.2020
2595 Clouds 10 991 61 10000 9.8 230 23:54 16.02.2020
2596 Clouds 10 991 61 10000 9.8 230 23:33 16.02.2020
2597 Clouds 9 990 70 10000 10.8 230 22:58 16.02.2020
2598 Clouds 9 990 70 10000 10.8 230 22:39 16.02.2020
2599 Clouds 9 990 70 10000 10.8 230 22:39 16.02.2020
2600 Clouds 9 990 70 10000 10.8 230 22:21 16.02.2020
2601 Clouds 9 990 70 10000 10.8 230 22:21 16.02.2020
2602 Clouds 9 989 70 10000 11.8 230 21:58 16.02.2020
2603 Clouds 9 989 70 10000 11.8 230 21:58 16.02.2020
2604 Clouds 9 989 70 10000 11.8 230 21:40 16.02.2020
2605 Clouds 9 989 70 10000 11.8 230 21:22 16.02.2020
2606 Rain 10 988 66 10000 12.3 230 20:58 16.02.2020
2607 Rain 10 988 66 10000 12.3 230 20:40 16.02.2020
2608 Rain 10 988 66 10000 12.3 230 20:21 16.02.2020
2609 Rain 10 988 66 10000 12.3 230 20:21 16.02.2020
2610 Rain 10 987 61 10000 12.9 230 19:58 16.02.2020
2611 Rain 10 987 61 10000 12.9 230 19:38 16.02.2020
2612 Rain 10 987 61 10000 12.9 230 19:19 16.02.2020
2613 Rain 10 987 61 10000 11.8 230 18:45 16.02.2020
2614 Rain 10 987 61 10000 11.8 230 18:26 16.02.2020
2615 Rain 9 986 66 10000 11.8 230 17:57 16.02.2020
2616 Rain 9 986 66 10000 11.8 230 17:39 16.02.2020
2617 Rain 9 986 66 10000 11.8 230 17:19 16.02.2020
2618 Clouds 9 986 66 10000 11.3 230 16:56 16.02.2020
2619 Clouds 9 986 66 10000 11.3 230 16:37 16.02.2020
2620 Clouds 9 986 66 10000 11.3 230 16:19 16.02.2020
2621 Clouds 9 985 66 10000 11.3 230 15:41 16.02.2020
2622 Clouds 9 985 66 10000 11.3 230 15:22 16.02.2020
2623 Clouds 9 984 66 10000 10.3 230 14:55 16.02.2020
2624 Clouds 9 984 66 10000 10.3 230 14:36 16.02.2020
2625 Clouds 9 984 66 10000 10.3 230 14:18 16.02.2020
2626 Clouds 8 984 61 10000 6.2 230 13:42 16.02.2020
2627 Clouds 8 984 61 10000 6.2 230 13:23 16.02.2020
2628 Rain 7 984 65 10000 2.6 320 12:41 16.02.2020
2629 Rain 7 984 65 10000 2.6 320 12:20 16.02.2020
2630 Rain 6 984 70 10000 1.31 329 11:57 16.02.2020
2631 Rain 6 984 70 10000 1.31 329 11:37 16.02.2020
2632 Clouds 6 984 70 10000 0.67 274 11:18 16.02.2020
2633 Clouds 6 983 75 10000 3.6 320 10:56 16.02.2020
2634 Clouds 6 983 75 10000 3.6 320 10:37 16.02.2020
2635 Clouds 6 983 75 10000 3.6 320 10:37 16.02.2020
2636 Clouds 6 983 75 10000 3.6 320 10:37 16.02.2020
2637 Clouds 6 983 75 10000 3.6 320 10:18 16.02.2020
2638 Clouds 6 983 70 10000 3.6 340 09:39 16.02.2020
2639 Clouds 6 983 70 10000 3.6 340 09:21 16.02.2020
2640 Clouds 5 982 80 10000 0.67 274 08:59 16.02.2020
2641 Clouds 5 982 80 10000 0.67 274 08:40 16.02.2020
2642 Clouds 5 982 80 10000 1.38 327 08:19 16.02.2020
2643 Clouds 5 982 75 10000 2.6 320 07:44 16.02.2020
2644 Clouds 5 982 75 10000 2.6 320 07:25 16.02.2020
2645 Clouds 5 982 86 10000 4.6 320 06:32 16.02.2020
2646 Clouds 5 982 86 10000 4.6 320 06:32 16.02.2020
2647 Clouds 8 982 65 10000 6.2 250 04:37 16.02.2020
2648 Clouds 8 982 70 10000 5.7 250 03:23 16.02.2020
2649 Clouds 8 982 70 10000 8.2 230 02:27 16.02.2020
2650 Clouds 8 982 75 10000 10.3 230 01:40 16.02.2020
2651 Clouds 8 982 75 10000 10.3 230 01:21 16.02.2020
2652 Clouds 9 981 70 10000 12.3 230 00:51 16.02.2020
2653 Clouds 9 981 70 10000 12.3 230 00:28 16.02.2020
2654 Rain 9 979 76 10000 11.8 230 23:44 15.02.2020
2655 Rain 9 979 76 10000 11.8 230 23:26 15.02.2020
2656 Rain 9 979 76 10000 11.8 230 23:26 15.02.2020
2657 Rain 9 979 81 10000 11.3 230 22:59 15.02.2020
2658 Rain 9 979 81 10000 11.3 230 22:41 15.02.2020
2659 Rain 9 979 81 10000 11.3 230 22:21 15.02.2020
2660 Rain 9 977 81 10000 11.8 230 21:58 15.02.2020
2661 Rain 9 977 81 10000 11.8 230 21:39 15.02.2020
2662 Rain 9 977 81 10000 11.8 230 21:20 15.02.2020
2663 Rain 9 977 81 10000 12.9 230 20:39 15.02.2020
2664 Rain 9 977 81 10000 12.9 230 20:21 15.02.2020
2665 Rain 11 977 66 10000 2.6 200 19:44 15.02.2020
2666 Rain 11 977 66 10000 2.6 200 19:22 15.02.2020
2667 Rain 11 977 66 10000 2.6 200 19:22 15.02.2020
2668 Rain 12 976 62 10000 2.1 200 18:45 15.02.2020
2669 Rain 12 976 62 10000 2.1 200 18:24 15.02.2020
2670 Rain 12 976 58 10000 3.1 200 17:58 15.02.2020
2671 Rain 12 976 58 10000 3.1 200 17:58 15.02.2020
2672 Rain 12 976 58 10000 3.1 200 17:39 15.02.2020
2673 Rain 12 976 58 10000 3.1 200 17:21 15.02.2020
2674 Clouds 12 976 50 10000 2.6 180 16:43 15.02.2020
2675 Clouds 12 976 50 10000 2.6 180 16:25 15.02.2020
2676 Clouds 12 976 58 10000 4.1 360 15:59 15.02.2020
2677 Clouds 12 976 58 10000 4.1 360 15:41 15.02.2020
2678 Clouds 12 976 58 10000 4.1 360 15:22 15.02.2020
2679 Clouds 11 976 62 10000 4.6 360 14:45 15.02.2020
2680 Clouds 11 976 62 10000 4.6 360 14:19 15.02.2020
2681 Clouds 10 976 66 10000 5.1 360 13:56 15.02.2020
2682 Clouds 10 976 66 10000 5.1 360 13:56 15.02.2020
2683 Clouds 10 976 66 10000 5.1 360 13:38 15.02.2020
2684 Clouds 10 976 66 10000 5.1 360 13:20 15.02.2020
2685 Clouds 9 977 70 10000 4.6 360 12:42 15.02.2020
2686 Clouds 9 977 70 10000 4.6 360 12:24 15.02.2020
2687 Clouds 9 978 70 10000 5.1 360 11:52 15.02.2020
2688 Clouds 9 978 70 10000 5.1 360 11:33 15.02.2020
2689 Clouds 9 978 70 10000 2.1 140 10:58 15.02.2020
2690 Clouds 9 978 70 10000 2.1 140 10:39 15.02.2020
2691 Clouds 9 978 70 10000 2.1 140 10:39 15.02.2020
2692 Clouds 9 978 70 10000 2.1 140 10:20 15.02.2020
2693 Drizzle 9 978 76 10000 3.1 140 09:44 15.02.2020
2694 Drizzle 9 978 76 10000 3.1 140 09:25 15.02.2020
2695 Clouds 9 979 76 10000 3.6 320 08:45 15.02.2020
2696 Clouds 9 979 76 10000 3.6 320 08:26 15.02.2020
2697 Clouds 9 981 76 10000 2.48 13 07:59 15.02.2020
2698 Clouds 9 981 76 10000 2.48 13 07:39 15.02.2020
2699 Clouds 9 981 76 10000 2.48 13 07:20 15.02.2020
2700 Clouds 8 982 81 10000 3.1 360 06:37 15.02.2020
2701 Clouds 8 983 81 10000 2.1 230 05:55 15.02.2020
2702 Clouds 9 984 70 10000 2.1 360 04:49 15.02.2020
2703 Clouds 9 984 70 10000 2.1 360 04:21 15.02.2020
2704 Clouds 9 985 70 10000 1.2 358 02:58 15.02.2020
2705 Clouds 9 985 70 10000 1.2 358 02:24 15.02.2020
2706 Clouds 9 984 70 10000 1.5 360 01:45 15.02.2020
2707 Clouds 10 984 66 10000 7.7 230 00:58 15.02.2020
2708 Clouds 10 984 66 10000 7.7 230 00:28 15.02.2020
2709 Rain 9 984 70 10000 12.3 230 23:45 14.02.2020
2710 Rain 9 984 70 10000 12.3 230 23:21 14.02.2020
2711 Rain 10 983 71 10000 14.4 230 22:55 14.02.2020
2712 Rain 11 983 66 10000 11.3 230 22:36 14.02.2020
2713 Rain 11 983 66 10000 11.3 230 22:18 14.02.2020
2714 Rain 11 982 71 10000 9.8 230 21:41 14.02.2020
2715 Rain 11 982 71 10000 9.8 230 21:23 14.02.2020
2716 Rain 11 982 71 10000 10.8 230 20:44 14.02.2020
2717 Rain 11 982 71 10000 10.8 230 20:20 14.02.2020
2718 Rain 13 981 62 10000 12.3 230 19:58 14.02.2020
2719 Rain 14 982 58 10000 5.1 230 19:40 14.02.2020
2720 Rain 14 982 58 10000 5.1 230 19:40 14.02.2020
2721 Rain 14 982 58 10000 5.1 230 19:20 14.02.2020
2722 Rain 13 982 66 10000 1.5 140 18:56 14.02.2020
2723 Rain 13 982 66 10000 1.5 140 18:38 14.02.2020
2724 Rain 13 982 66 10000 1.5 140 18:19 14.02.2020
2725 Rain 13 982 82 10000 2.1 90 17:42 14.02.2020
2726 Rain 13 982 82 10000 2.1 90 17:21 14.02.2020
2727 Drizzle 12 983 76 10000 1.65 227 16:58 14.02.2020
2728 Drizzle 12 983 76 10000 1.65 227 16:39 14.02.2020
2729 Drizzle 12 983 76 10000 1.65 227 16:21 14.02.2020
2730 Clouds 11 983 81 10000 1.65 227 15:56 14.02.2020
2731 Clouds 11 983 81 10000 1.65 227 15:37 14.02.2020
2732 Clouds 11 983 81 10000 1.65 227 15:37 14.02.2020
2733 Clouds 11 983 81 10000 1.65 227 15:37 14.02.2020
2734 Clouds 11 983 81 10000 1.65 227 15:37 14.02.2020
2735 Clouds 11 983 81 10000 1.65 227 15:37 14.02.2020
2736 Clouds 11 983 81 10000 1.65 227 15:19 14.02.2020
2737 Drizzle 11 983 76 10000 2.6 230 14:57 14.02.2020
2738 Drizzle 11 983 76 10000 2.6 230 14:38 14.02.2020
2739 Drizzle 11 983 76 10000 2.6 230 14:20 14.02.2020
2740 Drizzle 10 983 87 10000 6.2 230 13:40 14.02.2020
2741 Drizzle 10 983 87 10000 6.2 230 13:21 14.02.2020
2742 Clouds 11 983 76 10000 1.5 230 12:58 14.02.2020
2743 Clouds 11 983 76 10000 1.5 230 12:40 14.02.2020
2744 Clouds 11 983 76 10000 1.5 230 12:21 14.02.2020
2745 Clouds 11 982 76 10000 0.67 51 11:59 14.02.2020
2746 Clouds 11 982 76 10000 0.67 51 11:41 14.02.2020
2747 Clouds 11 982 76 10000 1.92 342 11:20 14.02.2020
2748 Drizzle 11 982 71 10000 1.92 342 10:56 14.02.2020
2749 Drizzle 11 982 71 10000 1.92 342 10:37 14.02.2020
2750 Drizzle 11 982 71 10000 1.92 342 10:19 14.02.2020
2751 Rain 11 982 71 10000 3.1 290 09:42 14.02.2020
2752 Rain 11 982 71 10000 3.1 290 09:21 14.02.2020
2753 Rain 11 982 71 10000 5.1 360 08:44 14.02.2020
2754 Rain 11 982 71 10000 5.1 360 08:25 14.02.2020
2755 Rain 11 983 71 10000 5.7 360 07:57 14.02.2020
2756 Rain 11 983 71 10000 5.7 360 07:38 14.02.2020
2757 Rain 11 983 71 10000 5.7 360 07:19 14.02.2020
2758 Drizzle 10 984 81 10000 6.2 360 06:30 14.02.2020
2759 Drizzle 11 986 71 10000 6.7 340 05:48 14.02.2020
2760 Rain 12 987 58 10000 6.2 360 04:47 14.02.2020
2761 Drizzle 12 988 58 10000 5.1 360 03:30 14.02.2020
2762 Clouds 12 989 58 10000 4.6 50 02:32 14.02.2020
2763 Clouds 8 990 85 0 4.11 5 01:50 14.02.2020
2764 Clouds 13 990 54 10000 7.2 320 00:44 14.02.2020
2765 Clouds 13 990 54 10000 7.2 320 00:24 14.02.2020
2766 Clouds 14 991 50 10000 8.2 340 23:46 13.02.2020
2767 Clouds 14 991 50 10000 8.2 340 23:23 13.02.2020
2768 Clouds 14 992 50 10000 7.2 320 22:56 13.02.2020
2769 Clouds 14 992 50 10000 7.2 320 22:37 13.02.2020
2770 Clouds 14 992 50 10000 7.2 320 22:18 13.02.2020
2771 Clouds 14 992 50 10000 6.7 320 21:41 13.02.2020
2772 Clouds 14 992 50 10000 6.7 320 21:23 13.02.2020
2773 Clouds 15 992 47 10000 8.7 320 20:58 13.02.2020
2774 Clouds 15 992 47 10000 8.7 320 20:39 13.02.2020
2775 Clouds 15 992 47 10000 8.7 320 20:39 13.02.2020
2776 Clouds 15 992 47 10000 8.7 320 20:21 13.02.2020
2777 Rain 15 993 44 10000 7.2 320 19:56 13.02.2020
2778 Rain 15 993 44 10000 7.2 320 19:37 13.02.2020
2779 Rain 15 993 44 10000 7.2 320 19:19 13.02.2020
2780 Rain 15 993 44 10000 7.2 340 18:45 13.02.2020
2781 Rain 15 993 44 10000 7.2 340 18:25 13.02.2020
2782 Clouds 14 994 47 10000 7.7 340 17:59 13.02.2020
2783 Clouds 14 994 47 10000 7.7 340 17:40 13.02.2020
2784 Clouds 14 994 47 10000 7.7 340 17:21 13.02.2020
2785 Clouds 14 994 47 10000 6.2 320 16:58 13.02.2020
2786 Clouds 14 994 47 10000 6.2 320 16:40 13.02.2020
2787 Clouds 14 994 47 10000 6.2 320 16:20 13.02.2020
2788 Clouds 12 994 50 10000 7.2 320 15:56 13.02.2020
2789 Clouds 12 994 50 10000 7.2 320 15:38 13.02.2020
2790 Clouds 12 994 50 10000 7.2 320 15:19 13.02.2020
2791 Clouds 12 995 43 10000 8.7 320 14:58 13.02.2020
2792 Clouds 12 995 43 10000 8.7 320 14:39 13.02.2020
2793 Clouds 12 995 43 10000 8.7 320 14:21 13.02.2020
2794 Clouds 11 995 50 10000 9.3 320 13:48 13.02.2020
2795 Clouds 11 995 50 10000 9.3 320 13:19 13.02.2020
2796 Clouds 11 996 53 10000 8.2 360 12:56 13.02.2020
2797 Clouds 11 996 53 10000 8.2 360 12:56 13.02.2020
2798 Clouds 11 996 53 10000 8.2 360 12:38 13.02.2020
2799 Clouds 11 996 53 10000 8.2 360 12:38 13.02.2020
2800 Clouds 11 996 53 10000 8.2 360 12:38 13.02.2020
2801 Clouds 11 996 53 10000 8.2 360 12:19 13.02.2020
2802 Clouds 11 996 53 10000 9.3 320 11:45 13.02.2020
2803 Clouds 11 996 53 10000 9.3 320 11:20 13.02.2020
2804 Clouds 8 997 65 10000 3.42 15 10:55 13.02.2020
2805 Clouds 8 997 65 10000 3.42 15 10:37 13.02.2020
2806 Clouds 8 997 65 10000 3.42 15 10:19 13.02.2020
2807 Clouds 7 997 75 10000 2.1 230 09:41 13.02.2020
2808 Clouds 7 997 75 10000 2.1 230 09:22 13.02.2020
2809 Clouds 4 997 87 0 3.42 15 08:43 13.02.2020
2810 Clouds 7 998 81 10000 2.64 7 08:19 13.02.2020
2811 Clouds 7 998 81 10000 2.64 7 07:41 13.02.2020
2812 Clouds 7 998 81 10000 2.64 7 07:22 13.02.2020
2813 Clouds 7 998 81 10000 2.64 7 07:22 13.02.2020
2814 Clouds 8 999 70 10000 2.6 50 06:49 13.02.2020
2815 Clouds 8 999 70 10000 2.6 50 06:31 13.02.2020
2816 Clouds 8 1000 70 10000 2.64 7 05:38 13.02.2020
2817 Clouds 8 1000 70 10000 2.1 290 04:39 13.02.2020
2818 Clouds 8 1000 70 10000 2.1 290 04:18 13.02.2020
2819 Clouds 8 1000 70 10000 2.6 320 03:29 13.02.2020
2820 Clouds 9 1000 57 10000 4.1 250 02:55 13.02.2020
2821 Clouds 9 1000 57 10000 4.1 250 02:20 13.02.2020
2822 -273 0 0 0 0 0 01:40 13.02.2020
2823 -273 0 0 0 0 0 01:39 13.02.2020
2824 -273 0 0 0 0 0 01:39 13.02.2020
2825 Clouds 9 999 57 10000 4.6 270 01:39 13.02.2020
2826 Rain 10 999 53 10000 8.2 230 00:44 13.02.2020
2827 Rain 10 999 53 10000 8.2 230 00:25 13.02.2020
2828 Rain 10 998 53 10000 10.8 230 23:42 12.02.2020
2829 Rain 10 998 53 10000 10.8 230 23:23 12.02.2020
2830 Clouds 11 998 57 10000 11.3 230 22:56 12.02.2020
2831 Clouds 11 998 57 10000 11.3 230 22:38 12.02.2020
2832 Clouds 11 998 57 10000 11.3 230 22:20 12.02.2020
2833 Clouds 11 998 57 10000 10.8 230 21:55 12.02.2020
2834 Clouds 11 998 57 10000 10.8 230 21:36 12.02.2020
2835 Clouds 12 998 57 10000 10.8 230 21:18 12.02.2020
2836 Clouds 12 998 50 10000 10.3 230 20:42 12.02.2020
2837 Clouds 12 998 50 10000 10.3 230 20:23 12.02.2020
2838 Clouds 13 998 50 10000 9.8 230 19:57 12.02.2020
2839 Clouds 13 998 50 10000 9.8 230 19:38 12.02.2020
2840 Clouds 13 998 50 10000 9.8 230 19:19 12.02.2020
2841 Clouds 12 998 58 10000 10.8 230 18:47 12.02.2020
2842 Clouds 12 998 58 10000 10.8 230 18:20 12.02.2020
2843 Clouds 12 998 50 10000 8.2 230 17:58 12.02.2020
2844 Clouds 12 998 50 10000 8.2 230 17:38 12.02.2020
2845 Clouds 12 998 50 10000 8.2 230 17:19 12.02.2020
2846 Clouds 12 998 46 10000 5.1 230 16:40 12.02.2020
2847 Clouds 12 998 46 10000 5.1 230 16:22 12.02.2020
2848 Clouds 11 998 53 10000 5.1 230 15:58 12.02.2020
2849 Clouds 11 998 53 10000 5.1 230 15:58 12.02.2020
2850 Clouds 11 998 53 10000 5.1 230 15:37 12.02.2020
2851 Clouds 11 998 53 10000 5.1 230 15:18 12.02.2020
2852 Clouds 10 998 57 10000 6.7 230 14:42 12.02.2020
2853 Clouds 10 998 57 10000 6.7 230 14:21 12.02.2020
2854 Clouds 9 998 61 10000 8.2 230 13:58 12.02.2020
2855 Clouds 9 998 61 10000 8.2 230 13:40 12.02.2020
2856 -273 0 0 0 0 0 13:21 12.02.2020
2857 Clouds 9 998 70 10000 7.7 230 12:58 12.02.2020
2858 Clouds 9 998 70 10000 7.7 230 12:39 12.02.2020
2859 Clouds 9 998 70 10000 7.7 230 12:39 12.02.2020
2860 Clouds 9 998 70 10000 7.7 230 12:19 12.02.2020
2861 Clouds 8 998 70 10000 12.9 230 11:58 12.02.2020
2862 Clouds 8 998 70 10000 12.9 230 11:58 12.02.2020
2863 Clouds 8 998 70 10000 12.9 230 11:40 12.02.2020
2864 Clouds 8 998 70 10000 12.9 230 11:20 12.02.2020
2865 Clouds 8 997 75 10000 11.8 230 10:58 12.02.2020
2866 Clouds 8 997 75 10000 11.8 230 10:39 12.02.2020
2867 Clouds 8 997 75 10000 11.8 230 10:20 12.02.2020
2868 Clouds 9 996 76 10000 10.3 230 09:42 12.02.2020
2869 Clouds 9 996 76 10000 10.3 230 09:42 12.02.2020
2870 Clouds 9 996 76 10000 10.3 230 09:24 12.02.2020
2871 Clouds 9 996 76 10000 10.3 230 09:24 12.02.2020
2872 Clouds 10 996 66 10000 8.7 230 08:58 12.02.2020
2873 Clouds 10 996 66 10000 8.7 230 08:58 12.02.2020
2874 Clouds 10 996 66 10000 8.7 230 08:38 12.02.2020
2875 Clouds 10 996 66 10000 8.7 230 08:20 12.02.2020
2876 Clouds 10 996 66 10000 8.7 230 08:20 12.02.2020
2877 Clouds 10 996 66 10000 8.7 230 08:20 12.02.2020
2878 Clouds 10 996 71 10000 10.3 230 07:47 12.02.2020
2879 Clouds 10 996 71 10000 10.3 230 07:47 12.02.2020
2880 Clouds 10 996 71 10000 10.3 230 07:24 12.02.2020
2881 Drizzle 10 995 76 10000 10.8 230 06:59 12.02.2020
2882 Drizzle 10 995 76 10000 10.8 230 06:25 12.02.2020
2883 Drizzle 10 995 71 10000 13.4 230 05:47 12.02.2020
2884 Drizzle 10 995 71 10000 13.4 230 05:21 12.02.2020
2885 Clouds 12 995 71 10000 5.1 250 04:41 12.02.2020
2886 Clouds 12 994 71 10000 3.6 230 03:57 12.02.2020
2887 Clouds 12 994 71 10000 3.6 230 03:28 12.02.2020
2888 Clouds 12 994 71 10000 1.81 207 02:43 12.02.2020
2889 Clouds 12 994 71 10000 1.81 207 02:24 12.02.2020
2890 Clouds 13 995 66 10000 1.58 334 01:29 12.02.2020
2891 Clouds 13 995 66 10000 2.24 301 00:41 12.02.2020
2892 Clouds 13 995 66 10000 2.24 301 00:22 12.02.2020
2893 Clouds 14 996 62 10000 2.24 301 23:47 11.02.2020
2894 Clouds 14 996 62 10000 2.24 301 23:29 11.02.2020
2895 Clouds 14 996 62 10000 7.2 340 22:57 11.02.2020
2896 Clouds 14 996 62 10000 7.2 340 22:39 11.02.2020
2897 Clouds 14 996 62 10000 7.2 340 22:20 11.02.2020
2898 Clouds 14 998 62 10000 6.7 340 21:57 11.02.2020
2899 Clouds 14 998 62 10000 6.7 340 21:38 11.02.2020
2900 Clouds 14 998 62 10000 6.7 340 21:18 11.02.2020
2901 Clouds 15 998 51 10000 7.2 340 20:57 11.02.2020
2902 Clouds 15 998 51 10000 7.2 340 20:38 11.02.2020
2903 Clouds 15 998 51 10000 7.2 340 20:19 11.02.2020
2904 Clouds 15 999 51 10000 7.7 340 19:56 11.02.2020
2905 Clouds 15 999 51 10000 7.7 340 19:38 11.02.2020
2906 Clouds 15 999 51 10000 7.7 340 19:20 11.02.2020
2907 Clouds 15 1000 48 10000 10.3 340 18:44 11.02.2020
2908 Clouds 15 1000 48 10000 10.3 340 18:25 11.02.2020
2909 Clouds 16 1001 44 10000 9.8 340 17:56 11.02.2020
2910 Clouds 16 1001 44 10000 9.8 340 17:56 11.02.2020
2911 Clouds 16 1001 44 10000 9.8 340 17:38 11.02.2020
2912 Clouds 16 1001 44 10000 9.8 340 17:19 11.02.2020
2913 Clouds 16 1003 48 10000 9.3 360 16:58 11.02.2020
2914 Clouds 16 1003 48 10000 9.3 360 16:38 11.02.2020
2915 Clouds 16 1003 48 10000 9.3 360 16:20 11.02.2020
2916 Clouds 14 1004 54 10000 7.2 360 15:57 11.02.2020
2917 Clouds 14 1004 54 10000 7.2 360 15:38 11.02.2020
2918 Clouds 14 1004 54 10000 7.2 360 15:18 11.02.2020
2919 Clouds 13 1006 58 10000 6.7 360 14:41 11.02.2020
2920 Clouds 13 1006 58 10000 6.7 360 14:19 11.02.2020
2921 Clouds 12 1007 58 10000 4.6 360 13:42 11.02.2020
2922 Clouds 12 1007 58 10000 4.6 360 13:23 11.02.2020
2923 Clouds 13 1008 58 10000 8.2 360 12:59 11.02.2020
2924 Clouds 13 1008 58 10000 8.2 360 12:41 11.02.2020
2925 Clouds 13 1008 58 10000 8.2 360 12:21 11.02.2020
2926 Clouds 12 1009 62 10000 7.7 360 11:57 11.02.2020
2927 Clouds 12 1009 62 10000 7.7 360 11:39 11.02.2020
2928 Clouds 12 1009 62 10000 7.7 360 11:19 11.02.2020
2929 Clouds 12 1010 62 10000 6.7 360 10:40 11.02.2020
2930 Clouds 12 1010 62 10000 6.7 360 10:21 11.02.2020
2931 Clouds 11 1010 71 10000 6.7 360 09:58 11.02.2020
2932 Clouds 11 1010 71 10000 6.7 360 09:40 11.02.2020
2933 Clouds 11 1010 71 10000 6.7 360 09:21 11.02.2020
2934 Clouds 11 1011 71 10000 8.7 360 08:49 11.02.2020
2935 Clouds 11 1011 71 10000 8.7 360 08:25 11.02.2020
2936 Clouds 11 1011 71 10000 8.7 360 08:25 11.02.2020
2937 Clouds 10 1012 81 10000 6.7 360 07:55 11.02.2020
2938 Clouds 10 1012 81 10000 6.7 360 07:34 11.02.2020
2939 Clouds 9 1012 93 10000 2.54 15 06:58 11.02.2020
2940 Clouds 9 1012 93 10000 2.54 15 06:39 11.02.2020
2941 Clouds 9 1012 93 10000 2.54 15 06:20 11.02.2020
2942 Clouds 9 1013 93 10000 2.1 270 05:44 11.02.2020
2943 Clouds 9 1013 93 10000 2.1 270 05:20 11.02.2020
2944 Rain 9 1013 87 10000 2.6 90 04:18 11.02.2020
2945 Rain 9 1014 93 10000 7.2 90 02:38 11.02.2020
2946 Rain 10 1014 87 10000 7.7 70 01:59 11.02.2020
2947 Rain 10 1014 87 10000 7.7 70 01:31 11.02.2020
2948 Rain 11 1014 81 10000 9.3 70 00:26 11.02.2020
2949 Clouds 13 1015 71 10000 7.2 70 23:48 10.02.2020
2950 Clouds 13 1015 71 10000 7.2 70 23:30 10.02.2020
2951 Rain 14 1014 54 10000 2.6 230 22:57 10.02.2020
2952 Rain 14 1014 54 10000 2.6 230 22:37 10.02.2020
2953 Rain 14 1014 54 10000 2.6 230 22:37 10.02.2020
2954 Rain 13 1014 54 10000 2.6 230 22:19 10.02.2020
2955 Clouds 13 1014 54 10000 6.2 230 21:41 10.02.2020
2956 Clouds 13 1014 54 10000 6.2 230 21:23 10.02.2020
2957 Rain 13 1014 50 10000 5.7 230 20:56 10.02.2020
2958 Rain 13 1014 50 10000 5.7 230 20:38 10.02.2020
2959 Rain 13 1014 50 10000 5.7 230 20:38 10.02.2020
2960 Rain 13 1014 50 10000 5.7 230 20:19 10.02.2020
2961 Clouds 14 1014 54 10000 7.2 230 19:58 10.02.2020
2962 Clouds 14 1014 54 10000 7.2 230 19:37 10.02.2020
2963 Clouds 14 1014 54 10000 7.2 230 19:18 10.02.2020
2964 Clouds 15 1014 50 10000 9.3 230 18:58 10.02.2020
2965 Clouds 15 1014 50 10000 9.3 230 18:39 10.02.2020
2966 Clouds 15 1014 50 10000 9.3 230 18:20 10.02.2020
2967 Clouds 14 1014 54 10000 7.7 230 17:55 10.02.2020
2968 Clouds 14 1014 54 10000 7.7 230 17:37 10.02.2020
2969 Clouds 14 1014 54 10000 7.7 230 17:37 10.02.2020
2970 Clouds 14 1014 54 10000 7.7 230 17:18 10.02.2020
2971 Clouds 14 1014 54 10000 7.7 230 17:18 10.02.2020
2972 Clouds 13 1015 62 10000 9.8 230 16:56 10.02.2020
2973 Clouds 13 1015 62 10000 9.8 230 16:38 10.02.2020
2974 Clouds 13 1015 62 10000 9.8 230 16:18 10.02.2020
2975 Clouds 12 1015 71 10000 6.7 230 15:42 10.02.2020
2976 Clouds 12 1015 71 10000 6.7 230 15:22 10.02.2020
2977 Clouds 12 1015 66 10000 3.1 230 14:59 10.02.2020
2978 Clouds 12 1015 66 10000 3.1 230 14:41 10.02.2020
2979 Clouds 12 1015 66 10000 3.1 230 14:19 10.02.2020
2980 Clouds 12 1015 58 10000 5.1 230 13:56 10.02.2020
2981 Clouds 12 1015 58 10000 5.1 230 13:56 10.02.2020
2982 Clouds 12 1015 58 10000 5.1 230 13:38 10.02.2020
2983 Clouds 12 1015 58 10000 5.1 230 13:18 10.02.2020
2984 Clouds 11 1015 71 10000 4.6 230 12:44 10.02.2020
2985 Clouds 11 1015 71 10000 4.6 230 12:25 10.02.2020
2986 Clouds 11 1014 76 10000 4.1 230 11:55 10.02.2020
2987 Clouds 11 1014 76 10000 4.1 230 11:37 10.02.2020
2988 Clouds 11 1014 76 10000 4.1 230 11:19 10.02.2020
2989 Clouds 11 1014 71 10000 3.6 230 10:45 10.02.2020
2990 Clouds 11 1014 71 10000 3.6 230 10:26 10.02.2020
2991 Clouds 12 1013 66 10000 5.7 230 09:45 10.02.2020
2992 Clouds 12 1013 66 10000 5.7 230 09:25 10.02.2020
2993 Rain 9 1014 95 0 1.67 144 08:55 10.02.2020
2994 Rain 9 1014 95 0 1.67 144 08:36 10.02.2020
2995 Clouds 11 1012 81 10000 10.8 230 08:18 10.02.2020
2996 Clouds 11 1012 81 10000 10.8 230 07:46 10.02.2020
2997 Clouds 11 1012 81 10000 10.8 230 07:25 10.02.2020
2998 Clouds 13 1012 76 10000 2.1 230 05:52 10.02.2020
2999 Clouds 13 1011 71 10000 8.2 90 04:27 10.02.2020
3000 Clouds 14 1011 62 10000 2.1 360 03:34 10.02.2020
3001 Clouds 16 1011 51 10000 4.6 360 02:54 10.02.2020
3002 Clouds 16 1011 51 10000 4.1 360 01:38 10.02.2020
3003 Clouds 16 1011 51 10000 5.1 360 00:48 10.02.2020
3004 Clouds 16 1011 51 10000 5.1 360 00:30 10.02.2020
3005 Drizzle 17 1012 51 10000 6.2 340 23:55 09.02.2020
3006 Drizzle 17 1012 51 10000 6.2 340 23:36 09.02.2020
3007 Drizzle 17 1012 51 10000 6.2 340 23:18 09.02.2020
3008 Drizzle 19 1012 37 10000 7.2 340 22:39 09.02.2020
3009 Drizzle 19 1012 37 10000 7.2 340 22:20 09.02.2020
3010 Clouds 20 1012 40 10000 4.1 340 21:42 09.02.2020
3011 Clouds 20 1012 40 10000 4.1 340 21:23 09.02.2020
3012 Clouds 20 1012 40 10000 5.1 340 20:48 09.02.2020
3013 Clouds 20 1012 40 10000 5.1 340 20:27 09.02.2020
3014 Clouds 22 1013 35 10000 7.2 340 19:58 09.02.2020
3015 Clouds 22 1013 35 10000 7.2 340 19:39 09.02.2020
3016 Clouds 22 1013 35 10000 7.2 340 19:21 09.02.2020
3017 Clouds 22 1013 35 10000 8.2 340 18:56 09.02.2020
3018 Clouds 22 1013 35 10000 8.2 340 18:36 09.02.2020
3019 Clouds 22 1013 35 10000 8.2 340 18:18 09.02.2020
3020 Clouds 21 1014 35 10000 6.2 340 17:42 09.02.2020
3021 Clouds 21 1014 35 10000 6.2 340 17:22 09.02.2020
3022 Clouds 21 1015 32 10000 7.2 360 16:56 09.02.2020
3023 Clouds 21 1015 32 10000 7.2 360 16:37 09.02.2020
3024 Clouds 21 1015 32 10000 7.2 360 16:18 09.02.2020
3025 Clouds 20 1015 34 10000 7.7 360 15:54 09.02.2020
3026 Clouds 20 1015 34 10000 7.7 360 15:36 09.02.2020
3027 Clouds 20 1015 34 10000 7.7 360 15:18 09.02.2020
3028 Clouds 19 1016 34 10000 7.7 360 14:41 09.02.2020
3029 Clouds 19 1016 34 10000 7.7 360 14:22 09.02.2020
3030 Clear 17 1017 39 10000 2.6 360 13:47 09.02.2020
3031 Clear 17 1017 39 10000 2.6 360 13:28 09.02.2020
3032 Clear 15 1018 67 10000 4.17 355 12:57 09.02.2020
3033 Clear 15 1018 67 10000 4.17 355 12:38 09.02.2020
3034 Clear 15 1018 67 10000 4.17 355 12:19 09.02.2020
3035 Clear 15 1018 67 10000 4.17 355 12:19 09.02.2020
3036 Clear 13 1018 76 10000 4.17 355 11:41 09.02.2020
3037 Clear 13 1018 76 10000 4.17 355 11:22 09.02.2020
3038 Clear 13 1018 71 10000 2.1 320 10:59 09.02.2020
3039 Clear 13 1018 71 10000 2.1 320 10:41 09.02.2020
3040 Clear 13 1018 71 10000 2.1 320 10:21 09.02.2020
3041 Clear 12 1019 76 10000 4.6 340 09:46 09.02.2020
3042 Clear 12 1019 76 10000 4.6 340 09:27 09.02.2020
3043 Clear 14 1019 58 10000 4.6 320 08:46 09.02.2020
3044 Clear 14 1019 58 10000 4.6 320 08:28 09.02.2020
3045 Clear 11 1020 76 10000 4.1 360 07:59 09.02.2020
3046 Clear 11 1020 76 10000 4.1 360 07:41 09.02.2020
3047 Clear 11 1020 76 10000 2.55 15 06:49 09.02.2020
3048 Clear 11 1020 76 10000 2.55 15 06:29 09.02.2020
3049 Clear 12 1021 76 10000 3.6 320 05:43 09.02.2020
3050 Clear 12 1021 76 10000 3.6 320 05:19 09.02.2020
3051 Clear 13 1021 66 10000 2.27 25 03:53 09.02.2020
3052 Clear 13 1021 66 10000 2.6 270 02:47 09.02.2020
3053 Clear 13 1021 66 10000 2.6 270 02:26 09.02.2020
3054 Clouds 13 1021 66 10000 6.2 90 01:35 09.02.2020
3055 Clouds 15 1021 54 10000 8.7 70 00:48 09.02.2020
3056 Clouds 15 1021 54 10000 8.7 70 00:27 09.02.2020
3057 Clear 17 1022 42 10000 8.2 70 23:44 08.02.2020
3058 Clear 17 1022 42 10000 8.2 70 23:22 08.02.2020
3059 Clear 18 1022 36 10000 6.2 50 22:55 08.02.2020
3060 Clear 18 1022 36 10000 6.2 50 22:36 08.02.2020
3061 Clear 18 1022 36 10000 6.2 50 22:18 08.02.2020
3062 Clear 19 1022 29 10000 4.6 50 21:41 08.02.2020
3063 Clear 19 1022 29 10000 4.6 50 21:23 08.02.2020
3064 Clear 21 1022 28 10000 3.1 50 20:57 08.02.2020
3065 Clear 21 1022 28 10000 3.1 50 20:39 08.02.2020
3066 Clear 21 1022 28 10000 3.1 50 20:19 08.02.2020
3067 Clear 20 1023 32 10000 2.1 50 19:55 08.02.2020
3068 Clear 20 1023 32 10000 2.1 50 19:37 08.02.2020
3069 Clear 20 1023 32 10000 2.1 50 19:19 08.02.2020
3070 Clear 20 1023 32 10000 2.1 50 19:19 08.02.2020
3071 Clear 19 1023 45 10000 1.09 200 18:43 08.02.2020
3072 Clear 18 1023 45 10000 1.09 200 18:24 08.02.2020
3073 Clear 16 1024 55 10000 1.09 200 17:44 08.02.2020
3074 Clear 16 1024 55 10000 1.09 200 17:22 08.02.2020
3075 Clear 16 1024 63 10000 0.65 258 16:59 08.02.2020
3076 Clear 16 1024 63 10000 0.65 258 16:40 08.02.2020
3077 Clear 16 1024 63 10000 0.65 258 16:22 08.02.2020
3078 Clear 15 1025 67 10000 0.65 258 15:56 08.02.2020
3079 Clear 15 1025 67 10000 0.65 258 15:38 08.02.2020
3080 Clear 15 1025 67 10000 0.65 258 15:18 08.02.2020
3081 Clear 15 1025 67 10000 0.65 258 15:18 08.02.2020
3082 Clear 13 1025 76 10000 0.65 258 14:41 08.02.2020
3083 Clouds 13 1025 76 10000 0.79 335 14:19 08.02.2020
3084 Clouds 13 1025 76 10000 0.79 335 14:19 08.02.2020
3085 Clouds 11 1025 81 10000 0.79 335 13:55 08.02.2020
3086 Clouds 11 1025 81 10000 0.79 335 13:37 08.02.2020
3087 Clouds 11 1025 81 10000 0.83 343 13:18 08.02.2020
3088 Clouds 10 1025 81 10000 0.83 343 12:38 08.02.2020
3089 Clouds 10 1025 81 10000 0.83 343 12:38 08.02.2020
3090 Clouds 10 1025 81 10000 0.83 343 12:19 08.02.2020
3091 Clouds 8 1025 87 10000 0.83 343 11:43 08.02.2020
3092 Clouds 8 1025 87 10000 0.83 343 11:22 08.02.2020
3093 Clouds 8 1024 87 10000 2.1 320 10:57 08.02.2020
3094 Clouds 8 1024 87 10000 2.1 320 10:39 08.02.2020
3095 Clouds 8 1024 87 10000 2.1 320 10:20 08.02.2020
3096 Clouds 9 1024 93 10000 2.6 320 09:50 08.02.2020
3097 Clouds 9 1024 93 10000 2.6 320 09:24 08.02.2020
3098 Clouds 6 1023 85 0 0.77 16 08:47 08.02.2020
3099 Clouds 9 1024 93 10000 0.72 11 08:27 08.02.2020
3100 Clouds 9 1024 93 10000 0.77 11 07:54 08.02.2020
3101 Clouds 9 1024 93 10000 0.77 11 07:35 08.02.2020
3102 Clouds 6 1023 79 0 0.77 11 06:55 08.02.2020
3103 Clouds 6 1023 79 0 0.77 11 06:23 08.02.2020
3104 Clouds 6 1023 79 0 0.77 11 05:37 08.02.2020
3105 Clouds 11 1023 87 10000 0.3 149 05:18 08.02.2020
3106 Clouds 11 1023 87 10000 0.3 149 04:26 08.02.2020
3107 Clouds 11 1023 87 10000 3.1 50 03:39 08.02.2020
3108 Clouds 12 1023 87 10000 6.2 50 02:43 08.02.2020
3109 Clouds 13 1022 82 10000 5.7 70 01:35 08.02.2020
3110 Clouds 14 1021 76 10000 6.2 70 00:57 08.02.2020
3111 Clouds 14 1021 76 10000 6.2 70 00:37 08.02.2020
3112 Clouds 14 1021 76 10000 6.2 70 00:18 08.02.2020
3113 Clouds 17 1021 77 10000 4.1 50 23:41 07.02.2020
3114 Clouds 17 1021 77 10000 4.1 50 23:20 07.02.2020
3115 Clouds 20 1021 52 10000 2.12 176 22:55 07.02.2020
3116 Clouds 20 1021 52 10000 2.12 176 22:37 07.02.2020
3117 Clouds 20 1021 52 10000 2.12 176 22:18 07.02.2020
3118 Clouds 20 1021 49 10000 2.12 176 21:41 07.02.2020
3119 Clouds 19 1021 49 10000 2.12 176 21:21 07.02.2020
3120 Clouds 18 1021 45 10000 1.5 90 20:40 07.02.2020
3121 Clouds 18 1021 45 10000 1.5 90 20:21 07.02.2020
3122 Clouds 17 1021 51 10000 2.1 90 19:56 07.02.2020
3123 Clouds 17 1021 51 10000 2.1 90 19:37 07.02.2020
3124 Clouds 17 1021 51 10000 2.1 90 19:19 07.02.2020
3125 Clouds 15 1021 51 10000 2.1 90 18:46 07.02.2020
3126 Clouds 15 1021 51 10000 2.1 90 18:26 07.02.2020
3127 Clouds 14 1021 58 10000 1 360 17:57 07.02.2020
3128 Clouds 14 1021 58 10000 1 360 17:39 07.02.2020
3129 Clouds 14 1021 58 10000 1 360 17:20 07.02.2020
3130 Clouds 13 1021 76 10000 1.04 335 16:52 07.02.2020
3131 Clouds 13 1021 76 10000 1.04 335 16:24 07.02.2020
3132 Clouds 11 1022 76 10000 1.04 335 15:55 07.02.2020
3133 Clouds 11 1022 76 10000 1.04 335 15:29 07.02.2020
3134 Clouds 10 1022 87 10000 1.04 335 14:58 07.02.2020
3135 Clouds 10 1022 87 10000 1.04 335 14:40 07.02.2020
3136 Clouds 10 1022 87 10000 1.58 353 14:21 07.02.2020
3137 Clouds 10 1022 81 10000 1.58 353 13:57 07.02.2020
3138 Clouds 10 1022 81 10000 1.58 353 13:38 07.02.2020
3139 Clouds 10 1022 81 10000 1.49 359 13:20 07.02.2020
3140 Clouds 9 1023 81 10000 1.49 359 12:42 07.02.2020
3141 Clouds 9 1023 81 10000 1.49 359 12:24 07.02.2020
3142 Clouds 8 1022 87 10000 1.49 359 11:58 07.02.2020
3143 Clouds 8 1022 87 10000 1.49 359 11:39 07.02.2020
3144 Clouds 8 1022 87 10000 1.38 14 11:18 07.02.2020
3145 Clouds 8 1022 93 10000 1.38 14 10:40 07.02.2020
3146 Clouds 8 1022 93 10000 1.38 14 10:20 07.02.2020
3147 Clouds 8 1023 93 10000 1.38 14 09:46 07.02.2020
3148 Clouds 8 1023 93 10000 1.38 14 09:26 07.02.2020
3149 Clouds 4 1023 93 0 1.38 14 08:58 07.02.2020
3150 Clouds 4 1023 93 0 1.38 14 08:37 07.02.2020
3151 Clouds 9 1023 87 10000 2.1 140 08:19 07.02.2020
3152 Clouds 9 1023 87 10000 2.1 140 07:40 07.02.2020
3153 Clouds 9 1023 87 10000 2.1 140 07:40 07.02.2020
3154 Clouds 9 1023 87 10000 2.1 140 07:22 07.02.2020
3155 Clouds 4 1023 95 0 1.15 358 06:43 07.02.2020
3156 Clouds 9 1024 81 10000 3.1 50 06:23 07.02.2020
3157 Clouds 9 1024 81 10000 3.1 50 05:43 07.02.2020
3158 Clouds 10 1024 76 10000 5.7 70 03:58 07.02.2020
3159 Clouds 10 1024 71 10000 5.7 70 02:30 07.02.2020
3160 Clear 11 1024 71 10000 5.7 90 01:34 07.02.2020
3161 Clear 11 1024 71 10000 6.2 70 00:38 07.02.2020
3162 Clear 12 1024 71 10000 5.7 70 23:56 06.02.2020
3163 Clear 12 1024 71 10000 5.7 70 23:36 06.02.2020
3164 Clear 12 1024 71 10000 5.7 70 23:36 06.02.2020
3165 Clear 12 1024 71 10000 5.7 70 23:18 06.02.2020
3166 Clear 15 1024 54 10000 1.5 90 22:42 06.02.2020
3167 Clear 14 1024 54 10000 1.5 90 22:23 06.02.2020
3168 Clear 14 1024 48 10000 2.61 171 21:37 06.02.2020
3169 Clear 14 1024 48 10000 2.61 171 21:19 06.02.2020
3170 Clear 15 1024 48 10000 2.61 171 20:56 06.02.2020
3171 Clear 15 1024 48 10000 2.61 171 20:37 06.02.2020
3172 Clouds 15 1024 48 10000 1.41 273 20:18 06.02.2020
3173 Clouds 15 1025 51 10000 1.41 273 19:58 06.02.2020
3174 Clouds 15 1025 51 10000 1.41 273 19:39 06.02.2020
3175 Clouds 15 1025 51 10000 1.41 273 19:21 06.02.2020
3176 Clouds 14 1025 50 10000 1.5 140 18:58 06.02.2020
3177 Clouds 14 1025 50 10000 1.5 140 18:39 06.02.2020
3178 Clouds 14 1025 50 10000 1.5 140 18:20 06.02.2020
3179 Clouds 12 1026 54 10000 1.5 140 17:42 06.02.2020
3180 Clouds 12 1026 54 10000 1.5 140 17:21 06.02.2020
3181 Clouds 11 1026 71 10000 2.1 110 16:57 06.02.2020
3182 Clouds 11 1026 71 10000 2.1 110 16:39 06.02.2020
3183 Clouds 11 1026 71 10000 2.1 110 16:20 06.02.2020
3184 Clouds 9 1026 70 10000 1 140 15:42 06.02.2020
3185 Clouds 9 1026 70 10000 1 140 15:21 06.02.2020
3186 Clouds 8 1027 75 10000 2.1 140 14:48 06.02.2020
3187 Clouds 8 1027 75 10000 2.1 140 14:27 06.02.2020
3188 Clouds 7 1027 81 10000 1.64 343 13:55 06.02.2020
3189 Clouds 7 1027 81 10000 1.64 343 13:37 06.02.2020
3190 Clouds 7 1027 81 10000 1.53 342 13:19 06.02.2020
3191 Clouds 6 1027 81 10000 1 320 12:43 06.02.2020
3192 Clouds 6 1027 81 10000 1 320 12:19 06.02.2020
3193 Clouds 5 1027 80 10000 1.5 270 11:56 06.02.2020
3194 Clouds 5 1027 80 10000 1.5 270 11:38 06.02.2020
3195 Clouds 5 1027 80 10000 1.5 270 11:18 06.02.2020
3196 Clouds 4 1027 86 10000 2.6 320 10:56 06.02.2020
3197 Clouds 4 1027 86 10000 2.6 320 10:37 06.02.2020
3198 Clouds 4 1027 86 10000 2.6 320 10:18 06.02.2020
3199 Clouds 4 1027 86 10000 3.1 320 09:43 06.02.2020
3200 Clouds 4 1027 86 10000 3.1 320 09:43 06.02.2020
3201 Clouds 4 1027 86 10000 3.1 320 09:20 06.02.2020
3202 Clouds 1 1026 95 0 1.36 7 08:47 06.02.2020
3203 Clouds 5 1026 86 10000 3.1 320 08:25 06.02.2020
3204 Clouds 5 1026 86 10000 3.1 320 07:59 06.02.2020
3205 Clouds 5 1026 86 10000 3.1 320 07:39 06.02.2020
3206 Clouds 5 1026 86 10000 3.1 320 07:21 06.02.2020
3207 Clouds 6 1026 81 10000 1.16 18 06:21 06.02.2020
3208 Clouds 6 1026 81 10000 1.16 18 05:44 06.02.2020
3209 Clouds 7 1025 75 10000 3.1 340 04:19 06.02.2020
3210 Clouds 7 1025 75 10000 0.95 70 03:19 06.02.2020
3211 Clouds 9 1024 57 10000 0.95 70 02:27 06.02.2020
3212 Clouds 9 1023 66 10000 2.1 70 01:25 06.02.2020
3213 Clouds 10 1022 57 10000 1.23 139 00:53 06.02.2020
3214 Clouds 10 1022 57 10000 1.23 139 00:23 06.02.2020
3215 Clouds 11 1022 87 10000 6.2 230 23:43 05.02.2020
3216 Clouds 11 1022 87 10000 6.2 230 23:24 05.02.2020
3217 Clouds 11 1021 66 10000 6.7 230 22:57 05.02.2020
3218 Clouds 11 1021 66 10000 6.7 230 22:39 05.02.2020
3219 Clouds 11 1021 66 10000 6.7 230 22:20 05.02.2020
3220 Rain 10 1020 71 10000 8.2 230 21:41 05.02.2020
3221 Rain 10 1020 71 10000 8.2 230 21:23 05.02.2020
3222 Rain 10 1020 71 10000 7.2 230 20:56 05.02.2020
3223 Rain 10 1020 71 10000 7.2 230 20:38 05.02.2020
3224 Rain 10 1020 71 10000 7.2 230 20:18 05.02.2020
3225 Rain 10 1019 66 10000 9.3 230 19:55 05.02.2020
3226 Rain 10 1019 66 10000 9.3 230 19:37 05.02.2020
3227 Rain 10 1019 66 10000 9.3 230 19:18 05.02.2020
3228 Rain 9 1019 61 10000 9.8 230 18:43 05.02.2020
3229 Rain 9 1019 61 10000 9.8 230 18:21 05.02.2020
3230 Rain 9 1017 61 10000 10.8 230 17:58 05.02.2020
3231 Rain 9 1017 61 10000 10.8 230 17:37 05.02.2020
3232 Rain 9 1017 61 10000 10.8 230 17:18 05.02.2020
3233 Clouds 9 1017 57 10000 10.3 230 16:43 05.02.2020
3234 Clouds 9 1017 57 10000 10.3 230 16:25 05.02.2020
3235 Clouds 9 1017 57 10000 8.2 230 15:59 05.02.2020
3236 Clouds 9 1017 57 10000 8.2 230 15:40 05.02.2020
3237 Clouds 9 1017 57 10000 8.2 230 15:18 05.02.2020
3238 Clouds 7 1016 65 10000 10.3 230 14:43 05.02.2020
3239 Clouds 7 1016 65 10000 10.3 230 14:25 05.02.2020
3240 Clouds 7 1001 91 10000 8.2 230 13:59 05.02.2020
3241 Clouds 7 1001 91 10000 8.2 230 13:39 05.02.2020
3242 Clouds 7 1001 90 10000 8.2 230 13:19 05.02.2020
3243 Clouds 6 1014 87 10000 6.2 230 12:43 05.02.2020
3244 Clouds 6 1014 87 10000 6.2 230 12:24 05.02.2020
3245 Clouds 6 1014 81 10000 5.1 180 11:56 05.02.2020
3246 Clouds 6 1014 81 10000 5.1 180 11:38 05.02.2020
3247 Clouds 6 1014 81 10000 5.1 180 11:19 05.02.2020
3248 Drizzle 6 1013 87 10000 6.7 230 10:42 05.02.2020
3249 Drizzle 6 1013 87 10000 6.7 230 10:24 05.02.2020
3250 Clouds 6 1012 87 10000 7.7 230 09:57 05.02.2020
3251 Clouds 6 1012 87 10000 7.7 230 09:37 05.02.2020
3252 Clouds 6 1012 87 10000 7.7 230 09:19 05.02.2020
3253 Clouds 6 1011 87 10000 9.8 230 08:41 05.02.2020
3254 Clouds 6 1011 87 10000 9.8 230 08:23 05.02.2020
3255 Clouds 6 1010 87 10000 7.2 230 07:48 05.02.2020
3256 Clouds 6 1010 87 10000 7.2 230 07:29 05.02.2020
3257 Clouds 7 1010 81 10000 8.7 230 06:49 05.02.2020
3258 Clouds 7 1010 81 10000 8.7 230 06:23 05.02.2020
3259 Clouds 6 1009 93 10000 8.7 230 05:52 05.02.2020
3260 Clouds 6 1009 93 10000 8.7 230 05:18 05.02.2020
3261 Clouds 7 1008 81 10000 8.2 230 04:45 05.02.2020
3262 Clouds 7 1007 87 10000 7.7 230 03:48 05.02.2020
3263 Rain 7 1006 87 10000 8.2 230 02:25 05.02.2020
3264 Rain 3 1004 96 0 3.13 222 01:37 05.02.2020
3265 Rain 8 1004 87 10000 8.7 230 00:42 05.02.2020
3266 Rain 8 1002 93 10000 10.3 230 23:57 04.02.2020
3267 Rain 8 1002 93 10000 10.3 230 23:37 04.02.2020
3268 Rain 8 1002 93 10000 10.3 230 23:18 04.02.2020
3269 Rain 9 1001 87 10000 9.3 230 22:42 04.02.2020
3270 Rain 9 1001 87 10000 9.3 230 22:21 04.02.2020
3271 Rain 9 1000 87 10000 10.8 230 21:59 04.02.2020
3272 Rain 9 1000 87 10000 10.8 230 21:41 04.02.2020
3273 Rain 9 1000 87 10000 10.8 230 21:19 04.02.2020
3274 Rain 10 998 76 10000 11.8 230 20:59 04.02.2020
3275 Rain 10 998 76 10000 11.8 230 20:38 04.02.2020
3276 Rain 10 998 76 10000 11.8 230 20:20 04.02.2020
3277 Rain 10 998 76 10000 11.8 230 20:20 04.02.2020
3278 Rain 10 997 71 10000 12.3 230 19:56 04.02.2020
3279 Rain 10 997 71 10000 12.3 230 19:56 04.02.2020
3280 Rain 10 997 71 10000 12.3 230 19:38 04.02.2020
3281 Rain 10 997 71 10000 12.3 230 19:20 04.02.2020
3282 Rain 10 996 76 10000 11.8 230 18:54 04.02.2020
3283 Rain 10 996 76 10000 11.8 230 18:36 04.02.2020
3284 Rain 10 996 76 10000 11.8 230 18:18 04.02.2020
3285 Rain 10 995 71 10000 12.9 230 17:42 04.02.2020
3286 Rain 10 995 71 10000 12.9 230 17:20 04.02.2020
3287 Clouds 10 994 76 10000 11.3 230 16:54 04.02.2020
3288 Clouds 10 994 76 10000 11.3 230 16:36 04.02.2020
3289 Clouds 10 994 76 10000 11.3 230 16:18 04.02.2020
3290 Clouds 11 993 71 10000 11.3 230 15:55 04.02.2020
3291 Clouds 11 993 71 10000 11.3 230 15:37 04.02.2020
3292 Clouds 11 993 71 10000 11.3 230 15:18 04.02.2020
3293 Clouds 10 993 81 10000 7.7 230 14:41 04.02.2020
3294 Clouds 10 993 81 10000 7.7 230 14:20 04.02.2020
3295 Clouds 9 992 87 10000 4.1 230 13:56 04.02.2020
3296 Clouds 9 992 87 10000 4.1 230 13:38 04.02.2020
3297 Clouds 9 992 87 10000 4.1 230 13:18 04.02.2020
3298 Clouds 8 992 93 10000 1 360 12:43 04.02.2020
3299 Clouds 8 992 93 10000 1 360 12:24 04.02.2020
3300 -273 0 0 0 0 0 11:57 04.02.2020
3301 Drizzle 8 992 87 10000 2.1 360 11:38 04.02.2020
3302 Drizzle 8 992 87 10000 2.1 360 11:19 04.02.2020
3303 Rain 8 991 87 10000 2.1 270 10:49 04.02.2020
3304 Rain 8 991 87 10000 2.1 270 10:27 04.02.2020
3305 Rain 8 990 93 10000 3.6 250 09:58 04.02.2020
3306 Rain 8 990 93 10000 3.6 250 09:39 04.02.2020
3307 Rain 8 990 93 10000 3.6 250 09:21 04.02.2020
3308 Drizzle 8 989 87 10000 5.7 230 08:47 04.02.2020
3309 Drizzle 8 989 87 10000 5.7 230 08:28 04.02.2020
3310 Drizzle 8 988 87 10000 5.1 230 07:53 04.02.2020
3311 Drizzle 8 988 87 10000 5.1 230 07:25 04.02.2020
3312 Drizzle 10 988 87 10000 5.1 230 06:58 04.02.2020
3313 Clouds 6 988 94 0 0.19 340 06:40 04.02.2020
3314 Clouds 6 988 94 0 0.19 340 05:35 04.02.2020
3315 Drizzle 11 987 66 10000 7.2 50 04:28 04.02.2020
3316 Drizzle 12 987 71 10000 3.1 360 03:48 04.02.2020
3317 Drizzle 12 987 71 10000 3.1 360 03:29 04.02.2020
3318 Clouds 12 986 71 10000 1.42 105 02:42 04.02.2020
3319 Clouds 12 986 71 10000 1.42 105 02:24 04.02.2020
3320 Clouds 12 985 71 10000 4.1 340 01:45 04.02.2020
3321 Drizzle 14 985 58 10000 5.7 360 00:56 04.02.2020
3322 Drizzle 14 985 58 10000 5.7 360 00:23 04.02.2020
3323 Rain 15 985 62 10000 1.5 340 23:49 03.02.2020
3324 Rain 15 985 62 10000 1.5 340 23:49 03.02.2020
3325 Rain 15 985 62 10000 1.5 340 23:30 03.02.2020
3326 Rain 15 984 58 10000 1.5 180 22:58 03.02.2020
3327 Rain 15 984 58 10000 1.5 180 22:58 03.02.2020
3328 Rain 15 984 58 10000 1.5 180 22:38 03.02.2020
3329 Rain 15 984 58 10000 1.5 180 22:19 03.02.2020
3330 Clouds 15 984 58 10000 1.5 200 21:41 03.02.2020
3331 Clouds 15 984 58 10000 1.5 200 21:20 03.02.2020
3332 Clouds 15 984 58 10000 1.5 200 21:20 03.02.2020
3333 Clouds 13 984 62 10000 2.6 200 20:56 03.02.2020
3334 Clouds 13 984 62 10000 2.6 200 20:38 03.02.2020
3335 Clouds 13 984 62 10000 2.6 200 20:18 03.02.2020
3336 Clouds 12 984 71 10000 4.1 230 19:42 03.02.2020
3337 Clouds 12 984 71 10000 4.1 230 19:23 03.02.2020
3338 Clouds 11 985 81 10000 6.2 230 18:58 03.02.2020
3339 Clouds 11 985 81 10000 6.2 230 18:39 03.02.2020
3340 Clouds 11 985 81 10000 6.2 230 18:21 03.02.2020
3341 Rain 10 985 93 10000 7.7 230 17:57 03.02.2020
3342 Rain 10 985 93 10000 7.7 230 17:39 03.02.2020
3343 Rain 10 985 93 10000 7.7 230 17:19 03.02.2020
3344 Rain 10 986 87 8000 13.4 230 16:40 03.02.2020
3345 Rain 10 986 87 8000 13.4 230 16:21 03.02.2020
3346 Drizzle 12 985 76 10000 3.1 230 15:57 03.02.2020
3347 Drizzle 12 985 76 10000 3.1 230 15:39 03.02.2020
3348 Drizzle 12 985 76 10000 3.1 230 15:20 03.02.2020
3349 Clouds 12 986 62 10000 1.56 317 14:57 03.02.2020
3350 Clouds 12 986 62 10000 1.56 317 14:38 03.02.2020
3351 Clouds 12 986 62 10000 2.07 9 14:19 03.02.2020
3352 Clouds 12 986 66 10000 2.6 270 13:42 03.02.2020
3353 Clouds 12 986 66 10000 2.6 270 13:21 03.02.2020
3354 Clouds 11 987 71 10000 2.42 6 12:58 03.02.2020
3355 Clouds 11 987 71 10000 2.42 6 12:39 03.02.2020
3356 Clouds 11 987 71 10000 2.42 6 12:21 03.02.2020
3357 Clouds 10 988 76 10000 2.42 6 11:55 03.02.2020
3358 Clouds 10 988 76 10000 2.42 6 11:36 03.02.2020
3359 Clouds 10 988 76 10000 2.74 21 11:18 03.02.2020
3360 Clouds 10 988 81 10000 2.74 21 10:40 03.02.2020
3361 Clouds 10 988 81 10000 2.74 21 10:22 03.02.2020
3362 Clouds 10 989 81 10000 1.5 340 09:46 03.02.2020
3363 Clouds 10 989 81 10000 1.5 340 09:23 03.02.2020
3364 Clouds 10 990 81 10000 3.6 20 08:55 03.02.2020
3365 Clouds 10 990 81 10000 3.6 20 08:37 03.02.2020
3366 Clouds 10 990 81 10000 3.6 20 08:18 03.02.2020
3367 Clouds 5 992 95 0 2.28 26 07:40 03.02.2020
3368 Clouds 10 992 81 10000 1.5 70 07:21 03.02.2020
3369 Clouds 10 992 81 10000 1.5 70 06:50 03.02.2020
3370 Clouds 10 992 81 10000 1.5 70 06:28 03.02.2020
3371 Clouds 10 993 81 10000 2.6 90 05:37 03.02.2020
3372 Clouds 10 993 81 10000 2.6 90 05:18 03.02.2020
3373 Clouds 12 994 66 10000 2.1 90 03:42 03.02.2020
3374 Clouds 11 994 71 10000 1.98 35 02:35 03.02.2020
3375 Clouds 11 994 76 10000 2.1 230 01:42 03.02.2020
3376 Clouds 12 995 71 10000 3.1 230 00:47 03.02.2020
3377 Clouds 13 995 71 10000 3.1 230 00:24 03.02.2020
3378 Clouds 13 994 66 10000 5.1 230 23:39 02.02.2020
3379 Clouds 13 994 66 10000 5.1 230 23:21 02.02.2020
3380 Clouds 14 995 44 10000 4.6 320 22:57 02.02.2020
3381 Clouds 14 995 44 10000 4.6 320 22:57 02.02.2020
3382 Clouds 14 995 44 10000 4.6 320 22:57 02.02.2020
3383 Clouds 14 995 44 10000 4.6 320 22:38 02.02.2020
3384 Clouds 14 995 44 10000 4.6 320 22:19 02.02.2020
3385 Clouds 15 994 38 10000 6.7 320 21:54 02.02.2020
3386 Clouds 15 994 38 10000 6.7 320 21:36 02.02.2020
3387 Clouds 15 994 38 10000 6.7 320 21:18 02.02.2020
3388 Clouds 15 994 38 10000 3.6 320 20:55 02.02.2020
3389 Clouds 15 994 38 10000 3.6 320 20:36 02.02.2020
3390 Clouds 15 994 38 10000 3.6 320 20:18 02.02.2020
3391 Clouds 15 994 44 10000 3.1 180 19:55 02.02.2020
3392 Clouds 15 994 44 10000 3.1 180 19:36 02.02.2020
3393 Clouds 15 994 44 10000 3.1 180 19:18 02.02.2020
3394 Clouds 14 994 47 10000 2.6 180 18:39 02.02.2020
3395 Clouds 14 994 47 10000 2.6 180 18:21 02.02.2020
3396 Clouds 12 994 54 10000 2.1 180 17:58 02.02.2020
3397 Clouds 12 994 54 10000 2.1 180 17:38 02.02.2020
3398 Clouds 12 994 54 10000 2.1 180 17:19 02.02.2020
3399 Clouds 11 994 62 10000 2.89 339 16:58 02.02.2020
3400 Clouds 11 994 62 10000 2.89 339 16:39 02.02.2020
3401 Clouds 11 994 62 10000 2.89 339 16:19 02.02.2020
3402 Clouds 10 993 71 10000 2.89 339 15:59 02.02.2020
3403 Clouds 10 993 71 10000 2.89 339 15:39 02.02.2020
3404 Clouds 10 993 71 10000 2.89 339 15:20 02.02.2020
3405 Clouds 10 993 71 10000 2.89 339 15:20 02.02.2020
3406 Clouds 10 993 66 10000 2.89 339 14:56 02.02.2020
3407 Clouds 10 993 66 10000 2.89 339 14:38 02.02.2020
3408 Clouds 9 993 66 10000 1.91 318 14:18 02.02.2020
3409 Clouds 9 992 76 10000 3.1 320 13:54 02.02.2020
3410 Clouds 9 992 76 10000 3.1 320 13:36 02.02.2020
3411 Clouds 9 992 76 10000 3.1 320 13:18 02.02.2020
3412 Clouds 8 992 87 10000 5.1 230 12:42 02.02.2020
3413 Clouds 8 992 87 10000 5.1 230 12:22 02.02.2020
3414 Rain 8 991 81 10000 7.7 230 11:56 02.02.2020
3415 Rain 8 991 81 10000 7.7 230 11:37 02.02.2020
3416 Rain 8 991 81 10000 7.7 230 11:18 02.02.2020
3417 Drizzle 8 990 87 10000 10.8 230 10:55 02.02.2020
3418 Drizzle 8 990 87 10000 10.8 230 10:36 02.02.2020
3419 Drizzle 8 990 87 10000 10.8 230 10:18 02.02.2020
3420 Clouds 8 989 81 10000 0.73 261 09:40 02.02.2020
3421 Clouds 8 989 81 10000 0.73 261 09:21 02.02.2020
3422 Clouds 8 989 75 10000 0.73 261 08:56 02.02.2020
3423 Clouds 8 989 75 10000 1.21 306 08:38 02.02.2020
3424 Clouds 8 989 75 10000 1.81 326 08:19 02.02.2020
3425 Clouds 8 989 75 10000 3.6 290 07:44 02.02.2020
3426 Clouds 8 989 75 10000 3.6 290 07:25 02.02.2020
3427 Clouds 10 988 66 10000 1.81 326 06:38 02.02.2020
3428 Clouds 10 988 66 10000 1.81 326 06:19 02.02.2020
3429 Clouds 10 988 66 10000 1.81 326 05:23 02.02.2020
3430 Clouds 10 988 66 10000 4.1 270 04:30 02.02.2020
3431 Clouds 10 988 71 10000 3.6 270 03:24 02.02.2020
3432 Clouds 10 987 71 10000 3.1 270 02:22 02.02.2020
3433 Rain 6 986 90 0 1.05 54 01:51 02.02.2020
3434 Clouds 11 986 66 10000 8.2 230 00:56 02.02.2020
3435 Clouds 11 986 66 10000 8.2 230 00:37 02.02.2020
3436 Clouds 11 986 66 10000 8.2 230 00:18 02.02.2020
3437 Rain 7 987 93 0 1.45 356 23:41 01.02.2020
3438 Clouds 11 984 71 10000 12.9 230 23:21 01.02.2020
3439 Clouds 11 984 71 10000 12.9 230 22:45 01.02.2020
3440 Clouds 11 984 71 10000 12.9 230 22:19 01.02.2020
3441 Rain 12 984 62 10000 9.3 230 21:44 01.02.2020
3442 Rain 12 984 62 10000 9.3 230 21:19 01.02.2020
3443 Rain 12 983 62 10000 12.3 230 20:57 01.02.2020
3444 Rain 12 983 62 10000 12.3 230 20:38 01.02.2020
3445 Rain 12 983 62 10000 12.3 230 20:19 01.02.2020
3446 Rain 15 982 51 10000 7.7 230 19:56 01.02.2020
3447 Rain 15 982 51 10000 7.7 230 19:37 01.02.2020
3448 -273 0 0 0 0 0 19:19 01.02.2020
3449 Rain 15 982 51 10000 7.7 230 19:19 01.02.2020
3450 Clouds 15 982 51 10000 3.1 140 18:56 01.02.2020
3451 Clouds 15 982 51 10000 3.1 140 18:37 01.02.2020
3452 Clouds 15 982 51 10000 3.1 140 18:19 01.02.2020
3453 Clouds 15 983 54 10000 3.6 180 17:55 01.02.2020
3454 Clouds 15 983 54 10000 3.6 180 17:37 01.02.2020
3455 Clouds 15 983 54 10000 3.6 180 17:18 01.02.2020
3456 Clouds 14 983 62 10000 3.6 180 16:41 01.02.2020
3457 -273 0 0 0 0 0 16:21 01.02.2020
3458 Clouds 13 984 76 10000 2.6 360 15:55 01.02.2020
3459 Clouds 13 984 76 10000 2.6 360 15:37 01.02.2020
3460 Clouds 13 984 76 10000 2.6 360 15:18 01.02.2020
3461 Clouds 13 984 71 10000 4.33 345 14:40 01.02.2020
3462 Clouds 13 984 71 10000 4.05 4 14:20 01.02.2020
3463 Clouds 12 984 76 10000 4.05 4 13:45 01.02.2020
3464 Clouds 12 984 76 10000 4.76 359 13:24 01.02.2020
3465 Clouds 12 984 76 10000 4.05 4 13:24 01.02.2020
3466 Clouds 12 986 71 10000 4.76 359 12:56 01.02.2020
3467 Clouds 12 986 71 10000 4.76 359 12:38 01.02.2020
3468 Clouds 12 986 71 10000 4.76 359 12:20 01.02.2020
3469 Clouds 11 987 76 10000 2.6 180 11:39 01.02.2020
3470 Clouds 11 987 76 10000 2.6 180 11:21 01.02.2020
3471 Rain 12 988 71 10000 3.6 20 10:58 01.02.2020
3472 Rain 12 988 71 10000 3.6 20 10:39 01.02.2020
3473 Rain 12 988 71 10000 3.6 20 10:21 01.02.2020
3474 Drizzle 11 990 81 10000 6.7 20 09:58 01.02.2020
3475 Drizzle 11 990 81 10000 6.7 20 09:39 01.02.2020
3476 Drizzle 11 990 81 10000 6.7 20 09:20 01.02.2020
3477 Clouds 13 990 66 10000 6.2 340 08:46 01.02.2020
3478 Clouds 13 991 66 10000 5.7 360 07:50 01.02.2020
3479 Clouds 13 991 66 10000 5.7 360 07:27 01.02.2020
3480 Clouds 12 992 66 10000 7.2 340 06:56 01.02.2020
3481 Clouds 12 992 66 10000 7.2 340 06:56 01.02.2020
3482 Clouds 12 992 66 10000 7.2 340 06:33 01.02.2020
3483 Clouds 13 992 62 10000 8.7 340 05:52 01.02.2020
3484 Clouds 12 993 66 10000 8.2 360 04:20 01.02.2020
3485 Clouds 13 994 62 10000 7.2 360 03:22 01.02.2020
3486 Clouds 13 994 66 10000 5.1 320 02:46 01.02.2020
3487 Clouds 13 994 66 10000 5.1 320 02:28 01.02.2020
3488 Clouds 13 994 66 10000 8.2 320 01:55 01.02.2020
3489 Clouds 13 994 66 10000 8.2 320 01:33 01.02.2020
3490 Clouds 14 994 58 10000 8.7 320 00:30 01.02.2020
3491 Clouds 15 994 51 10000 8.2 320 23:59 31.01.2020
3492 Clouds 15 994 51 10000 8.2 320 23:37 31.01.2020
3493 Clouds 15 994 51 10000 8.2 320 23:18 31.01.2020
3494 Clouds 15 995 51 10000 7.2 320 22:41 31.01.2020
3495 Clouds 15 995 51 10000 7.2 320 22:41 31.01.2020
3496 Clouds 15 995 51 10000 7.2 320 22:22 31.01.2020
3497 Clouds 14 995 50 10000 8.7 320 21:59 31.01.2020
3498 Clouds 14 995 50 10000 8.7 320 21:39 31.01.2020
3499 Clouds 14 995 50 10000 8.7 320 21:20 31.01.2020
3500 Clouds 15 995 47 10000 5.7 320 20:57 31.01.2020
3501 Clouds 15 995 47 10000 5.7 320 20:57 31.01.2020
3502 Clouds 15 995 47 10000 5.7 320 20:39 31.01.2020
3503 Clouds 14 996 54 10000 3.1 320 20:20 31.01.2020
3504 Clouds 14 996 54 10000 3.1 320 19:56 31.01.2020
3505 Clouds 14 996 54 10000 3.1 320 19:38 31.01.2020
3506 Clouds 14 996 54 10000 3.1 320 19:19 31.01.2020
3507 Clouds 13 996 62 10000 1.5 140 18:43 31.01.2020
3508 Clouds 13 996 62 10000 1.5 140 18:25 31.01.2020
3509 Clouds 12 996 62 10000 2.1 140 17:56 31.01.2020
3510 Clouds 12 996 62 10000 2.1 140 17:37 31.01.2020
3511 Clouds 12 996 62 10000 2.1 140 17:19 31.01.2020
3512 Clouds 10 997 71 10000 2.42 305 16:56 31.01.2020
3513 Clouds 10 997 71 10000 2.42 305 16:37 31.01.2020
3514 Clouds 10 997 71 10000 2.42 305 16:18 31.01.2020
3515 Clouds 10 997 71 10000 2.42 305 15:41 31.01.2020
3516 Clouds 10 997 71 10000 2.42 305 15:21 31.01.2020
3517 Clouds 10 997 71 10000 2.42 305 14:58 31.01.2020
3518 Clouds 10 997 71 10000 2.42 305 14:40 31.01.2020
3519 Clouds 10 997 71 10000 1.72 328 14:20 31.01.2020
3520 Clouds 9 998 76 10000 1.72 328 13:44 31.01.2020
3521 Clouds 9 998 76 10000 1.69 339 13:25 31.01.2020
3522 Clouds 9 998 76 10000 2.6 320 12:46 31.01.2020
3523 Clouds 9 998 76 10000 2.6 320 12:26 31.01.2020
3524 Drizzle 9 998 81 10000 2.6 320 11:59 31.01.2020
3525 Drizzle 9 998 81 10000 2.6 320 11:40 31.01.2020
3526 Drizzle 9 998 81 10000 2.6 320 11:22 31.01.2020
3527 Drizzle 9 998 81 10000 5.7 270 10:58 31.01.2020
3528 Drizzle 9 998 81 10000 5.7 270 10:37 31.01.2020
3529 Drizzle 9 998 81 10000 5.7 270 10:19 31.01.2020
3530 Clouds 9 997 81 10000 10.3 230 09:42 31.01.2020
3531 Clouds 9 997 81 10000 10.3 230 09:22 31.01.2020
3532 Rain 4 997 95 0 2.34 348 08:59 31.01.2020
3533 Clouds 4 998 95 0 2.41 350 08:41 31.01.2020
3534 Clouds 4 998 95 0 2.41 350 08:41 31.01.2020
3535 Clouds 9 996 81 10000 11.8 230 08:22 31.01.2020
3536 Clouds 9 996 81 10000 11.8 230 07:51 31.01.2020
3537 Clouds 9 996 81 10000 11.8 230 07:19 31.01.2020
3538 Clouds 9 994 81 10000 15.4 230 06:38 31.01.2020
3539 Clouds 9 994 81 10000 13.9 230 05:57 31.01.2020
3540 Clouds 9 994 81 10000 13.9 230 05:33 31.01.2020
3541 Clouds 9 994 81 10000 16.5 230 04:41 31.01.2020
3542 Clouds 9 994 81 10000 16.5 230 04:41 31.01.2020
3543 Rain 9 991 76 10000 15.9 230 02:55 31.01.2020
3544 Rain 9 990 76 10000 17.5 230 01:32 31.01.2020
3545 Rain 9 990 76 10000 15.9 230 00:42 31.01.2020
3546 Rain 9 990 76 10000 15.9 230 00:23 31.01.2020
3547 Drizzle 9 989 76 10000 15.4 230 23:44 30.01.2020
3548 Drizzle 9 989 76 10000 15.4 230 23:23 30.01.2020
3549 Rain 9 989 76 10000 16.5 230 22:40 30.01.2020
3550 Rain 9 989 76 10000 16.5 230 22:21 30.01.2020
3551 Rain 9 988 81 10000 14.9 230 21:59 30.01.2020
3552 Rain 9 988 81 10000 14.9 230 21:41 30.01.2020
3553 Rain 9 988 81 10000 14.9 230 21:19 30.01.2020
3554 Rain 9 986 76 10000 15.9 230 20:59 30.01.2020
3555 Rain 9 986 76 10000 15.9 230 20:38 30.01.2020
3556 Rain 9 986 76 10000 15.9 230 20:20 30.01.2020
3557 Rain 10 985 71 10000 16.5 230 19:55 30.01.2020
3558 Rain 10 985 71 10000 16.5 230 19:36 30.01.2020
3559 Rain 10 985 71 10000 16.5 230 19:18 30.01.2020
3560 Rain 10 985 71 10000 16.5 230 19:18 30.01.2020
3561 Rain 10 984 71 10000 14.4 230 18:39 30.01.2020
3562 Rain 10 984 71 10000 14.4 230 18:19 30.01.2020
3563 Rain 10 983 76 10000 15.9 230 17:55 30.01.2020
3564 Rain 10 983 76 10000 15.9 230 17:36 30.01.2020
3565 Rain 10 983 76 10000 15.9 230 17:18 30.01.2020
3566 Clouds 12 982 66 10000 15.4 230 16:41 30.01.2020
3567 Clouds 12 982 66 10000 15.4 230 16:21 30.01.2020
3568 Clouds 13 981 62 10000 15.9 230 15:58 30.01.2020
3569 Clouds 13 981 62 10000 15.9 230 15:40 30.01.2020
3570 Clouds 13 981 62 10000 15.9 230 15:19 30.01.2020
3571 Clouds 12 980 54 10000 15.9 230 14:43 30.01.2020
3572 Clouds 12 980 54 10000 15.9 230 14:25 30.01.2020
3573 Rain 10 980 61 10000 11.8 230 13:43 30.01.2020
3574 Rain 10 980 61 10000 11.8 230 13:24 30.01.2020
3575 Rain 9 979 70 10000 12.3 230 12:57 30.01.2020
3576 Rain 9 979 70 10000 12.3 230 12:38 30.01.2020
3577 Rain 9 979 70 10000 12.3 230 12:38 30.01.2020
3578 Rain 9 979 70 10000 12.3 230 12:20 30.01.2020
3579 Rain 10 978 66 10000 2.6 230 11:41 30.01.2020
3580 Rain 10 978 66 10000 2.6 230 11:23 30.01.2020
3581 Drizzle 9 977 70 10000 6.2 230 10:59 30.01.2020
3582 Drizzle 9 977 70 10000 6.2 230 10:40 30.01.2020
3583 Drizzle 9 977 70 10000 6.2 230 10:21 30.01.2020
3584 Drizzle 9 977 66 10000 9.8 230 09:46 30.01.2020
3585 Drizzle 9 977 66 10000 9.8 230 09:27 30.01.2020
3586 Rain 6 977 98 0 1.62 350 08:55 30.01.2020
3587 Rain 6 977 98 0 1.62 350 08:36 30.01.2020
3588 Clouds 10 977 61 10000 2.1 320 08:18 30.01.2020
3589 Clouds 10 977 61 10000 2.1 320 07:44 30.01.2020
3590 Clouds 10 977 61 10000 2.1 320 07:20 30.01.2020
3591 Clouds 8 977 75 10000 7.7 360 06:46 30.01.2020
3592 Clouds 8 977 75 10000 7.7 360 06:26 30.01.2020
3593 Clouds 8 978 75 10000 5.7 360 05:43 30.01.2020
3594 Clouds 8 978 75 10000 5.7 360 05:19 30.01.2020
3595 Rain 8 983 70 10000 7.7 360 03:48 30.01.2020
3596 Rain 8 983 70 10000 7.7 360 03:26 30.01.2020
3597 Rain 5 987 94 0 4.6 15 01:41 30.01.2020
3598 Drizzle 8 989 75 10000 5.1 360 00:37 30.01.2020
3599 Drizzle 8 989 75 10000 5.1 360 00:19 30.01.2020
3600 Drizzle 8 989 75 10000 5.1 360 00:19 30.01.2020
3601 Drizzle 9 990 76 10000 4.18 10 23:44 29.01.2020
3602 Drizzle 9 990 76 10000 1.37 311 23:21 29.01.2020
3603 Drizzle 10 992 66 10000 3.1 230 22:56 29.01.2020
3604 Drizzle 10 992 66 10000 3.1 230 22:38 29.01.2020
3605 Drizzle 10 992 66 10000 3.1 230 22:19 29.01.2020
3606 Clouds 10 993 61 10000 4.1 230 21:57 29.01.2020
3607 Clouds 10 993 61 10000 4.1 230 21:37 29.01.2020
3608 Clouds 10 993 61 10000 4.1 230 21:18 29.01.2020
3609 Clouds 10 994 61 10000 7.7 230 20:57 29.01.2020
3610 Clouds 10 994 61 10000 7.7 230 20:57 29.01.2020
3611 Clouds 10 994 61 10000 7.7 230 20:37 29.01.2020
3612 Clouds 10 994 61 10000 7.7 230 20:37 29.01.2020
3613 Clouds 10 994 61 10000 7.7 230 20:18 29.01.2020
3614 Clouds 10 994 61 10000 7.7 230 20:18 29.01.2020
3615 Rain 10 995 66 10000 10.3 230 19:55 29.01.2020
3616 Rain 10 995 66 10000 10.3 230 19:36 29.01.2020
3617 Rain 10 995 66 10000 10.3 230 19:18 29.01.2020
3618 Rain 10 995 66 10000 11.3 230 18:40 29.01.2020
3619 Rain 10 995 66 10000 11.3 230 18:19 29.01.2020
3620 Clouds 11 995 61 10000 12.3 230 17:41 29.01.2020
3621 Clouds 11 995 61 10000 12.3 230 17:23 29.01.2020
3622 Clouds 11 996 66 10000 12.9 230 16:59 29.01.2020
3623 Clouds 11 996 66 10000 12.9 230 16:40 29.01.2020
3624 Clouds 11 996 66 10000 12.9 230 16:20 29.01.2020
3625 Clouds 9 996 75 10000 12.9 230 15:40 29.01.2020
3626 Clouds 9 996 75 10000 12.9 230 15:22 29.01.2020
3627 Drizzle 8 996 75 10000 12.9 230 14:58 29.01.2020
3628 Drizzle 8 996 75 10000 12.9 230 14:40 29.01.2020
3629 Drizzle 8 996 75 10000 12.9 230 14:18 29.01.2020
3630 Drizzle 7 996 75 10000 12.9 230 13:41 29.01.2020
3631 Drizzle 7 996 75 10000 12.9 230 13:22 29.01.2020
3632 Clouds 6 997 81 10000 7.2 230 12:57 29.01.2020
3633 Clouds 6 997 81 10000 7.2 230 12:39 29.01.2020
3634 Clouds 6 997 81 10000 7.2 230 12:21 29.01.2020
3635 Drizzle 6 997 81 10000 8.7 230 11:56 29.01.2020
3636 Drizzle 6 997 81 10000 8.7 230 11:37 29.01.2020
3637 Drizzle 6 997 81 10000 8.7 230 11:19 29.01.2020
3638 Drizzle 5 996 80 10000 9.8 230 10:45 29.01.2020
3639 Rain 5 997 80 10000 9.3 230 10:22 29.01.2020
3640 Rain 5 997 80 10000 9.3 230 09:40 29.01.2020
3641 Rain 5 997 80 10000 9.3 230 09:40 29.01.2020
3642 Rain 5 997 80 10000 9.3 230 09:22 29.01.2020
3643 Rain 4 996 86 10000 8.7 230 08:58 29.01.2020
3644 Rain 4 996 86 10000 8.7 230 08:39 29.01.2020
3645 Rain 4 996 86 10000 8.7 230 08:20 29.01.2020
3646 Rain 4 996 86 10000 10.3 230 07:45 29.01.2020
3647 Rain 4 996 86 10000 10.3 230 07:25 29.01.2020
3648 Rain 6 996 81 10000 7.7 230 06:55 29.01.2020
3649 Rain 6 996 81 10000 7.7 230 06:55 29.01.2020
3650 Rain 6 996 81 10000 7.7 230 06:37 29.01.2020
3651 Rain 6 996 81 10000 7.7 230 06:18 29.01.2020
3652 Drizzle 6 994 75 10000 10.3 230 05:46 29.01.2020
3653 Drizzle 6 994 75 10000 10.3 230 05:27 29.01.2020
3654 Rain 6 994 81 10000 12.9 230 04:38 29.01.2020
3655 Drizzle 6 994 81 10000 13.9 230 03:50 29.01.2020
3656 Snow 2 995 92 0 5.69 254 02:33 29.01.2020
3657 Drizzle 6 993 81 10000 12.3 230 00:51 29.01.2020
3658 Drizzle 6 993 81 10000 12.3 230 00:29 29.01.2020
3659 Rain 5 992 93 8000 13.9 230 23:58 28.01.2020
3660 Rain 5 992 93 8000 13.9 230 23:37 28.01.2020
3661 Rain 5 992 93 8000 13.9 230 23:19 28.01.2020
3662 Rain 5 992 93 8000 15.9 230 22:44 28.01.2020
3663 Drizzle 8 991 87 10000 15.9 230 22:25 28.01.2020
3664 Drizzle 8 990 87 9000 15.9 230 21:54 28.01.2020
3665 Drizzle 8 990 81 10000 13.9 230 21:36 28.01.2020
3666 Drizzle 8 990 81 10000 13.9 230 21:18 28.01.2020
3667 Drizzle 8 990 81 10000 13.4 230 20:45 28.01.2020
3668 Drizzle 8 990 81 10000 13.4 230 20:25 28.01.2020
3669 Drizzle 8 990 81 10000 12.3 230 19:55 28.01.2020
3670 Drizzle 8 990 81 10000 12.3 230 19:36 28.01.2020
3671 Drizzle 8 990 81 10000 12.3 230 19:18 28.01.2020
3672 Rain 9 990 81 10000 12.3 230 18:41 28.01.2020
3673 Rain 9 990 81 10000 12.3 230 18:22 28.01.2020
3674 Drizzle 8 989 81 10000 12.3 230 17:59 28.01.2020
3675 Drizzle 8 989 81 10000 12.3 230 17:39 28.01.2020
3676 Drizzle 8 989 81 10000 12.3 230 17:21 28.01.2020
3677 Drizzle 8 989 81 10000 15.4 230 16:56 28.01.2020
3678 Drizzle 8 989 81 10000 15.4 230 16:37 28.01.2020
3679 Drizzle 8 989 81 10000 15.4 230 16:19 28.01.2020
3680 Clouds 9 988 61 10000 9.3 230 15:44 28.01.2020
3681 Clouds 9 988 61 10000 9.3 230 15:19 28.01.2020
3682 Clouds 8 988 70 10000 12.9 230 14:57 28.01.2020
3683 Clouds 8 988 70 10000 12.9 230 14:38 28.01.2020
3684 Clouds 8 988 70 10000 12.9 230 14:38 28.01.2020
3685 Clouds 8 988 70 10000 12.9 230 14:18 28.01.2020
3686 Clouds 8 988 70 10000 8.2 230 13:40 28.01.2020
3687 Clouds 8 988 70 10000 8.2 230 13:22 28.01.2020
3688 Clouds 8 988 81 10000 7.7 230 12:42 28.01.2020
3689 Clouds 8 988 81 10000 7.7 230 12:24 28.01.2020
3690 Clouds 7 988 81 10000 14.4 230 11:55 28.01.2020
3691 Clouds 7 988 81 10000 14.4 230 11:37 28.01.2020
3692 Clouds 7 988 81 10000 14.4 230 11:19 28.01.2020
3693 Clouds 7 988 93 10000 8.7 230 10:41 28.01.2020
3694 Clouds 7 988 93 10000 8.7 230 10:22 28.01.2020
3695 Drizzle 7 988 93 10000 1.36 263 09:56 28.01.2020
3696 Drizzle 7 988 93 10000 1.36 263 09:37 28.01.2020
3697 Drizzle 7 988 93 10000 1.36 263 09:19 28.01.2020
3698 Rain 3 989 96 0 1.36 263 08:42 28.01.2020
3699 Clouds 7 987 93 10000 2.6 360 08:20 28.01.2020
3700 Clouds 7 987 93 10000 2.6 360 07:38 28.01.2020
3701 Clouds 7 987 93 10000 0.67 329 06:52 28.01.2020
3702 Clouds 7 987 93 10000 0.67 329 06:29 28.01.2020
3703 Clouds 7 987 93 10000 0.67 329 06:29 28.01.2020
3704 Rain 3 987 97 0 0.67 329 05:56 28.01.2020
3705 Rain 3 987 97 0 0.67 329 05:34 28.01.2020
3706 Clouds 8 987 93 10000 3.1 90 04:40 28.01.2020
3707 Rain 8 987 93 10000 3.6 50 03:41 28.01.2020
3708 Rain 8 988 93 10000 3.1 320 02:40 28.01.2020
3709 Rain 8 988 93 10000 3.1 320 02:21 28.01.2020
3710 Rain 9 988 87 8000 1.5 230 01:48 28.01.2020
3711 Rain 9 987 87 6000 10.8 230 00:51 28.01.2020
3712 Rain 9 987 87 6000 10.8 230 00:30 28.01.2020
3713 Rain 10 987 81 6000 13.9 230 23:53 27.01.2020
3714 Drizzle 12 987 62 10000 8.2 230 23:31 27.01.2020
3715 Drizzle 12 987 62 10000 8.2 230 23:31 27.01.2020
3716 Clouds 13 988 54 10000 2.6 360 22:59 27.01.2020
3717 Clouds 13 988 54 10000 2.6 360 22:41 27.01.2020
3718 Clouds 14 988 54 10000 2.6 360 22:20 27.01.2020
3719 Clouds 14 989 54 10000 6.2 320 21:57 27.01.2020
3720 Clouds 14 989 54 10000 6.2 320 21:38 27.01.2020
3721 Clouds 14 989 54 10000 6.2 320 21:18 27.01.2020
3722 Clouds 14 989 54 10000 6.2 320 21:18 27.01.2020
3723 Clouds 14 989 54 10000 5.7 320 20:55 27.01.2020
3724 Clouds 14 989 54 10000 5.7 320 20:37 27.01.2020
3725 Clouds 14 989 54 10000 5.7 320 20:18 27.01.2020
3726 Clouds 13 990 54 10000 10.3 360 19:41 27.01.2020
3727 Clouds 13 990 54 10000 10.3 360 19:23 27.01.2020
3728 Clouds 13 991 47 10000 10.3 360 18:56 27.01.2020
3729 Clouds 13 991 47 10000 10.3 360 18:38 27.01.2020
3730 Clouds 13 991 47 10000 10.3 360 18:20 27.01.2020
3731 Clouds 13 992 47 10000 8.7 360 17:55 27.01.2020
3732 Clouds 11 992 67 0 5.55 358 17:37 27.01.2020
3733 Clouds 13 993 43 10000 10.3 360 17:18 27.01.2020
3734 Clouds 13 993 43 10000 10.3 360 16:41 27.01.2020
3735 Clouds 13 993 43 10000 10.3 360 16:41 27.01.2020
3736 Clouds 13 993 43 10000 10.3 360 16:23 27.01.2020
3737 Clouds 12 995 54 10000 6.7 320 15:55 27.01.2020
3738 Clouds 12 995 54 10000 6.7 320 15:37 27.01.2020
3739 Clouds 12 995 54 10000 6.7 320 15:19 27.01.2020
3740 Drizzle 11 996 53 10000 8.7 360 14:54 27.01.2020
3741 Drizzle 11 996 53 10000 8.7 360 14:36 27.01.2020
3742 Drizzle 11 996 53 10000 8.7 360 14:18 27.01.2020
3743 Clouds 11 996 46 10000 6.2 360 13:41 27.01.2020
3744 Clouds 11 996 46 10000 6.2 360 13:20 27.01.2020
3745 Clouds 9 997 81 10000 3.6 270 12:56 27.01.2020
3746 Clouds 9 997 81 10000 3.6 270 12:37 27.01.2020
3747 Clouds 9 997 81 10000 3.6 270 12:19 27.01.2020
3748 Drizzle 9 998 81 10000 2.6 320 11:41 27.01.2020
3749 Drizzle 9 998 81 10000 2.6 320 11:21 27.01.2020
3750 Clouds 9 999 76 10000 2.1 110 10:43 27.01.2020
3751 Clouds 9 999 76 10000 2.1 110 10:25 27.01.2020
3752 Clouds 9 1000 81 10000 3.44 354 09:57 27.01.2020
3753 Clouds 9 1000 81 10000 3.44 354 09:38 27.01.2020
3754 Clouds 9 1000 81 10000 3.44 354 09:18 27.01.2020
3755 Clouds 8 1001 81 10000 2.6 110 08:43 27.01.2020
3756 Clouds 8 1001 81 10000 2.6 110 08:22 27.01.2020
3757 Clouds 8 1002 81 10000 2.93 359 07:54 27.01.2020
3758 Clouds 8 1002 81 10000 2.93 359 07:35 27.01.2020
3759 Clouds 9 1003 66 10000 2.93 359 06:55 27.01.2020
3760 Clouds 9 1003 66 10000 2.93 359 06:27 27.01.2020
3761 Clouds 9 1004 66 10000 2.6 110 05:28 27.01.2020
3762 Clouds 9 1005 70 10000 2.6 320 03:58 27.01.2020
3763 Clouds 9 1005 70 10000 2.6 320 03:23 27.01.2020
3764 Clouds 9 1005 70 10000 7.7 230 01:31 27.01.2020
3765 Clouds 10 1006 71 10000 8.2 230 00:59 27.01.2020
3766 Clouds 10 1006 71 10000 8.2 230 00:37 27.01.2020
3767 Clouds 10 1006 71 10000 8.2 230 00:19 27.01.2020
3768 Rain 10 1005 71 10000 10.8 230 23:41 26.01.2020
3769 Rain 10 1005 71 10000 10.8 230 23:20 26.01.2020
3770 Clouds 10 1005 71 10000 11.3 230 22:57 26.01.2020
3771 Clouds 10 1005 71 10000 11.3 230 22:37 26.01.2020
3772 Clouds 10 1005 71 10000 11.3 230 22:18 26.01.2020
3773 Clouds 10 1004 76 10000 12.3 230 21:56 26.01.2020
3774 Clouds 10 1004 76 10000 12.3 230 21:38 26.01.2020
3775 Clouds 10 1004 76 10000 12.3 230 21:19 26.01.2020
3776 Clouds 10 1004 76 10000 12.9 230 20:55 26.01.2020
3777 Clouds 10 1004 76 10000 12.9 230 20:37 26.01.2020
3778 Clouds 10 1004 76 10000 12.9 230 20:18 26.01.2020
3779 Clouds 10 1004 76 10000 12.3 230 19:56 26.01.2020
3780 Clouds 10 1004 76 10000 12.3 230 19:37 26.01.2020
3781 Clouds 10 1004 76 10000 12.3 230 19:18 26.01.2020
3782 Clouds 9 1004 81 10000 10.3 230 18:41 26.01.2020
3783 Clouds 9 1004 81 10000 10.3 230 18:22 26.01.2020
3784 Clouds 9 1003 76 10000 11.3 230 17:59 26.01.2020
3785 Clouds 9 1003 76 10000 11.3 230 17:39 26.01.2020
3786 Clouds 9 1003 76 10000 11.3 230 17:20 26.01.2020
3787 Rain 8 1002 81 10000 10.8 230 16:58 26.01.2020
3788 Rain 8 1002 81 10000 10.8 230 16:40 26.01.2020
3789 Rain 8 1002 81 10000 10.8 230 16:21 26.01.2020
3790 Rain 6 1002 93 0 2.64 238 15:58 26.01.2020
3791 Rain 6 1002 93 0 2.64 238 15:39 26.01.2020
3792 Rain 6 1002 93 0 2.64 238 15:19 26.01.2020
3793 Rain 6 1002 93 0 2.64 238 14:41 26.01.2020
3794 Rain 5 1000 97 0 1.5 249 14:21 26.01.2020
3795 Rain 5 1000 97 0 1.5 249 13:57 26.01.2020
3796 Rain 5 1000 97 0 1.5 249 13:37 26.01.2020
3797 Rain 5 1001 96 0 1.88 246 13:18 26.01.2020
3798 Rain 5 1001 96 0 1.88 246 12:42 26.01.2020
3799 Rain 5 1001 96 0 1.88 246 12:24 26.01.2020
3800 Rain 5 1001 96 0 1.88 246 12:24 26.01.2020
3801 Rain 5 1001 96 0 1.88 246 11:58 26.01.2020
3802 Rain 5 1001 96 0 1.88 246 11:39 26.01.2020
3803 Rain 5 1001 96 0 1.88 246 11:39 26.01.2020
3804 Rain 7 997 87 10000 11.3 230 11:19 26.01.2020
3805 Rain 7 997 87 10000 11.3 230 10:58 26.01.2020
3806 Rain 7 997 87 10000 11.3 230 10:38 26.01.2020
3807 Rain 7 997 87 10000 11.3 230 10:38 26.01.2020
3808 Rain 7 997 87 10000 11.3 230 10:20 26.01.2020
3809 Drizzle 7 996 87 10000 13.9 230 09:57 26.01.2020
3810 Drizzle 7 996 87 10000 13.9 230 09:39 26.01.2020
3811 Drizzle 7 996 87 10000 13.9 230 09:39 26.01.2020
3812 Drizzle 7 996 87 10000 13.9 230 09:21 26.01.2020
3813 Rain 4 998 96 0 3.54 230 08:43 26.01.2020
3814 Drizzle 7 994 93 10000 13.4 230 08:23 26.01.2020
3815 Drizzle 7 994 93 10000 13.4 230 07:57 26.01.2020
3816 Drizzle 7 994 93 10000 13.4 230 07:39 26.01.2020
3817 Drizzle 7 994 93 10000 13.4 230 07:21 26.01.2020
3818 Drizzle 8 994 81 10000 11.8 230 06:31 26.01.2020
3819 Rain 3 995 92 0 5.17 239 05:32 26.01.2020
3820 Rain 3 995 92 0 5.17 239 05:32 26.01.2020
3821 Rain 7 992 81 10000 11.8 230 04:45 26.01.2020
3822 Drizzle 8 991 81 10000 12.9 230 02:54 26.01.2020
3823 Rain 9 990 66 10000 10.3 230 01:49 26.01.2020
3824 Rain 9 990 66 10000 10.3 230 01:25 26.01.2020
3825 Rain 11 990 53 10000 10.3 230 00:53 26.01.2020
3826 Rain 11 990 53 10000 10.3 230 00:31 26.01.2020
3827 Rain 6 991 69 0 2.5 255 23:41 25.01.2020
3828 Rain 6 991 69 0 2.5 255 23:23 25.01.2020
3829 Rain 9 991 63 0 4.92 248 22:59 25.01.2020
3830 Rain 9 991 63 0 4.92 248 22:40 25.01.2020
3831 Rain 9 991 63 0 4.92 248 22:19 25.01.2020
3832 Rain 9 991 63 0 4.92 248 21:57 25.01.2020
3833 Rain 9 991 63 0 4.92 248 21:57 25.01.2020
3834 Rain 9 991 63 0 4.92 248 21:38 25.01.2020
3835 Rain 9 991 63 0 4.92 248 21:20 25.01.2020
3836 Rain 9 991 63 0 4.92 248 20:44 25.01.2020
3837 Rain 9 991 63 0 4.92 248 20:44 25.01.2020
3838 Rain 9 991 63 0 4.92 248 20:25 25.01.2020
3839 Rain 9 991 63 0 4.92 248 20:25 25.01.2020
3840 Clouds 9 991 75 0 3.15 307 19:55 25.01.2020
3841 Clouds 9 991 75 0 3.15 307 19:37 25.01.2020
3842 Clouds 9 991 75 0 3.15 307 19:18 25.01.2020
3843 Clouds 9 991 75 0 3.15 307 18:42 25.01.2020
3844 Clouds 9 991 75 0 3.15 307 18:22 25.01.2020
3845 Rain 7 991 87 0 1.81 331 17:58 25.01.2020
3846 Clouds 9 991 75 0 3.15 307 17:38 25.01.2020
3847 Clouds 11 992 61 0 7.15 335 17:19 25.01.2020
3848 Clouds 11 992 61 0 7.15 335 16:43 25.01.2020
3849 Clouds 11 992 61 0 7.15 335 16:23 25.01.2020
3850 Clouds 11 992 61 0 7.15 335 15:58 25.01.2020
3851 Clouds 11 992 61 0 7.15 335 15:58 25.01.2020
3852 Clouds 11 992 61 0 7.15 335 15:40 25.01.2020
3853 Clouds 11 992 61 0 7.15 335 15:21 25.01.2020
3854 Clouds 11 992 61 0 7.15 335 14:44 25.01.2020
3855 Clouds 7 996 84 0 3.64 3 14:19 25.01.2020
3856 Clouds 7 996 84 0 3.64 3 13:56 25.01.2020
3857 Clouds 7 996 84 0 3.64 3 13:38 25.01.2020
3858 Clouds 7 995 85 0 3.2 1 13:18 25.01.2020
3859 Clouds 7 995 85 0 3.2 1 12:41 25.01.2020
3860 Clouds 7 998 87 10000 2.6 320 12:20 25.01.2020
3861 Clouds 7 998 87 10000 2.6 320 11:40 25.01.2020
3862 Clouds 7 998 87 10000 2.6 320 11:20 25.01.2020
3863 Clouds 7 998 87 10000 2.6 50 10:56 25.01.2020
3864 Clouds 7 998 87 10000 2.6 50 10:38 25.01.2020
3865 Clouds 7 998 87 10000 2.6 50 10:38 25.01.2020
3866 Clouds 7 998 87 10000 2.6 50 10:38 25.01.2020
3867 Clouds 7 998 87 10000 2.6 50 10:19 25.01.2020
3868 Rain 7 998 93 10000 3.6 50 09:40 25.01.2020
3869 Rain 7 998 93 10000 3.6 50 09:20 25.01.2020
3870 Clear 3 998 96 0 1.91 5 08:43 25.01.2020
3871 Drizzle 8 999 93 10000 1.21 343 08:00 25.01.2020
3872 Drizzle 8 999 93 10000 1.21 343 07:40 25.01.2020
3873 Clouds 3 998 97 0 1.21 343 06:44 25.01.2020
3874 Clouds 9 999 81 10000 2.1 90 06:24 25.01.2020
3875 Clouds 9 999 81 10000 2.1 90 05:44 25.01.2020
3876 Clouds 9 999 87 10000 2.6 70 04:25 25.01.2020
3877 Clouds 9 999 81 10000 1.24 37 03:50 25.01.2020
3878 Rain 9 998 81 10000 2.6 140 02:40 25.01.2020
3879 Rain 11 997 71 10000 1.5 90 01:58 25.01.2020
3880 Rain 11 997 71 10000 1.5 90 01:34 25.01.2020
3881 Clouds 11 996 76 10000 1.58 119 00:41 25.01.2020
3882 Clouds 11 996 76 10000 1.58 119 00:23 25.01.2020
3883 Clouds 12 994 62 10000 6.2 140 23:42 24.01.2020
3884 Clouds 12 994 62 10000 6.2 140 23:24 24.01.2020
3885 Clouds 13 994 54 10000 3.26 149 22:56 24.01.2020
3886 Clouds 13 994 54 10000 3.26 149 22:37 24.01.2020
3887 Clouds 13 994 54 10000 3.26 149 22:19 24.01.2020
3888 Clouds 13 993 54 10000 3.26 149 21:41 24.01.2020
3889 Clouds 13 993 54 10000 3.26 149 21:19 24.01.2020
3890 Clouds 13 992 54 10000 3.26 149 20:44 24.01.2020
3891 Clouds 13 992 54 10000 3.15 148 20:23 24.01.2020
3892 Clouds 13 991 54 10000 0.92 19 19:59 24.01.2020
3893 Clouds 13 991 54 10000 0.92 19 19:41 24.01.2020
3894 Clouds 13 991 54 10000 0.92 19 19:22 24.01.2020
3895 Clouds 13 991 54 10000 0.92 19 18:58 24.01.2020
3896 Clouds 13 991 54 10000 0.92 19 18:40 24.01.2020
3897 Clouds 13 991 54 10000 0.92 19 18:22 24.01.2020
3898 Clouds 12 992 54 10000 2.1 90 17:45 24.01.2020
3899 Clouds 12 992 54 10000 2.1 90 17:22 24.01.2020
3900 Clouds 11 992 71 10000 2.6 180 16:57 24.01.2020
3901 Clouds 11 992 71 10000 2.6 180 16:38 24.01.2020
3902 Clouds 11 992 71 10000 2.6 180 16:19 24.01.2020
3903 Clouds 10 992 71 10000 2.6 180 15:42 24.01.2020
3904 Clouds 10 992 71 10000 2.6 180 15:21 24.01.2020
3905 Clouds 9 993 70 10000 3.1 320 14:55 24.01.2020
3906 Clouds 9 993 70 10000 3.1 320 14:36 24.01.2020
3907 Clouds 9 993 70 10000 3.1 320 14:18 24.01.2020
3908 Clouds 8 993 75 10000 2 320 13:41 24.01.2020
3909 Clouds 8 993 75 10000 2.05 322 13:21 24.01.2020
3910 Clouds 7 991 75 10000 2.05 322 12:43 24.01.2020
3911 Clouds 7 991 75 10000 2.05 322 12:20 24.01.2020
3912 Clouds 6 993 81 10000 4.1 340 11:45 24.01.2020
3913 Clouds 6 993 81 10000 4.1 340 11:19 24.01.2020
3914 Clouds 6 993 81 10000 4.1 340 11:19 24.01.2020
3915 Clouds 6 993 81 10000 4.1 340 11:19 24.01.2020
3916 Clouds 6 993 81 10000 3.1 320 10:58 24.01.2020
3917 Clouds 6 993 81 10000 3.1 320 10:40 24.01.2020
3918 Clouds 6 993 81 10000 3.1 320 10:19 24.01.2020
3919 Clouds 1 993 97 0 1.27 314 09:41 24.01.2020
3920 Clouds 1 993 97 0 1.27 314 09:23 24.01.2020
3921 Clouds 1 993 97 0 1.27 314 08:41 24.01.2020
3922 Clouds 1 993 97 0 1.27 314 08:41 24.01.2020
3923 Clouds 6 992 75 10000 4.1 320 08:21 24.01.2020
3924 Clouds 6 992 75 10000 4.1 320 07:59 24.01.2020
3925 Clouds 6 992 75 10000 4.1 320 07:39 24.01.2020
3926 Rain 3 993 98 0 2.01 1 06:54 24.01.2020
3927 Rain 3 993 98 0 2.01 1 06:33 24.01.2020
3928 Clouds 7 993 70 10000 4.6 320 05:59 24.01.2020
3929 Clouds 7 993 70 10000 4.6 320 05:18 24.01.2020
3930 Clouds 9 992 70 10000 3.6 320 02:54 24.01.2020
3931 Clouds 9 992 70 10000 3.6 320 02:27 24.01.2020
3932 Clouds 9 992 76 10000 1.5 320 01:56 24.01.2020
3933 Clouds 9 992 76 10000 1.5 320 01:35 24.01.2020
3934 Drizzle 10 992 71 10000 5.1 230 00:33 24.01.2020
3935 Drizzle 10 991 71 10000 10.8 230 23:58 23.01.2020
3936 Drizzle 10 991 71 10000 10.8 230 23:40 23.01.2020
3937 Drizzle 10 991 71 10000 10.8 230 23:21 23.01.2020
3938 Clouds 11 990 66 10000 5.1 90 22:55 23.01.2020
3939 Clouds 11 990 66 10000 5.1 90 22:36 23.01.2020
3940 Clouds 12 990 66 10000 5.1 90 22:18 23.01.2020
3941 Clouds 14 990 58 10000 0.72 57 21:55 23.01.2020
3942 Clouds 14 990 58 10000 0.72 57 21:37 23.01.2020
3943 Clouds 14 990 58 10000 0.72 57 21:18 23.01.2020
3944 Clouds 12 991 76 10000 2.1 90 20:41 23.01.2020
3945 Clouds 12 991 76 10000 2.1 90 20:22 23.01.2020
3946 Clouds 13 991 66 10000 3.6 180 19:57 23.01.2020
3947 Clouds 13 991 66 10000 3.6 180 19:39 23.01.2020
3948 Clouds 13 991 66 10000 3.6 180 19:21 23.01.2020
3949 Clouds 11 992 76 10000 3.1 180 18:56 23.01.2020
3950 Clouds 11 992 76 10000 3.1 180 18:38 23.01.2020
3951 Clouds 11 992 76 10000 3.1 180 18:19 23.01.2020
3952 Drizzle 10 992 87 10000 3.1 180 17:45 23.01.2020
3953 Drizzle 10 992 87 10000 3.1 180 17:21 23.01.2020
3954 Drizzle 13 993 66 10000 1.5 360 16:59 23.01.2020
3955 Drizzle 13 993 66 10000 1.5 360 16:39 23.01.2020
3956 Drizzle 13 993 66 10000 1.5 360 16:19 23.01.2020
3957 Clouds 12 993 62 10000 6.2 360 15:58 23.01.2020
3958 Clouds 12 993 62 10000 6.2 360 15:38 23.01.2020
3959 Clouds 12 993 62 10000 6.2 360 15:38 23.01.2020
3960 Clouds 12 993 62 10000 6.2 360 15:19 23.01.2020
3961 Clouds 12 994 62 10000 8.2 360 14:58 23.01.2020
3962 Clouds 12 994 62 10000 8.2 360 14:40 23.01.2020
3963 Clouds 12 994 62 10000 8.2 360 14:21 23.01.2020
3964 Clouds 11 995 66 10000 3.1 320 13:46 23.01.2020
3965 Clouds 11 995 66 10000 3.1 320 13:21 23.01.2020
3966 Clouds 10 996 66 10000 2.89 356 12:57 23.01.2020
3967 Clouds 10 996 66 10000 2.89 356 12:57 23.01.2020
3968 Clouds 10 996 66 10000 2.89 356 12:39 23.01.2020
3969 Clouds 10 996 66 10000 2.89 356 12:21 23.01.2020
3970 Clouds 9 998 70 10000 4.1 290 11:54 23.01.2020
3971 Clouds 9 998 70 10000 4.1 290 11:36 23.01.2020
3972 Clouds 9 998 70 10000 4.1 290 11:18 23.01.2020
3973 Clouds 9 998 70 10000 1.5 270 10:41 23.01.2020
3974 Clouds 9 998 70 10000 1.5 270 10:19 23.01.2020
3975 Clouds 9 998 70 10000 1.5 270 10:19 23.01.2020
3976 Clouds 10 999 61 10000 2.1 290 09:41 23.01.2020
3977 Clouds 10 999 61 10000 2.1 290 09:22 23.01.2020
3978 Clouds 7 999 87 10000 2.03 26 08:57 23.01.2020
3979 Clouds 7 999 87 10000 2.03 26 08:38 23.01.2020
3980 Clouds 7 999 87 10000 1.82 34 08:19 23.01.2020
3981 Clouds 7 1000 93 10000 3.1 110 07:42 23.01.2020
3982 Clouds 7 1000 93 10000 3.1 110 07:21 23.01.2020
3983 Clouds 7 1000 93 10000 3.1 110 07:21 23.01.2020
3984 Clouds 8 1002 87 10000 2.6 70 06:44 23.01.2020
3985 Clouds 8 1002 87 10000 2.6 70 06:19 23.01.2020
3986 Clouds 9 1004 81 10000 3.1 50 04:44 23.01.2020
3987 Clouds 9 1004 81 10000 3.1 50 04:21 23.01.2020
3988 Clouds 10 1005 71 10000 2.6 50 01:58 23.01.2020
3989 Clouds 12 1006 58 10000 1.53 105 00:47 23.01.2020
3990 Clouds 12 1006 58 10000 1.53 105 00:26 23.01.2020
3991 Clouds 12 1007 50 10000 1.53 105 23:47 22.01.2020
3992 Clouds 12 1007 50 10000 1.53 105 23:28 22.01.2020
3993 Clouds 12 1007 52 10000 1.4 152 22:55 22.01.2020
3994 Clouds 12 1007 52 10000 1.4 152 22:37 22.01.2020
3995 Clouds 12 1007 52 10000 1.4 152 22:19 22.01.2020
3996 Clouds 12 1007 54 10000 1.4 152 21:38 22.01.2020
3997 Clouds 12 1007 54 10000 1.4 152 21:20 22.01.2020
3998 Clouds 13 1008 54 10000 1.4 152 20:56 22.01.2020
3999 Clouds 13 1008 54 10000 1.4 152 20:36 22.01.2020
4000 Clouds 13 1008 54 10000 1.4 152 20:36 22.01.2020
4001 Clouds 13 1008 54 10000 1.07 300 20:18 22.01.2020
4002 Clouds 14 1008 47 10000 3.6 230 19:55 22.01.2020
4003 Clouds 14 1008 47 10000 3.6 230 19:36 22.01.2020
4004 Clouds 14 1008 47 10000 3.6 230 19:18 22.01.2020
4005 Clouds 12 1009 54 10000 3.1 230 18:55 22.01.2020
4006 Clouds 12 1009 54 10000 3.1 230 18:36 22.01.2020
4007 Clouds 12 1009 54 10000 3.1 230 18:18 22.01.2020
4008 Clouds 12 1010 50 10000 1.07 300 17:39 22.01.2020
4009 Clouds 12 1010 50 10000 2.19 304 17:20 22.01.2020
4010 Clouds 11 1010 57 10000 4.1 230 16:57 22.01.2020
4011 Clouds 11 1010 57 10000 4.1 230 16:39 22.01.2020
4012 Clouds 11 1010 57 10000 4.1 230 16:20 22.01.2020
4013 Clouds 10 1011 61 10000 5.1 230 15:55 22.01.2020
4014 Clouds 10 1011 61 10000 5.1 230 15:37 22.01.2020
4015 Clouds 10 1011 61 10000 5.1 230 15:18 22.01.2020
4016 Clouds 10 1011 57 10000 7.7 230 14:39 22.01.2020
4017 Clouds 10 1011 57 10000 7.7 230 14:20 22.01.2020
4018 Clouds 9 1011 61 10000 1.75 324 13:57 22.01.2020
4019 Clouds 9 1011 61 10000 1.75 324 13:37 22.01.2020
4020 Clouds 9 1011 61 10000 1.76 305 13:19 22.01.2020
4021 Clouds 8 1011 65 10000 2.6 320 12:57 22.01.2020
4022 Clouds 8 1011 65 10000 2.6 320 12:38 22.01.2020
4023 Clouds 8 1011 65 10000 2.6 320 12:19 22.01.2020
4024 Clouds 7 1010 70 10000 2.6 320 11:57 22.01.2020
4025 Clouds 7 1010 70 10000 2.6 320 11:39 22.01.2020
4026 Clouds 7 1010 70 10000 2.6 320 11:19 22.01.2020
4027 Clouds 7 1010 75 10000 5.7 340 10:45 22.01.2020
4028 Clouds 7 1010 75 10000 5.7 340 10:21 22.01.2020
4029 Clouds 7 1010 75 10000 6.7 250 09:58 22.01.2020
4030 Clouds 7 1010 75 10000 6.7 250 09:40 22.01.2020
4031 Clouds 7 1010 75 10000 6.7 250 09:21 22.01.2020
4032 Clouds 7 1009 75 10000 5.1 230 08:55 22.01.2020
4033 Clouds 7 1009 75 10000 5.1 230 08:37 22.01.2020
4034 Clouds 7 1009 75 10000 5.1 230 08:19 22.01.2020
4035 Clouds 8 1009 65 10000 3.6 270 07:44 22.01.2020
4036 Clouds 8 1009 65 10000 3.6 270 07:26 22.01.2020
4037 Clouds 8 1009 65 10000 7.7 230 06:34 22.01.2020
4038 Clouds 8 1009 65 10000 7.2 230 05:54 22.01.2020
4039 Rain 7 1007 81 10000 10.3 230 04:25 22.01.2020
4040 Rain 7 1007 81 10000 10.3 230 03:26 22.01.2020
4041 Rain 8 1006 75 9000 12.3 230 02:42 22.01.2020
4042 Clouds 11 1005 57 9000 10.8 230 00:47 22.01.2020
4043 Clouds 11 1005 57 9000 10.8 230 00:27 22.01.2020
4044 Clouds 12 1005 66 10000 11.8 230 23:57 21.01.2020
4045 Clouds 12 1005 66 10000 11.8 230 23:37 21.01.2020
4046 Clouds 12 1005 66 10000 11.8 230 23:19 21.01.2020
4047 Clouds 11 1004 57 10000 11.8 230 22:40 21.01.2020
4048 Clouds 12 1004 57 10000 11.8 230 22:21 21.01.2020
4049 Clouds 12 1004 57 10000 11.8 230 21:58 21.01.2020
4050 Clouds 13 1004 54 10000 12.9 230 21:39 21.01.2020
4051 Clouds 13 1004 54 10000 12.9 230 21:20 21.01.2020
4052 Clouds 13 1004 54 10000 11.8 230 20:57 21.01.2020
4053 Clouds 13 1004 54 10000 11.8 230 20:38 21.01.2020
4054 Clouds 13 1004 54 10000 11.8 230 20:20 21.01.2020
4055 Clouds 13 1004 54 10000 12.3 230 19:57 21.01.2020
4056 Clouds 13 1004 54 10000 12.3 230 19:39 21.01.2020
4057 Clouds 13 1004 54 10000 12.3 230 19:20 21.01.2020
4058 Clouds 14 1004 50 10000 12.3 230 18:55 21.01.2020
4059 Clouds 14 1004 50 10000 12.3 230 18:37 21.01.2020
4060 Clouds 14 1004 50 10000 12.3 230 18:19 21.01.2020
4061 Clouds 13 1004 58 10000 12.9 230 17:45 21.01.2020
4062 Clouds 13 1004 58 10000 12.9 230 17:20 21.01.2020
4063 Clouds 13 1004 58 10000 11.3 230 16:59 21.01.2020
4064 Clouds 13 1004 58 10000 11.3 230 16:37 21.01.2020
4065 Clouds 13 1004 58 10000 11.3 230 16:19 21.01.2020
4066 Clouds 12 1004 71 10000 11.8 230 15:56 21.01.2020
4067 Clouds 12 1004 71 10000 11.8 230 15:36 21.01.2020
4068 Clouds 12 1004 71 10000 11.8 230 15:18 21.01.2020
4069 Clouds 10 1004 71 10000 11.3 230 14:38 21.01.2020
4070 Clouds 11 1004 71 10000 11.3 230 14:20 21.01.2020
4071 Clouds 10 1004 87 10000 10.3 230 13:40 21.01.2020
4072 Clouds 10 1004 87 10000 10.3 230 13:19 21.01.2020
4073 Clouds 9 1003 81 10000 12.9 230 12:56 21.01.2020
4074 Clouds 9 1003 81 10000 12.9 230 12:37 21.01.2020
4075 Clouds 9 1003 81 10000 12.9 230 12:19 21.01.2020
4076 Clouds 7 1004 87 10000 5.7 270 11:40 21.01.2020
4077 Clouds 7 1004 87 10000 5.7 270 11:21 21.01.2020
4078 Clouds 8 1003 87 10000 4.6 270 10:57 21.01.2020
4079 Clouds 8 1003 87 10000 4.6 270 10:57 21.01.2020
4080 Clouds 8 1003 87 10000 4.6 270 10:57 21.01.2020
4081 Clouds 8 1003 87 10000 4.6 270 10:39 21.01.2020
4082 Clouds 8 1003 87 10000 4.6 270 10:20 21.01.2020
4083 Clouds 8 1003 87 10000 1.71 243 09:42 21.01.2020
4084 Clouds 8 1003 87 10000 1.71 243 09:23 21.01.2020
4085 Clouds 8 1003 87 10000 2.6 250 08:50 21.01.2020
4086 Clouds 8 1003 87 10000 2.6 250 08:32 21.01.2020
4087 Rain 8 1003 87 10000 2.1 50 07:59 21.01.2020
4088 Rain 8 1003 87 10000 2.1 50 07:40 21.01.2020
4089 Rain 8 1003 87 10000 2.1 50 07:22 21.01.2020
4090 Rain 8 1003 93 10000 3.1 70 06:49 21.01.2020
4091 Rain 8 1003 93 10000 3.1 70 06:29 21.01.2020
4092 Rain 8 1003 93 10000 3.1 70 06:29 21.01.2020
4093 Rain 8 1003 93 10000 3.1 70 06:29 21.01.2020
4094 Drizzle 8 1003 93 10000 6.2 70 05:42 21.01.2020
4095 Clouds 10 1004 71 10000 4.1 90 04:40 21.01.2020
4096 Clouds 10 1005 76 10000 2.6 320 02:57 21.01.2020
4097 Clouds 10 1005 81 10000 2.6 270 01:56 21.01.2020
4098 Clouds 10 1005 81 10000 2.6 270 01:26 21.01.2020
4099 Clouds 11 1005 76 10000 0.65 53 00:37 21.01.2020
4100 Clouds 11 1005 76 10000 0.65 53 23:59 20.01.2020
4101 Clouds 11 1005 76 10000 0.65 53 23:41 20.01.2020
4102 Clouds 11 1005 76 10000 1.76 241 23:19 20.01.2020
4103 Clouds 12 1004 66 10000 6.7 230 22:56 20.01.2020
4104 Clouds 12 1004 66 10000 6.7 230 22:38 20.01.2020
4105 Clouds 12 1004 66 10000 6.7 230 22:20 20.01.2020
4106 Clouds 11 1004 66 10000 6.7 230 21:57 20.01.2020
4107 Clouds 12 1003 62 10000 9.3 230 21:37 20.01.2020
4108 Clouds 12 1003 62 10000 9.3 230 21:19 20.01.2020
4109 Clouds 12 1003 62 10000 8.7 230 20:56 20.01.2020
4110 Clouds 12 1003 62 10000 8.7 230 20:56 20.01.2020
4111 Clouds 12 1003 62 10000 8.7 230 20:38 20.01.2020
4112 Clouds 12 1003 62 10000 8.7 230 20:18 20.01.2020
4113 Clouds 11 1003 66 10000 10.3 230 19:56 20.01.2020
4114 Clouds 11 1003 66 10000 10.3 230 19:56 20.01.2020
4115 Clouds 11 1003 66 10000 10.3 230 19:37 20.01.2020
4116 Clouds 11 1003 66 10000 10.3 230 19:18 20.01.2020
4117 Clouds 11 1003 71 10000 10.3 230 18:44 20.01.2020
4118 Clouds 11 1003 71 10000 10.3 230 18:22 20.01.2020
4119 Clouds 11 1002 71 10000 11.8 230 17:41 20.01.2020
4120 Clouds 11 1002 71 10000 11.8 230 17:20 20.01.2020
4121 Rain 10 1002 76 10000 11.3 230 16:59 20.01.2020
4122 Rain 10 1002 76 10000 11.3 230 16:39 20.01.2020
4123 Rain 10 1002 76 10000 11.3 230 16:19 20.01.2020
4124 Rain 10 1002 76 10000 11.3 230 16:19 20.01.2020
4125 Rain 10 1002 76 10000 11.3 230 16:19 20.01.2020
4126 Rain 10 1002 76 10000 11.3 230 16:19 20.01.2020
4127 Rain 10 1002 76 10000 11.3 230 16:19 20.01.2020
4128 Clouds 10 1002 81 10000 11.3 230 15:56 20.01.2020
4129 Clouds 10 1002 81 10000 11.3 230 15:38 20.01.2020
4130 Clouds 10 1002 81 10000 11.3 230 15:20 20.01.2020
4131 Clouds 9 1002 76 10000 12.9 230 14:41 20.01.2020
4132 Clouds 9 1002 76 10000 12.9 230 14:22 20.01.2020
4133 Clouds 8 1001 75 10000 13.4 230 13:58 20.01.2020
4134 Clouds 8 1001 75 10000 13.4 230 13:40 20.01.2020
4135 Clouds 8 1001 75 10000 13.4 230 13:21 20.01.2020
4136 Clouds 8 1002 81 10000 10.8 230 12:46 20.01.2020
4137 Clouds 8 1002 81 10000 10.8 230 12:28 20.01.2020
4138 Rain 7 1001 87 10000 11.3 230 11:58 20.01.2020
4139 Rain 7 1001 87 10000 11.3 230 11:39 20.01.2020
4140 Rain 7 1001 87 10000 11.3 230 11:20 20.01.2020
4141 Drizzle 7 1000 87 7000 8.7 230 10:48 20.01.2020
4142 Drizzle 7 1000 87 7000 8.7 230 10:22 20.01.2020
4143 Drizzle 7 999 81 10000 11.3 230 09:57 20.01.2020
4144 Drizzle 7 999 81 10000 11.3 230 09:39 20.01.2020
4145 Drizzle 7 999 81 10000 11.3 230 09:20 20.01.2020
4146 Drizzle 7 999 81 10000 13.9 230 08:44 20.01.2020
4147 Drizzle 7 999 81 10000 13.9 230 08:26 20.01.2020
4148 Rain 7 999 75 10000 13.9 230 07:45 20.01.2020
4149 Rain 7 999 75 10000 13.9 230 07:25 20.01.2020
4150 Rain 4 1000 90 0 6.83 249 06:48 20.01.2020
4151 Rain 4 1000 90 0 6.83 249 06:27 20.01.2020
4152 Rain 4 1000 90 0 6.83 249 05:42 20.01.2020
4153 Rain 8 998 75 10000 14.9 230 05:22 20.01.2020
4154 Rain 8 998 75 10000 14.9 230 04:42 20.01.2020
4155 Rain 8 997 70 10000 13.4 230 02:57 20.01.2020
4156 Rain 8 997 70 10000 13.4 230 02:57 20.01.2020
4157 Drizzle 8 996 81 10000 13.4 230 01:54 20.01.2020
4158 Drizzle 8 996 81 10000 13.4 230 01:35 20.01.2020
4159 Rain 8 995 75 10000 18 230 00:44 20.01.2020
4160 Rain 8 994 75 10000 16.5 230 00:23 20.01.2020
4161 Rain 9 994 76 10000 13.9 230 23:39 19.01.2020
4162 Rain 9 994 76 10000 13.9 230 23:20 19.01.2020
4163 Rain 9 994 76 10000 13.9 230 23:20 19.01.2020
4164 Drizzle 9 993 81 10000 20.1 230 22:56 19.01.2020
4165 Drizzle 9 993 81 10000 20.1 230 22:38 19.01.2020
4166 Drizzle 9 993 81 10000 20.1 230 22:20 19.01.2020
4167 Rain 10 993 81 10000 17 230 21:56 19.01.2020
4168 Rain 10 993 81 10000 17 230 21:38 19.01.2020
4169 Rain 10 993 81 10000 17 230 21:20 19.01.2020
4170 Drizzle 10 993 81 10000 15.9 230 20:57 19.01.2020
4171 Drizzle 10 993 81 10000 15.9 230 20:39 19.01.2020
4172 Drizzle 10 993 81 10000 15.9 230 20:20 19.01.2020
4173 Rain 11 993 71 10000 11.3 230 19:57 19.01.2020
4174 Rain 11 993 71 10000 11.3 230 19:39 19.01.2020
4175 Rain 11 993 71 10000 11.3 230 19:39 19.01.2020
4176 Rain 11 993 71 10000 11.3 230 19:20 19.01.2020
4177 Rain 11 992 71 10000 12.3 230 18:57 19.01.2020
4178 Rain 11 992 71 10000 12.3 230 18:38 19.01.2020
4179 Rain 11 992 71 10000 12.3 230 18:20 19.01.2020
4180 Rain 10 993 71 10000 12.3 230 17:58 19.01.2020
4181 Rain 10 993 71 10000 12.3 230 17:40 19.01.2020
4182 Rain 10 993 71 10000 12.3 230 17:21 19.01.2020
4183 Rain 10 992 71 10000 12.3 230 16:59 19.01.2020
4184 Rain 10 992 71 10000 12.3 230 16:38 19.01.2020
4185 Rain 10 992 71 10000 12.3 230 16:38 19.01.2020
4186 Rain 10 992 71 10000 12.3 230 16:20 19.01.2020
4187 Rain 10 992 71 10000 17 230 15:58 19.01.2020
4188 Rain 10 992 71 10000 17 230 15:58 19.01.2020
4189 Rain 10 992 71 10000 17 230 15:38 19.01.2020
4190 Rain 10 992 71 10000 17 230 15:20 19.01.2020
4191 Rain 9 991 76 10000 12.9 230 14:58 19.01.2020
4192 Rain 9 991 76 10000 12.9 230 14:39 19.01.2020
4193 Rain 9 991 76 10000 12.9 230 14:18 19.01.2020
4194 Clouds 9 991 81 10000 8.7 230 13:57 19.01.2020
4195 Clouds 9 991 81 10000 8.7 230 13:38 19.01.2020
4196 Clouds 9 991 81 10000 8.7 230 13:19 19.01.2020
4197 Clouds 8 992 87 10000 7.7 230 12:55 19.01.2020
4198 Clouds 8 992 87 10000 7.7 230 12:36 19.01.2020
4199 Clouds 8 992 87 10000 7.7 230 12:18 19.01.2020
4200 Drizzle 8 992 81 10000 7.7 230 11:42 19.01.2020
4201 Drizzle 8 992 81 10000 7.7 230 11:20 19.01.2020
4202 Drizzle 8 992 87 10000 6.2 230 10:56 19.01.2020
4203 Drizzle 8 992 87 10000 6.2 230 10:38 19.01.2020
4204 Drizzle 8 992 87 10000 6.2 230 10:19 19.01.2020
4205 Drizzle 8 992 87 10000 2.1 230 09:55 19.01.2020
4206 Drizzle 8 992 87 10000 2.1 230 09:55 19.01.2020
4207 Drizzle 8 992 87 10000 2.1 230 09:36 19.01.2020
4208 Drizzle 8 992 87 10000 2.1 230 09:18 19.01.2020
4209 Clouds 8 992 87 10000 3.1 230 08:44 19.01.2020
4210 Clouds 8 992 87 10000 3.1 230 08:26 19.01.2020
4211 Clouds 8 993 87 10000 3.1 320 07:42 19.01.2020
4212 Clouds 8 993 87 10000 3.1 320 07:22 19.01.2020
4213 Clouds 8 993 93 10000 2.6 320 06:53 19.01.2020
4214 Clouds 8 993 93 10000 2.6 320 06:21 19.01.2020
4215 Drizzle 9 994 81 10000 10.3 230 02:44 19.01.2020
4216 Drizzle 9 994 81 10000 10.3 230 02:21 19.01.2020
4217 Rain 9 993 81 10000 10.3 230 01:25 19.01.2020
4218 Drizzle 10 993 76 10000 11.8 230 00:50 19.01.2020
4219 Rain 10 993 76 10000 12.9 230 00:29 19.01.2020
4220 Rain 10 993 76 10000 12.9 230 23:58 18.01.2020
4221 Rain 10 993 76 10000 12.9 230 23:40 18.01.2020
4222 Rain 10 993 76 10000 12.9 230 23:21 18.01.2020
4223 Rain 12 992 66 10000 12.9 230 22:55 18.01.2020
4224 Rain 12 992 66 10000 12.9 230 22:37 18.01.2020
4225 Rain 12 992 66 10000 12.9 230 22:37 18.01.2020
4226 Rain 12 992 66 10000 12.9 230 22:19 18.01.2020
4227 Rain 12 992 66 10000 12.9 230 22:19 18.01.2020
4228 Clouds 13 992 62 10000 11.8 230 21:57 18.01.2020
4229 Clouds 13 992 62 10000 11.8 230 21:37 18.01.2020
4230 Clouds 13 992 62 10000 11.8 230 21:37 18.01.2020
4231 Clouds 13 992 62 10000 11.8 230 21:19 18.01.2020
4232 Clouds 13 992 62 10000 11.8 230 20:43 18.01.2020
4233 Clouds 13 992 62 10000 11.8 230 20:21 18.01.2020
4234 Clouds 12 993 66 10000 10.3 230 19:57 18.01.2020
4235 Clouds 12 993 66 10000 10.3 230 19:39 18.01.2020
4236 Clouds 12 993 66 10000 10.3 230 19:21 18.01.2020
4237 Clouds 12 994 66 10000 8.7 230 18:42 18.01.2020
4238 Clouds 12 994 66 10000 8.7 230 18:21 18.01.2020
4239 Clouds 12 994 66 10000 8.2 200 17:55 18.01.2020
4240 Clouds 12 994 66 10000 8.2 200 17:37 18.01.2020
4241 Clouds 12 994 66 10000 8.2 200 17:18 18.01.2020
4242 Clouds 11 994 66 10000 9.3 230 16:42 18.01.2020
4243 Clouds 11 994 66 10000 9.3 230 16:24 18.01.2020
4244 Clouds 12 994 62 10000 10.3 230 15:59 18.01.2020
4245 Clouds 12 994 62 10000 10.3 230 15:41 18.01.2020
4246 Clouds 12 994 62 10000 10.3 230 15:22 18.01.2020
4247 Clouds 11 994 71 10000 10.8 230 14:54 18.01.2020
4248 Clouds 11 994 71 10000 10.8 230 14:36 18.01.2020
4249 Clouds 11 994 71 10000 10.8 230 14:18 18.01.2020
4250 Clouds 12 995 58 10000 13.9 290 13:43 18.01.2020
4251 Clouds 11 995 58 10000 13.9 290 13:24 18.01.2020
4252 Clouds 10 996 71 10000 3.6 230 12:56 18.01.2020
4253 Clouds 10 996 71 10000 3.6 230 12:38 18.01.2020
4254 Clouds 10 996 71 10000 3.6 230 12:19 18.01.2020
4255 Clouds 9 996 76 10000 6.2 230 11:44 18.01.2020
4256 Clouds 9 996 76 10000 6.2 230 11:21 18.01.2020
4257 Rain 7 997 93 10000 2.6 230 10:56 18.01.2020
4258 Rain 7 997 93 10000 2.6 230 10:38 18.01.2020
4259 Rain 7 997 93 10000 2.6 230 10:18 18.01.2020
4260 Rain 7 997 93 10000 2.6 230 10:18 18.01.2020
4261 Drizzle 7 997 87 10000 10.3 230 09:42 18.01.2020
4262 Drizzle 7 997 87 10000 10.3 230 09:20 18.01.2020
4263 Rain 5 996 96 0 2.6 266 08:55 18.01.2020
4264 Rain 5 996 96 0 2.6 266 08:37 18.01.2020
4265 Rain 7 997 100 6000 6.2 230 08:18 18.01.2020
4266 Rain 7 997 100 6000 6.2 230 07:40 18.01.2020
4267 Rain 7 997 100 6000 6.2 230 07:21 18.01.2020
4268 Rain 4 996 97 0 3.04 295 06:45 18.01.2020
4269 Rain 7 996 93 10000 9.8 230 05:53 18.01.2020
4270 Drizzle 8 996 81 10000 5.7 230 04:29 18.01.2020
4271 Rain 7 995 87 10000 11.3 230 02:49 18.01.2020
4272 Rain 8 994 87 10000 13.4 230 01:51 18.01.2020
4273 Rain 8 994 87 10000 10.3 230 00:40 18.01.2020
4274 Rain 8 994 87 10000 10.3 230 00:21 18.01.2020
4275 Rain 9 993 87 10000 11.8 230 23:59 17.01.2020
4276 Rain 9 993 87 10000 11.8 230 23:40 17.01.2020
4277 Rain 9 993 87 10000 11.8 230 23:19 17.01.2020
4278 Rain 10 993 76 10000 11.3 230 22:43 17.01.2020
4279 Rain 10 993 76 10000 11.3 230 22:21 17.01.2020
4280 Rain 11 992 71 10000 10.8 230 21:57 17.01.2020
4281 Rain 11 992 71 10000 10.8 230 21:39 17.01.2020
4282 Rain 11 992 71 10000 10.8 230 21:20 17.01.2020
4283 Rain 10 992 71 10000 10.8 230 20:55 17.01.2020
4284 Rain 10 992 71 10000 10.8 230 20:36 17.01.2020
4285 Rain 10 992 71 10000 10.8 230 20:18 17.01.2020
4286 Rain 11 991 71 10000 11.8 230 19:54 17.01.2020
4287 Rain 11 991 71 10000 11.8 230 19:36 17.01.2020
4288 Rain 11 991 71 10000 11.8 230 19:18 17.01.2020
4289 Rain 11 990 71 10000 17 230 18:44 17.01.2020
4290 Drizzle 11 989 71 10000 16.5 230 18:26 17.01.2020
4291 Drizzle 12 989 66 10000 15.9 230 17:56 17.01.2020
4292 Rain 12 989 66 10000 9.3 230 17:38 17.01.2020
4293 Rain 12 989 66 10000 9.3 230 17:19 17.01.2020
4294 Drizzle 11 990 66 10000 10.3 230 16:42 17.01.2020
4295 Drizzle 11 990 66 10000 10.3 230 16:20 17.01.2020
4296 Drizzle 12 990 66 10000 6.7 230 15:48 17.01.2020
4297 Drizzle 12 990 66 10000 6.7 230 15:27 17.01.2020
4298 Clouds 12 991 66 10000 5.7 230 14:56 17.01.2020
4299 Clouds 12 991 66 10000 5.7 230 14:38 17.01.2020
4300 Clouds 12 991 66 10000 5.7 230 14:20 17.01.2020
4301 Clouds 12 991 66 10000 5.7 230 14:20 17.01.2020
4302 Clouds 11 992 81 10000 9.3 230 13:41 17.01.2020
4303 Clouds 11 992 81 10000 9.3 230 13:22 17.01.2020
4304 Clouds 10 993 81 10000 1.94 299 12:45 17.01.2020
4305 Clouds 10 993 81 10000 1.94 299 12:23 17.01.2020
4306 Clouds 10 993 81 10000 1.94 299 12:23 17.01.2020
4307 Clouds 10 993 76 10000 3.6 360 11:41 17.01.2020
4308 Clouds 10 993 76 10000 3.6 360 11:20 17.01.2020
4309 Clouds 10 994 81 10000 4.1 340 10:55 17.01.2020
4310 Clouds 10 994 81 10000 4.1 340 10:36 17.01.2020
4311 Clouds 10 994 81 10000 4.1 340 10:18 17.01.2020
4312 Clouds 10 995 76 10000 3.1 320 09:42 17.01.2020
4313 Clouds 10 995 76 10000 3.1 320 09:21 17.01.2020
4314 Clouds 11 996 71 10000 4.1 320 08:56 17.01.2020
4315 Clouds 11 996 71 10000 4.1 320 08:38 17.01.2020
4316 Clouds 11 996 71 10000 4.1 320 08:19 17.01.2020
4317 Clouds 9 996 76 10000 4.6 320 07:43 17.01.2020
4318 Clouds 9 996 76 10000 4.6 320 07:25 17.01.2020
4319 Clouds 8 998 75 10000 4.6 320 06:47 17.01.2020
4320 Clouds 8 998 75 10000 4.6 320 06:29 17.01.2020
4321 Clouds 5 997 97 0 2.38 327 04:27 17.01.2020
4322 Clouds 5 997 97 0 2.38 327 02:56 17.01.2020
4323 Clouds 5 997 97 0 2.38 327 02:56 17.01.2020
4324 Clouds 5 997 97 0 2.38 327 02:32 17.01.2020
4325 Rain 5 998 98 0 2.18 340 01:44 17.01.2020
4326 Rain 5 998 98 0 2.18 340 01:22 17.01.2020
4327 Rain 6 998 98 0 2.07 336 00:37 17.01.2020
4328 Clouds 9 1001 81 10000 2.1 50 23:59 16.01.2020
4329 Clouds 9 1001 81 10000 2.1 50 23:41 16.01.2020
4330 Clouds 9 1001 81 10000 2.1 50 23:22 16.01.2020
4331 Clouds 9 1002 76 10000 1.06 16 22:41 16.01.2020
4332 Clouds 9 1002 76 10000 1.06 16 22:21 16.01.2020
4333 Drizzle 10 1002 76 10000 2.1 90 21:57 16.01.2020
4334 Drizzle 10 1002 76 10000 2.1 90 21:57 16.01.2020
4335 Drizzle 10 1002 76 10000 2.1 90 21:38 16.01.2020
4336 Drizzle 10 1002 76 10000 2.1 90 21:19 16.01.2020
4337 Drizzle 10 1003 71 10000 2.1 90 20:57 16.01.2020
4338 Drizzle 10 1003 71 10000 2.1 90 20:38 16.01.2020
4339 Drizzle 10 1003 71 10000 2.1 90 20:19 16.01.2020
4340 Drizzle 10 1004 71 10000 1.88 291 19:56 16.01.2020
4341 Drizzle 10 1004 71 10000 1.88 291 19:37 16.01.2020
4342 Drizzle 10 1004 71 10000 1.88 291 19:19 16.01.2020
4343 Drizzle 10 1004 71 10000 1.88 291 19:19 16.01.2020
4344 Drizzle 9 1005 70 10000 1 230 18:55 16.01.2020
4345 Drizzle 9 1005 70 10000 1 230 18:37 16.01.2020
4346 Drizzle 9 1005 70 10000 1 230 18:18 16.01.2020
4347 Drizzle 9 1005 76 10000 5.1 230 17:42 16.01.2020
4348 Drizzle 9 1005 76 10000 5.1 230 17:23 16.01.2020
4349 Clouds 10 1005 76 10000 9.3 230 16:57 16.01.2020
4350 Clouds 10 1005 76 10000 9.3 230 16:39 16.01.2020
4351 Clouds 10 1005 76 10000 9.3 230 16:19 16.01.2020
4352 Clouds 9 1006 75 10000 7.7 230 15:44 16.01.2020
4353 Clouds 9 1006 75 10000 7.7 230 15:23 16.01.2020
4354 Clouds 8 1006 75 10000 9.3 230 14:57 16.01.2020
4355 Clouds 8 1006 75 10000 9.3 230 14:39 16.01.2020
4356 Clouds 8 1006 75 10000 9.3 230 14:20 16.01.2020
4357 Clouds 7 1006 81 10000 10.3 230 13:45 16.01.2020
4358 Clouds 7 1006 81 10000 10.3 230 13:26 16.01.2020
4359 Rain 7 1006 81 10000 17 230 12:47 16.01.2020
4360 Rain 7 1006 81 10000 17 230 12:28 16.01.2020
4361 Drizzle 6 1005 87 10000 15.4 230 11:59 16.01.2020
4362 Drizzle 6 1005 87 10000 15.4 230 11:41 16.01.2020
4363 Drizzle 6 1005 87 10000 15.4 230 11:22 16.01.2020
4364 Rain 6 1006 81 10000 14.4 230 10:55 16.01.2020
4365 Rain 6 1006 81 10000 14.4 230 10:36 16.01.2020
4366 Rain 6 1006 81 10000 14.4 230 10:18 16.01.2020
4367 Rain 6 1004 81 10000 15.9 230 09:41 16.01.2020
4368 Rain 6 1004 81 10000 15.9 230 09:23 16.01.2020
4369 Rain 6 1004 81 10000 14.9 230 08:55 16.01.2020
4370 Rain 6 1004 81 10000 14.9 230 08:36 16.01.2020
4371 Rain 5 1004 93 10000 14.9 230 07:59 16.01.2020
4372 Rain 5 1004 93 10000 14.9 230 07:41 16.01.2020
4373 Rain 5 1004 93 10000 14.9 230 07:23 16.01.2020
4374 Rain 5 1004 93 8000 11.3 230 06:46 16.01.2020
4375 Rain 5 1004 93 8000 11.3 230 06:28 16.01.2020
4376 Rain 5 1004 93 8000 11.3 230 06:28 16.01.2020
4377 Rain 5 1003 93 8000 13.4 230 05:46 16.01.2020
4378 Rain 4 1001 96 0 5.47 230 04:46 16.01.2020
4379 Rain 4 1001 96 0 5.47 230 04:46 16.01.2020
4380 Drizzle 5 1001 86 5000 17 230 03:29 16.01.2020
4381 Drizzle 5 1000 86 6000 14.4 230 02:44 16.01.2020
4382 Drizzle 5 999 75 6000 14.4 230 01:24 16.01.2020
4383 Rain 6 998 75 6000 13.9 230 00:41 16.01.2020
4384 Rain 6 998 75 6000 13.9 230 00:19 16.01.2020
4385 Drizzle 5 998 100 10000 10.8 230 23:40 15.01.2020
4386 Drizzle 5 998 100 10000 10.8 230 23:20 15.01.2020
4387 Drizzle 5 997 100 10000 12.9 230 22:56 15.01.2020
4388 Drizzle 5 997 100 10000 12.9 230 22:37 15.01.2020
4389 Drizzle 6 997 100 10000 12.9 230 22:18 15.01.2020
4390 Rain 6 995 93 8000 18.5 230 21:55 15.01.2020
4391 Rain 6 995 93 8000 18.5 230 21:36 15.01.2020
4392 Rain 6 995 93 8000 18.5 230 21:18 15.01.2020
4393 Rain 7 995 93 8000 12.9 230 20:54 15.01.2020
4394 Rain 7 995 93 8000 12.9 230 20:36 15.01.2020
4395 Rain 7 995 93 8000 12.9 230 20:18 15.01.2020
4396 Rain 6 994 93 5000 12.3 230 19:54 15.01.2020
4397 Rain 6 994 93 5000 12.3 230 19:36 15.01.2020
4398 Rain 7 994 93 5000 12.3 230 19:18 15.01.2020
4399 Rain 7 994 93 5000 13.4 230 18:55 15.01.2020
4400 Rain 7 994 93 5000 13.4 230 18:55 15.01.2020
4401 Rain 7 994 93 5000 13.4 230 18:55 15.01.2020
4402 Rain 7 994 93 5000 13.4 230 18:36 15.01.2020
4403 Rain 7 994 93 5000 13.4 230 18:18 15.01.2020
4404 Rain 7 994 93 5000 13.4 230 18:18 15.01.2020
4405 Rain 7 993 100 8000 11.3 230 17:40 15.01.2020
4406 Rain 7 993 100 8000 11.3 230 17:22 15.01.2020
4407 Rain 7 993 93 9000 9.8 230 16:57 15.01.2020
4408 Rain 7 993 93 9000 9.8 230 16:38 15.01.2020
4409 Rain 7 993 93 9000 9.8 230 16:20 15.01.2020
4410 Rain 7 993 93 9000 9.8 230 16:20 15.01.2020
4411 Rain 7 993 93 9000 9.8 230 16:20 15.01.2020
4412 Rain 7 993 93 9000 9.8 230 16:20 15.01.2020
4413 Rain 7 993 93 9000 9.8 230 16:20 15.01.2020
4414 Rain 8 992 87 5000 12.9 230 15:43 15.01.2020
4415 Rain 8 992 87 5000 12.9 230 15:21 15.01.2020
4416 Rain 8 992 81 10000 11.3 230 14:57 15.01.2020
4417 Rain 8 992 81 10000 11.3 230 14:39 15.01.2020
4418 Rain 8 992 81 10000 11.3 230 14:18 15.01.2020
4419 Clouds 9 992 92 10000 10.8 230 13:44 15.01.2020
4420 Clouds 9 992 92 10000 10.8 230 13:24 15.01.2020
4421 Rain 6 992 75 10000 11.8 230 12:57 15.01.2020
4422 Rain 6 992 75 10000 11.8 230 12:39 15.01.2020
4423 Rain 6 992 75 10000 11.8 230 12:19 15.01.2020
4424 Clouds 6 992 75 10000 11.8 230 11:55 15.01.2020
4425 Clouds 6 992 75 10000 11.8 230 11:36 15.01.2020
4426 Clouds 6 992 75 10000 11.8 230 11:36 15.01.2020
4427 Clouds 6 992 75 10000 11.8 230 11:18 15.01.2020
4428 Rain 6 991 70 10000 11.8 230 10:41 15.01.2020
4429 Rain 6 991 70 10000 11.8 230 10:23 15.01.2020
4430 Rain 6 991 70 10000 11.8 230 09:42 15.01.2020
4431 Rain 6 991 70 10000 11.8 230 09:22 15.01.2020
4432 Clouds 6 991 87 10000 13.4 230 08:55 15.01.2020
4433 Clouds 6 991 87 10000 13.4 230 08:55 15.01.2020
4434 Clouds 6 991 87 10000 13.4 230 08:37 15.01.2020
4435 Clouds 6 991 87 10000 13.4 230 08:19 15.01.2020
4436 Clouds 6 991 87 10000 12.3 230 07:43 15.01.2020
4437 Clouds 6 991 87 10000 12.3 230 07:24 15.01.2020
4438 Clouds 6 992 75 10000 13.4 230 06:44 15.01.2020
4439 Clouds 6 992 75 10000 11.8 230 05:57 15.01.2020
4440 Rain 6 992 75 10000 11.8 230 03:56 15.01.2020
4441 Rain 7 992 81 6500 11.8 230 02:28 15.01.2020
4442 Drizzle 8 991 81 10000 9.3 230 01:22 15.01.2020
4443 Drizzle 8 992 81 5000 4.1 230 00:45 15.01.2020
4444 Drizzle 8 992 81 5000 4.1 230 00:26 15.01.2020
4445 Drizzle 9 991 70 10000 3.1 230 23:47 14.01.2020
4446 Drizzle 9 991 70 10000 3.1 230 23:29 14.01.2020
4447 Rain 10 991 76 10000 5.1 200 22:59 14.01.2020
4448 Rain 10 991 76 10000 5.1 200 22:40 14.01.2020
4449 Rain 9 991 76 10000 5.1 200 22:19 14.01.2020
4450 Rain 9 991 76 10000 5.1 200 21:58 14.01.2020
4451 Rain 9 990 81 9000 4.6 260 21:39 14.01.2020
4452 Rain 10 990 81 9000 4.6 260 21:20 14.01.2020
4453 Rain 10 991 71 10000 1.5 90 20:57 14.01.2020
4454 Rain 6 990 94 0 1.23 159 20:39 14.01.2020
4455 Rain 9 991 71 10000 2.1 90 20:19 14.01.2020
4456 Rain 9 991 71 10000 2.1 90 19:55 14.01.2020
4457 Rain 9 991 71 10000 2.1 90 19:37 14.01.2020
4458 Rain 9 991 71 10000 2.1 90 19:18 14.01.2020
4459 Rain 9 990 82 0 1.07 351 18:41 14.01.2020
4460 Rain 9 991 76 10000 2.1 360 18:20 14.01.2020
4461 Rain 9 991 76 10000 2.1 360 17:59 14.01.2020
4462 Rain 9 991 76 10000 2.1 360 17:37 14.01.2020
4463 Rain 9 991 76 10000 2.1 360 17:18 14.01.2020
4464 Rain 9 991 76 10000 2.1 360 17:18 14.01.2020
4465 Rain 9 992 70 10000 2.1 360 16:54 14.01.2020
4466 Rain 9 992 70 10000 2.1 360 16:36 14.01.2020
4467 Rain 9 992 70 10000 2.1 360 16:18 14.01.2020
4468 Clouds 9 992 75 10000 2.24 158 15:42 14.01.2020
4469 Clouds 9 992 75 10000 2.24 158 15:19 14.01.2020
4470 Drizzle 8 992 81 10000 2.24 158 14:46 14.01.2020
4471 Drizzle 8 992 81 10000 2.24 158 14:22 14.01.2020
4472 Rain 7 993 87 10000 2.1 360 13:58 14.01.2020
4473 Rain 7 993 87 10000 2.1 360 13:39 14.01.2020
4474 Rain 8 993 87 10000 2.1 360 13:19 14.01.2020
4475 Drizzle 8 994 93 10000 3.1 340 12:42 14.01.2020
4476 Drizzle 8 994 93 10000 3.1 340 12:22 14.01.2020
4477 Drizzle 7 993 100 10000 2.1 340 11:56 14.01.2020
4478 Drizzle 7 994 100 2500 2.61 154 11:37 14.01.2020
4479 Drizzle 7 994 100 2500 2.61 154 11:37 14.01.2020
4480 Drizzle 7 994 100 2500 2.34 143 11:19 14.01.2020
4481 Drizzle 7 994 100 2500 2.1 90 10:41 14.01.2020
4482 Drizzle 7 994 100 2500 2.1 90 10:20 14.01.2020
4483 Drizzle 7 994 100 1200 3.1 70 09:59 14.01.2020
4484 Drizzle 7 994 100 1200 3.1 70 09:40 14.01.2020
4485 Drizzle 7 994 100 1200 3.1 70 09:21 14.01.2020
4486 Drizzle 7 994 100 3000 2.6 50 08:57 14.01.2020
4487 Drizzle 7 994 100 3000 2.6 50 08:39 14.01.2020
4488 Drizzle 7 994 100 3000 2.6 50 08:20 14.01.2020
4489 Drizzle 8 994 100 3000 4.1 70 07:38 14.01.2020
4490 Rain 9 995 93 2000 3.1 70 06:59 14.01.2020
4491 Rain 9 995 93 2000 3.1 70 06:40 14.01.2020
4492 Rain 9 995 100 3000 3.6 50 05:35 14.01.2020
4493 Drizzle 10 996 87 5000 2 128 04:23 14.01.2020
4494 Drizzle 10 996 93 5000 4.1 230 03:43 14.01.2020
4495 Drizzle 10 996 93 5000 4.1 230 02:26 14.01.2020
4496 Drizzle 10 995 93 10000 3.1 230 01:18 14.01.2020
4497 Drizzle 12 995 87 10000 3.6 230 00:39 14.01.2020
4498 Drizzle 12 995 87 10000 3.6 230 00:21 14.01.2020
4499 Clouds 12 995 87 10000 5.7 230 23:38 13.01.2020
4500 Clouds 12 995 87 10000 5.7 230 23:18 13.01.2020
4501 Clouds 13 995 76 10000 4.1 230 22:54 13.01.2020
4502 Clouds 13 995 76 10000 4.1 230 22:36 13.01.2020
4503 Clouds 16 995 76 10000 4.1 230 22:18 13.01.2020
4504 Clouds 16 995 76 10000 4.1 230 21:54 13.01.2020
4505 Clouds 16 995 76 10000 4.1 230 21:54 13.01.2020
4506 Clouds 16 995 76 10000 4.1 230 21:54 13.01.2020
4507 Clouds 15 995 76 10000 2.1 230 21:36 13.01.2020
4508 Clouds 15 995 76 10000 2.1 230 21:18 13.01.2020
4509 Drizzle 15 995 71 10000 1.5 50 20:42 13.01.2020
4510 Drizzle 15 995 71 10000 1.5 50 20:22 13.01.2020
4511 Drizzle 15 996 71 10000 2.6 230 19:59 13.01.2020
4512 Drizzle 15 996 71 10000 2.6 230 19:40 13.01.2020
4513 Drizzle 15 996 71 10000 2.6 230 19:20 13.01.2020
4514 Clouds 13 996 87 10000 2.1 230 18:58 13.01.2020
4515 Clouds 13 996 87 10000 2.1 230 18:37 13.01.2020
4516 Clouds 13 996 87 10000 2.1 230 18:19 13.01.2020
4517 Clouds 12 997 87 10000 1.9 149 17:55 13.01.2020
4518 Clouds 12 997 87 10000 1.9 149 17:36 13.01.2020
4519 Clouds 12 997 87 10000 1.22 262 17:18 13.01.2020
4520 Clouds 12 998 79 0 1.22 262 16:40 13.01.2020
4521 Clouds 12 998 79 0 1.22 262 16:40 13.01.2020
4522 Clouds 12 998 79 0 1.22 262 16:21 13.01.2020
4523 Clouds 12 998 79 0 1.22 262 15:55 13.01.2020
4524 Clouds 12 998 79 0 1.22 262 15:36 13.01.2020
4525 Clouds 12 998 79 0 1.22 262 15:18 13.01.2020
4526 Clouds 12 998 79 0 1.22 262 14:42 13.01.2020
4527 Clouds 12 998 79 0 1.22 262 14:23 13.01.2020
4528 Clouds 11 1000 80 0 1.96 358 13:58 13.01.2020
4529 Clouds 11 1000 80 0 1.96 358 13:39 13.01.2020
4530 Clouds 12 1000 78 0 1.57 348 13:21 13.01.2020
4531 Clouds 12 1000 78 0 1.57 348 12:55 13.01.2020
4532 Clouds 12 1000 78 0 1.57 348 12:36 13.01.2020
4533 Clouds 9 1001 93 10000 1.57 348 12:18 13.01.2020
4534 Clouds 9 1001 93 10000 1.57 348 11:39 13.01.2020
4535 Clouds 9 1001 93 10000 1.74 1 11:20 13.01.2020
4536 Clouds 9 1002 93 10000 2.1 230 10:57 13.01.2020
4537 Clouds 9 1002 93 10000 2.1 230 10:57 13.01.2020
4538 Clouds 9 1002 93 10000 2.1 230 10:39 13.01.2020
4539 Clouds 9 1002 93 10000 2.1 230 10:20 13.01.2020
4540 Clouds 9 1002 93 10000 1.74 1 09:56 13.01.2020
4541 Clouds 9 1002 93 10000 1.74 1 09:38 13.01.2020
4542 Clouds 9 1002 93 10000 1.74 1 09:19 13.01.2020
4543 Clouds 10 1003 87 10000 2.6 230 08:39 13.01.2020
4544 Clouds 10 1003 87 10000 2.6 230 08:20 13.01.2020
4545 Clouds 10 1003 87 10000 1.68 341 07:47 13.01.2020
4546 Clouds 10 1003 87 10000 1.68 341 07:27 13.01.2020
4547 Rain 8 1002 93 0 1.68 341 06:42 13.01.2020
4548 Clouds 10 1003 87 10000 2.6 50 06:20 13.01.2020
4549 Clouds 10 1003 87 10000 2.6 50 05:23 13.01.2020
4550 Drizzle 10 1003 87 10000 1.5 200 03:54 13.01.2020
4551 Drizzle 10 1003 87 10000 1.5 200 03:22 13.01.2020
4552 Rain 11 1003 76 10000 2.1 230 02:44 13.01.2020
4553 Rain 11 1003 76 10000 2.1 230 02:24 13.01.2020
4554 Rain 12 1003 71 10000 5.1 230 01:18 13.01.2020
4555 Rain 12 1003 71 10000 6.2 230 00:41 13.01.2020
4556 Rain 12 1003 71 10000 6.2 230 00:22 13.01.2020
4557 Clouds 13 1003 62 10000 7.2 230 23:42 12.01.2020
4558 Clouds 13 1003 62 10000 7.2 230 23:23 12.01.2020
4559 Clouds 12 1003 58 10000 7.2 230 22:58 12.01.2020
4560 Clouds 12 1003 58 10000 7.2 230 22:58 12.01.2020
4561 Clouds 12 1003 58 10000 7.2 230 22:39 12.01.2020
4562 Clouds 12 1003 58 10000 7.2 230 22:21 12.01.2020
4563 Clouds 12 1003 58 10000 7.2 230 21:56 12.01.2020
4564 Clouds 11 1004 71 10000 8.2 230 21:38 12.01.2020
4565 Clouds 11 1004 71 10000 8.2 230 21:19 12.01.2020
4566 Clouds 12 1003 62 10000 8.7 230 20:56 12.01.2020
4567 Clouds 12 1003 62 10000 8.7 230 20:37 12.01.2020
4568 Clouds 12 1003 62 10000 8.7 230 20:19 12.01.2020
4569 Clouds 12 1003 62 10000 8.7 230 20:19 12.01.2020
4570 Clouds 12 1003 66 10000 9.3 230 19:55 12.01.2020
4571 Clouds 12 1003 66 10000 9.3 230 19:37 12.01.2020
4572 Clouds 12 1003 66 10000 9.3 230 19:18 12.01.2020
4573 Clouds 13 1003 62 10000 10.3 230 18:57 12.01.2020
4574 Clouds 13 1003 62 10000 10.3 230 18:38 12.01.2020
4575 Clouds 13 1003 62 10000 10.3 230 18:20 12.01.2020
4576 Clouds 12 1003 66 10000 9.8 230 17:42 12.01.2020
4577 Clouds 12 1003 66 10000 9.8 230 17:23 12.01.2020
4578 Clouds 12 1002 66 10000 9.8 230 16:59 12.01.2020
4579 Clouds 12 1002 66 10000 9.8 230 16:39 12.01.2020
4580 Clouds 12 1002 66 10000 9.8 230 16:20 12.01.2020
4581 Clouds 12 1002 66 10000 10.3 230 15:57 12.01.2020
4582 Clouds 12 1002 66 10000 10.3 230 15:38 12.01.2020
4583 Clouds 12 1002 66 10000 10.3 230 15:20 12.01.2020
4584 Clouds 12 1002 66 10000 10.3 230 14:43 12.01.2020
4585 Clouds 12 1002 66 10000 10.3 230 14:24 12.01.2020
4586 Clouds 11 1002 71 10000 9.8 230 13:57 12.01.2020
4587 Clouds 11 1002 71 10000 9.8 230 13:57 12.01.2020
4588 Clouds 11 1002 71 10000 9.8 230 13:39 12.01.2020
4589 Clouds 11 1002 71 10000 9.8 230 13:20 12.01.2020
4590 Clouds 11 1002 71 10000 9.8 230 13:20 12.01.2020
4591 Drizzle 10 1002 76 10000 8.7 230 12:57 12.01.2020
4592 Drizzle 10 1002 76 10000 8.7 230 12:38 12.01.2020
4593 Drizzle 10 1002 76 10000 8.7 230 12:19 12.01.2020
4594 Clouds 11 1001 76 10000 4.6 230 11:42 12.01.2020
4595 Clouds 11 1001 76 10000 4.6 230 11:22 12.01.2020
4596 Rain 10 1001 81 10000 6.2 230 10:58 12.01.2020
4597 Rain 10 1001 81 10000 6.2 230 10:40 12.01.2020
4598 Rain 10 1001 81 10000 6.2 230 10:20 12.01.2020
4599 Drizzle 10 1000 81 10000 7.2 230 09:43 12.01.2020
4600 Drizzle 10 1000 81 10000 7.2 230 09:24 12.01.2020
4601 Rain 9 999 93 10000 1.45 334 08:48 12.01.2020
4602 Rain 9 999 93 10000 1.45 334 08:25 12.01.2020
4603 Clouds 8 999 93 10000 2.1 230 07:58 12.01.2020
4604 Clouds 8 999 93 10000 2.1 230 07:38 12.01.2020
4605 Clouds 8 999 93 10000 2.1 230 07:19 12.01.2020
4606 Rain 7 998 96 0 1.85 340 06:40 12.01.2020
4607 Rain 7 998 96 0 1.85 340 05:58 12.01.2020
4608 Clouds 9 999 87 10000 1.99 5 05:20 12.01.2020
4609 Rain 9 999 93 10000 1.99 5 03:44 12.01.2020
4610 Drizzle 10 1000 87 10000 1.5 200 02:55 12.01.2020
4611 Drizzle 10 1000 87 10000 1.5 200 02:30 12.01.2020
4612 Drizzle 10 1000 81 10000 3.6 230 01:40 12.01.2020
4613 Drizzle 10 1000 81 10000 3.6 230 01:21 12.01.2020
4614 Drizzle 11 1000 76 10000 5.7 230 00:40 12.01.2020
4615 Drizzle 11 1000 76 10000 5.7 230 00:18 12.01.2020
4616 Clouds 12 1000 66 10000 6.2 230 23:41 11.01.2020
4617 Clouds 12 1000 66 10000 6.2 230 23:19 11.01.2020
4618 Clouds 11 1000 66 10000 8.2 230 22:57 11.01.2020
4619 Clouds 11 1000 66 10000 8.2 230 22:38 11.01.2020
4620 Clouds 11 1000 66 10000 8.2 230 22:20 11.01.2020
4621 Clouds 11 1000 66 10000 8.2 230 21:54 11.01.2020
4622 Clouds 12 1000 66 10000 9.3 230 21:36 11.01.2020
4623 Clouds 12 1000 66 10000 9.3 230 21:18 11.01.2020
4624 Clouds 13 1000 62 10000 9.8 230 20:40 11.01.2020
4625 Clouds 13 1000 62 10000 9.8 230 20:20 11.01.2020
4626 Clouds 13 1000 58 10000 9.3 230 19:58 11.01.2020
4627 Clouds 13 1000 58 10000 9.3 230 19:38 11.01.2020
4628 Clouds 13 1000 58 10000 9.3 230 19:20 11.01.2020
4629 Clouds 13 1000 62 10000 11.3 230 18:57 11.01.2020
4630 Clouds 13 1000 62 10000 11.3 230 18:37 11.01.2020
4631 Clouds 13 1000 62 10000 11.3 230 18:19 11.01.2020
4632 Clouds 13 1000 66 10000 11.3 230 17:57 11.01.2020
4633 Clouds 13 1000 66 10000 11.3 230 17:39 11.01.2020
4634 Clouds 13 1000 66 10000 11.3 230 17:19 11.01.2020
4635 Clouds 11 999 66 10000 12.9 230 16:44 11.01.2020
4636 Clouds 11 999 66 10000 12.9 230 16:26 11.01.2020
4637 Clouds 11 999 71 10000 11.8 230 15:58 11.01.2020
4638 Clouds 11 999 71 10000 11.8 230 15:40 11.01.2020
4639 Clouds 11 999 71 10000 11.8 230 15:20 11.01.2020
4640 Clouds 10 998 76 10000 11.8 230 14:56 11.01.2020
4641 Clouds 10 998 76 10000 11.8 230 14:38 11.01.2020
4642 Clouds 10 998 76 10000 11.8 230 14:19 11.01.2020
4643 Clouds 10 998 76 10000 12.9 230 13:39 11.01.2020
4644 Clouds 10 998 76 10000 12.9 230 13:20 11.01.2020
4645 Clouds 9 997 76 10000 11.8 230 12:57 11.01.2020
4646 Clouds 9 997 76 10000 11.8 230 12:38 11.01.2020
4647 Clouds 9 997 76 10000 11.8 230 12:20 11.01.2020
4648 Rain 8 997 75 10000 10.3 230 11:46 11.01.2020
4649 Rain 8 997 75 10000 10.3 230 11:25 11.01.2020
4650 Rain 8 996 81 10000 10.8 230 10:50 11.01.2020
4651 Rain 8 996 81 10000 10.8 230 10:30 11.01.2020
4652 Rain 8 995 81 10000 9.8 230 09:55 11.01.2020
4653 Rain 8 995 81 10000 9.8 230 09:37 11.01.2020
4654 Rain 8 995 81 10000 9.8 230 09:18 11.01.2020
4655 Clouds 8 994 87 10000 11.3 230 08:41 11.01.2020
4656 Clouds 8 994 87 10000 11.3 230 08:21 11.01.2020
4657 Clouds 8 993 87 10000 11.3 230 07:43 11.01.2020
4658 Clouds 8 993 87 10000 11.3 230 07:25 11.01.2020
4659 Drizzle 9 993 87 10000 8.2 230 06:45 11.01.2020
4660 Drizzle 9 993 87 10000 2.1 230 05:33 11.01.2020
4661 Drizzle 9 992 93 10000 3.6 230 04:45 11.01.2020
4662 Drizzle 9 992 93 10000 3.6 230 04:27 11.01.2020
4663 Drizzle 9 991 93 10000 1 349 02:48 11.01.2020
4664 Drizzle 10 991 87 10000 1.45 168 01:51 11.01.2020
4665 Drizzle 10 991 87 10000 1.56 188 01:32 11.01.2020
4666 Drizzle 10 990 87 10000 3.1 230 00:58 11.01.2020
4667 Drizzle 10 990 87 10000 3.1 230 00:32 11.01.2020
4668 Drizzle 11 990 76 10000 5.1 230 23:59 10.01.2020
4669 Drizzle 11 990 76 10000 5.1 230 23:39 10.01.2020
4670 Drizzle 11 990 76 10000 5.1 230 23:21 10.01.2020
4671 Drizzle 12 990 58 10000 2.44 224 22:56 10.01.2020
4672 Drizzle 12 990 58 10000 2.44 224 22:38 10.01.2020
4673 Drizzle 12 990 58 10000 2.44 224 22:19 10.01.2020
4674 Drizzle 12 990 50 10000 2.1 360 21:55 10.01.2020
4675 Drizzle 12 990 50 10000 2.1 360 21:36 10.01.2020
4676 Drizzle 12 990 50 10000 2.1 360 21:18 10.01.2020
4677 Drizzle 12 990 54 10000 2.44 224 20:42 10.01.2020
4678 Drizzle 12 990 54 10000 1.29 256 20:24 10.01.2020
4679 Clouds 13 990 47 10000 2.78 20 19:55 10.01.2020
4680 Clouds 13 990 47 10000 2.78 20 19:37 10.01.2020
4681 Clouds 13 990 47 10000 2.78 20 19:19 10.01.2020
4682 Clouds 12 990 54 10000 2.78 20 18:41 10.01.2020
4683 Clouds 12 990 54 10000 2.78 20 18:19 10.01.2020
4684 Clouds 12 990 54 10000 2.78 20 18:19 10.01.2020
4685 Clouds 11 991 53 10000 2.78 20 17:57 10.01.2020
4686 Clouds 11 991 53 10000 2.78 20 17:39 10.01.2020
4687 Clouds 11 991 53 10000 0.98 62 17:20 10.01.2020
4688 Clouds 12 991 40 10000 0.98 62 16:55 10.01.2020
4689 Clouds 12 991 40 10000 0.98 62 16:37 10.01.2020
4690 Clouds 12 991 40 10000 0.98 62 16:19 10.01.2020
4691 Clouds 10 992 61 10000 0.98 62 15:55 10.01.2020
4692 Clouds 10 992 61 10000 0.98 62 15:36 10.01.2020
4693 Clouds 10 992 61 10000 0.98 62 15:18 10.01.2020
4694 Clouds 9 993 70 10000 0.98 62 14:54 10.01.2020
4695 Clouds 9 993 70 10000 0.98 62 14:36 10.01.2020
4696 Clouds 9 993 70 10000 2.1 349 14:18 10.01.2020
4697 Clouds 8 993 70 10000 2.1 349 13:41 10.01.2020
4698 Clouds 8 993 70 10000 2.08 348 13:23 10.01.2020
4699 Clouds 8 993 65 10000 2.08 348 12:58 10.01.2020
4700 Clouds 8 993 65 10000 2.08 348 12:38 10.01.2020
4701 Clouds 8 993 65 10000 2.08 348 12:19 10.01.2020
4702 Clouds 6 994 70 10000 2.08 348 11:55 10.01.2020
4703 Clouds 6 994 70 10000 2.08 348 11:37 10.01.2020
4704 Clouds 6 994 70 10000 1.16 316 11:18 10.01.2020
4705 Clouds 6 994 70 10000 1.16 316 11:18 10.01.2020
4706 Clouds 6 995 98 10000 6.7 230 10:43 10.01.2020
4707 Clouds 6 995 98 10000 6.7 230 10:24 10.01.2020
4708 Clouds 7 994 98 10000 6.2 230 09:59 10.01.2020
4709 Clouds 7 994 98 10000 6.2 230 09:40 10.01.2020
4710 Clouds 7 994 98 10000 6.2 230 09:22 10.01.2020
4711 Clouds 7 994 98 10000 10.3 230 08:43 10.01.2020
4712 Clouds 7 994 97 10000 10.3 230 08:24 10.01.2020
4713 Clouds 6 994 75 10000 11.3 230 07:46 10.01.2020
4714 Clouds 6 994 75 10000 11.3 230 07:28 10.01.2020
4715 Clouds 6 994 75 10000 13.4 230 06:50 10.01.2020
4716 Clouds 6 994 75 10000 13.4 230 06:26 10.01.2020
4717 Clouds 6 994 75 10000 13.4 230 05:52 10.01.2020
4718 Clouds 6 994 70 10000 13.4 230 03:46 10.01.2020
4719 Clouds 6 994 70 10000 13.4 230 03:46 10.01.2020
4720 Clouds 6 994 70 10000 13.4 230 03:27 10.01.2020
4721 Clouds 6 993 75 10000 13.9 230 02:51 10.01.2020
4722 Clouds 7 992 70 10000 14.4 230 01:49 10.01.2020
4723 Clouds 7 992 70 10000 14.4 230 01:28 10.01.2020
4724 Clouds 6 991 75 10000 15.9 230 00:47 10.01.2020
4725 Clouds 6 991 75 10000 15.9 230 00:29 10.01.2020
4726 Drizzle 7 990 75 10000 14.9 230 23:39 09.01.2020
4727 Drizzle 7 990 75 10000 14.9 230 23:39 09.01.2020
4728 Drizzle 7 990 75 10000 14.9 230 23:39 09.01.2020
4729 Drizzle 7 990 75 10000 14.9 230 23:39 09.01.2020
4730 Drizzle 7 990 75 10000 14.9 230 23:21 09.01.2020
4731 Rain 6 989 81 10000 14.9 230 22:58 09.01.2020
4732 Rain 6 989 81 10000 14.9 230 22:39 09.01.2020
4733 Rain 6 989 81 10000 14.9 230 22:19 09.01.2020
4734 -273 0 0 0 0 0 21:57 09.01.2020
4735 Rain 6 988 87 10000 17 230 21:57 09.01.2020
4736 Rain 6 988 87 10000 17 230 21:38 09.01.2020
4737 Rain 6 988 87 10000 17 230 21:20 09.01.2020
4738 Rain 6 988 87 10000 17 230 20:58 09.01.2020
4739 Rain 6 988 87 10000 17 230 20:39 09.01.2020
4740 Rain 6 988 87 10000 17 230 20:20 09.01.2020
4741 Rain 6 986 87 10000 16.5 230 19:58 09.01.2020
4742 Rain 6 986 87 10000 16.5 230 19:39 09.01.2020
4743 Rain 6 986 87 10000 16.5 230 19:20 09.01.2020
4744 Rain 6 986 87 10000 18 230 18:56 09.01.2020
4745 Rain 6 986 87 10000 18 230 18:38 09.01.2020
4746 Rain 6 986 87 10000 18 230 18:20 09.01.2020
4747 Rain 6 985 81 10000 17 230 17:41 09.01.2020
4748 Rain 6 985 81 10000 17 230 17:19 09.01.2020
4749 Rain 6 985 81 10000 16.5 230 16:56 09.01.2020
4750 Rain 6 985 81 10000 16.5 230 16:37 09.01.2020
4751 Rain 6 985 81 10000 16.5 230 16:19 09.01.2020
4752 Drizzle 6 984 81 10000 15.9 230 15:42 09.01.2020
4753 Drizzle 6 984 81 10000 15.9 230 15:21 09.01.2020
4754 Drizzle 6 984 87 10000 17 230 14:57 09.01.2020
4755 Drizzle 6 984 87 10000 17 230 14:38 09.01.2020
4756 Drizzle 6 984 87 10000 17 230 14:18 09.01.2020
4757 Drizzle 6 984 70 10000 16.5 230 13:55 09.01.2020
4758 Drizzle 6 984 70 10000 16.5 230 13:37 09.01.2020
4759 Drizzle 6 984 70 10000 16.5 230 13:18 09.01.2020
4760 Drizzle 6 983 81 10000 12.3 230 12:42 09.01.2020
4761 Drizzle 6 983 81 10000 12.3 230 12:24 09.01.2020
4762 Rain 6 983 81 10000 15.4 230 11:59 09.01.2020
4763 Rain 6 983 81 10000 15.4 230 11:41 09.01.2020
4764 Rain 6 983 81 10000 15.4 230 11:23 09.01.2020
4765 Rain 6 983 75 10000 15.4 230 10:57 09.01.2020
4766 Rain 6 983 75 10000 15.4 230 10:39 09.01.2020
4767 Rain 6 983 75 10000 15.4 230 10:20 09.01.2020
4768 Rain 6 982 75 10000 15.4 230 09:41 09.01.2020
4769 Rain 6 982 75 10000 15.4 230 09:41 09.01.2020
4770 Rain 6 982 75 10000 15.4 230 09:23 09.01.2020
4771 Rain 6 981 81 10000 17 230 08:57 09.01.2020
4772 Rain 6 981 81 10000 17 230 08:38 09.01.2020
4773 Rain 6 981 81 10000 17 230 08:20 09.01.2020
4774 Rain 6 981 81 10000 14.4 250 07:46 09.01.2020
4775 Rain 6 981 81 10000 14.4 250 07:28 09.01.2020
4776 Rain 6 981 93 10000 12.9 230 06:40 09.01.2020
4777 Rain 6 981 93 10000 12.9 230 06:21 09.01.2020
4778 Rain 6 981 93 10000 11.3 250 05:51 09.01.2020
4779 Rain 7 981 81 10000 12.9 230 04:54 09.01.2020
4780 Rain 7 981 81 10000 12.9 230 04:36 09.01.2020
4781 Rain 7 980 81 10000 12.3 230 03:26 09.01.2020
4782 Rain 7 980 81 10000 11.8 230 02:33 09.01.2020
4783 Rain 7 980 81 10000 12.3 230 01:41 09.01.2020
4784 Rain 7 979 87 10000 12.9 230 00:56 09.01.2020
4785 Rain 7 979 87 10000 12.9 230 00:36 09.01.2020
4786 Rain 7 979 87 10000 12.9 230 00:18 09.01.2020
4787 Rain 7 979 87 10000 13.4 230 23:39 08.01.2020
4788 Rain 7 979 87 10000 13.4 230 23:20 08.01.2020
4789 Rain 7 979 87 10000 11.8 230 22:40 08.01.2020
4790 Rain 7 979 87 10000 11.8 230 22:21 08.01.2020
4791 Rain 7 979 93 10000 9.3 230 21:58 08.01.2020
4792 Rain 7 979 93 10000 9.3 230 21:40 08.01.2020
4793 Rain 7 979 93 10000 9.3 230 21:40 08.01.2020
4794 Rain 7 979 93 10000 9.3 230 21:20 08.01.2020
4795 Rain 6 979 93 10000 10.3 230 20:59 08.01.2020
4796 Rain 6 979 93 10000 10.3 230 20:40 08.01.2020
4797 Rain 6 979 93 10000 10.3 230 20:21 08.01.2020
4798 Drizzle 6 979 87 10000 10.3 230 19:58 08.01.2020
4799 Drizzle 6 979 87 10000 10.3 230 19:38 08.01.2020
4800 Drizzle 6 979 87 10000 10.3 230 19:19 08.01.2020
4801 Rain 7 979 87 10000 10.3 230 18:57 08.01.2020
4802 Rain 7 979 87 10000 10.3 230 18:38 08.01.2020
4803 Rain 7 979 87 10000 10.3 230 18:19 08.01.2020
4804 Rain 6 979 87 5000 8.7 230 17:56 08.01.2020
4805 Rain 6 979 87 5000 8.7 230 17:37 08.01.2020
4806 Rain 6 979 87 5000 8.7 230 17:18 08.01.2020
4807 Rain 6 979 87 6000 7.2 230 16:55 08.01.2020
4808 Rain 6 979 87 6000 7.2 230 16:37 08.01.2020
4809 Rain 6 979 87 6000 7.2 230 16:18 08.01.2020
4810 Rain 6 979 93 6000 8.2 230 15:44 08.01.2020
4811 Rain 6 979 93 6000 8.2 230 15:21 08.01.2020
4812 Rain 6 979 87 8000 7.2 230 14:58 08.01.2020
4813 Rain 6 979 87 8000 7.2 230 14:58 08.01.2020
4814 Rain 6 979 87 8000 7.2 230 14:40 08.01.2020
4815 Rain 6 979 87 8000 7.2 230 14:20 08.01.2020
4816 Rain 6 979 87 8000 7.2 230 14:20 08.01.2020
4817 Rain 6 979 87 6000 7.2 230 13:41 08.01.2020
4818 Rain 6 979 87 6000 7.2 230 13:21 08.01.2020
4819 Rain 5 979 93 6000 7.2 230 12:54 08.01.2020
4820 Rain 5 979 93 6000 7.2 230 12:36 08.01.2020
4821 Rain 5 979 93 6000 7.2 230 12:18 08.01.2020
4822 Rain 6 979 87 6000 7.7 230 11:47 08.01.2020
4823 Rain 6 979 87 6000 7.7 230 11:19 08.01.2020
4824 Rain 6 978 93 8000 9.3 230 10:57 08.01.2020
4825 Rain 6 978 93 8000 9.3 230 10:39 08.01.2020
4826 Rain 6 978 93 8000 9.3 230 10:19 08.01.2020
4827 Rain 7 978 93 8000 7.2 230 09:42 08.01.2020
4828 Rain 7 978 93 8000 7.2 230 09:20 08.01.2020
4829 Rain 7 978 93 10000 5.7 230 08:57 08.01.2020
4830 Rain 7 978 93 10000 5.7 230 08:38 08.01.2020
4831 Rain 7 978 93 10000 5.7 230 08:20 08.01.2020
4832 Rain 7 979 100 10000 3.6 200 07:50 08.01.2020
4833 Rain 7 979 100 10000 3.6 200 07:32 08.01.2020
4834 Rain 8 980 93 10000 1.5 250 06:50 08.01.2020
4835 Rain 8 980 93 10000 1.5 250 06:32 08.01.2020
4836 Rain 8 980 93 10000 3.1 230 05:54 08.01.2020
4837 Rain 8 980 93 10000 3.1 230 05:18 08.01.2020
4838 Drizzle 8 981 93 10000 3.6 90 04:27 08.01.2020
4839 Drizzle 9 980 87 10000 7.7 140 02:45 08.01.2020
4840 Drizzle 9 980 87 10000 7.7 140 02:27 08.01.2020
4841 Clouds 10 980 87 10000 4.6 140 01:50 08.01.2020
4842 Clouds 10 980 87 10000 4.6 140 01:26 08.01.2020
4843 Rain 10 980 87 10000 2.6 90 00:42 08.01.2020
4844 Rain 10 980 87 10000 2.6 90 00:21 08.01.2020
4845 Drizzle 10 980 93 10000 4.1 90 23:44 07.01.2020
4846 Drizzle 10 980 93 10000 4.1 90 23:20 07.01.2020
4847 Drizzle 11 980 81 10000 4.1 50 22:41 07.01.2020
4848 Drizzle 11 980 81 10000 4.1 50 22:21 07.01.2020
4849 Drizzle 11 980 81 10000 4.6 90 21:57 07.01.2020
4850 Drizzle 11 980 81 10000 4.6 90 21:39 07.01.2020
4851 Drizzle 11 980 81 10000 4.6 90 21:21 07.01.2020
4852 Drizzle 13 981 66 10000 5.1 290 20:57 07.01.2020
4853 Drizzle 13 981 66 10000 5.1 290 20:38 07.01.2020
4854 Drizzle 13 981 66 10000 5.1 290 20:20 07.01.2020
4855 Drizzle 14 980 62 10000 4.6 320 19:55 07.01.2020
4856 Drizzle 14 980 62 10000 4.6 320 19:36 07.01.2020
4857 Drizzle 14 980 62 10000 4.6 320 19:18 07.01.2020
4858 Drizzle 14 980 62 10000 4.6 320 19:18 07.01.2020
4859 Clouds 15 980 59 10000 7.2 320 18:55 07.01.2020
4860 Clouds 15 980 59 10000 7.2 320 18:36 07.01.2020
4861 Clouds 15 980 59 10000 7.2 320 18:18 07.01.2020
4862 Clouds 16 981 62 10000 3.1 320 17:40 07.01.2020
4863 Clouds 16 981 62 10000 3.1 320 17:22 07.01.2020
4864 Clouds 15 981 58 10000 3.6 320 16:57 07.01.2020
4865 Clouds 15 981 58 10000 3.6 320 16:38 07.01.2020
4866 Clouds 15 981 58 10000 3.6 320 16:38 07.01.2020
4867 Clouds 15 981 58 10000 3.6 320 16:38 07.01.2020
4868 Clouds 15 981 58 10000 3.6 320 16:19 07.01.2020
4869 Clouds 14 982 58 10000 5.69 3 15:58 07.01.2020
4870 Clouds 14 982 58 10000 5.69 3 15:40 07.01.2020
4871 Clouds 14 982 58 10000 5.69 3 15:22 07.01.2020
4872 Clouds 15 982 54 10000 5.69 3 14:55 07.01.2020
4873 Clouds 15 982 54 10000 5.69 3 14:37 07.01.2020
4874 Clouds 15 982 54 10000 4.99 343 14:18 07.01.2020
4875 Clouds 15 982 54 10000 4.99 343 13:40 07.01.2020
4876 Clouds 15 982 54 10000 5.45 356 13:19 07.01.2020
4877 Clouds 14 983 62 10000 3.6 180 12:42 07.01.2020
4878 Clouds 14 983 62 10000 3.6 180 12:42 07.01.2020
4879 Clouds 14 983 62 10000 3.6 180 12:21 07.01.2020
4880 Clouds 14 983 58 10000 5.45 356 11:57 07.01.2020
4881 Clouds 14 983 58 10000 5.45 356 11:38 07.01.2020
4882 Clouds 14 983 58 10000 2.99 10 11:20 07.01.2020
4883 Clouds 14 983 58 10000 6.7 320 10:42 07.01.2020
4884 Clouds 14 983 58 10000 6.7 320 10:24 07.01.2020
4885 Clouds 13 983 62 10000 8.2 340 09:59 07.01.2020
4886 Clouds 13 983 62 10000 8.2 340 09:38 07.01.2020
4887 Clouds 13 983 62 10000 8.2 340 09:20 07.01.2020
4888 Clouds 13 983 62 10000 8.2 340 08:46 07.01.2020
4889 Clouds 13 983 62 10000 8.2 340 08:26 07.01.2020
4890 Clouds 14 984 58 10000 7.2 340 07:54 07.01.2020
4891 Clouds 14 984 58 10000 7.2 340 07:28 07.01.2020
4892 Clouds 12 985 71 10000 2.6 320 06:54 07.01.2020
4893 Clouds 12 985 71 10000 2.6 320 06:34 07.01.2020
4894 Clouds 12 985 71 10000 2.6 320 05:55 07.01.2020
4895 Clouds 12 985 71 10000 2.6 320 05:35 07.01.2020
4896 Clouds 12 986 62 10000 2.1 230 03:29 07.01.2020
4897 Clouds 9 987 70 10000 1.5 180 02:24 07.01.2020
4898 Clouds 10 988 66 10000 3.1 90 01:57 07.01.2020
4899 Clouds 10 988 66 10000 3.1 90 01:32 07.01.2020
4900 Clouds 12 988 58 10000 2.6 140 00:37 07.01.2020
4901 Clouds 12 988 58 10000 2.6 140 00:19 07.01.2020
4902 Clouds 13 988 54 10000 3.1 140 23:55 06.01.2020
4903 Clouds 13 988 54 10000 3.1 140 23:36 06.01.2020
4904 Clouds 13 988 54 10000 3.1 140 23:36 06.01.2020
4905 Clouds 13 988 54 10000 3.1 140 23:18 06.01.2020
4906 Clouds 10 989 61 10000 2.6 140 22:42 06.01.2020
4907 Clouds 11 989 61 10000 2.6 140 22:22 06.01.2020
4908 Clouds 11 989 66 10000 1.5 140 21:57 06.01.2020
4909 Clouds 11 989 66 10000 1.5 140 21:38 06.01.2020
4910 Clouds 11 989 66 10000 1.5 140 21:20 06.01.2020
4911 Clouds 11 989 66 10000 1.5 140 21:20 06.01.2020
4912 Clouds 11 989 66 10000 1.5 140 21:20 06.01.2020
4913 Clouds 11 990 71 10000 2.1 140 20:56 06.01.2020
4914 Clouds 11 990 71 10000 2.1 140 20:38 06.01.2020
4915 Clouds 11 990 71 10000 2.1 140 20:20 06.01.2020
4916 Rain 11 990 66 10000 3.1 140 19:56 06.01.2020
4917 Rain 11 990 66 10000 3.1 140 19:56 06.01.2020
4918 Rain 11 990 66 10000 3.1 140 19:37 06.01.2020
4919 Rain 11 990 66 10000 3.1 140 19:19 06.01.2020
4920 Rain 11 990 66 10000 3.1 140 19:19 06.01.2020
4921 Drizzle 11 991 66 10000 2.6 140 18:46 06.01.2020
4922 Drizzle 11 991 66 10000 2.6 140 18:21 06.01.2020
4923 Clouds 11 991 66 10000 3.1 180 17:57 06.01.2020
4924 Clouds 11 991 66 10000 3.1 180 17:37 06.01.2020
4925 Clouds 11 991 66 10000 3.1 180 17:37 06.01.2020
4926 Clouds 11 991 66 10000 3.1 180 17:18 06.01.2020
4927 Clouds 10 992 71 10000 4.1 140 16:44 06.01.2020
4928 Clouds 11 992 71 10000 4.1 140 16:24 06.01.2020
4929 Clouds 11 992 76 10000 4.39 0 15:59 06.01.2020
4930 Clouds 11 992 76 10000 4.39 0 15:38 06.01.2020
4931 Clouds 11 992 76 10000 4.39 0 15:18 06.01.2020
4932 Clouds 8 993 81 10000 3.1 90 14:56 06.01.2020
4933 Clouds 8 993 81 10000 3.1 90 14:37 06.01.2020
4934 Clouds 8 993 81 10000 3.1 90 14:18 06.01.2020
4935 Clouds 8 993 81 10000 3.1 90 14:18 06.01.2020
4936 Clouds 8 993 81 10000 3.1 90 14:18 06.01.2020
4937 Clouds 7 993 87 10000 4.1 90 13:41 06.01.2020
4938 Rain 8 994 87 10000 2.6 90 13:22 06.01.2020
4939 Clouds 7 995 81 10000 2.6 50 12:59 06.01.2020
4940 Clouds 7 995 81 10000 2.6 50 12:41 06.01.2020
4941 Clouds 7 995 81 10000 2.6 50 12:20 06.01.2020
4942 Clouds 7 995 81 10000 2.6 50 12:20 06.01.2020
4943 Rain 7 995 81 10000 2.6 360 11:56 06.01.2020
4944 Rain 7 995 81 10000 2.6 360 11:38 06.01.2020
4945 Rain 7 995 81 10000 2.6 360 11:20 06.01.2020
4946 Drizzle 7 996 75 10000 2.6 320 10:42 06.01.2020
4947 Drizzle 7 996 75 10000 2.6 320 10:42 06.01.2020
4948 Drizzle 7 996 75 10000 2.6 320 10:21 06.01.2020
4949 Drizzle 7 996 93 10000 4.1 270 09:42 06.01.2020
4950 Drizzle 7 996 93 10000 4.1 270 09:24 06.01.2020
4951 Drizzle 7 996 93 10000 4.1 270 09:24 06.01.2020
4952 Clouds 7 996 93 10000 7.2 230 08:58 06.01.2020
4953 Clouds 7 996 93 10000 7.2 230 08:58 06.01.2020
4954 Clouds 7 996 93 10000 7.2 230 08:58 06.01.2020
4955 Clouds 7 996 93 10000 7.2 230 08:39 06.01.2020
4956 Clouds 7 996 92 10000 7.2 230 08:21 06.01.2020
4957 Clouds 7 996 65 10000 8.7 230 07:46 06.01.2020
4958 Clouds 7 996 65 10000 8.7 230 07:21 06.01.2020
4959 Clouds 7 996 75 10000 9.3 230 06:38 06.01.2020
4960 Rain 8 997 65 10000 10.3 230 05:49 06.01.2020
4961 Rain 8 997 65 10000 10.3 230 05:28 06.01.2020
4962 Clouds 8 996 75 10000 10.8 230 04:24 06.01.2020
4963 Clouds 8 996 75 10000 11.8 230 03:52 06.01.2020
4964 Clouds 9 996 70 10000 11.3 230 02:32 06.01.2020
4965 Clouds 10 995 66 10000 11.8 230 01:55 06.01.2020
4966 Clouds 10 995 66 10000 11.8 230 01:32 06.01.2020
4967 Clouds 11 994 62 10000 11.3 230 00:48 06.01.2020
4968 Clouds 11 994 62 10000 11.3 230 00:29 06.01.2020
4969 Clouds 11 994 62 10000 11.8 230 23:59 05.01.2020
4970 Clouds 11 994 62 10000 11.8 230 23:40 05.01.2020
4971 Clouds 11 994 62 10000 11.8 230 23:21 05.01.2020
4972 Clouds 10 993 66 10000 11.3 230 22:40 05.01.2020
4973 Clouds 10 993 66 10000 11.3 230 22:40 05.01.2020
4974 Clouds 10 993 66 10000 11.3 230 22:21 05.01.2020
4975 Rain 10 993 76 10000 12.3 230 21:59 05.01.2020
4976 Rain 10 993 76 10000 12.3 230 21:40 05.01.2020
4977 Rain 10 993 76 10000 12.3 230 21:20 05.01.2020
4978 Rain 11 992 76 10000 14.4 230 20:58 05.01.2020
4979 Rain 11 992 76 10000 14.4 230 20:39 05.01.2020
4980 Rain 11 992 76 10000 14.4 230 20:19 05.01.2020
4981 Drizzle 14 992 54 10000 5.7 230 19:58 05.01.2020
4982 Drizzle 14 992 54 10000 5.7 230 19:39 05.01.2020
4983 Drizzle 14 992 54 10000 5.7 230 19:39 05.01.2020
4984 Drizzle 14 992 54 10000 5.7 230 19:20 05.01.2020
4985 Clouds 15 992 44 10000 2.1 90 18:56 05.01.2020
4986 Clouds 15 992 44 10000 2.1 90 18:38 05.01.2020
4987 Clouds 15 992 44 10000 2.1 90 18:19 05.01.2020
4988 Clouds 15 992 44 10000 2.1 90 18:19 05.01.2020
4989 Clouds 15 992 44 10000 3.1 140 17:58 05.01.2020
4990 Clouds 15 992 44 10000 3.1 140 17:39 05.01.2020
4991 Clouds 15 992 44 10000 3.1 140 17:20 05.01.2020
4992 Clouds 15 992 47 10000 5.1 360 16:57 05.01.2020
4993 Clouds 15 992 47 10000 5.1 360 16:39 05.01.2020
4994 Clouds 14 992 47 10000 5.1 360 16:19 05.01.2020
4995 Clouds 14 992 47 10000 6.7 360 15:40 05.01.2020
4996 Clouds 14 992 47 10000 6.7 360 15:20 05.01.2020
4997 Clouds 12 992 54 10000 5.7 320 14:56 05.01.2020
4998 Clouds 12 992 54 10000 5.7 320 14:38 05.01.2020
4999 Clouds 12 992 54 10000 5.7 320 14:20 05.01.2020
5000 Clouds 11 993 54 10000 8.2 320 13:57 05.01.2020
5001 Clouds 11 993 54 10000 8.2 320 13:38 05.01.2020
5002 Clouds 11 993 54 10000 8.2 320 13:38 05.01.2020
5003 Clouds 11 993 54 10000 8.2 320 13:19 05.01.2020
5004 Clouds 11 993 54 10000 8.2 320 13:19 05.01.2020
5005 Clouds 12 993 54 10000 10.3 320 12:56 05.01.2020
5006 Clouds 12 993 54 10000 10.3 320 12:37 05.01.2020
5007 Clouds 12 993 54 10000 10.3 320 12:19 05.01.2020
5008 Clouds 11 994 53 10000 8.7 320 11:44 05.01.2020
5009 Clouds 11 994 53 10000 8.7 320 11:20 05.01.2020
5010 Clouds 10 994 57 10000 7.7 340 10:59 05.01.2020
5011 Clouds 10 994 57 10000 7.7 340 10:40 05.01.2020
5012 Clouds 10 994 57 10000 7.7 340 10:19 05.01.2020
5013 Clouds 10 995 66 10000 4.6 320 09:42 05.01.2020
5014 Clouds 10 995 66 10000 4.6 320 09:22 05.01.2020
5015 Clouds 10 995 57 10000 5.1 340 08:52 05.01.2020
5016 Clouds 10 995 57 10000 5.1 340 08:32 05.01.2020
5017 Clouds 10 996 66 10000 4.6 320 07:59 05.01.2020
5018 Clouds 10 996 66 10000 4.6 320 07:39 05.01.2020
5019 Clouds 10 996 66 10000 4.6 320 07:20 05.01.2020
5020 Clouds 9 997 76 10000 5.1 360 06:44 05.01.2020
5021 Clouds 10 998 71 10000 5.7 20 05:38 05.01.2020
5022 Clouds 11 1000 62 10000 5.1 360 04:55 05.01.2020
5023 Clouds 11 1000 62 10000 5.1 360 04:18 05.01.2020
5024 Clouds 11 1000 62 10000 5.1 360 04:18 05.01.2020
5025 Clouds 11 1000 62 10000 4.6 360 03:26 05.01.2020
5026 Clouds 11 1001 62 10000 5.1 360 02:32 05.01.2020
5027 Clouds 11 1001 62 10000 3.1 90 01:49 05.01.2020
5028 Clouds 11 1001 62 10000 3.1 90 01:20 05.01.2020
5029 Rain 12 1002 54 10000 7.7 90 00:57 05.01.2020
5030 Rain 12 1002 54 10000 7.7 90 00:57 05.01.2020
5031 Rain 12 1002 54 10000 7.7 90 00:39 05.01.2020
5032 Rain 12 1002 54 10000 7.7 90 00:19 05.01.2020
5033 Clouds 14 1002 88 10000 3.6 90 23:41 04.01.2020
5034 Clouds 14 1002 63 10000 3.6 90 23:20 04.01.2020
5035 Clouds 15 1003 38 10000 2.6 230 22:56 04.01.2020
5036 Clouds 15 1003 38 10000 2.6 230 22:38 04.01.2020
5037 Clouds 15 1003 38 10000 2.6 230 22:20 04.01.2020
5038 Clouds 15 1004 38 10000 2.6 230 21:55 04.01.2020
5039 Clouds 15 1004 38 10000 2.6 230 21:36 04.01.2020
5040 Clouds 14 1004 38 10000 2.6 230 21:18 04.01.2020
5041 Clouds 14 1004 63 10000 2.6 230 20:41 04.01.2020
5042 Clouds 14 1004 63 10000 2.6 230 20:22 04.01.2020
5043 Clouds 15 1004 41 10000 4.6 230 19:57 04.01.2020
5044 Clouds 15 1004 41 10000 4.6 230 19:39 04.01.2020
5045 Clouds 15 1004 41 10000 4.6 230 19:21 04.01.2020
5046 Clouds 14 1005 43 10000 5.1 230 18:57 04.01.2020
5047 Clouds 14 1005 43 10000 5.1 230 18:38 04.01.2020
5048 Clouds 14 1005 43 10000 5.1 230 18:19 04.01.2020
5049 Clouds 12 1005 50 10000 6.2 230 17:42 04.01.2020
5050 Clouds 12 1005 50 10000 6.2 230 17:24 04.01.2020
5051 Clouds 12 1006 50 10000 4.6 230 16:59 04.01.2020
5052 Clouds 12 1006 50 10000 4.6 230 16:40 04.01.2020
5053 Clouds 12 1006 50 10000 4.6 230 16:22 04.01.2020
5054 Clouds 10 1006 50 10000 5.1 230 15:56 04.01.2020
5055 Clouds 10 1006 50 10000 5.1 230 15:38 04.01.2020
5056 Clouds 10 1006 50 10000 5.1 230 15:19 04.01.2020
5057 Clouds 10 1006 71 0 5.1 230 14:55 04.01.2020
5058 Clouds 10 1006 71 0 5.1 230 14:55 04.01.2020
5059 Clouds 10 1006 71 0 5.1 230 14:36 04.01.2020
5060 Clouds 10 1006 71 0 5.1 230 14:18 04.01.2020
5061 Clouds 9 1006 76 0 1.53 321 13:54 04.01.2020
5062 Clouds 9 1006 76 0 1.53 321 13:36 04.01.2020
5063 Clouds 9 1007 76 10000 3.1 280 13:18 04.01.2020
5064 Clouds 9 1006 76 10000 1.5 324 12:41 04.01.2020
5065 Clouds 8 1007 75 10000 1.5 324 12:19 04.01.2020
5066 Clouds 8 1007 75 10000 1.5 324 11:57 04.01.2020
5067 Clouds 8 1007 75 10000 1.5 324 11:38 04.01.2020
5068 Clouds 8 1007 75 10000 1.39 356 11:19 04.01.2020
5069 Clouds 8 1007 70 10000 2.1 320 10:42 04.01.2020
5070 Clouds 8 1007 70 10000 2.1 320 10:23 04.01.2020
5071 Clouds 7 1006 75 10000 3.6 230 09:58 04.01.2020
5072 Clouds 7 1006 75 10000 3.6 230 09:39 04.01.2020
5073 Clouds 7 1006 75 10000 3.6 230 09:21 04.01.2020
5074 Clouds 8 1006 70 10000 4.1 230 08:41 04.01.2020
5075 Clouds 8 1006 70 10000 4.1 230 08:21 04.01.2020
5076 Clouds 8 1006 70 10000 6.7 230 07:42 04.01.2020
5077 Clouds 8 1006 70 10000 6.7 230 07:20 04.01.2020
5078 Clouds 9 1006 66 10000 6.7 230 06:33 04.01.2020
5079 Clouds 9 1006 66 10000 4.1 230 05:22 04.01.2020
5080 Clouds 9 1007 61 10000 6.7 230 04:42 04.01.2020
5081 Clouds 9 1007 61 10000 6.7 230 04:24 04.01.2020
5082 Clouds 9 1006 66 10000 5.7 230 03:18 04.01.2020
5083 Rain 9 1006 70 10000 6.7 230 02:21 04.01.2020
5084 Rain 9 1006 70 10000 9.3 230 01:55 04.01.2020
5085 Rain 9 1006 70 10000 9.3 230 01:32 04.01.2020
5086 Clouds 10 1006 66 10000 8.2 230 00:46 04.01.2020
5087 Clouds 10 1006 66 10000 8.2 230 00:26 04.01.2020
5088 Clouds 11 1005 62 10000 4.1 140 23:48 03.01.2020
5089 Clouds 11 1005 62 10000 4.1 140 23:25 03.01.2020
5090 Clouds 13 1005 54 10000 7.7 140 22:54 03.01.2020
5091 Clouds 13 1005 54 10000 7.7 140 22:36 03.01.2020
5092 Clouds 14 1005 54 10000 7.7 140 22:18 03.01.2020
5093 Clouds 15 1004 38 10000 5.1 230 21:54 03.01.2020
5094 Clouds 15 1004 38 10000 5.1 230 21:36 03.01.2020
5095 Clouds 15 1004 38 10000 5.1 230 21:18 03.01.2020
5096 Clouds 16 1005 76 10000 3.1 180 20:41 03.01.2020
5097 Clouds 16 1005 49 10000 3.1 180 20:19 03.01.2020
5098 Clouds 14 1005 49 10000 3.1 180 19:57 03.01.2020
5099 Clouds 14 1005 49 10000 3.1 180 19:39 03.01.2020
5100 Clouds 14 1005 49 10000 3.1 180 19:21 03.01.2020
5101 Clouds 13 1005 43 10000 3.6 230 18:44 03.01.2020
5102 Clouds 13 1005 43 10000 3.6 230 18:44 03.01.2020
5103 Clouds 13 1005 43 10000 3.6 230 18:26 03.01.2020
5104 Clouds 12 1006 43 10000 4.1 230 17:56 03.01.2020
5105 Clouds 12 1006 43 10000 4.1 230 17:38 03.01.2020
5106 Clouds 12 1006 43 10000 4.1 230 17:19 03.01.2020
5107 Clouds 11 1005 54 10000 4.6 230 16:43 03.01.2020
5108 Clouds 11 1005 54 10000 4.6 230 16:24 03.01.2020
5109 Clouds 11 1006 50 10000 3.1 230 15:58 03.01.2020
5110 Clouds 11 1006 50 10000 3.1 230 15:40 03.01.2020
5111 Clouds 11 1006 50 10000 3.1 230 15:18 03.01.2020
5112 Clouds 10 1006 53 10000 3.6 290 14:39 03.01.2020
5113 Clouds 10 1006 53 10000 3.6 290 14:20 03.01.2020
5114 Clouds 9 1007 53 10000 2.6 290 13:56 03.01.2020
5115 Clouds 9 1007 53 10000 2.6 290 13:37 03.01.2020
5116 Clouds 9 1007 53 10000 2.6 290 13:19 03.01.2020
5117 Clouds 8 1007 75 10000 3.6 290 12:39 03.01.2020
5118 Clouds 8 1007 75 10000 3.6 290 12:21 03.01.2020
5119 Clouds 7 1007 70 10000 3.1 270 11:49 03.01.2020
5120 Clouds 7 1007 70 10000 3.1 270 11:30 03.01.2020
5121 Clouds 7 1007 83 10000 4.1 290 10:47 03.01.2020
5122 Clouds 7 1007 83 10000 4.1 290 10:28 03.01.2020
5123 Clouds 7 1007 83 10000 3.6 290 09:59 03.01.2020
5124 Clouds 7 1007 83 10000 3.6 290 09:41 03.01.2020
5125 Clouds 7 1007 83 10000 3.6 290 09:22 03.01.2020
5126 Clouds 7 1007 83 10000 5.1 270 08:57 03.01.2020
5127 Clouds 7 1007 83 10000 5.1 270 08:38 03.01.2020
5128 Clouds 7 1007 76 10000 5.1 270 08:20 03.01.2020
5129 Clouds 8 1007 76 10000 4.1 290 07:41 03.01.2020
5130 Clouds 8 1007 76 10000 4.1 290 07:19 03.01.2020
5131 Clouds 9 1007 49 10000 7.2 230 06:54 03.01.2020
5132 Clouds 9 1007 49 10000 7.2 230 06:35 03.01.2020
5133 Clouds 9 1007 49 10000 7.7 230 05:47 03.01.2020
5134 Clouds 9 1006 49 10000 8.7 230 04:31 03.01.2020
5135 Clouds 10 1006 74 10000 9.8 230 03:18 03.01.2020
5136 Clouds 11 1005 74 10000 12.9 230 02:45 03.01.2020
5137 Clouds 11 1004 60 10000 12.9 230 01:45 03.01.2020
5138 Clouds 12 1003 40 10000 12.9 230 00:56 03.01.2020
5139 Clouds 12 1003 40 10000 12.9 230 00:32 03.01.2020
5140 Clouds 14 1003 65 10000 11.8 230 23:58 02.01.2020
5141 Clouds 14 1003 65 10000 11.8 230 23:39 02.01.2020
5142 Clouds 14 1003 68 10000 11.8 230 23:19 02.01.2020
5143 Clouds 14 1002 68 10000 10.8 230 22:58 02.01.2020
5144 Clouds 14 1002 68 10000 10.8 230 22:39 02.01.2020
5145 Clouds 13 1002 68 10000 10.8 230 22:19 02.01.2020
5146 Clouds 12 1002 76 10000 11.3 230 21:54 02.01.2020
5147 Clouds 12 1002 76 10000 11.3 230 21:36 02.01.2020
5148 Clouds 12 1002 76 10000 11.3 230 21:36 02.01.2020
5149 Clouds 12 1002 76 10000 11.3 230 21:18 02.01.2020
5150 Clouds 12 1001 71 10000 11.3 230 20:40 02.01.2020
5151 Clouds 12 1001 71 10000 11.3 230 20:21 02.01.2020
5152 Clouds 12 1001 71 10000 7.2 230 19:56 02.01.2020
5153 Clouds 12 1001 71 10000 7.2 230 19:56 02.01.2020
5154 Clouds 12 1001 71 10000 7.2 230 19:38 02.01.2020
5155 Clouds 11 1001 71 10000 7.2 230 19:19 02.01.2020
5156 Clouds 11 1001 76 10000 8.2 230 18:59 02.01.2020
5157 Clouds 11 1001 76 10000 8.2 230 18:40 02.01.2020
5158 Clouds 11 1001 76 10000 8.2 230 18:22 02.01.2020
5159 Clouds 11 1001 76 10000 8.2 230 18:22 02.01.2020
5160 Clouds 10 1001 81 10000 7.2 230 17:57 02.01.2020
5161 Clouds 10 1001 81 10000 7.2 230 17:37 02.01.2020
5162 Clouds 10 1001 81 10000 7.2 230 17:19 02.01.2020
5163 Clouds 10 1000 81 10000 7.7 230 16:57 02.01.2020
5164 Clouds 10 1000 81 10000 7.7 230 16:38 02.01.2020
5165 Clouds 10 1000 81 10000 7.7 230 16:20 02.01.2020
5166 Rain 10 1000 87 10000 8.7 230 15:56 02.01.2020
5167 Rain 10 1000 87 10000 8.7 230 15:37 02.01.2020
5168 Rain 10 1000 87 10000 8.7 230 15:19 02.01.2020
5169 Rain 11 1000 87 10000 7.7 230 14:54 02.01.2020
5170 Rain 11 1000 87 10000 7.7 230 14:54 02.01.2020
5171 Rain 11 1000 87 10000 7.7 230 14:36 02.01.2020
5172 Rain 11 1000 87 10000 7.7 230 14:18 02.01.2020
5173 Rain 12 999 87 10000 6.2 230 13:45 02.01.2020
5174 Rain 12 999 87 10000 6.2 230 13:26 02.01.2020
5175 Clouds 13 998 87 10000 7.7 230 12:43 02.01.2020
5176 Clouds 13 997 87 10000 6.7 230 12:24 02.01.2020
5177 Clouds 13 997 87 10000 6.7 230 11:43 02.01.2020
5178 Clouds 13 997 87 10000 6.7 230 11:25 02.01.2020
5179 Clouds 16 997 55 10000 2.6 270 10:57 02.01.2020
5180 Clouds 16 997 55 10000 2.6 270 10:38 02.01.2020
5181 Clouds 16 997 55 10000 2.6 270 10:19 02.01.2020
5182 Clouds 16 997 55 10000 2.6 270 09:41 02.01.2020
5183 Clouds 16 997 55 10000 2.6 270 09:22 02.01.2020
5184 Rain 9 1000 97 0 0.65 111 08:44 02.01.2020
5185 Rain 9 1000 97 0 0.65 111 08:25 02.01.2020
5186 Clouds 8 999 96 0 2.43 15 07:49 02.01.2020
5187 Clouds 17 998 48 10000 2.43 15 07:30 02.01.2020
5188 Clouds 17 998 48 10000 2.43 15 06:44 02.01.2020
5189 Clouds 17 998 48 10000 2.43 15 06:26 02.01.2020
5190 Clouds 18 999 39 10000 6.2 290 04:40 02.01.2020
5191 Clouds 18 999 39 10000 6.2 290 04:21 02.01.2020
5192 Rain 16 1000 55 10000 3.1 230 02:28 02.01.2020
5193 Clouds 16 1000 59 10000 5.7 230 01:58 02.01.2020
5194 Clouds 16 1000 59 10000 5.7 230 01:32 02.01.2020
5195 Drizzle 18 1001 42 10000 5.7 250 00:53 02.01.2020
5196 Drizzle 18 1001 42 10000 5.7 250 00:33 02.01.2020
5197 Drizzle 19 1001 39 10000 5.7 270 23:49 01.01.2020
5198 Rain 19 1001 37 10000 5.7 290 23:26 01.01.2020
5199 Clouds 20 1002 32 10000 6.2 320 22:56 01.01.2020
5200 Clouds 20 1002 32 10000 6.2 320 22:37 01.01.2020
5201 Clouds 20 1002 32 10000 6.2 320 22:19 01.01.2020
5202 Clouds 21 1002 32 10000 7.2 320 21:55 01.01.2020
5203 Clouds 21 1002 32 10000 7.2 320 21:37 01.01.2020
5204 Clouds 21 1002 32 10000 7.2 320 21:18 01.01.2020
5205 Clouds 21 1003 32 10000 6.2 320 20:42 01.01.2020
5206 Clouds 21 1003 32 10000 6.2 320 20:22 01.01.2020
5207 Clouds 20 1005 32 10000 7.2 320 19:58 01.01.2020
5208 Clouds 20 1005 32 10000 7.2 320 19:39 01.01.2020
5209 Clouds 20 1005 32 10000 7.2 320 19:21 01.01.2020
5210 Clouds 20 1005 32 10000 7.7 320 18:59 01.01.2020
5211 Clouds 20 1005 32 10000 7.7 320 18:39 01.01.2020
5212 Clouds 20 1005 32 10000 7.7 320 18:20 01.01.2020
5213 Clouds 20 1006 32 10000 7.7 320 17:59 01.01.2020
5214 Clouds 20 1006 32 10000 7.7 320 17:40 01.01.2020
5215 Clouds 18 1006 32 10000 7.7 320 17:20 01.01.2020
5216 Clouds 17 1006 55 10000 3.1 50 16:59 01.01.2020
5217 Clouds 17 1006 55 10000 3.1 50 16:59 01.01.2020
5218 Clouds 17 1006 55 10000 3.1 50 16:38 01.01.2020
5219 Clouds 17 1006 55 10000 3.1 50 16:20 01.01.2020
5220 Clouds 16 1007 51 10000 2.98 319 15:57 01.01.2020
5221 Clouds 16 1007 51 10000 2.98 319 15:38 01.01.2020
5222 Clouds 16 1007 51 10000 2.98 319 15:20 01.01.2020
5223 Clouds 14 1008 54 10000 2.98 319 14:56 01.01.2020
5224 Clouds 14 1008 54 10000 2.98 319 14:38 01.01.2020
5225 Clouds 14 1008 54 10000 2.95 355 14:19 01.01.2020
5226 Clouds 14 1008 54 10000 2.95 355 14:19 01.01.2020
5227 Clouds 12 1009 58 10000 2.95 355 13:55 01.01.2020
5228 Clouds 12 1009 58 10000 2.95 355 13:36 01.01.2020
5229 Clouds 12 1009 58 10000 3.29 359 13:18 01.01.2020
5230 Clouds 12 1009 58 10000 3.29 359 13:18 01.01.2020
5231 Clouds 12 1009 62 10000 3.29 359 12:54 01.01.2020
5232 Clouds 12 1009 62 10000 3.29 359 12:54 01.01.2020
5233 Clouds 12 1009 62 10000 3.29 359 12:36 01.01.2020
5234 Clouds 12 1009 62 10000 3.29 359 12:18 01.01.2020
5235 Clouds 10 1009 71 10000 2.6 180 11:42 01.01.2020
5236 Clouds 10 1009 71 10000 2.6 180 11:21 01.01.2020
5237 Clouds 10 1009 71 10000 2.6 180 11:21 01.01.2020
5238 Clouds 10 1011 66 10000 2.6 270 10:56 01.01.2020
5239 Clouds 10 1011 66 10000 2.6 270 10:38 01.01.2020
5240 Clouds 10 1011 66 10000 2.6 270 10:19 01.01.2020
5241 Clouds 10 1011 66 10000 2.6 270 09:42 01.01.2020
5242 Clouds 10 1011 66 10000 2.6 270 09:22 01.01.2020
5243 Clouds 5 1010 95 0 3 8 08:57 01.01.2020
5244 Clouds 5 1010 95 0 3 8 08:38 01.01.2020
5245 Clouds 4 1011 95 0 2.52 8 08:20 01.01.2020
5246 Clouds 4 1011 95 0 2.52 8 07:58 01.01.2020
5247 Clouds 4 1011 95 0 2.52 8 07:40 01.01.2020
5248 Clouds 11 1011 57 10000 2.52 8 07:20 01.01.2020
5249 Clouds 11 1011 57 10000 2.52 8 06:40 01.01.2020
5250 Clouds 11 1011 57 10000 2.52 8 06:18 01.01.2020
5251 Clouds 10 1012 66 10000 0.73 292 04:36 01.01.2020
5252 Clouds 11 1012 62 10000 3.6 140 03:40 01.01.2020
5253 Clouds 11 1012 62 10000 3.6 140 03:21 01.01.2020
5254 Clouds 11 1013 62 10000 0.73 292 02:43 01.01.2020
5255 Clouds 11 1013 62 10000 0.73 292 02:24 01.01.2020
5256 Clouds 11 1013 62 10000 1.28 33 01:45 01.01.2020
5257 Clouds 11 1013 62 10000 1.28 33 01:23 01.01.2020
5258 Clouds 11 1013 62 10000 1 110 00:45 01.01.2020
5259 Clouds 11 1013 62 10000 1 110 00:26 01.01.2020
5260 Clouds 12 1013 54 10000 1.5 90 23:58 31.12.2019
5261 Clouds 12 1013 54 10000 1.5 90 23:38 31.12.2019
5262 Clouds 12 1013 54 10000 1.5 90 23:18 31.12.2019
5263 Clouds 10 1014 66 10000 1.5 360 22:56 31.12.2019
5264 Clouds 10 1014 66 10000 1.5 360 22:37 31.12.2019
5265 Clouds 11 1014 66 10000 1.5 360 22:18 31.12.2019
5266 Clouds 12 1014 62 10000 2.1 230 21:43 31.12.2019
5267 Clouds 12 1014 62 10000 2.1 230 21:25 31.12.2019
5268 Clouds 12 1014 62 10000 2.6 230 20:57 31.12.2019
5269 Clouds 12 1014 62 10000 2.6 230 20:39 31.12.2019
5270 Clouds 12 1014 62 10000 2.6 230 20:21 31.12.2019
5271 Clouds 12 1014 42 10000 2.25 310 19:58 31.12.2019
5272 Clouds 12 1014 42 10000 2.25 310 19:40 31.12.2019
5273 Clouds 12 1014 42 10000 2.25 310 19:21 31.12.2019
5274 Clouds 11 1014 46 10000 2.1 200 18:57 31.12.2019
5275 Clouds 11 1014 46 10000 2.1 200 18:38 31.12.2019
5276 Clouds 11 1014 46 10000 2.1 200 18:38 31.12.2019
5277 Clouds 11 1014 46 10000 2.1 200 18:19 31.12.2019
5278 Clouds 12 1014 46 10000 1.5 200 17:56 31.12.2019
5279 Clouds 12 1014 46 10000 1.5 200 17:56 31.12.2019
5280 Clouds 12 1014 46 10000 1.5 200 17:36 31.12.2019
5281 Clouds 12 1014 46 10000 1.5 200 17:18 31.12.2019
5282 Clouds 12 1014 46 10000 1.5 200 17:18 31.12.2019
5283 Clouds 11 1015 53 10000 2.09 305 16:56 31.12.2019
5284 Clouds 11 1015 53 10000 2.09 305 16:37 31.12.2019
5285 Clouds 11 1015 53 10000 2.09 305 16:18 31.12.2019
5286 Clouds 10 1015 53 10000 2.09 305 15:56 31.12.2019
5287 Clouds 10 1015 53 10000 2.09 305 15:38 31.12.2019
5288 Clouds 10 1015 53 10000 2.09 305 15:19 31.12.2019
5289 Clouds 10 1015 53 10000 2.09 305 14:55 31.12.2019
5290 Clouds 10 1015 53 10000 2.09 305 14:37 31.12.2019
5291 Clouds 10 1015 53 10000 2.09 329 14:18 31.12.2019
5292 Clouds 10 1016 57 10000 2.6 50 13:56 31.12.2019
5293 Clouds 10 1016 57 10000 2.6 50 13:38 31.12.2019
5294 Clouds 10 1016 57 10000 2.6 50 13:19 31.12.2019
5295 Clouds 9 1016 70 10000 3.1 360 12:55 31.12.2019
5296 Clouds 9 1016 70 10000 3.1 360 12:37 31.12.2019
5297 Clouds 9 1016 70 10000 3.1 360 12:37 31.12.2019
5298 Clouds 9 1016 70 10000 3.1 360 12:18 31.12.2019
5299 Clouds 7 1016 70 10000 4.1 320 11:55 31.12.2019
5300 Clouds 7 1016 70 10000 4.1 320 11:37 31.12.2019
5301 Clouds 7 1016 70 10000 4.1 320 11:19 31.12.2019
5302 Clouds 7 1016 70 10000 4.1 320 11:19 31.12.2019
5303 Clouds 5 1016 75 10000 5.1 340 10:56 31.12.2019
5304 Clouds 5 1016 75 10000 5.1 340 10:37 31.12.2019
5305 Clouds 5 1016 75 10000 5.1 340 10:19 31.12.2019
5306 Clouds 6 1015 88 10000 4.1 340 09:57 31.12.2019
5307 Clouds 6 1015 88 10000 4.1 340 09:57 31.12.2019
5308 Clouds 6 1015 88 10000 4.1 340 09:38 31.12.2019
5309 Clouds 6 1014 88 10000 3.6 340 09:19 31.12.2019
5310 Clouds 6 1014 88 10000 3.6 340 08:42 31.12.2019
5311 Clouds 6 1014 88 10000 3.6 340 08:23 31.12.2019
5312 Clouds 7 1014 56 10000 3.1 250 07:58 31.12.2019
5313 Clouds 7 1014 56 10000 3.1 250 07:40 31.12.2019
5314 Clouds 7 1014 56 10000 3.1 250 07:19 31.12.2019
5315 Clouds 8 1014 49 10000 8.2 230 06:40 31.12.2019
5316 Clouds 8 1014 49 10000 3.6 250 05:28 31.12.2019
5317 Clouds 9 1013 45 10000 8.7 230 04:25 31.12.2019
5318 Clouds 10 1012 43 10000 12.3 230 02:59 31.12.2019
5319 Clouds 10 1012 43 10000 12.3 230 02:34 31.12.2019
5320 Clouds 11 1011 40 10000 9.3 230 01:51 31.12.2019
5321 Clouds 11 1011 40 10000 9.3 230 01:32 31.12.2019
5322 Clouds 11 1010 43 10000 12.3 230 00:54 31.12.2019
5323 Clouds 11 1010 43 10000 12.3 230 00:36 31.12.2019
5324 Clouds 11 1010 43 10000 12.3 230 00:18 31.12.2019
5325 Clouds 11 1009 53 10000 15.9 230 23:54 30.12.2019
5326 Clouds 11 1009 53 10000 15.9 230 23:36 30.12.2019
5327 Clouds 11 1009 53 10000 15.9 230 23:18 30.12.2019
5328 Clouds 12 1008 72 10000 12.3 230 22:54 30.12.2019
5329 Clouds 12 1008 72 10000 12.3 230 22:36 30.12.2019
5330 Clouds 12 1008 72 10000 12.3 230 22:18 30.12.2019
5331 Drizzle 12 1007 54 10000 13.4 230 21:55 30.12.2019
5332 Drizzle 12 1007 54 10000 13.4 230 21:37 30.12.2019
5333 Drizzle 12 1007 54 10000 13.4 230 21:18 30.12.2019
5334 Rain 15 1006 47 10000 11.3 230 20:42 30.12.2019
5335 Rain 15 1006 47 10000 11.3 230 20:21 30.12.2019
5336 Rain 16 1005 39 10000 18.5 230 19:59 30.12.2019
5337 Rain 16 1005 39 10000 18.5 230 19:59 30.12.2019
5338 Rain 16 1005 39 10000 18.5 230 19:40 30.12.2019
5339 Clouds 16 1005 39 10000 6.2 230 19:20 30.12.2019
5340 Clouds 16 1005 39 10000 6.2 230 19:20 30.12.2019
5341 Clouds 16 1005 39 10000 8.7 320 18:59 30.12.2019
5342 Clouds 16 1005 39 10000 8.7 320 18:41 30.12.2019
5343 Clouds 16 1005 39 10000 8.7 320 18:21 30.12.2019
5344 Clouds 16 1005 41 10000 9.8 320 17:59 30.12.2019
5345 Clouds 16 1005 41 10000 9.8 320 17:40 30.12.2019
5346 Clouds 16 1005 41 10000 9.8 320 17:19 30.12.2019
5347 Clouds 15 1005 41 10000 4.1 360 16:59 30.12.2019
5348 Clouds 15 1005 41 10000 4.1 360 16:40 30.12.2019
5349 Clouds 15 1005 41 10000 4.1 360 16:20 30.12.2019
5350 Clouds 12 1005 50 10000 1.5 180 15:57 30.12.2019
5351 Clouds 12 1005 50 10000 1.5 180 15:38 30.12.2019
5352 Clouds 12 1005 50 10000 1.5 180 15:19 30.12.2019
5353 Clouds 13 1005 33 10000 5.1 320 14:55 30.12.2019
5354 Clouds 13 1005 33 10000 5.1 320 14:37 30.12.2019
5355 Clouds 13 1005 33 10000 5.1 320 14:18 30.12.2019
5356 Clouds 13 1006 50 10000 2.69 330 13:42 30.12.2019
5357 Clouds 13 1006 50 10000 2.44 329 13:23 30.12.2019
5358 Clouds 12 1006 54 10000 2.6 140 12:58 30.12.2019
5359 Clouds 12 1006 54 10000 2.6 140 12:40 30.12.2019
5360 Clouds 12 1006 54 10000 2.6 140 12:19 30.12.2019
5361 Clouds 11 1006 62 10000 2.6 320 11:56 30.12.2019
5362 Clouds 11 1006 62 10000 2.6 320 11:37 30.12.2019
5363 Clouds 11 1006 62 10000 2.6 320 11:18 30.12.2019
5364 Clouds 10 1006 53 10000 2.6 320 10:42 30.12.2019
5365 Clouds 10 1006 53 10000 2.6 320 10:42 30.12.2019
5366 Clouds 10 1006 53 10000 2.6 320 10:20 30.12.2019
5367 Clouds 10 1006 61 10000 5.1 320 09:44 30.12.2019
5368 Clouds 10 1006 61 10000 5.1 320 09:22 30.12.2019
5369 Clouds 3 1008 91 0 2.04 351 08:57 30.12.2019
5370 Clouds 3 1008 91 0 2.04 351 08:39 30.12.2019
5371 Clouds 10 1006 53 10000 3.1 360 08:21 30.12.2019
5372 Clouds 10 1006 53 10000 3.1 360 07:49 30.12.2019
5373 Clouds 10 1006 53 10000 3.1 360 07:25 30.12.2019
5374 Clouds 10 1006 53 10000 4.1 90 06:39 30.12.2019
5375 Clear 11 1007 43 10000 2.1 50 04:32 30.12.2019
5376 Clear 10 1007 66 10000 2.6 290 03:51 30.12.2019
5377 Clear 11 1007 57 10000 3.1 250 02:47 30.12.2019
5378 Clear 11 1007 57 10000 3.1 250 02:27 30.12.2019
5379 Clouds 13 1007 43 10000 2.6 200 01:39 30.12.2019
5380 Clouds 12 1007 43 10000 2.6 200 01:19 30.12.2019
5381 Clouds 12 1006 47 10000 5.7 230 00:42 30.12.2019
5382 Clouds 14 1006 66 10000 7.2 230 23:58 29.12.2019
5383 Clouds 14 1006 66 10000 7.2 230 23:37 29.12.2019
5384 Clouds 14 1006 48 10000 7.2 230 23:19 29.12.2019
5385 Clouds 14 1006 35 10000 9.8 230 22:41 29.12.2019
5386 Clouds 14 1006 35 10000 9.8 230 22:22 29.12.2019
5387 Clouds 13 1005 35 10000 11.3 230 21:56 29.12.2019
5388 Clouds 13 1005 35 10000 11.3 230 21:38 29.12.2019
5389 Clouds 13 1005 35 10000 11.3 230 21:19 29.12.2019
5390 Clouds 11 1004 53 10000 11.3 230 20:56 29.12.2019
5391 Clouds 11 1004 53 10000 11.3 230 20:38 29.12.2019
5392 Clouds 11 1004 53 10000 11.3 230 20:20 29.12.2019
5393 Clouds 11 1004 53 10000 11.3 230 19:58 29.12.2019
5394 Clouds 11 1004 53 10000 11.3 230 19:39 29.12.2019
5395 Clouds 11 1004 53 10000 11.3 230 19:20 29.12.2019
5396 Clouds 12 1002 50 10000 12.9 230 18:55 29.12.2019
5397 Clouds 12 1002 50 10000 12.9 230 18:37 29.12.2019
5398 Clouds 12 1002 50 10000 12.9 230 18:19 29.12.2019
5399 Clouds 11 1002 53 10000 14.4 230 17:56 29.12.2019
5400 Clouds 11 1002 53 10000 14.4 230 17:38 29.12.2019
5401 Clouds 11 1002 53 10000 14.4 230 17:19 29.12.2019
5402 Clouds 11 1000 53 10000 15.9 230 16:56 29.12.2019
5403 Clouds 11 1000 53 10000 15.9 230 16:36 29.12.2019
5404 Clouds 11 1000 53 10000 15.9 230 16:18 29.12.2019
5405 Clouds 12 999 50 10000 14.4 230 15:56 29.12.2019
5406 Clouds 12 999 50 10000 14.4 230 15:38 29.12.2019
5407 Clouds 12 999 50 10000 14.4 230 15:19 29.12.2019
5408 Clouds 11 998 53 10000 12.9 230 14:55 29.12.2019
5409 Clouds 11 998 53 10000 12.9 230 14:37 29.12.2019
5410 Clouds 11 998 53 10000 12.9 230 14:37 29.12.2019
5411 Clouds 11 998 53 10000 12.9 230 14:18 29.12.2019
5412 Clouds 11 997 53 10000 14.9 230 13:55 29.12.2019
5413 Clouds 11 997 53 10000 14.9 230 13:37 29.12.2019
5414 Clouds 11 997 53 10000 14.9 230 13:18 29.12.2019
5415 Clouds 11 996 72 10000 13.9 230 12:42 29.12.2019
5416 Clouds 11 996 72 10000 13.9 230 12:24 29.12.2019
5417 Clouds 11 995 40 10000 9.3 230 11:56 29.12.2019
5418 Clouds 11 995 40 10000 9.3 230 11:37 29.12.2019
5419 Clouds 11 995 40 10000 9.3 230 11:19 29.12.2019
5420 Clouds 10 994 57 10000 10.3 230 10:42 29.12.2019
5421 Clouds 10 994 57 10000 10.3 230 10:22 29.12.2019
5422 Clouds 11 992 96 10000 5.7 230 09:56 29.12.2019
5423 Clouds 11 992 96 10000 5.7 230 09:38 29.12.2019
5424 Clouds 11 992 96 10000 5.7 230 09:19 29.12.2019
5425 Clouds 11 991 43 10000 6.2 230 08:46 29.12.2019
5426 Clouds 11 991 43 10000 6.2 230 08:24 29.12.2019
5427 Clouds 12 991 40 10000 6.7 320 07:54 29.12.2019
5428 Clouds 12 991 40 10000 6.7 320 07:28 29.12.2019
5429 Clouds 12 991 37 10000 6.7 320 06:53 29.12.2019
5430 Clouds 12 991 37 10000 6.7 320 06:24 29.12.2019
5431 Clouds 13 991 50 10000 9.3 320 05:51 29.12.2019
5432 Clouds 13 991 37 10000 7.7 290 04:36 29.12.2019
5433 Clouds 13 990 83 10000 8.7 290 03:43 29.12.2019
5434 Clouds 13 990 83 10000 8.7 290 03:20 29.12.2019
5435 Clouds 13 990 47 10000 8.2 290 02:20 29.12.2019
5436 Clouds 14 990 54 10000 9.8 290 01:31 29.12.2019
5437 Clouds 14 990 54 10000 9.8 290 00:57 29.12.2019
5438 Clouds 14 990 54 10000 9.8 290 00:39 29.12.2019
5439 Clouds 14 990 54 10000 9.8 290 00:21 29.12.2019
5440 Drizzle 13 990 58 10000 5.1 230 23:42 28.12.2019
5441 Drizzle 13 990 58 10000 5.1 230 23:18 28.12.2019
5442 Drizzle 15 990 44 10000 5.7 230 22:39 28.12.2019
5443 Drizzle 15 990 44 10000 5.7 230 22:39 28.12.2019
5444 Drizzle 15 990 44 10000 5.7 230 22:20 28.12.2019
5445 Drizzle 15 991 41 10000 8.2 320 21:58 28.12.2019
5446 Drizzle 15 991 41 10000 8.2 320 21:58 28.12.2019
5447 Drizzle 15 991 41 10000 8.2 320 21:39 28.12.2019
5448 Drizzle 15 991 41 10000 8.2 320 21:21 28.12.2019
5449 Drizzle 15 991 41 10000 8.2 320 21:21 28.12.2019
5450 Clouds 15 992 38 10000 8.2 320 20:57 28.12.2019
5451 Clouds 15 992 38 10000 8.2 320 20:37 28.12.2019
5452 Clouds 15 992 38 10000 8.2 320 20:19 28.12.2019
5453 Clouds 14 992 44 10000 8.7 320 19:56 28.12.2019
5454 Clouds 14 992 44 10000 8.7 320 19:38 28.12.2019
5455 Clouds 14 992 44 10000 8.7 320 19:19 28.12.2019
5456 Clouds 14 993 44 10000 9.8 320 18:56 28.12.2019
5457 Clouds 14 993 44 10000 9.8 320 18:38 28.12.2019
5458 Clouds 13 993 44 10000 9.8 320 18:18 28.12.2019
5459 Clouds 13 993 44 10000 7.7 340 17:43 28.12.2019
5460 Clouds 13 993 44 10000 7.7 340 17:21 28.12.2019
5461 Clouds 12 994 43 10000 9.3 360 16:59 28.12.2019
5462 Clouds 12 994 43 10000 9.3 360 16:41 28.12.2019
5463 Clouds 12 994 43 10000 9.3 360 16:23 28.12.2019
5464 Clouds 12 994 54 10000 3.6 320 15:44 28.12.2019
5465 Clouds 12 994 54 10000 3.6 320 15:23 28.12.2019
5466 Clouds 10 994 66 10000 3.85 348 14:57 28.12.2019
5467 Clouds 10 994 66 10000 3.85 348 14:38 28.12.2019
5468 Clouds 10 994 66 10000 1.82 324 14:20 28.12.2019
5469 Clouds 10 995 66 10000 1.82 324 13:43 28.12.2019
5470 Clouds 10 995 66 10000 1.82 324 13:22 28.12.2019
5471 Clouds 10 995 66 10000 3.1 230 12:59 28.12.2019
5472 Clouds 10 995 66 10000 3.1 230 12:40 28.12.2019
5473 Clouds 10 995 66 10000 3.1 230 12:21 28.12.2019
5474 Clouds 9 994 70 10000 2.6 360 11:54 28.12.2019
5475 Clouds 9 994 70 10000 2.6 360 11:36 28.12.2019
5476 Clouds 9 994 70 10000 2.6 360 11:18 28.12.2019
5477 Clouds 9 990 66 10000 8.2 230 10:41 28.12.2019
5478 Clouds 9 990 66 10000 8.2 230 10:20 28.12.2019
5479 Clouds 9 990 66 10000 8.2 230 09:55 28.12.2019
5480 Clouds 9 990 66 10000 8.2 230 09:37 28.12.2019
5481 Clouds 9 990 66 10000 8.2 230 09:18 28.12.2019
5482 Clouds 9 990 66 10000 8.2 230 09:18 28.12.2019
5483 Clouds 3 994 94 0 1.21 332 08:43 28.12.2019
5484 Clear 3 995 93 0 1.2 328 08:25 28.12.2019
5485 Rain 3 992 94 0 0.96 309 07:49 28.12.2019
5486 Rain 3 992 94 0 0.96 309 07:25 28.12.2019
5487 Rain 9 990 70 10000 8.2 250 05:53 28.12.2019
5488 Drizzle 11 988 66 10000 13.4 230 03:52 28.12.2019
5489 Drizzle 11 988 66 10000 13.4 230 03:33 28.12.2019
5490 Rain 11 987 66 10000 11.8 230 02:43 28.12.2019
5491 Clouds 13 987 54 10000 4.6 230 01:59 28.12.2019
5492 Clouds 13 987 54 10000 4.6 230 01:25 28.12.2019
5493 Clouds 14 986 47 10000 6.7 230 00:51 28.12.2019
5494 Clouds 14 986 47 10000 6.7 230 00:32 28.12.2019
5495 Clouds 14 986 47 10000 6.7 230 00:32 28.12.2019
5496 Clouds 15 986 44 10000 6.7 230 23:59 27.12.2019
5497 Clouds 15 986 44 10000 6.7 230 23:41 27.12.2019
5498 Clouds 15 986 44 10000 6.7 230 23:19 27.12.2019
5499 Clouds 16 986 41 10000 4.1 230 22:57 27.12.2019
5500 Clouds 16 986 41 10000 4.1 230 22:57 27.12.2019
5501 Clouds 16 986 41 10000 4.1 230 22:38 27.12.2019
5502 Clouds 16 986 41 10000 4.1 230 22:38 27.12.2019
5503 Clouds 16 986 41 10000 4.1 230 22:20 27.12.2019
5504 Clouds 16 986 41 10000 4.1 230 22:20 27.12.2019
5505 Clouds 16 986 41 10000 5.7 230 21:54 27.12.2019
5506 Clouds 16 986 41 10000 5.7 230 21:36 27.12.2019
5507 Clouds 17 986 41 10000 5.7 230 21:18 27.12.2019
5508 Clouds 18 986 39 10000 7.7 340 20:40 27.12.2019
5509 Clouds 18 986 39 10000 7.7 340 20:21 27.12.2019
5510 Clouds 16 986 41 10000 3.6 250 19:42 27.12.2019
5511 Clouds 16 986 41 10000 3.6 250 19:20 27.12.2019
5512 Clouds 16 986 41 10000 7.2 360 18:59 27.12.2019
5513 Clouds 16 986 41 10000 7.2 360 18:38 27.12.2019
5514 Clouds 16 986 41 10000 7.2 360 18:20 27.12.2019
5515 Clouds 15 986 38 10000 4.6 320 17:57 27.12.2019
5516 Clouds 15 986 38 10000 4.6 320 17:39 27.12.2019
5517 Clouds 15 986 38 10000 4.6 320 17:19 27.12.2019
5518 Clouds 16 985 36 10000 6.7 320 16:58 27.12.2019
5519 Clouds 16 985 36 10000 6.7 320 16:38 27.12.2019
5520 Clouds 16 985 36 10000 6.7 320 16:19 27.12.2019
5521 Clouds 16 985 36 10000 6.7 320 16:19 27.12.2019
5522 Clouds 15 984 51 10000 9.8 320 15:43 27.12.2019
5523 Clouds 15 984 51 10000 9.8 320 15:20 27.12.2019
5524 Clouds 15 984 38 10000 8.7 320 14:57 27.12.2019
5525 Clouds 15 984 38 10000 8.7 320 14:39 27.12.2019
5526 Clouds 15 984 38 10000 8.7 320 14:20 27.12.2019
5527 Clouds 14 984 58 10000 6.7 320 13:48 27.12.2019
5528 Clouds 14 984 58 10000 6.7 320 13:25 27.12.2019
5529 Clouds 14 984 58 10000 6.7 320 13:25 27.12.2019
5530 Clouds 14 983 58 10000 4.12 343 12:58 27.12.2019
5531 Clouds 14 983 58 10000 4.12 343 12:40 27.12.2019
5532 Clouds 14 983 58 10000 4.12 343 12:21 27.12.2019
5533 Clouds 12 982 76 10000 2.1 180 11:45 27.12.2019
5534 Clouds 12 982 76 10000 2.1 180 11:26 27.12.2019
5535 Clouds 11 981 71 10000 5.1 230 10:56 27.12.2019
5536 Clouds 11 981 71 10000 5.1 230 10:38 27.12.2019
5537 Clouds 11 981 71 10000 5.1 230 10:20 27.12.2019
5538 Clouds 11 981 76 10000 2.24 356 09:43 27.12.2019
5539 Clouds 11 981 76 10000 2.24 356 09:21 27.12.2019
5540 Clouds 6 984 97 0 2.24 356 08:59 27.12.2019
5541 Clouds 6 984 97 0 2.24 356 08:36 27.12.2019
5542 Drizzle 11 981 76 10000 6.11 22 07:52 27.12.2019
5543 Drizzle 11 981 76 10000 6.11 22 07:33 27.12.2019
5544 Rain 11 982 71 10000 3.1 360 06:38 27.12.2019
5545 Rain 11 984 71 10000 5.7 360 05:38 27.12.2019
5546 Clouds 13 987 50 10000 5.7 50 03:47 27.12.2019
5547 Clouds 13 988 54 10000 2.1 140 02:23 27.12.2019
5548 Clouds 14 989 50 10000 2.39 8 01:42 27.12.2019
5549 Clouds 14 989 50 10000 2.16 355 01:20 27.12.2019
5550 Clouds 15 990 51 10000 4.6 320 00:44 27.12.2019
5551 Clouds 15 990 51 10000 4.6 320 00:24 27.12.2019
5552 Rain 15 990 67 10000 8.2 360 23:42 26.12.2019
5553 Rain 15 990 67 10000 8.2 360 23:23 26.12.2019
5554 Clouds 15 991 48 10000 4.6 320 22:57 26.12.2019
5555 Clouds 15 991 48 10000 4.6 320 22:37 26.12.2019
5556 Clouds 16 991 48 10000 4.6 320 22:18 26.12.2019
5557 Clouds 16 991 36 10000 6.7 320 21:39 26.12.2019
5558 Clouds 16 991 36 10000 6.7 320 21:39 26.12.2019
5559 Clouds 16 991 36 10000 6.7 320 21:21 26.12.2019
5560 Clouds 16 991 36 10000 6.7 320 21:21 26.12.2019
5561 Clouds 18 990 33 10000 9.3 270 20:47 26.12.2019
5562 Clouds 18 990 33 10000 9.3 270 20:24 26.12.2019
5563 Clouds 17 991 50 10000 5.7 320 19:59 26.12.2019
5564 Clouds 17 991 50 10000 5.7 320 19:40 26.12.2019
5565 Clouds 17 991 50 10000 5.7 320 19:22 26.12.2019
5566 Clouds 16 991 50 10000 8.2 320 18:59 26.12.2019
5567 Clouds 16 991 50 10000 8.2 320 18:40 26.12.2019
5568 Clouds 16 991 50 10000 8.2 320 18:20 26.12.2019
5569 Clouds 16 990 50 10000 2.6 230 17:58 26.12.2019
5570 Clouds 16 990 50 10000 2.6 230 17:40 26.12.2019
5571 Clouds 16 990 68 10000 2.6 230 17:19 26.12.2019
5572 Clouds 14 990 38 10000 7.2 290 16:46 26.12.2019
5573 Clouds 14 990 38 10000 7.2 290 16:26 26.12.2019
5574 Clouds 15 990 41 10000 6.2 320 15:56 26.12.2019
5575 Clouds 15 990 41 10000 6.2 320 15:38 26.12.2019
5576 Clouds 15 990 41 10000 6.2 320 15:18 26.12.2019
5577 Clouds 15 990 41 10000 6.2 320 15:18 26.12.2019
5578 Clouds 14 989 47 10000 6.7 340 14:41 26.12.2019
5579 Clouds 14 989 47 10000 6.7 340 14:23 26.12.2019
5580 Clouds 12 989 50 10000 7.2 340 13:45 26.12.2019
5581 Clouds 12 989 50 10000 7.2 340 13:24 26.12.2019
5582 Clouds 11 989 53 10000 2.1 110 12:59 26.12.2019
5583 Clouds 11 989 53 10000 2.1 110 12:59 26.12.2019
5584 Clouds 11 989 53 10000 2.1 110 12:40 26.12.2019
5585 Clouds 11 989 53 10000 2.1 110 12:21 26.12.2019
5586 Clouds 10 988 61 10000 2.6 140 11:58 26.12.2019
5587 Clouds 10 988 61 10000 2.6 140 11:58 26.12.2019
5588 Clouds 10 988 61 10000 2.6 140 11:40 26.12.2019
5589 Clouds 10 988 61 10000 2.6 140 11:20 26.12.2019
5590 Clouds 9 988 61 10000 3.6 140 10:49 26.12.2019
5591 Clouds 9 988 61 10000 3.6 140 10:24 26.12.2019
5592 Clouds 8 987 65 10000 2.48 12 09:54 26.12.2019
5593 Clouds 8 987 65 10000 2.48 12 09:32 26.12.2019
5594 Clouds 8 986 70 10000 4.6 140 08:57 26.12.2019
5595 Clouds 8 986 70 10000 4.6 140 08:38 26.12.2019
5596 Clouds 8 986 70 10000 4.6 140 08:20 26.12.2019
5597 Clouds 8 986 70 10000 4.6 140 08:20 26.12.2019
5598 Clouds 9 986 57 10000 3.1 320 07:31 26.12.2019
5599 Clouds 9 986 49 10000 1.5 360 06:56 26.12.2019
5600 Clouds 9 986 49 10000 1.5 360 06:34 26.12.2019
5601 Clouds 9 986 95 10000 2.65 346 05:57 26.12.2019
5602 Clouds 9 986 95 10000 2.65 346 05:38 26.12.2019
5603 Clouds 9 986 66 10000 3.1 320 04:32 26.12.2019
5604 Clouds 11 986 53 10000 3.1 230 03:20 26.12.2019
5605 Rain 10 985 61 10000 5.1 230 02:40 26.12.2019
5606 Rain 11 985 61 10000 5.1 230 02:20 26.12.2019
5607 Clouds 12 984 50 10000 5.7 280 01:42 26.12.2019
5608 Clouds 13 984 50 10000 5.7 280 01:24 26.12.2019
5609 Clouds 13 984 37 10000 7.2 270 00:42 26.12.2019
5610 Clouds 13 984 37 10000 7.2 270 00:22 26.12.2019
5611 Clouds 13 984 47 10000 5.1 320 23:56 25.12.2019
5612 Clouds 13 984 47 10000 5.1 320 23:36 25.12.2019
5613 Clouds 13 984 47 10000 5.1 320 23:18 25.12.2019
5614 Rain 15 984 33 10000 6.7 290 22:55 25.12.2019
5615 Rain 15 984 33 10000 6.7 290 22:37 25.12.2019
5616 Rain 15 984 33 10000 6.7 290 22:18 25.12.2019
5617 Clouds 15 984 38 10000 7.7 340 21:41 25.12.2019
5618 Clouds 15 984 38 10000 7.7 340 21:23 25.12.2019
5619 Clouds 15 984 38 10000 7.2 320 20:59 25.12.2019
5620 Clouds 15 984 38 10000 7.2 320 20:40 25.12.2019
5621 Clouds 15 984 38 10000 7.2 320 20:19 25.12.2019
5622 Clouds 14 984 44 10000 8.2 320 19:57 25.12.2019
5623 Clouds 14 984 44 10000 8.2 320 19:39 25.12.2019
5624 Clouds 14 984 44 10000 8.2 320 19:21 25.12.2019
5625 Rain 14 984 50 10000 7.7 340 18:39 25.12.2019
5626 Rain 14 984 50 10000 7.7 340 18:20 25.12.2019
5627 Rain 14 984 47 10000 7.2 320 17:57 25.12.2019
5628 Rain 14 984 47 10000 7.2 320 17:36 25.12.2019
5629 Rain 14 984 47 10000 7.2 320 17:18 25.12.2019
5630 Clouds 14 985 47 10000 5.1 360 16:39 25.12.2019
5631 Clouds 14 985 47 10000 5.1 360 16:19 25.12.2019
5632 Clouds 14 985 54 10000 8.7 360 15:58 25.12.2019
5633 Clouds 14 985 54 10000 8.7 360 15:39 25.12.2019
5634 Clouds 14 985 54 10000 8.7 360 15:21 25.12.2019
5635 Clouds 13 986 54 10000 6.2 360 14:58 25.12.2019
5636 Clouds 13 986 54 10000 6.2 360 14:40 25.12.2019
5637 Clouds 13 986 54 10000 6.2 360 14:21 25.12.2019
5638 Clouds 13 986 54 10000 6.2 360 14:21 25.12.2019
5639 Clouds 13 986 54 10000 6.2 360 14:21 25.12.2019
5640 Clouds 11 986 57 10000 8.7 360 13:57 25.12.2019
5641 Clouds 11 986 57 10000 8.7 360 13:38 25.12.2019
5642 Clouds 11 986 57 10000 8.7 360 13:19 25.12.2019
5643 Clouds 11 986 53 10000 7.7 360 12:42 25.12.2019
5644 Clouds 11 986 53 10000 7.7 360 12:20 25.12.2019
5645 Clouds 10 986 57 10000 7.7 360 11:57 25.12.2019
5646 Clouds 10 986 57 10000 7.7 360 11:38 25.12.2019
5647 Clouds 10 986 57 10000 7.7 360 11:18 25.12.2019
5648 Clouds 10 987 53 10000 7.7 340 10:38 25.12.2019
5649 Clouds 10 987 53 10000 7.7 340 10:20 25.12.2019
5650 Clouds 10 987 92 10000 7.7 360 09:51 25.12.2019
5651 Clouds 10 987 92 10000 7.7 360 09:32 25.12.2019
5652 Clouds 10 987 53 10000 7.2 360 08:51 25.12.2019
5653 Clouds 10 987 53 10000 7.2 360 08:31 25.12.2019
5654 Clouds 9 988 57 10000 8.2 340 07:53 25.12.2019
5655 Clouds 9 988 57 10000 8.2 340 07:34 25.12.2019
5656 Clouds 10 989 91 10000 7.2 360 06:58 25.12.2019
5657 Clouds 10 989 91 10000 7.2 360 06:23 25.12.2019
5658 Clouds 10 989 91 10000 6.7 360 05:31 25.12.2019
5659 Clouds 9 990 57 10000 3.1 320 04:39 25.12.2019
5660 Clouds 9 990 57 10000 3.1 320 04:20 25.12.2019
5661 Clouds 9 991 61 10000 2.6 50 03:43 25.12.2019
5662 Clouds 10 991 57 10000 3.6 90 02:56 25.12.2019
5663 Clouds 10 991 57 10000 3.6 90 02:27 25.12.2019
5664 Clouds 10 991 57 10000 5.1 230 01:26 25.12.2019
5665 Clouds 10 991 57 10000 5.1 230 00:56 25.12.2019
5666 Clouds 10 991 57 10000 5.1 230 00:33 25.12.2019
5667 Clouds 10 991 57 10000 6.7 230 23:58 24.12.2019
5668 Clouds 10 991 57 10000 6.7 230 23:39 24.12.2019
5669 Clouds 10 991 57 10000 6.7 230 23:20 24.12.2019
5670 Clouds 9 991 57 10000 6.2 230 22:41 24.12.2019
5671 Clouds 10 991 57 10000 6.2 230 22:23 24.12.2019
5672 Clouds 11 991 53 10000 9.3 230 21:44 24.12.2019
5673 Clouds 11 991 53 10000 9.3 230 21:23 24.12.2019
5674 Clouds 12 991 53 10000 8.7 230 20:59 24.12.2019
5675 Clouds 12 991 53 10000 8.7 230 20:41 24.12.2019
5676 Clouds 12 991 53 10000 8.7 230 20:19 24.12.2019
5677 Clouds 11 991 57 10000 9.8 230 19:45 24.12.2019
5678 Clouds 11 991 57 10000 9.8 230 19:22 24.12.2019
5679 Clouds 11 991 56 10000 6.7 230 18:58 24.12.2019
5680 Clouds 11 991 56 10000 6.7 230 18:40 24.12.2019
5681 Clouds 11 991 56 10000 6.7 230 18:18 24.12.2019
5682 Clouds 11 991 56 10000 3.1 230 17:42 24.12.2019
5683 Clouds 11 991 52 10000 3.1 230 17:21 24.12.2019
5684 Clouds 11 991 50 10000 2.87 298 16:58 24.12.2019
5685 Clouds 11 991 50 10000 2.87 298 16:58 24.12.2019
5686 Clouds 11 991 50 10000 2.87 298 16:39 24.12.2019
5687 Clouds 11 991 50 10000 2.87 298 16:20 24.12.2019
5688 Clouds 10 991 70 10000 2.87 298 15:56 24.12.2019
5689 Clouds 10 991 70 10000 2.87 298 15:36 24.12.2019
5690 Clouds 10 991 70 10000 2.87 298 15:18 24.12.2019
5691 Clouds 9 991 70 10000 2.87 298 14:57 24.12.2019
5692 Clouds 9 991 70 10000 2.87 298 14:39 24.12.2019
5693 Clouds 9 991 70 10000 2.41 330 14:21 24.12.2019
5694 Clouds 8 991 61 10000 2.41 330 13:56 24.12.2019
5695 Clouds 8 991 61 10000 2.41 330 13:37 24.12.2019
5696 Clouds 8 991 61 10000 2.41 330 13:19 24.12.2019
5697 Clouds 8 991 61 10000 2.32 326 13:19 24.12.2019
5698 Clouds 7 991 70 10000 2.32 326 12:56 24.12.2019
5699 Clouds 7 991 70 10000 2.32 326 12:37 24.12.2019
5700 Clouds 7 991 70 10000 2.32 326 12:19 24.12.2019
5701 Clouds 7 991 70 10000 2.32 326 12:19 24.12.2019
5702 Clouds 6 991 70 10000 2.32 326 11:56 24.12.2019
5703 Clouds 6 991 70 10000 2.32 326 11:37 24.12.2019
5704 Clouds 6 991 70 10000 1.97 341 11:19 24.12.2019
5705 Clouds 4 990 86 10000 1.97 341 10:56 24.12.2019
5706 Clouds 4 990 86 10000 1.97 341 10:37 24.12.2019
5707 Clouds 4 990 86 10000 1.97 341 10:19 24.12.2019
5708 Clouds 4 990 80 10000 1.97 341 09:55 24.12.2019
5709 Clouds 4 990 80 10000 1.97 341 09:37 24.12.2019
5710 Clouds 4 990 80 10000 1.97 341 09:19 24.12.2019
5711 Clouds 5 990 80 10000 3.1 230 08:45 24.12.2019
5712 Clouds 5 990 80 10000 3.1 230 08:24 24.12.2019
5713 Clouds 5 991 80 10000 2.1 230 07:46 24.12.2019
5714 Clouds 5 991 80 10000 2.1 230 07:26 24.12.2019
5715 Clouds 5 991 80 10000 2.1 320 06:58 24.12.2019
5716 Clouds 5 991 80 10000 2.1 320 06:38 24.12.2019
5717 Clouds 5 991 80 10000 2.1 320 06:19 24.12.2019
5718 Clouds 5 991 86 10000 2.1 320 05:46 24.12.2019
5719 Clouds 5 991 86 10000 2.1 320 05:18 24.12.2019
5720 Clouds 6 991 81 10000 3.1 270 03:55 24.12.2019
5721 Clouds 6 991 81 10000 3.1 270 03:25 24.12.2019
5722 Clouds 6 991 81 10000 5.1 250 02:25 24.12.2019
5723 Clouds 7 990 75 10000 2.6 290 01:52 24.12.2019
5724 Clouds 7 990 75 10000 2.6 290 01:23 24.12.2019
5725 Rain 6 990 81 10000 8.7 250 00:47 24.12.2019
5726 Rain 6 990 81 10000 8.7 250 00:26 24.12.2019
5727 Rain 7 989 81 10000 13.9 230 23:59 23.12.2019
5728 Rain 7 989 81 10000 13.9 230 23:41 23.12.2019
5729 Rain 7 989 81 10000 13.9 230 23:23 23.12.2019
5730 Clouds 10 988 53 10000 12.9 230 22:56 23.12.2019
5731 Clouds 10 988 53 10000 12.9 230 22:56 23.12.2019
5732 Clouds 10 988 53 10000 12.9 230 22:56 23.12.2019
5733 Clouds 10 988 53 10000 12.9 230 22:37 23.12.2019
5734 Clouds 10 988 53 10000 12.9 230 22:19 23.12.2019
5735 Clouds 10 988 55 10000 10.3 230 21:55 23.12.2019
5736 Clouds 10 988 55 10000 10.3 230 21:36 23.12.2019
5737 Clouds 10 988 55 10000 10.3 230 21:18 23.12.2019
5738 Clouds 10 987 87 10000 11.8 230 20:57 23.12.2019
5739 Clouds 10 987 87 10000 11.8 230 20:39 23.12.2019
5740 Clouds 10 987 87 10000 11.8 230 20:18 23.12.2019
5741 Clouds 9 987 93 10000 10.3 230 19:56 23.12.2019
5742 Clouds 9 987 93 10000 10.3 230 19:56 23.12.2019
5743 Clouds 9 987 93 10000 10.3 230 19:38 23.12.2019
5744 Clouds 9 987 93 10000 10.3 230 19:19 23.12.2019
5745 Clouds 9 987 93 10000 10.3 230 19:19 23.12.2019
5746 Rain 10 986 81 10000 13.4 230 18:57 23.12.2019
5747 Rain 10 986 81 10000 13.4 230 18:38 23.12.2019
5748 Rain 10 986 81 10000 13.4 230 18:20 23.12.2019
5749 Rain 9 986 87 10000 13.9 230 17:56 23.12.2019
5750 Rain 9 986 87 10000 13.9 230 17:37 23.12.2019
5751 Rain 9 986 87 10000 13.9 230 17:19 23.12.2019
5752 Drizzle 9 986 87 10000 10.3 230 16:54 23.12.2019
5753 Drizzle 9 986 87 10000 10.3 230 16:36 23.12.2019
5754 Drizzle 9 986 87 10000 10.3 230 16:18 23.12.2019
5755 Clouds 9 986 81 10000 9.3 230 15:55 23.12.2019
5756 Clouds 9 986 81 10000 9.3 230 15:36 23.12.2019
5757 Clouds 9 986 81 10000 9.3 230 15:18 23.12.2019
5758 Drizzle 9 985 81 10000 10.3 230 14:42 23.12.2019
5759 Drizzle 9 985 81 10000 10.3 230 14:24 23.12.2019
5760 Clouds 8 984 81 10000 14.4 230 13:59 23.12.2019
5761 Clouds 8 984 81 10000 14.4 230 13:41 23.12.2019
5762 Clouds 8 984 81 10000 14.4 230 13:22 23.12.2019
5763 Clouds 7 984 81 10000 7.7 230 12:58 23.12.2019
5764 Clouds 7 984 81 10000 7.7 230 12:58 23.12.2019
5765 Clouds 7 984 81 10000 7.7 230 12:39 23.12.2019
5766 Clouds 7 984 81 10000 7.7 230 12:20 23.12.2019
5767 Clouds 7 984 81 10000 9.3 230 11:55 23.12.2019
5768 Clouds 7 984 81 10000 9.3 230 11:37 23.12.2019
5769 Clouds 7 984 81 10000 9.3 230 11:18 23.12.2019
5770 Rain 7 982 75 10000 14.4 230 10:54 23.12.2019
5771 Rain 7 982 75 10000 14.4 230 10:36 23.12.2019
5772 Rain 7 982 75 10000 14.4 230 10:18 23.12.2019
5773 Rain 7 981 75 10000 15.4 230 09:40 23.12.2019
5774 Rain 7 981 75 10000 15.4 230 09:22 23.12.2019
5775 Rain 7 978 70 10000 15.9 230 08:58 23.12.2019
5776 Rain 7 978 70 10000 15.9 230 08:40 23.12.2019
5777 Rain 7 978 70 10000 15.9 230 08:22 23.12.2019
5778 Rain 9 976 81 10000 18.5 230 07:48 23.12.2019
5779 Rain 9 976 81 10000 18.5 230 07:21 23.12.2019
5780 Clouds 9 975 76 10000 12.3 230 06:57 23.12.2019
5781 Clouds 9 975 76 10000 12.3 230 06:27 23.12.2019
5782 Clouds 11 974 62 10000 5.99 229 05:56 23.12.2019
5783 Clouds 11 974 62 10000 5.99 229 05:29 23.12.2019
5784 Clouds 11 974 66 10000 6.2 320 04:34 23.12.2019
5785 Clouds 10 974 71 10000 3.1 340 03:28 23.12.2019
5786 Clouds 10 975 71 10000 1.5 180 02:43 23.12.2019
5787 Clouds 10 975 71 10000 1.5 180 02:19 23.12.2019
5788 Clouds 10 976 76 10000 2.6 50 01:44 23.12.2019
5789 Clouds 10 976 76 10000 2.6 50 01:26 23.12.2019
5790 Clouds 11 976 66 10000 4.6 180 00:44 23.12.2019
5791 Clouds 11 976 66 10000 4.6 180 00:44 23.12.2019
5792 Clouds 11 976 66 10000 4.6 180 00:23 23.12.2019
5793 Clouds 12 976 54 10000 6.7 180 23:40 22.12.2019
5794 Thunderstorm 13 977 47 8000 11.3 230 23:22 22.12.2019
5795 Thunderstorm 13 977 47 8000 11.3 230 23:22 22.12.2019
5796 Rain 14 975 44 10000 3.6 90 22:58 22.12.2019
5797 Rain 14 975 44 10000 3.6 90 22:40 22.12.2019
5798 Rain 14 975 44 10000 3.6 90 22:22 22.12.2019
5799 Clouds 11 977 66 10000 9.3 320 21:59 22.12.2019
5800 Clouds 11 977 66 10000 9.3 320 21:40 22.12.2019
5801 Clouds 11 977 66 10000 9.3 320 21:21 22.12.2019
5802 Clouds 11 977 66 10000 9.3 320 21:21 22.12.2019
5803 Clouds 11 977 66 10000 2.6 230 20:59 22.12.2019
5804 Clouds 11 977 66 10000 2.6 230 20:39 22.12.2019
5805 Clouds 11 977 66 10000 2.6 230 20:19 22.12.2019
5806 Clouds 11 979 71 10000 4.6 50 19:57 22.12.2019
5807 Clouds 11 979 71 10000 4.6 50 19:39 22.12.2019
5808 Clouds 11 979 71 10000 4.6 50 19:19 22.12.2019
5809 Drizzle 10 979 76 10000 5.7 160 18:42 22.12.2019
5810 Drizzle 10 979 76 10000 5.7 160 18:24 22.12.2019
5811 Clouds 11 979 71 10000 2.6 230 17:56 22.12.2019
5812 Clouds 11 979 71 10000 2.6 230 17:38 22.12.2019
5813 Clouds 11 979 71 10000 2.6 230 17:19 22.12.2019
5814 Clouds 11 979 71 10000 2.6 230 17:19 22.12.2019
5815 Drizzle 11 981 66 10000 3.1 270 16:57 22.12.2019
5816 Drizzle 11 981 66 10000 3.1 270 16:39 22.12.2019
5817 Drizzle 11 981 66 10000 3.1 270 16:21 22.12.2019
5818 Drizzle 9 982 57 10000 8.7 320 15:56 22.12.2019
5819 Drizzle 9 982 57 10000 8.7 320 15:38 22.12.2019
5820 Drizzle 8 985 79 10000 9.3 320 15:20 22.12.2019
5821 Drizzle 8 985 79 10000 9.3 320 14:55 22.12.2019
5822 Drizzle 8 985 79 10000 9.3 320 14:37 22.12.2019
5823 Drizzle 8 985 94 10000 9.3 320 14:18 22.12.2019
5824 Drizzle 8 985 94 10000 9.3 320 14:18 22.12.2019
5825 Clouds 8 988 61 10000 5.7 320 13:55 22.12.2019
5826 Clouds 8 988 61 10000 5.7 320 13:37 22.12.2019
5827 Clouds 8 988 61 10000 5.7 320 13:18 22.12.2019
5828 Drizzle 9 990 57 10000 8.2 360 12:56 22.12.2019
5829 Drizzle 9 990 57 10000 8.2 360 12:37 22.12.2019
5830 Drizzle 9 990 57 10000 8.2 360 12:18 22.12.2019
5831 Drizzle 9 992 57 10000 5.1 360 11:56 22.12.2019
5832 Drizzle 9 992 57 10000 5.1 360 11:38 22.12.2019
5833 Drizzle 9 992 57 10000 5.1 360 11:18 22.12.2019
5834 Clouds 8 994 65 10000 8.7 320 10:55 22.12.2019
5835 Clouds 8 994 65 10000 8.7 320 10:36 22.12.2019
5836 Clouds 8 994 65 10000 8.7 320 10:18 22.12.2019
5837 Clouds 5 995 86 10000 3.6 320 09:57 22.12.2019
5838 Clouds 5 995 86 10000 3.6 320 09:38 22.12.2019
5839 Clouds 5 995 86 10000 3.6 320 09:20 22.12.2019
5840 Clouds 5 995 86 10000 2.92 2 08:42 22.12.2019
5841 Clouds 5 995 86 10000 2.04 2 08:21 22.12.2019
5842 Clouds 6 996 81 10000 3.1 90 07:42 22.12.2019
5843 Clouds 6 996 81 10000 3.1 90 07:21 22.12.2019
5844 Clouds 7 996 70 10000 1.92 357 06:52 22.12.2019
5845 Clouds 7 996 70 10000 1.92 357 06:22 22.12.2019
5846 Clouds 7 996 70 10000 2.6 270 05:29 22.12.2019
5847 Clouds 7 996 75 10000 7.2 230 04:46 22.12.2019
5848 Clouds 7 996 75 10000 7.2 230 04:46 22.12.2019
5849 Clouds 7 996 75 10000 7.2 230 04:24 22.12.2019
5850 Clouds 8 995 65 10000 8.7 230 02:43 22.12.2019
5851 Clouds 8 995 65 10000 8.7 230 02:20 22.12.2019
5852 Clouds 8 993 65 10000 11.8 230 01:31 22.12.2019
5853 Rain 9 992 57 10000 12.9 230 00:54 22.12.2019
5854 Rain 9 992 57 10000 12.9 230 00:36 22.12.2019
5855 Rain 9 992 57 10000 12.9 230 00:18 22.12.2019
5856 Rain 10 991 61 10000 11.8 230 23:40 21.12.2019
5857 Rain 10 991 61 10000 11.8 230 23:21 21.12.2019
5858 Clouds 10 990 66 10000 10.8 230 22:47 21.12.2019
5859 Clouds 10 990 66 10000 10.8 230 22:20 21.12.2019
5860 Rain 10 989 66 10000 14.9 230 21:58 21.12.2019
5861 Rain 10 989 66 10000 14.9 230 21:40 21.12.2019
5862 Rain 10 989 66 10000 14.9 230 21:21 21.12.2019
5863 Clouds 11 988 62 10000 13.4 230 20:59 21.12.2019
5864 Clouds 11 988 62 10000 13.4 230 20:59 21.12.2019
5865 Clouds 11 988 62 10000 13.4 230 20:41 21.12.2019
5866 Clouds 11 988 62 10000 13.4 230 20:22 21.12.2019
5867 Clouds 12 987 58 10000 8.2 230 19:59 21.12.2019
5868 Clouds 12 987 58 10000 8.2 230 19:41 21.12.2019
5869 Clouds 12 987 58 10000 8.2 230 19:20 21.12.2019
5870 Clouds 12 987 58 10000 10.8 230 18:59 21.12.2019
5871 Clouds 12 987 58 10000 10.8 230 18:40 21.12.2019
5872 Clouds 15 987 58 10000 10.8 230 18:22 21.12.2019
5873 Rain 15 986 50 10000 12.3 230 17:55 21.12.2019
5874 Rain 15 986 50 10000 12.3 230 17:37 21.12.2019
5875 Rain 15 986 50 10000 12.3 230 17:18 21.12.2019
5876 Rain 15 987 47 10000 4.6 320 16:54 21.12.2019
5877 Rain 15 987 47 10000 4.6 320 16:36 21.12.2019
5878 Rain 15 987 47 10000 4.6 320 16:36 21.12.2019
5879 Rain 15 987 47 10000 4.6 320 16:18 21.12.2019
5880 Clouds 15 987 51 10000 7.7 320 15:55 21.12.2019
5881 Clouds 15 987 51 10000 7.7 320 15:36 21.12.2019
5882 Clouds 15 987 51 10000 7.7 320 15:18 21.12.2019
5883 Rain 15 987 47 10000 8.7 320 14:40 21.12.2019
5884 Rain 15 987 47 10000 8.7 320 14:40 21.12.2019
5885 Rain 15 987 47 10000 8.7 320 14:22 21.12.2019
5886 Rain 15 987 47 10000 8.7 320 14:22 21.12.2019
5887 Rain 14 987 50 10000 10.8 320 13:57 21.12.2019
5888 Rain 14 987 50 10000 10.8 320 13:39 21.12.2019
5889 Rain 14 987 50 10000 10.8 320 13:19 21.12.2019
5890 Clouds 12 988 54 10000 7.7 320 12:56 21.12.2019
5891 Clouds 12 988 54 10000 7.7 320 12:38 21.12.2019
5892 Clouds 12 988 54 10000 7.7 320 12:38 21.12.2019
5893 Clouds 12 988 54 10000 7.7 320 12:19 21.12.2019
5894 Clouds 12 989 58 10000 4.1 320 11:45 21.12.2019
5895 Clouds 12 989 58 10000 4.1 320 11:26 21.12.2019
5896 Clouds 13 990 50 10000 5.7 320 10:58 21.12.2019
5897 Clouds 13 990 50 10000 5.7 320 10:39 21.12.2019
5898 Clouds 13 990 50 10000 5.7 320 10:21 21.12.2019
5899 Clouds 13 991 50 10000 7.7 360 09:57 21.12.2019
5900 Clouds 13 991 50 10000 7.7 360 09:39 21.12.2019
5901 Clouds 13 991 50 10000 7.7 360 09:19 21.12.2019
5902 Clouds 13 992 50 10000 9.3 360 08:47 21.12.2019
5903 Clouds 13 992 50 10000 9.3 360 08:26 21.12.2019
5904 Clouds 13 993 54 10000 8.2 320 07:47 21.12.2019
5905 Clouds 13 993 54 10000 8.2 320 07:23 21.12.2019
5906 Clouds 13 994 47 10000 8.2 320 06:49 21.12.2019
5907 Clouds 13 994 47 10000 8.2 320 06:31 21.12.2019
5908 Clouds 14 994 44 10000 6.7 320 05:59 21.12.2019
5909 Clouds 13 995 47 10000 7.2 340 04:59 21.12.2019
5910 Clouds 13 995 47 10000 7.2 340 04:33 21.12.2019
5911 Clouds 13 996 47 10000 8.2 320 03:56 21.12.2019
5912 Rain 13 996 47 10000 7.7 320 02:23 21.12.2019
5913 Clouds 13 997 47 10000 6.2 320 01:42 21.12.2019
5914 Clouds 13 997 47 10000 6.2 320 01:23 21.12.2019
5915 Drizzle 13 998 47 10000 6.7 340 00:39 21.12.2019
5916 Drizzle 13 998 47 10000 6.7 340 00:20 21.12.2019
5917 Drizzle 13 998 47 10000 9.3 340 23:39 20.12.2019
5918 Drizzle 13 998 47 10000 9.3 340 23:20 20.12.2019
5919 Drizzle 13 999 47 10000 7.7 360 22:57 20.12.2019
5920 Drizzle 13 999 47 10000 7.7 360 22:38 20.12.2019
5921 Drizzle 13 999 47 10000 7.7 360 22:18 20.12.2019
5922 Clouds 13 1000 54 10000 6.7 360 21:41 20.12.2019
5923 Clouds 15 1000 54 10000 6.7 360 21:21 20.12.2019
5924 Clouds 16 1001 71 10000 6.7 320 20:57 20.12.2019
5925 Clouds 16 1001 71 10000 6.7 320 20:38 20.12.2019
5926 Clouds 16 1001 55 10000 6.7 320 20:19 20.12.2019
5927 Clouds 16 1002 38 10000 5.1 320 19:42 20.12.2019
5928 Clouds 16 1002 38 10000 5.1 320 19:21 20.12.2019
5929 Clouds 15 1002 44 10000 1.5 0 18:58 20.12.2019
5930 Clouds 15 1002 44 10000 1.5 0 18:40 20.12.2019
5931 Clouds 14 1002 44 10000 1.5 0 18:21 20.12.2019
5932 Clouds 14 1002 44 10000 1.5 0 18:21 20.12.2019
5933 Clouds 14 1002 54 10000 5.76 325 17:56 20.12.2019
5934 Clouds 14 1002 54 10000 5.76 325 17:56 20.12.2019
5935 Clouds 14 1002 54 10000 5.76 325 17:38 20.12.2019
5936 Clouds 14 1002 54 10000 3.72 326 17:20 20.12.2019
5937 Clouds 13 1002 62 10000 3.72 326 16:56 20.12.2019
5938 Clouds 13 1002 62 10000 3.72 326 16:37 20.12.2019
5939 Clouds 13 1002 62 10000 3.72 326 16:19 20.12.2019
5940 Clouds 13 1002 62 10000 3.72 326 15:54 20.12.2019
5941 Clouds 13 1002 62 10000 3.72 326 15:54 20.12.2019
5942 Clouds 13 1002 62 10000 3.72 326 15:36 20.12.2019
5943 Clouds 13 1002 62 10000 3.72 326 15:36 20.12.2019
5944 Clouds 13 1002 62 10000 3.72 326 15:18 20.12.2019
5945 Clouds 11 1002 62 10000 3.1 230 14:42 20.12.2019
5946 Clouds 11 1002 62 10000 3.1 230 14:23 20.12.2019
5947 Clouds 10 1003 66 10000 6.2 230 13:57 20.12.2019
5948 Clouds 10 1003 66 10000 6.2 230 13:37 20.12.2019
5949 Clouds 10 1003 66 10000 6.2 230 13:18 20.12.2019
5950 Clouds 10 1003 66 10000 6.2 230 13:18 20.12.2019
5951 Clouds 8 1002 87 10000 9.8 230 12:55 20.12.2019
5952 Clouds 8 1002 87 10000 9.8 230 12:36 20.12.2019
5953 Clouds 8 1002 87 10000 9.8 230 12:18 20.12.2019
5954 Clouds 10 1002 53 10000 5.1 230 11:57 20.12.2019
5955 Clouds 10 1002 53 10000 5.1 230 11:38 20.12.2019
5956 Clouds 10 1002 53 10000 5.1 230 11:18 20.12.2019
5957 Clouds 10 1001 53 10000 3.6 290 10:55 20.12.2019
5958 Clouds 10 1001 53 10000 3.6 290 10:37 20.12.2019
5959 Clouds 10 1001 53 10000 3.6 290 10:19 20.12.2019
5960 Clouds 10 1001 53 10000 5.1 320 09:42 20.12.2019
5961 Clouds 10 1001 53 10000 5.1 320 09:21 20.12.2019
5962 Clouds 9 1001 61 10000 5.1 320 08:54 20.12.2019
5963 Clouds 9 1001 61 10000 5.1 320 08:54 20.12.2019
5964 Clouds 9 1001 61 10000 5.1 320 08:36 20.12.2019
5965 Clouds 9 1001 61 10000 5.1 320 08:18 20.12.2019
5966 Clouds 9 1001 61 10000 2.1 290 07:55 20.12.2019
5967 Clouds 9 1001 61 10000 2.1 290 07:36 20.12.2019
5968 Clouds 9 1001 61 10000 2.1 290 07:18 20.12.2019
5969 Clouds 9 1001 70 10000 2.1 160 06:43 20.12.2019
5970 Clouds 9 1001 70 10000 2.1 160 06:25 20.12.2019
5971 Clouds 9 1001 70 10000 2.6 110 05:47 20.12.2019
5972 Clouds 9 1002 70 10000 5.7 320 04:57 20.12.2019
5973 Clouds 10 1002 61 10000 2.1 140 03:48 20.12.2019
5974 Clouds 12 1001 40 10000 2.56 342 02:46 20.12.2019
5975 Clouds 12 1000 66 10000 1.39 120 01:59 20.12.2019
5976 Clouds 12 1000 66 10000 1.39 120 01:35 20.12.2019
5977 Clouds 12 1001 46 10000 2.1 230 00:54 20.12.2019
5978 Clouds 12 1001 46 10000 2.1 230 00:35 20.12.2019
5979 Clouds 12 1000 70 10000 1.7 91 23:57 19.12.2019
5980 Clouds 12 1000 70 10000 1.7 91 23:39 19.12.2019
5981 Clouds 12 1000 42 10000 3.19 233 23:19 19.12.2019
5982 Clouds 12 1000 42 10000 5.7 230 22:39 19.12.2019
5983 Clouds 12 1000 42 10000 5.7 230 22:21 19.12.2019
5984 Clouds 12 1000 46 10000 8.7 230 21:56 19.12.2019
5985 Clouds 12 1000 46 10000 8.7 230 21:38 19.12.2019
5986 Clouds 12 1000 46 10000 8.7 230 21:19 19.12.2019
5987 Clouds 12 999 50 10000 10.3 230 20:56 19.12.2019
5988 Clouds 12 999 50 10000 10.3 230 20:37 19.12.2019
5989 Clouds 12 999 50 10000 10.3 230 20:19 19.12.2019
5990 Clouds 11 999 53 10000 10.8 230 19:58 19.12.2019
5991 Clouds 11 999 53 10000 10.8 230 19:58 19.12.2019
5992 Clouds 11 999 53 10000 10.8 230 19:39 19.12.2019
5993 Clouds 11 999 53 10000 10.8 230 19:19 19.12.2019
5994 Clouds 11 999 53 10000 10.8 230 19:19 19.12.2019
5995 Clouds 11 999 53 10000 9.8 230 18:57 19.12.2019
5996 Clouds 11 999 53 10000 9.8 230 18:39 19.12.2019
5997 Clouds 11 999 53 10000 9.8 230 18:19 19.12.2019
5998 Clouds 11 998 57 10000 10.3 230 17:55 19.12.2019
5999 Clouds 11 998 57 10000 10.3 230 17:37 19.12.2019
6000 Clouds 11 998 57 10000 10.3 230 17:18 19.12.2019
6001 Clouds 11 998 61 10000 11.3 230 16:55 19.12.2019
6002 Clouds 11 998 61 10000 11.3 230 16:55 19.12.2019
6003 Clouds 11 998 61 10000 11.3 230 16:37 19.12.2019
6004 Clouds 11 998 61 10000 11.3 230 16:19 19.12.2019
6005 Clouds 10 997 61 10000 9.8 230 15:55 19.12.2019
6006 Clouds 10 997 61 10000 9.8 230 15:37 19.12.2019
6007 Clouds 10 997 61 10000 9.8 230 15:18 19.12.2019
6008 Clouds 8 996 70 10000 9.8 230 14:42 19.12.2019
6009 Clouds 8 996 70 10000 9.8 230 14:20 19.12.2019
6010 Drizzle 8 996 75 10000 9.8 230 13:58 19.12.2019
6011 Drizzle 8 996 75 10000 9.8 230 13:38 19.12.2019
6012 Drizzle 8 996 75 10000 9.8 230 13:19 19.12.2019
6013 Clouds 8 995 65 10000 5.1 230 12:57 19.12.2019
6014 Clouds 8 995 65 10000 5.1 230 12:39 19.12.2019
6015 Clouds 8 995 65 10000 5.1 230 12:19 19.12.2019
6016 Clouds 7 995 70 10000 5.7 270 11:58 19.12.2019
6017 Clouds 7 995 70 10000 5.7 270 11:40 19.12.2019
6018 Clouds 7 995 70 10000 5.7 270 11:18 19.12.2019
6019 Clouds 7 994 65 10000 6.2 250 10:58 19.12.2019
6020 Clouds 7 994 65 10000 6.2 250 10:38 19.12.2019
6021 Clouds 7 994 65 10000 6.2 250 10:20 19.12.2019
6022 Clouds 7 993 65 10000 6.2 250 09:54 19.12.2019
6023 Clouds 7 993 65 10000 6.2 250 09:36 19.12.2019
6024 Clouds 7 993 65 10000 6.2 250 09:18 19.12.2019
6025 Clouds 6 992 75 10000 7.2 250 08:41 19.12.2019
6026 Clouds 6 992 75 10000 7.2 250 08:19 19.12.2019
6027 Clouds 7 992 70 10000 6.7 250 07:58 19.12.2019
6028 Clouds 7 992 70 10000 6.7 250 07:38 19.12.2019
6029 Clouds 7 992 70 10000 6.7 250 07:20 19.12.2019
6030 Clouds 7 990 75 10000 10.3 230 06:50 19.12.2019
6031 Clouds 7 990 75 10000 10.3 230 06:30 19.12.2019
6032 Rain 7 990 75 10000 7.2 250 05:55 19.12.2019
6033 Rain 7 990 75 10000 7.2 250 05:36 19.12.2019
6034 Clouds 7 989 87 10000 7.2 230 04:52 19.12.2019
6035 Drizzle 7 988 87 10000 8.2 230 03:23 19.12.2019
6036 Rain 7 988 87 10000 7.7 230 02:24 19.12.2019
6037 Rain 8 987 87 8000 3.6 200 01:23 19.12.2019
6038 Drizzle 8 986 87 10000 3.1 180 00:44 19.12.2019
6039 Drizzle 8 986 87 10000 3.1 180 00:24 19.12.2019
6040 Drizzle 9 985 87 10000 3.1 140 23:58 18.12.2019
6041 Drizzle 9 985 87 10000 3.1 140 23:38 18.12.2019
6042 Drizzle 9 985 87 10000 3.1 140 23:19 18.12.2019
6043 Drizzle 9 984 87 10000 4.1 180 22:56 18.12.2019
6044 Drizzle 9 984 87 10000 4.1 180 22:37 18.12.2019
6045 Drizzle 9 984 87 10000 4.1 180 22:19 18.12.2019
6046 Drizzle 9 982 87 10000 5.1 180 21:56 18.12.2019
6047 Drizzle 9 982 87 10000 5.1 180 21:38 18.12.2019
6048 Drizzle 9 982 87 10000 5.1 180 21:19 18.12.2019
6049 Drizzle 9 982 87 10000 3.1 180 20:55 18.12.2019
6050 Drizzle 9 982 87 10000 3.1 180 20:37 18.12.2019
6051 Drizzle 9 982 87 10000 3.1 180 20:19 18.12.2019
6052 Drizzle 9 981 87 10000 4.1 180 19:55 18.12.2019
6053 Drizzle 9 981 87 10000 4.1 180 19:37 18.12.2019
6054 Drizzle 9 981 87 10000 4.1 180 19:18 18.12.2019
6055 Drizzle 9 981 87 10000 4.1 180 19:18 18.12.2019
6056 Drizzle 9 981 81 10000 4.1 180 18:44 18.12.2019
6057 Drizzle 9 981 81 10000 4.1 180 18:25 18.12.2019
6058 Drizzle 9 981 81 10000 4.1 180 18:25 18.12.2019
6059 Drizzle 8 980 100 10000 4.1 180 17:57 18.12.2019
6060 Drizzle 8 980 100 10000 4.1 180 17:39 18.12.2019
6061 Drizzle 8 980 100 10000 4.1 180 17:19 18.12.2019
6062 Drizzle 8 980 100 10000 4.1 180 17:19 18.12.2019
6063 Drizzle 8 979 93 10000 2.1 180 16:56 18.12.2019
6064 Drizzle 8 979 93 10000 2.1 180 16:56 18.12.2019
6065 Drizzle 8 979 93 10000 2.1 180 16:38 18.12.2019
6066 Drizzle 8 979 93 10000 2.1 180 16:20 18.12.2019
6067 Drizzle 9 980 93 10000 3.6 230 15:55 18.12.2019
6068 Drizzle 9 980 93 10000 3.6 230 15:37 18.12.2019
6069 Drizzle 9 980 93 10000 3.6 230 15:18 18.12.2019
6070 Drizzle 8 979 93 7000 3.1 230 14:42 18.12.2019
6071 Drizzle 8 979 93 7000 3.1 230 14:42 18.12.2019
6072 Drizzle 8 980 93 10000 1.16 168 14:22 18.12.2019
6073 Drizzle 8 979 93 10000 2.1 300 13:57 18.12.2019
6074 Drizzle 8 979 93 10000 2.1 300 13:38 18.12.2019
6075 Clouds 8 981 93 10000 0.73 163 13:20 18.12.2019
6076 Drizzle 8 980 93 10000 0.73 163 12:58 18.12.2019
6077 Drizzle 8 980 93 10000 0.73 163 12:38 18.12.2019
6078 Drizzle 8 980 93 10000 0.73 163 12:20 18.12.2019
6079 Drizzle 7 980 93 10000 0.73 163 11:56 18.12.2019
6080 Drizzle 7 980 93 10000 0.73 163 11:38 18.12.2019
6081 Drizzle 7 980 93 10000 1.41 131 11:19 18.12.2019
6082 Drizzle 7 980 93 10000 1.41 131 11:19 18.12.2019
6083 Drizzle 8 980 93 10000 1.41 131 10:55 18.12.2019
6084 Drizzle 8 980 93 10000 1.41 131 10:37 18.12.2019
6085 Drizzle 8 980 93 10000 1.41 131 10:19 18.12.2019
6086 Clouds 8 981 93 10000 2.1 50 09:50 18.12.2019
6087 Clouds 8 981 93 10000 2.1 50 09:50 18.12.2019
6088 Clouds 8 981 93 10000 2.1 50 09:18 18.12.2019
6089 Clouds 8 981 93 10000 3.1 90 08:41 18.12.2019
6090 Clouds 8 981 93 10000 3.1 90 08:22 18.12.2019
6091 Drizzle 8 982 93 10000 3.6 50 07:45 18.12.2019
6092 Drizzle 8 982 93 10000 3.6 50 07:24 18.12.2019
6093 Drizzle 8 982 93 10000 4.1 90 06:57 18.12.2019
6094 Drizzle 8 982 93 10000 4.1 90 06:28 18.12.2019
6095 Drizzle 8 983 93 10000 4.6 90 05:57 18.12.2019
6096 Drizzle 8 983 93 10000 4.6 90 05:22 18.12.2019
6097 Rain 9 984 81 10000 1.48 121 03:31 18.12.2019
6098 Rain 10 984 76 10000 2.6 230 02:38 18.12.2019
6099 Rain 10 984 76 10000 2.6 230 02:20 18.12.2019
6100 Rain 10 984 76 10000 1.5 250 01:42 18.12.2019
6101 Clouds 10 984 76 10000 2.6 270 01:23 18.12.2019
6102 Clouds 11 984 71 10000 6.2 230 00:42 18.12.2019
6103 Clouds 11 984 71 10000 6.2 230 00:23 18.12.2019
6104 Drizzle 11 984 66 10000 3.1 230 23:57 17.12.2019
6105 Drizzle 11 984 66 10000 3.1 230 23:39 17.12.2019
6106 Drizzle 12 984 66 10000 3.1 230 23:19 17.12.2019
6107 Drizzle 13 984 62 10000 3.1 230 22:56 17.12.2019
6108 Drizzle 13 984 62 10000 3.1 230 22:38 17.12.2019
6109 Drizzle 13 984 62 10000 3.1 230 22:19 17.12.2019
6110 Clouds 14 984 62 10000 1.5 230 21:55 17.12.2019
6111 Clouds 14 984 62 10000 1.5 230 21:37 17.12.2019
6112 Clouds 14 984 62 10000 1.5 230 21:19 17.12.2019
6113 Clouds 12 985 58 10000 1.5 140 20:57 17.12.2019
6114 Clouds 12 985 58 10000 1.5 140 20:38 17.12.2019
6115 Clouds 12 985 58 10000 1.5 140 20:18 17.12.2019
6116 Clouds 12 985 58 10000 1.5 140 20:18 17.12.2019
6117 Clouds 13 985 62 10000 2.6 50 19:56 17.12.2019
6118 Clouds 13 985 62 10000 2.6 50 19:37 17.12.2019
6119 Clouds 13 985 62 10000 2.6 50 19:18 17.12.2019
6120 Clouds 13 985 62 10000 2.6 50 19:18 17.12.2019
6121 Clouds 11 986 62 10000 4.1 50 18:54 17.12.2019
6122 Clouds 11 986 62 10000 4.1 50 18:36 17.12.2019
6123 Clouds 11 986 62 10000 4.1 50 18:18 17.12.2019
6124 Clouds 11 987 66 10000 3.1 50 17:42 17.12.2019
6125 Clouds 11 987 66 10000 3.1 50 17:20 17.12.2019
6126 Clouds 10 987 62 10000 3.1 50 16:56 17.12.2019
6127 Clouds 10 987 62 10000 3.1 50 16:38 17.12.2019
6128 Clouds 10 987 62 10000 3.1 50 16:19 17.12.2019
6129 Clouds 9 988 66 10000 2.34 341 15:58 17.12.2019
6130 Clouds 9 988 66 10000 2.34 341 15:37 17.12.2019
6131 Clouds 9 988 66 10000 2.34 341 15:19 17.12.2019
6132 Clouds 9 988 66 10000 2.34 341 14:56 17.12.2019
6133 Clouds 9 988 66 10000 2.34 341 14:37 17.12.2019
6134 Clouds 9 988 66 10000 2.45 0 14:18 17.12.2019
6135 Clouds 9 988 66 10000 2.45 0 14:18 17.12.2019
6136 Clouds 9 988 66 10000 2.45 0 14:18 17.12.2019
6137 Clouds 8 990 70 10000 3.6 140 13:56 17.12.2019
6138 Clouds 8 990 70 10000 3.6 140 13:38 17.12.2019
6139 Clouds 8 990 70 10000 3.6 140 13:18 17.12.2019
6140 Clouds 7 990 70 10000 2.63 343 12:55 17.12.2019
6141 Clouds 7 990 70 10000 2.63 343 12:37 17.12.2019
6142 Clouds 7 990 70 10000 2.63 343 12:18 17.12.2019
6143 Drizzle 6 992 87 10000 2.63 343 11:55 17.12.2019
6144 Drizzle 6 992 87 10000 2.63 343 11:36 17.12.2019
6145 Drizzle 6 992 87 10000 2.92 4 11:18 17.12.2019
6146 Drizzle 6 992 87 10000 2.92 4 11:18 17.12.2019
6147 Drizzle 6 993 70 10000 2.1 140 10:55 17.12.2019
6148 Drizzle 6 993 70 10000 2.1 140 10:36 17.12.2019
6149 Drizzle 6 993 70 10000 2.1 140 10:18 17.12.2019
6150 Clouds 6 994 70 10000 2.6 320 09:42 17.12.2019
6151 Clouds 6 994 70 10000 2.6 320 09:21 17.12.2019
6152 Drizzle 6 995 70 10000 5.7 360 08:58 17.12.2019
6153 Drizzle 6 995 70 10000 5.7 360 08:39 17.12.2019
6154 Drizzle 6 995 70 10000 5.7 360 08:21 17.12.2019
6155 Drizzle 6 996 92 10000 3.13 19 07:57 17.12.2019
6156 Drizzle 6 996 92 10000 3.13 19 07:38 17.12.2019
6157 Drizzle 6 996 92 10000 3.13 19 07:18 17.12.2019
6158 Clouds 6 998 92 10000 2.1 320 06:36 17.12.2019
6159 Clouds 6 998 92 10000 2.1 320 06:18 17.12.2019
6160 Clouds 6 999 92 10000 5.1 230 05:38 17.12.2019
6161 Clouds 6 1000 96 10000 3.1 50 04:46 17.12.2019
6162 Clouds 7 1002 56 10000 1.6 59 02:47 17.12.2019
6163 Clouds 3 1002 79 0 0.91 116 01:56 17.12.2019
6164 Clouds 7 1004 80 10000 5.7 230 01:20 17.12.2019
6165 Clouds 7 1004 80 10000 5.7 230 00:38 17.12.2019
6166 Clouds 8 1004 80 10000 5.7 230 00:20 17.12.2019
6167 Clouds 8 1004 70 10000 7.7 230 23:42 16.12.2019
6168 Clouds 8 1004 70 10000 7.7 230 23:19 16.12.2019
6169 Clouds 7 1004 75 10000 8.7 230 22:58 16.12.2019
6170 Clouds 7 1004 75 10000 8.7 230 22:38 16.12.2019
6171 Clouds 7 1004 75 10000 8.7 230 22:20 16.12.2019
6172 Clouds 7 1004 75 10000 8.7 230 22:20 16.12.2019
6173 Clouds 7 1004 81 10000 11.3 230 21:56 16.12.2019
6174 Clouds 7 1004 81 10000 11.3 230 21:38 16.12.2019
6175 Clouds 7 1004 81 10000 11.3 230 21:20 16.12.2019
6176 Clouds 7 1005 81 10000 7.2 230 20:58 16.12.2019
6177 Clouds 7 1005 81 10000 7.2 230 20:38 16.12.2019
6178 Clouds 7 1005 81 10000 7.2 230 20:19 16.12.2019
6179 Clouds 7 1004 81 10000 9.8 230 19:56 16.12.2019
6180 Clouds 7 1004 81 10000 9.8 230 19:37 16.12.2019
6181 Clouds 7 1004 81 10000 9.8 230 19:19 16.12.2019
6182 Clouds 8 1005 87 10000 10.3 230 18:56 16.12.2019
6183 Clouds 8 1005 87 10000 10.3 230 18:56 16.12.2019
6184 Clouds 8 1005 87 10000 10.3 230 18:38 16.12.2019
6185 Clouds 8 1005 87 10000 10.3 230 18:19 16.12.2019
6186 Clouds 7 1004 87 10000 9.8 230 17:57 16.12.2019
6187 Clouds 7 1004 87 10000 9.8 230 17:38 16.12.2019
6188 Clouds 7 1004 87 10000 9.8 230 17:20 16.12.2019
6189 Clouds 7 1004 87 10000 9.8 230 17:20 16.12.2019
6190 Clouds 6 1004 81 10000 8.7 230 16:57 16.12.2019
6191 Clouds 6 1004 81 10000 8.7 230 16:38 16.12.2019
6192 Clouds 6 1004 81 10000 8.7 230 16:19 16.12.2019
6193 Clouds 7 1004 87 10000 9.8 230 15:57 16.12.2019
6194 Clouds 7 1004 87 10000 9.8 230 15:38 16.12.2019
6195 Clouds 7 1004 87 10000 9.8 230 15:20 16.12.2019
6196 Clouds 5 1004 81 10000 8.7 230 14:55 16.12.2019
6197 Clouds 5 1004 81 10000 8.7 230 14:37 16.12.2019
6198 Clouds 5 1004 81 10000 8.7 230 14:18 16.12.2019
6199 Clouds 5 1004 81 10000 8.7 230 14:18 16.12.2019
6200 Drizzle 4 1004 80 10000 9.8 230 13:56 16.12.2019
6201 Drizzle 4 1004 80 10000 9.8 230 13:37 16.12.2019
6202 Drizzle 4 1004 80 10000 9.8 230 13:19 16.12.2019
6203 Drizzle 3 1004 86 10000 11.3 230 12:57 16.12.2019
6204 Drizzle 3 1004 86 10000 11.3 230 12:39 16.12.2019
6205 Drizzle 3 1004 86 10000 11.3 230 12:18 16.12.2019
6206 Drizzle 3 1003 86 10000 10.8 230 11:57 16.12.2019
6207 Drizzle 3 1003 86 10000 10.8 230 11:39 16.12.2019
6208 Drizzle 3 1003 86 10000 10.8 230 11:19 16.12.2019
6209 Drizzle 3 1003 90 10000 10.8 230 10:55 16.12.2019
6210 Drizzle 3 1003 90 10000 10.8 230 10:36 16.12.2019
6211 Drizzle 3 1003 90 10000 10.8 230 10:18 16.12.2019
6212 Rain 4 1002 90 10000 11.3 230 09:44 16.12.2019
6213 Rain 4 1002 90 10000 11.3 230 09:26 16.12.2019
6214 Clouds 4 1002 64 10000 11.8 230 08:41 16.12.2019
6215 Clouds 4 1002 64 10000 11.8 230 08:20 16.12.2019
6216 Drizzle 4 1002 69 10000 11.3 230 07:53 16.12.2019
6217 Drizzle 4 1002 69 10000 11.3 230 07:33 16.12.2019
6218 Drizzle 4 1002 89 10000 9.8 230 06:59 16.12.2019
6219 Drizzle 4 1002 89 10000 9.8 230 06:40 16.12.2019
6220 Drizzle 4 1002 89 10000 9.8 230 06:21 16.12.2019
6221 Drizzle 4 1001 89 10000 12.3 230 05:41 16.12.2019
6222 Drizzle 4 1001 89 10000 12.3 230 05:23 16.12.2019
6223 Rain 6 1000 75 10000 12.9 230 03:33 16.12.2019
6224 Rain 7 998 75 10000 13.4 230 01:52 16.12.2019
6225 Rain 7 998 75 10000 13.4 230 01:33 16.12.2019
6226 Rain 8 998 70 10000 13.9 230 00:41 16.12.2019
6227 Rain 8 998 70 10000 13.9 230 00:21 16.12.2019
6228 Rain 8 997 70 10000 12.9 230 23:57 15.12.2019
6229 Rain 8 997 70 10000 12.9 230 23:37 15.12.2019
6230 Rain 8 997 70 10000 12.9 230 23:19 15.12.2019
6231 Clouds 8 996 70 10000 14.4 230 22:54 15.12.2019
6232 Clouds 8 996 70 10000 14.4 230 22:36 15.12.2019
6233 Clouds 8 996 70 10000 14.4 230 22:18 15.12.2019
6234 Drizzle 10 995 66 10000 13.9 230 21:54 15.12.2019
6235 Drizzle 10 995 66 10000 13.9 230 21:36 15.12.2019
6236 Drizzle 10 995 66 10000 13.9 230 21:18 15.12.2019
6237 Drizzle 9 994 70 10000 12.3 230 20:54 15.12.2019
6238 Drizzle 9 994 70 10000 12.3 230 20:36 15.12.2019
6239 Drizzle 11 994 70 10000 12.3 230 20:18 15.12.2019
6240 Drizzle 11 994 66 10000 13.4 230 19:54 15.12.2019
6241 Drizzle 11 994 66 10000 13.4 230 19:36 15.12.2019
6242 Drizzle 11 994 66 10000 13.4 230 19:18 15.12.2019
6243 Drizzle 11 993 70 10000 12.9 230 18:54 15.12.2019
6244 Drizzle 11 993 70 10000 12.9 230 18:36 15.12.2019
6245 Drizzle 11 993 70 10000 12.9 230 18:18 15.12.2019
6246 Clouds 10 992 66 10000 12.9 230 17:54 15.12.2019
6247 Clouds 10 992 66 10000 12.9 230 17:36 15.12.2019
6248 Clouds 10 992 66 10000 12.9 230 17:18 15.12.2019
6249 Clouds 10 992 70 10000 11.3 230 16:42 15.12.2019
6250 Clouds 10 992 70 10000 11.3 230 16:22 15.12.2019
6251 Clouds 10 992 61 10000 13.4 230 15:57 15.12.2019
6252 Clouds 10 992 61 10000 13.4 230 15:38 15.12.2019
6253 Clouds 10 992 61 10000 13.4 230 15:19 15.12.2019
6254 Clouds 11 992 57 10000 10.8 230 14:56 15.12.2019
6255 Clouds 11 992 57 10000 10.8 230 14:37 15.12.2019
6256 Clouds 11 992 57 10000 10.8 230 14:19 15.12.2019
6257 Clouds 11 992 62 10000 12.3 230 13:58 15.12.2019
6258 Clouds 11 992 62 10000 12.3 230 13:38 15.12.2019
6259 Clouds 11 992 62 10000 12.3 230 13:19 15.12.2019
6260 Rain 10 992 81 10000 7.7 230 12:57 15.12.2019
6261 Rain 10 992 81 10000 7.7 230 12:39 15.12.2019
6262 Rain 10 992 81 10000 7.7 230 12:21 15.12.2019
6263 Clouds 9 992 70 10000 7.2 230 11:58 15.12.2019
6264 Clouds 9 992 70 10000 7.2 230 11:37 15.12.2019
6265 Clouds 9 992 70 10000 7.2 230 11:19 15.12.2019
6266 Clouds 9 992 70 10000 4.1 230 10:55 15.12.2019
6267 Clouds 9 992 70 10000 4.1 230 10:37 15.12.2019
6268 Clouds 9 992 70 10000 4.1 230 10:19 15.12.2019
6269 Clouds 8 992 81 10000 1.32 274 09:41 15.12.2019
6270 Clouds 8 992 81 10000 1.32 274 09:20 15.12.2019
6271 Clouds 9 992 70 10000 4.1 250 08:59 15.12.2019
6272 Clouds 9 992 70 10000 4.1 250 08:41 15.12.2019
6273 Clouds 9 992 70 10000 4.1 250 08:22 15.12.2019
6274 Clouds 9 992 70 10000 2.6 230 07:56 15.12.2019
6275 Clouds 9 992 70 10000 2.6 230 07:35 15.12.2019
6276 Clouds 9 992 76 10000 2.1 230 06:52 15.12.2019
6277 Clouds 9 992 76 10000 2.1 230 06:20 15.12.2019
6278 Clouds 9 991 76 10000 3.6 230 05:37 15.12.2019
6279 Clouds 9 991 76 10000 3.6 230 05:18 15.12.2019
6280 Clouds 10 992 71 10000 1.46 333 03:54 15.12.2019
6281 Clouds 11 992 66 10000 3.1 320 02:34 15.12.2019
6282 Clouds 11 991 62 10000 2.1 360 01:50 15.12.2019
6283 Clouds 11 991 62 10000 2.1 360 01:28 15.12.2019
6284 Clouds 12 992 62 10000 0.67 9 00:59 15.12.2019
6285 Clouds 12 992 62 10000 0.67 9 00:41 15.12.2019
6286 Clouds 12 992 62 10000 0.67 9 00:23 15.12.2019
6287 Drizzle 12 992 62 10000 1.5 90 23:40 14.12.2019
6288 Drizzle 12 992 62 10000 1.5 90 23:21 14.12.2019
6289 Clouds 12 992 62 10000 4.1 160 22:58 14.12.2019
6290 Clouds 12 992 62 10000 4.1 160 22:40 14.12.2019
6291 Clouds 12 992 62 10000 4.1 160 22:21 14.12.2019
6292 Clouds 12 992 58 10000 3.1 160 21:56 14.12.2019
6293 Clouds 12 992 58 10000 3.1 160 21:38 14.12.2019
6294 Clouds 12 992 58 10000 3.1 160 21:19 14.12.2019
6295 Rain 12 993 54 10000 4.1 70 20:57 14.12.2019
6296 Rain 12 993 54 10000 4.1 70 20:39 14.12.2019
6297 Rain 13 993 54 10000 4.1 70 20:19 14.12.2019
6298 Rain 13 993 50 10000 7.2 340 19:57 14.12.2019
6299 Rain 13 993 50 10000 7.2 340 19:37 14.12.2019
6300 Rain 13 993 50 10000 7.2 340 19:19 14.12.2019
6301 Clouds 12 993 47 10000 6.2 340 18:56 14.12.2019
6302 Clouds 12 993 47 10000 6.2 340 18:37 14.12.2019
6303 Clouds 12 993 47 10000 6.2 340 18:19 14.12.2019
6304 Clouds 12 993 47 10000 6.2 340 18:19 14.12.2019
6305 Clouds 11 994 54 10000 4.8 344 17:43 14.12.2019
6306 Clouds 11 994 54 10000 4.8 344 17:24 14.12.2019
6307 Clouds 10 995 62 10000 4.29 352 16:58 14.12.2019
6308 Clouds 10 995 62 10000 4.29 352 16:38 14.12.2019
6309 Clouds 10 995 62 10000 4.29 352 16:38 14.12.2019
6310 Clouds 10 995 62 10000 4.29 352 16:18 14.12.2019
6311 Clouds 9 995 81 10000 4.29 352 15:43 14.12.2019
6312 Clouds 9 995 81 10000 4.29 352 15:22 14.12.2019
6313 Clouds 11 996 81 10000 3.1 90 14:59 14.12.2019
6314 Clouds 11 996 81 10000 3.1 90 14:38 14.12.2019
6315 Clouds 11 996 81 10000 3.1 90 14:19 14.12.2019
6316 Clouds 10 997 81 10000 3.1 90 13:55 14.12.2019
6317 Clouds 10 997 81 10000 3.1 90 13:37 14.12.2019
6318 Clouds 10 997 81 10000 3.1 90 13:18 14.12.2019
6319 Clouds 8 997 81 10000 2.6 90 12:54 14.12.2019
6320 Clouds 8 997 81 10000 2.6 90 12:36 14.12.2019
6321 Clouds 8 997 81 10000 2.6 90 12:18 14.12.2019
6322 Clouds 7 998 93 10000 3.1 360 11:54 14.12.2019
6323 Clouds 7 998 93 10000 3.1 360 11:36 14.12.2019
6324 Clouds 7 998 93 10000 3.1 360 11:18 14.12.2019
6325 Clouds 6 998 93 10000 1.53 346 10:55 14.12.2019
6326 Clouds 6 998 93 10000 1.48 344 10:36 14.12.2019
6327 Clouds 6 998 93 10000 1.53 346 10:18 14.12.2019
6328 Clouds 6 998 93 10000 1.48 344 09:40 14.12.2019
6329 Clouds 6 998 93 10000 1.48 344 09:20 14.12.2019
6330 Clouds 7 997 87 10000 1.48 344 08:44 14.12.2019
6331 Clouds 7 997 87 10000 1.81 355 08:20 14.12.2019
6332 Clouds 6 998 100 10000 2.1 20 07:57 14.12.2019
6333 Clouds 6 998 100 10000 2.1 20 07:38 14.12.2019
6334 Clouds 6 998 100 10000 2.1 20 07:19 14.12.2019
6335 Clouds 7 998 87 10000 1.81 355 06:39 14.12.2019
6336 Clouds 7 998 87 10000 1.81 355 06:20 14.12.2019
6337 Clouds 7 998 93 10000 2.1 50 05:22 14.12.2019
6338 Clouds 8 997 75 10000 4.6 90 02:49 14.12.2019
6339 Clouds 8 997 75 10000 4.6 90 02:22 14.12.2019
6340 Drizzle 8 997 75 10000 6.2 90 01:43 14.12.2019
6341 Rain 8 997 81 10000 6.7 90 00:54 14.12.2019
6342 Rain 8 997 81 10000 6.7 90 00:36 14.12.2019
6343 Rain 8 997 81 10000 6.7 90 00:18 14.12.2019
6344 Clouds 9 997 70 10000 6.7 90 23:39 13.12.2019
6345 Clouds 9 997 70 10000 6.7 90 23:19 13.12.2019
6346 Rain 10 997 66 10000 5.7 70 22:55 13.12.2019
6347 Rain 10 997 66 10000 5.7 70 22:36 13.12.2019
6348 Rain 10 997 66 10000 5.7 70 22:18 13.12.2019
6349 Rain 10 997 66 10000 4.1 50 21:40 13.12.2019
6350 Rain 9 997 66 10000 4.1 50 21:21 13.12.2019
6351 Drizzle 8 997 70 10000 3.1 160 20:57 13.12.2019
6352 Drizzle 9 997 70 10000 3.1 160 20:38 13.12.2019
6353 Drizzle 9 997 70 10000 2.1 140 20:19 13.12.2019
6354 Drizzle 9 997 70 10000 2.1 140 19:56 13.12.2019
6355 Drizzle 9 997 70 10000 2.1 140 19:37 13.12.2019
6356 Drizzle 9 997 70 10000 2.1 140 19:18 13.12.2019
6357 Drizzle 8 996 70 10000 3.1 180 18:42 13.12.2019
6358 Drizzle 8 996 70 10000 3.1 180 18:20 13.12.2019
6359 Drizzle 8 996 70 10000 3.1 180 18:20 13.12.2019
6360 Rain 10 996 61 10000 2.6 230 17:59 13.12.2019
6361 Rain 10 996 61 10000 2.6 230 17:39 13.12.2019
6362 Rain 9 996 61 10000 2.6 230 17:18 13.12.2019
6363 Rain 9 996 61 10000 2.6 230 17:18 13.12.2019
6364 Drizzle 9 997 70 10000 7.7 360 16:56 13.12.2019
6365 Drizzle 9 997 70 10000 7.7 360 16:38 13.12.2019
6366 Drizzle 9 997 70 10000 7.7 360 16:19 13.12.2019
6367 Clouds 9 997 70 10000 6.7 360 15:42 13.12.2019
6368 Clouds 9 997 70 10000 6.7 360 15:21 13.12.2019
6369 Clouds 9 998 65 10000 3.65 356 14:57 13.12.2019
6370 Clouds 9 998 65 10000 3.65 356 14:37 13.12.2019
6371 Clouds 9 998 65 10000 2.57 17 14:18 13.12.2019
6372 Clouds 8 998 70 10000 2.57 17 13:43 13.12.2019
6373 Clouds 8 998 70 10000 3.03 13 13:24 13.12.2019
6374 Clouds 7 999 81 10000 3.03 13 12:57 13.12.2019
6375 Clouds 7 999 81 10000 3.03 13 12:39 13.12.2019
6376 Clouds 7 999 81 10000 3.03 13 12:18 13.12.2019
6377 Clouds 5 1000 80 10000 2.1 360 11:43 13.12.2019
6378 Clouds 5 1000 80 10000 2.1 360 11:25 13.12.2019
6379 Clouds 5 1000 80 10000 4.1 50 10:56 13.12.2019
6380 Clouds 5 1000 80 10000 4.1 50 10:38 13.12.2019
6381 Clouds 5 1000 80 10000 4.1 50 10:20 13.12.2019
6382 Clouds 4 1001 80 10000 6.2 70 09:42 13.12.2019
6383 Clouds 4 1001 80 10000 6.2 70 09:21 13.12.2019
6384 Clouds 4 1001 80 10000 3.1 50 08:45 13.12.2019
6385 Clouds 4 1001 80 10000 3.1 50 08:27 13.12.2019
6386 Clouds 4 1002 80 10000 5.1 70 07:50 13.12.2019
6387 Clouds 4 1002 80 10000 5.1 70 07:26 13.12.2019
6388 Clouds 5 1003 75 10000 4.1 90 06:57 13.12.2019
6389 Clouds 5 1003 75 10000 4.1 90 06:32 13.12.2019
6390 Clouds 5 1003 75 10000 4.6 70 05:52 13.12.2019
6391 Clouds 5 1003 75 10000 4.6 70 05:33 13.12.2019
6392 Drizzle 6 1004 70 10000 5.1 50 04:54 13.12.2019
6393 Drizzle 6 1004 70 10000 4.1 50 03:52 13.12.2019
6394 Clouds 8 1004 65 10000 3.1 140 02:35 13.12.2019
6395 Clouds 8 1004 65 10000 4.6 140 01:54 13.12.2019
6396 Clouds 8 1004 65 10000 4.6 140 01:27 13.12.2019
6397 Clouds 8 1003 61 10000 9.3 230 00:47 13.12.2019
6398 Clouds 8 1003 61 10000 9.3 230 00:26 13.12.2019
6399 Clouds 9 1003 61 10000 10.3 230 23:42 12.12.2019
6400 Clouds 9 1003 61 10000 10.3 230 23:24 12.12.2019
6401 Clouds 9 1003 66 10000 10.3 230 22:56 12.12.2019
6402 Clouds 9 1003 66 10000 10.3 230 22:38 12.12.2019
6403 Clouds 9 1003 66 10000 10.3 230 22:19 12.12.2019
6404 Clouds 10 1003 70 10000 12.3 230 21:56 12.12.2019
6405 Clouds 10 1003 70 10000 12.3 230 21:37 12.12.2019
6406 Clouds 10 1003 70 10000 12.3 230 21:19 12.12.2019
6407 Clouds 10 1003 66 10000 13.4 230 20:58 12.12.2019
6408 Clouds 10 1003 66 10000 13.4 230 20:40 12.12.2019
6409 Clouds 10 1003 66 10000 13.4 230 20:21 12.12.2019
6410 Clouds 9 1003 70 10000 11.3 230 19:56 12.12.2019
6411 Clouds 9 1003 70 10000 11.3 230 19:37 12.12.2019
6412 Clouds 9 1003 70 10000 11.3 230 19:18 12.12.2019
6413 Clouds 9 1002 66 10000 10.3 230 18:55 12.12.2019
6414 Clouds 9 1002 66 10000 10.3 230 18:37 12.12.2019
6415 Clouds 9 1002 66 10000 10.3 230 18:19 12.12.2019
6416 Clouds 8 1002 66 10000 11.3 230 17:55 12.12.2019
6417 Clouds 8 1002 66 10000 11.3 230 17:37 12.12.2019
6418 Clouds 8 1002 66 10000 11.3 230 17:19 12.12.2019
6419 Clouds 8 1002 70 10000 11.3 230 16:54 12.12.2019
6420 Clouds 8 1002 70 10000 11.3 230 16:36 12.12.2019
6421 Clouds 8 1002 70 10000 11.3 230 16:18 12.12.2019
6422 Clouds 6 1003 75 10000 9.8 230 15:42 12.12.2019
6423 Clouds 6 1003 75 10000 9.8 230 15:20 12.12.2019
6424 Clouds 6 1003 75 10000 9.8 230 15:20 12.12.2019
6425 Clouds 7 1003 81 10000 7.7 230 14:57 12.12.2019
6426 Clouds 7 1003 81 10000 7.7 230 14:57 12.12.2019
6427 Clouds 7 1003 81 10000 7.7 230 14:37 12.12.2019
6428 Clouds 7 1003 81 10000 7.7 230 14:19 12.12.2019
6429 Clouds 5 1004 93 10000 2.03 240 13:55 12.12.2019
6430 Clouds 5 1004 93 10000 2.03 240 13:37 12.12.2019
6431 Clouds 5 1004 93 10000 2.03 240 13:19 12.12.2019
6432 Drizzle 5 1004 93 10000 3.1 290 12:55 12.12.2019
6433 Drizzle 5 1004 93 10000 3.1 290 12:37 12.12.2019
6434 Drizzle 5 1004 93 10000 3.1 290 12:18 12.12.2019
6435 Rain 4 1004 86 10000 2.6 270 11:43 12.12.2019
6436 Rain 4 1004 86 10000 2.6 270 11:22 12.12.2019
6437 Rain 4 1004 86 10000 5.1 270 10:59 12.12.2019
6438 Rain 4 1004 86 10000 5.1 270 10:41 12.12.2019
6439 Rain 4 1004 86 10000 5.1 270 10:23 12.12.2019
6440 Drizzle 4 1004 86 10000 4.1 270 09:58 12.12.2019
6441 Drizzle 4 1004 86 10000 4.1 270 09:40 12.12.2019
6442 Drizzle 4 1004 86 10000 4.1 270 09:21 12.12.2019
6443 Drizzle 5 1003 80 10000 5.7 230 08:54 12.12.2019
6444 Drizzle 5 1003 80 10000 5.7 230 08:36 12.12.2019
6445 Drizzle 5 1003 80 10000 5.7 230 08:18 12.12.2019
6446 Drizzle 5 1003 80 10000 6.7 230 07:41 12.12.2019
6447 Drizzle 5 1003 80 10000 6.7 230 07:21 12.12.2019
6448 Drizzle 5 1003 80 10000 7.7 230 06:43 12.12.2019
6449 Drizzle 5 1003 80 10000 7.7 230 06:23 12.12.2019
6450 Drizzle 5 1003 80 10000 9.3 230 05:35 12.12.2019
6451 Rain 7 1004 81 10000 11.8 230 04:49 12.12.2019
6452 Clouds 7 1002 70 10000 14.4 230 02:44 12.12.2019
6453 Clouds 7 1002 70 10000 14.4 230 02:26 12.12.2019
6454 Clouds 9 1001 65 10000 12.9 230 01:59 12.12.2019
6455 Clouds 9 1001 65 10000 12.9 230 01:36 12.12.2019
6456 Rain 9 1001 61 10000 9.3 230 00:58 12.12.2019
6457 Rain 9 1001 61 10000 9.3 230 00:38 12.12.2019
6458 Rain 9 1001 61 10000 9.3 230 00:18 12.12.2019
6459 Clouds 10 1001 53 10000 8.2 230 23:40 11.12.2019
6460 Clouds 10 1001 53 10000 8.2 230 23:20 11.12.2019
6461 Clouds 10 1001 53 10000 8.7 230 22:57 11.12.2019
6462 Clouds 10 1001 53 10000 8.7 230 22:57 11.12.2019
6463 Clouds 10 1001 53 10000 8.7 230 22:38 11.12.2019
6464 Clouds 10 1001 53 10000 8.7 230 22:19 11.12.2019
6465 Clouds 10 1000 66 10000 7.7 230 21:56 11.12.2019
6466 Clouds 10 1000 66 10000 7.7 230 21:37 11.12.2019
6467 Clouds 10 1000 66 10000 7.7 230 21:37 11.12.2019
6468 Clouds 10 1000 66 10000 7.7 230 21:19 11.12.2019
6469 Clouds 10 1000 66 10000 7.7 230 21:19 11.12.2019
6470 Clouds 11 1000 53 10000 10.3 230 20:56 11.12.2019
6471 Clouds 11 1000 53 10000 10.3 230 20:37 11.12.2019
6472 Clouds 11 1000 53 10000 10.3 230 20:19 11.12.2019
6473 Clouds 11 1000 53 10000 9.8 230 19:57 11.12.2019
6474 Clouds 11 1000 53 10000 9.8 230 19:38 11.12.2019
6475 Clouds 11 1000 53 10000 9.8 230 19:18 11.12.2019
6476 Clouds 9 1000 61 10000 10.3 230 18:40 11.12.2019
6477 Clouds 9 1000 61 10000 10.3 230 18:21 11.12.2019
6478 Clouds 9 1000 57 10000 3.56 197 17:57 11.12.2019
6479 Clouds 9 1000 57 10000 3.56 197 17:38 11.12.2019
6480 Clouds 9 1000 57 10000 2.35 225 17:18 11.12.2019
6481 Clouds 9 1000 57 10000 7.7 200 16:57 11.12.2019
6482 Clouds 9 1000 57 10000 7.7 200 16:38 11.12.2019
6483 Clouds 9 1000 57 10000 7.7 200 16:20 11.12.2019
6484 Clouds 9 999 61 10000 7.7 230 15:58 11.12.2019
6485 Clouds 9 999 61 10000 7.7 230 15:39 11.12.2019
6486 Clouds 9 999 61 10000 7.7 230 15:20 11.12.2019
6487 Clouds 8 999 65 10000 5.1 200 14:56 11.12.2019
6488 Clouds 8 999 65 10000 5.1 200 14:37 11.12.2019
6489 Clouds 8 999 65 10000 5.1 200 14:37 11.12.2019
6490 Clouds 8 999 65 10000 5.1 200 14:19 11.12.2019
6491 Clouds 7 999 61 10000 5.1 230 13:54 11.12.2019
6492 Clouds 7 999 61 10000 5.1 230 13:36 11.12.2019
6493 Clouds 7 999 61 10000 5.1 230 13:18 11.12.2019
6494 Clouds 7 999 61 10000 5.1 230 12:54 11.12.2019
6495 Clouds 7 999 61 10000 5.1 230 12:36 11.12.2019
6496 Clouds 7 999 61 10000 5.1 230 12:18 11.12.2019
6497 Clouds 6 999 70 10000 1.1 239 11:55 11.12.2019
6498 Clouds 6 999 70 10000 1.1 239 11:37 11.12.2019
6499 Clouds 6 999 70 10000 1.08 343 11:18 11.12.2019
6500 Clouds 5 999 70 10000 2.1 270 10:41 11.12.2019
6501 Clouds 5 999 70 10000 2.1 270 10:23 11.12.2019
6502 Clouds 4 999 75 10000 2.1 230 09:58 11.12.2019
6503 Clouds 4 999 75 10000 2.1 230 09:38 11.12.2019
6504 Clouds 4 999 75 10000 2.1 230 09:20 11.12.2019
6505 Clouds 5 999 80 10000 3.6 270 08:56 11.12.2019
6506 Clouds 5 999 80 10000 3.6 270 08:37 11.12.2019
6507 Clouds 5 999 80 10000 3.6 270 08:18 11.12.2019
6508 Clouds 6 999 81 10000 2.1 230 07:44 11.12.2019
6509 Clouds 5 999 81 10000 2.1 230 07:25 11.12.2019
6510 Clouds 5 999 81 10000 5.7 230 06:46 11.12.2019
6511 Clouds 5 999 81 10000 5.7 230 06:25 11.12.2019
6512 Clouds 6 999 81 10000 6.7 230 05:56 11.12.2019
6513 Clouds 6 999 81 10000 6.7 230 05:36 11.12.2019
6514 Clouds 7 1000 70 10000 7.7 230 04:55 11.12.2019
6515 Clouds 8 1000 75 10000 7.2 230 03:41 11.12.2019
6516 Clouds 8 1000 70 10000 9.8 230 02:39 11.12.2019
6517 Clouds 9 999 70 10000 10.8 230 01:22 11.12.2019
6518 Clouds 10 999 61 10000 9.8 200 00:45 11.12.2019
6519 Clouds 10 999 61 10000 9.8 200 00:21 11.12.2019
6520 Clouds 10 999 53 10000 11.8 200 23:46 10.12.2019
6521 Clouds 11 999 53 10000 11.8 200 23:27 10.12.2019
6522 Clouds 12 998 53 10000 12.9 230 22:57 10.12.2019
6523 Clouds 12 998 53 10000 12.9 230 22:39 10.12.2019
6524 Clouds 12 998 53 10000 12.9 230 22:21 10.12.2019
6525 Clouds 12 998 57 10000 13.9 230 21:55 10.12.2019
6526 Clouds 12 998 57 10000 13.9 230 21:37 10.12.2019
6527 Clouds 12 998 57 10000 13.9 230 21:18 10.12.2019
6528 Clouds 12 998 57 10000 13.9 230 20:56 10.12.2019
6529 Clouds 12 998 57 10000 13.9 230 20:37 10.12.2019
6530 Clouds 12 998 57 10000 13.9 230 20:18 10.12.2019
6531 Clouds 11 998 57 10000 15.4 230 19:54 10.12.2019
6532 Clouds 11 998 57 10000 15.4 230 19:36 10.12.2019
6533 Clouds 11 998 57 10000 15.4 230 19:36 10.12.2019
6534 Clouds 11 998 57 10000 15.4 230 19:18 10.12.2019
6535 Clouds 11 997 61 10000 15.9 230 18:39 10.12.2019
6536 Clouds 11 997 61 10000 15.9 230 18:39 10.12.2019
6537 Clouds 11 997 61 10000 15.9 230 18:20 10.12.2019
6538 Clouds 11 996 61 10000 15.9 230 17:57 10.12.2019
6539 Clouds 11 996 61 10000 15.9 230 17:39 10.12.2019
6540 Clouds 11 996 61 10000 15.9 230 17:20 10.12.2019
6541 Clouds 10 996 66 10000 13.4 230 16:43 10.12.2019
6542 Clouds 10 996 66 10000 13.4 230 16:20 10.12.2019
6543 Clouds 10 995 75 10000 16.5 230 15:59 10.12.2019
6544 Clouds 10 995 75 10000 16.5 230 15:37 10.12.2019
6545 Clouds 10 995 75 10000 16.5 230 15:18 10.12.2019
6546 Clouds 8 995 81 10000 15.4 230 14:55 10.12.2019
6547 Clouds 8 995 81 10000 15.4 230 14:37 10.12.2019
6548 Clouds 8 995 81 10000 15.4 230 14:19 10.12.2019
6549 Drizzle 7 995 86 10000 14.9 230 13:56 10.12.2019
6550 Drizzle 7 995 86 10000 14.9 230 13:38 10.12.2019
6551 Drizzle 7 995 86 10000 14.9 230 13:18 10.12.2019
6552 Rain 7 995 75 10000 11.3 230 12:41 10.12.2019
6553 Rain 7 995 75 10000 11.3 230 12:22 10.12.2019
6554 Drizzle 6 994 80 10000 11.8 230 11:44 10.12.2019
6555 Drizzle 6 994 80 10000 11.8 230 11:25 10.12.2019
6556 Rain 6 994 80 10000 11.8 230 10:57 10.12.2019
6557 Rain 6 994 80 10000 11.8 230 10:39 10.12.2019
6558 Rain 6 994 80 10000 11.8 230 10:39 10.12.2019
6559 Rain 6 994 80 10000 11.8 230 10:21 10.12.2019
6560 Drizzle 6 994 70 10000 12.3 230 09:56 10.12.2019
6561 Drizzle 6 994 70 10000 12.3 230 09:38 10.12.2019
6562 Drizzle 6 994 70 10000 12.3 230 09:38 10.12.2019
6563 Drizzle 6 994 70 10000 12.3 230 09:20 10.12.2019
6564 Drizzle 6 993 70 10000 14.4 230 08:57 10.12.2019
6565 Drizzle 6 993 70 10000 14.4 230 08:38 10.12.2019
6566 Drizzle 6 993 70 10000 14.4 230 08:19 10.12.2019
6567 Clouds 6 993 75 10000 14.4 230 07:44 10.12.2019
6568 Clouds 6 993 75 10000 14.4 230 07:26 10.12.2019
6569 Clouds 6 992 70 10000 10.8 230 06:49 10.12.2019
6570 Clouds 6 992 70 10000 10.8 230 06:24 10.12.2019
6571 Rain 7 991 70 10000 14.9 230 05:55 10.12.2019
6572 Rain 7 990 65 10000 14.4 230 04:58 10.12.2019
6573 Rain 8 990 65 10000 13.4 230 03:47 10.12.2019
6574 Rain 8 988 70 10000 14.9 230 02:48 10.12.2019
6575 Rain 9 987 65 10000 17 230 01:51 10.12.2019
6576 Rain 9 987 65 10000 17 230 01:26 10.12.2019
6577 Rain 8 986 70 10000 19 230 00:49 10.12.2019
6578 Rain 11 986 70 10000 19 230 00:24 10.12.2019
6579 Rain 11 985 61 10000 17 230 23:43 09.12.2019
6580 Rain 11 985 61 10000 17 230 23:24 09.12.2019
6581 Drizzle 11 984 76 10000 16.5 230 22:59 09.12.2019
6582 Drizzle 11 984 76 10000 16.5 230 22:40 09.12.2019
6583 Drizzle 11 984 76 10000 16.5 230 22:21 09.12.2019
6584 Drizzle 11 984 76 10000 13.9 230 21:58 09.12.2019
6585 Drizzle 11 984 76 10000 13.9 230 21:39 09.12.2019
6586 Drizzle 11 984 76 10000 13.9 230 21:19 09.12.2019
6587 Drizzle 10 983 76 10000 14.9 230 20:57 09.12.2019
6588 Drizzle 10 983 76 10000 14.9 230 20:39 09.12.2019
6589 Drizzle 10 983 76 10000 14.9 230 20:20 09.12.2019
6590 Rain 10 982 71 10000 12.3 200 19:57 09.12.2019
6591 Rain 10 982 71 10000 12.3 200 19:39 09.12.2019
6592 Rain 10 982 71 10000 12.3 200 19:20 09.12.2019
6593 Rain 10 982 71 10000 12.3 200 19:20 09.12.2019
6594 Rain 10 982 71 10000 12.3 200 19:20 09.12.2019
6595 Drizzle 13 981 66 10000 10.8 200 18:59 09.12.2019
6596 Drizzle 13 981 66 10000 10.8 200 18:40 09.12.2019
6597 Drizzle 13 981 66 10000 10.8 200 18:20 09.12.2019
6598 Clouds 13 981 58 10000 3.1 200 17:59 09.12.2019
6599 Clouds 13 981 58 10000 3.1 200 17:59 09.12.2019
6600 Clouds 13 981 58 10000 3.1 200 17:41 09.12.2019
6601 Clouds 13 981 58 10000 3.1 200 17:21 09.12.2019
6602 Drizzle 13 981 62 10000 5.1 230 16:57 09.12.2019
6603 Drizzle 13 981 62 10000 5.1 230 16:39 09.12.2019
6604 Drizzle 13 981 62 10000 5.1 230 16:20 09.12.2019
6605 -273 0 0 0 0 0 15:56 09.12.2019
6606 Clouds 13 982 71 10000 4.1 322 15:38 09.12.2019
6607 Clouds 13 982 71 10000 4.1 322 15:19 09.12.2019
6608 Clouds 12 982 87 10000 4.1 322 14:59 09.12.2019
6609 Clouds 12 982 87 10000 4.1 322 14:40 09.12.2019
6610 Clouds 12 982 87 10000 1.08 275 14:18 09.12.2019
6611 Clouds 12 983 81 10000 1.08 275 13:55 09.12.2019
6612 Clouds 12 983 81 10000 1.08 275 13:36 09.12.2019
6613 Clouds 12 983 81 10000 2.44 279 13:18 09.12.2019
6614 Clouds 8 983 81 10000 2.44 279 12:54 09.12.2019
6615 Clouds 8 983 81 10000 2.44 279 12:36 09.12.2019
6616 Clouds 8 983 81 10000 2.44 279 12:18 09.12.2019
6617 Clouds 7 984 93 10000 2.44 279 11:40 09.12.2019
6618 Clouds 7 984 93 10000 1.1 359 11:22 09.12.2019
6619 Drizzle 7 985 93 10000 1.1 359 10:59 09.12.2019
6620 Drizzle 7 985 93 10000 1.1 359 10:39 09.12.2019
6621 Drizzle 7 985 93 10000 1.1 359 10:39 09.12.2019
6622 Drizzle 7 985 93 10000 1.1 359 10:19 09.12.2019
6623 Rain 7 985 93 10000 1.5 270 09:45 09.12.2019
6624 Rain 7 985 93 10000 1.5 270 09:25 09.12.2019
6625 Rain 7 986 93 10000 1.5 360 08:57 09.12.2019
6626 Rain 7 986 93 10000 1.5 360 08:39 09.12.2019
6627 Rain 7 986 93 10000 1.5 360 08:21 09.12.2019
6628 Rain 7 986 93 10000 1.46 347 07:52 09.12.2019
6629 Rain 7 986 93 10000 1.46 347 07:33 09.12.2019
6630 Rain 7 986 93 10000 1.46 347 07:33 09.12.2019
6631 Rain 6 987 93 10000 2.6 90 06:58 09.12.2019
6632 Rain 6 987 93 10000 2.6 90 06:31 09.12.2019
6633 Rain 7 988 93 10000 3.6 90 05:48 09.12.2019
6634 Rain 7 988 93 10000 3.6 90 05:23 09.12.2019
6635 Rain 7 990 87 10000 1.5 50 04:28 09.12.2019
6636 Rain 7 992 87 10000 3.6 50 02:29 09.12.2019
6637 Drizzle 7 993 87 10000 4.1 50 01:47 09.12.2019
6638 Drizzle 7 994 87 10000 6.2 70 00:59 09.12.2019
6639 Drizzle 7 994 87 10000 6.2 70 00:33 09.12.2019
6640 Drizzle 9 995 66 10000 2.1 230 23:57 08.12.2019
6641 Drizzle 9 995 66 10000 2.1 230 23:37 08.12.2019
6642 Drizzle 9 995 66 10000 2.1 230 23:19 08.12.2019
6643 Rain 10 996 57 10000 3.1 180 22:56 08.12.2019
6644 Rain 10 996 57 10000 3.1 180 22:38 08.12.2019
6645 Rain 10 996 57 10000 3.1 180 22:18 08.12.2019
6646 Rain 10 996 53 10000 3.6 230 21:56 08.12.2019
6647 Rain 10 996 53 10000 3.6 230 21:37 08.12.2019
6648 Rain 11 996 53 10000 3.6 230 21:19 08.12.2019
6649 Rain 11 997 71 10000 3.6 230 20:56 08.12.2019
6650 Rain 11 997 71 10000 3.6 230 20:37 08.12.2019
6651 Rain 11 997 71 10000 3.6 230 20:19 08.12.2019
6652 Clouds 10 998 70 10000 3.6 230 19:55 08.12.2019
6653 Clouds 10 998 70 10000 3.6 230 19:37 08.12.2019
6654 Clouds 10 998 70 10000 3.6 230 19:19 08.12.2019
6655 Clouds 10 998 70 10000 5.7 230 18:55 08.12.2019
6656 Clouds 10 998 70 10000 5.7 230 18:36 08.12.2019
6657 Clouds 10 998 70 10000 5.7 230 18:36 08.12.2019
6658 Clouds 10 998 70 10000 5.7 230 18:18 08.12.2019
6659 Clouds 9 999 75 10000 7.7 230 17:55 08.12.2019
6660 Clouds 9 999 75 10000 7.7 230 17:37 08.12.2019
6661 Clouds 9 999 75 10000 7.7 230 17:19 08.12.2019
6662 Clouds 9 1000 70 10000 6.7 230 16:55 08.12.2019
6663 Clouds 9 1000 70 10000 6.7 230 16:37 08.12.2019
6664 Clouds 9 1000 70 10000 6.7 230 16:18 08.12.2019
6665 Clouds 8 1000 65 10000 8.7 230 15:38 08.12.2019
6666 Clouds 8 1000 65 10000 8.7 230 15:19 08.12.2019
6667 Clouds 8 1000 65 10000 8.7 230 15:19 08.12.2019
6668 Clouds 7 1000 70 10000 9.8 230 14:58 08.12.2019
6669 Clouds 7 1000 70 10000 9.8 230 14:39 08.12.2019
6670 Clouds 7 1000 70 10000 9.8 230 14:39 08.12.2019
6671 Clouds 7 1000 70 10000 9.8 230 14:21 08.12.2019
6672 Clouds 8 1000 65 10000 11.3 230 13:54 08.12.2019
6673 Clouds 8 1000 65 10000 11.3 230 13:36 08.12.2019
6674 Clouds 8 1000 65 10000 11.3 230 13:18 08.12.2019
6675 Rain 7 1000 70 10000 10.8 230 12:42 08.12.2019
6676 Rain 7 1000 70 10000 10.8 230 12:23 08.12.2019
6677 Rain 7 1000 72 10000 12.9 230 12:00 08.12.2019
6678 Clouds 5 1000 72 0 3.47 260 11:38 08.12.2019
6679 Rain 6 1000 75 10000 12.9 230 11:19 08.12.2019
6680 Rain 6 1000 75 10000 12.9 230 10:58 08.12.2019
6681 Rain 6 1000 75 10000 12.9 230 10:38 08.12.2019
6682 Rain 6 1000 75 10000 12.9 230 10:19 08.12.2019
6683 Rain 6 1000 75 10000 14.9 230 09:56 08.12.2019
6684 Rain 6 1000 75 10000 14.9 230 09:37 08.12.2019
6685 Rain 6 1000 75 10000 14.9 230 09:19 08.12.2019